<?xml version='1.0' encoding='UTF-8'?><gpx version="1.1" creator="JPX - https://github.com/jenetics/jpx" xmlns="http://www.topografix.com/GPX/1/1"><trk><trkseg><trkpt lat="45.7877517" lon="8.8754894"><ele>355.4</ele><time>2026-04-26T08:36:26.004Z</time></trkpt><trkpt lat="45.7876666" lon="8.8755303"><ele>354.8</ele><time>2026-04-26T08:36:29.004Z</time></trkpt><trkpt lat="45.7875667" lon="8.8755588"><ele>354.2</ele><time>2026-04-26T08:36:31.005Z</time></trkpt><trkpt lat="45.7874539" lon="8.8755843"><ele>353.59999999999997</ele><time>2026-04-26T08:36:33.004Z</time></trkpt><trkpt lat="45.7873394" lon="8.8756237"><ele>353.0</ele><time>2026-04-26T08:36:35.005Z</time></trkpt><trkpt lat="45.7872487" lon="8.875654"><ele>353.0</ele><time>2026-04-26T08:36:37.005Z</time></trkpt><trkpt lat="45.7871623" lon="8.8756757"><ele>353.0</ele><time>2026-04-26T08:36:39.003Z</time></trkpt><trkpt lat="45.787095" lon="8.8756765"><ele>353.0</ele><time>2026-04-26T08:36:41.005Z</time></trkpt><trkpt lat="45.787019" lon="8.8755611"><ele>353.0</ele><time>2026-04-26T08:36:44.004Z</time></trkpt><trkpt lat="45.7870013" lon="8.8754697"><ele>353.0</ele><time>2026-04-26T08:36:45.005Z</time></trkpt><trkpt lat="45.7869784" lon="8.8753675"><ele>353.0</ele><time>2026-04-26T08:36:46.005Z</time></trkpt><trkpt lat="45.7869572" lon="8.8752457"><ele>353.0</ele><time>2026-04-26T08:36:47.003Z</time></trkpt><trkpt lat="45.7869344" lon="8.8751089"><ele>353.0</ele><time>2026-04-26T08:36:48.004Z</time></trkpt><trkpt lat="45.7869101" lon="8.8749612"><ele>353.0</ele><time>2026-04-26T08:36:49.004Z</time></trkpt><trkpt lat="45.7868856" lon="8.8747995"><ele>353.0</ele><time>2026-04-26T08:36:50.004Z</time></trkpt><trkpt lat="45.786859" lon="8.8746405"><ele>353.0</ele><time>2026-04-26T08:36:51.004Z</time></trkpt><trkpt lat="45.7868383" lon="8.8744708"><ele>351.79999999999995</ele><time>2026-04-26T08:36:52.005Z</time></trkpt><trkpt lat="45.786817" lon="8.8743127"><ele>350.6</ele><time>2026-04-26T08:36:53.005Z</time></trkpt><trkpt lat="45.7867929" lon="8.8741775"><ele>349.4</ele><time>2026-04-26T08:36:54.004Z</time></trkpt><trkpt lat="45.7867635" lon="8.8740516"><ele>348.20000000000005</ele><time>2026-04-26T08:36:55.004Z</time></trkpt><trkpt lat="45.7867492" lon="8.8739246"><ele>347.0</ele><time>2026-04-26T08:36:56.005Z</time></trkpt><trkpt lat="45.7867476" lon="8.8737831"><ele>346.8</ele><time>2026-04-26T08:36:57.004Z</time></trkpt><trkpt lat="45.7867489" lon="8.8736401"><ele>346.6</ele><time>2026-04-26T08:36:58.005Z</time></trkpt><trkpt lat="45.7867359" lon="8.8734922"><ele>346.40000000000003</ele><time>2026-04-26T08:36:59.005Z</time></trkpt><trkpt lat="45.7867175" lon="8.873344"><ele>346.20000000000005</ele><time>2026-04-26T08:37:00.005Z</time></trkpt><trkpt lat="45.7867064" lon="8.873193"><ele>346.0</ele><time>2026-04-26T08:37:01.005Z</time></trkpt><trkpt lat="45.7867021" lon="8.8730441"><ele>345.6</ele><time>2026-04-26T08:37:02.005Z</time></trkpt><trkpt lat="45.7867107" lon="8.8728919"><ele>345.20000000000005</ele><time>2026-04-26T08:37:03.005Z</time></trkpt><trkpt lat="45.7867303" lon="8.87274"><ele>344.79999999999995</ele><time>2026-04-26T08:37:04.004Z</time></trkpt><trkpt lat="45.7867544" lon="8.8725837"><ele>344.4</ele><time>2026-04-26T08:37:05.005Z</time></trkpt><trkpt lat="45.7867779" lon="8.8724316"><ele>344.0</ele><time>2026-04-26T08:37:06.005Z</time></trkpt><trkpt lat="45.7867934" lon="8.8722979"><ele>343.5</ele><time>2026-04-26T08:37:07.004Z</time></trkpt><trkpt lat="45.7867965" lon="8.8721795"><ele>343.0</ele><time>2026-04-26T08:37:08.004Z</time></trkpt><trkpt lat="45.7868077" lon="8.8720849"><ele>342.5</ele><time>2026-04-26T08:37:09.004Z</time></trkpt><trkpt lat="45.7868051" lon="8.8719069"><ele>342.0</ele><time>2026-04-26T08:37:11.004Z</time></trkpt><trkpt lat="45.7867732" lon="8.8718118"><ele>341.5</ele><time>2026-04-26T08:37:12.004Z</time></trkpt><trkpt lat="45.7867307" lon="8.871707"><ele>341.0</ele><time>2026-04-26T08:37:13.005Z</time></trkpt><trkpt lat="45.7866968" lon="8.8716072"><ele>340.83333333333337</ele><time>2026-04-26T08:37:14.004Z</time></trkpt><trkpt lat="45.7866712" lon="8.871505"><ele>340.6666666666667</ele><time>2026-04-26T08:37:15.004Z</time></trkpt><trkpt lat="45.7866756" lon="8.8714071"><ele>340.5</ele><time>2026-04-26T08:37:16.005Z</time></trkpt><trkpt lat="45.7867079" lon="8.8713162"><ele>340.3333333333333</ele><time>2026-04-26T08:37:17.004Z</time></trkpt><trkpt lat="45.7867647" lon="8.8712357"><ele>340.16666666666663</ele><time>2026-04-26T08:37:18.005Z</time></trkpt><trkpt lat="45.786831" lon="8.8711578"><ele>340.0</ele><time>2026-04-26T08:37:19.003Z</time></trkpt><trkpt lat="45.7869111" lon="8.8710837"><ele>340.0</ele><time>2026-04-26T08:37:20.003Z</time></trkpt><trkpt lat="45.7869989" lon="8.8710185"><ele>340.0</ele><time>2026-04-26T08:37:21.002Z</time></trkpt><trkpt lat="45.7870924" lon="8.8709622"><ele>340.0</ele><time>2026-04-26T08:37:22.002Z</time></trkpt><trkpt lat="45.7871924" lon="8.8709103"><ele>340.0</ele><time>2026-04-26T08:37:23.002Z</time></trkpt><trkpt lat="45.7872971" lon="8.8708556"><ele>340.0</ele><time>2026-04-26T08:37:24.003Z</time></trkpt><trkpt lat="45.7874132" lon="8.8707998"><ele>340.0</ele><time>2026-04-26T08:37:25.002Z</time></trkpt><trkpt lat="45.7875285" lon="8.870731"><ele>340.0</ele><time>2026-04-26T08:37:26.002Z</time></trkpt><trkpt lat="45.787636" lon="8.8706604"><ele>340.0</ele><time>2026-04-26T08:37:27.002Z</time></trkpt><trkpt lat="45.7877333" lon="8.8705772"><ele>340.0</ele><time>2026-04-26T08:37:28.003Z</time></trkpt><trkpt lat="45.7878207" lon="8.870486"><ele>340.0</ele><time>2026-04-26T08:37:29.004Z</time></trkpt><trkpt lat="45.7879087" lon="8.8703829"><ele>340.0</ele><time>2026-04-26T08:37:30.003Z</time></trkpt><trkpt lat="45.7879871" lon="8.8702809"><ele>340.0</ele><time>2026-04-26T08:37:31.002Z</time></trkpt><trkpt lat="45.7880542" lon="8.8701857"><ele>340.0</ele><time>2026-04-26T08:37:32.003Z</time></trkpt><trkpt lat="45.7880906" lon="8.870073"><ele>340.0</ele><time>2026-04-26T08:37:33.002Z</time></trkpt><trkpt lat="45.7880908" lon="8.8699415"><ele>339.8</ele><time>2026-04-26T08:37:34.003Z</time></trkpt><trkpt lat="45.7880783" lon="8.8698026"><ele>339.6</ele><time>2026-04-26T08:37:35.003Z</time></trkpt><trkpt lat="45.7880578" lon="8.8696477"><ele>339.4</ele><time>2026-04-26T08:37:36.003Z</time></trkpt><trkpt lat="45.7880393" lon="8.8694857"><ele>339.2</ele><time>2026-04-26T08:37:37.003Z</time></trkpt><trkpt lat="45.7880353" lon="8.8693182"><ele>339.0</ele><time>2026-04-26T08:37:38.003Z</time></trkpt><trkpt lat="45.7880264" lon="8.8691407"><ele>338.75</ele><time>2026-04-26T08:37:39.002Z</time></trkpt><trkpt lat="45.7880203" lon="8.8689597"><ele>338.5</ele><time>2026-04-26T08:37:40.003Z</time></trkpt><trkpt lat="45.7880048" lon="8.8687715"><ele>338.25</ele><time>2026-04-26T08:37:41.002Z</time></trkpt><trkpt lat="45.7879825" lon="8.8685874"><ele>338.0</ele><time>2026-04-26T08:37:42.002Z</time></trkpt><trkpt lat="45.7879579" lon="8.8684026"><ele>337.5</ele><time>2026-04-26T08:37:43.003Z</time></trkpt><trkpt lat="45.7879305" lon="8.8682168"><ele>337.0</ele><time>2026-04-26T08:37:44.002Z</time></trkpt><trkpt lat="45.7879014" lon="8.8680464"><ele>336.5</ele><time>2026-04-26T08:37:45.004Z</time></trkpt><trkpt lat="45.7878704" lon="8.8678851"><ele>336.0</ele><time>2026-04-26T08:37:46.003Z</time></trkpt><trkpt lat="45.7878448" lon="8.867739"><ele>336.0</ele><time>2026-04-26T08:37:47.003Z</time></trkpt><trkpt lat="45.787824" lon="8.8676197"><ele>336.0</ele><time>2026-04-26T08:37:48.004Z</time></trkpt><trkpt lat="45.7877897" lon="8.8674884"><ele>336.0</ele><time>2026-04-26T08:37:50.003Z</time></trkpt><trkpt lat="45.7877329" lon="8.8674461"><ele>336.0</ele><time>2026-04-26T08:37:52.003Z</time></trkpt><trkpt lat="45.7876558" lon="8.8674652"><ele>336.0</ele><time>2026-04-26T08:37:54.004Z</time></trkpt><trkpt lat="45.7875736" lon="8.8674972"><ele>336.0</ele><time>2026-04-26T08:37:55.004Z</time></trkpt><trkpt lat="45.787476" lon="8.8675364"><ele>336.0</ele><time>2026-04-26T08:37:56.004Z</time></trkpt><trkpt lat="45.7873682" lon="8.8675751"><ele>336.0</ele><time>2026-04-26T08:37:57.004Z</time></trkpt><trkpt lat="45.7872502" lon="8.8676139"><ele>336.0</ele><time>2026-04-26T08:37:58.004Z</time></trkpt><trkpt lat="45.7871211" lon="8.8676505"><ele>336.0</ele><time>2026-04-26T08:37:59.004Z</time></trkpt><trkpt lat="45.7870072" lon="8.8676969"><ele>336.0</ele><time>2026-04-26T08:38:00.004Z</time></trkpt><trkpt lat="45.7868971" lon="8.8677322"><ele>336.0</ele><time>2026-04-26T08:38:01.003Z</time></trkpt><trkpt lat="45.7868041" lon="8.8677593"><ele>336.0</ele><time>2026-04-26T08:38:02.004Z</time></trkpt><trkpt lat="45.7867148" lon="8.8677624"><ele>336.0</ele><time>2026-04-26T08:38:03.003Z</time></trkpt><trkpt lat="45.7866369" lon="8.8677361"><ele>336.0</ele><time>2026-04-26T08:38:04.003Z</time></trkpt><trkpt lat="45.7865477" lon="8.8676784"><ele>335.0</ele><time>2026-04-26T08:38:05.003Z</time></trkpt><trkpt lat="45.7864752" lon="8.8675937"><ele>334.0</ele><time>2026-04-26T08:38:06.003Z</time></trkpt><trkpt lat="45.7864109" lon="8.8675009"><ele>333.0</ele><time>2026-04-26T08:38:07.003Z</time></trkpt><trkpt lat="45.7863721" lon="8.867385"><ele>332.0</ele><time>2026-04-26T08:38:08.003Z</time></trkpt><trkpt lat="45.7863636" lon="8.8672464"><ele>331.0</ele><time>2026-04-26T08:38:09.004Z</time></trkpt><trkpt lat="45.7863677" lon="8.8670903"><ele>331.0</ele><time>2026-04-26T08:38:10.003Z</time></trkpt><trkpt lat="45.7863804" lon="8.8669223"><ele>331.0</ele><time>2026-04-26T08:38:11.004Z</time></trkpt><trkpt lat="45.7863977" lon="8.8667559"><ele>331.0</ele><time>2026-04-26T08:38:12.004Z</time></trkpt><trkpt lat="45.786417" lon="8.8665978"><ele>331.0</ele><time>2026-04-26T08:38:13.003Z</time></trkpt><trkpt lat="45.7864288" lon="8.866441"><ele>330.0</ele><time>2026-04-26T08:38:14.004Z</time></trkpt><trkpt lat="45.7864478" lon="8.866298"><ele>329.0</ele><time>2026-04-26T08:38:15.004Z</time></trkpt><trkpt lat="45.7864559" lon="8.8661618"><ele>328.0</ele><time>2026-04-26T08:38:16.003Z</time></trkpt><trkpt lat="45.7864382" lon="8.8660419"><ele>327.0</ele><time>2026-04-26T08:38:17.002Z</time></trkpt><trkpt lat="45.7863878" lon="8.8659519"><ele>326.0</ele><time>2026-04-26T08:38:18.002Z</time></trkpt><trkpt lat="45.7863162" lon="8.8658835"><ele>325.0</ele><time>2026-04-26T08:38:19.004Z</time></trkpt><trkpt lat="45.7862298" lon="8.8658674"><ele>325.0</ele><time>2026-04-26T08:38:20.003Z</time></trkpt><trkpt lat="45.7861411" lon="8.8658985"><ele>325.0</ele><time>2026-04-26T08:38:21.004Z</time></trkpt><trkpt lat="45.786079" lon="8.8659816"><ele>325.0</ele><time>2026-04-26T08:38:22.003Z</time></trkpt><trkpt lat="45.7860445" lon="8.8661016"><ele>325.0</ele><time>2026-04-26T08:38:23.003Z</time></trkpt><trkpt lat="45.7860327" lon="8.8662441"><ele>325.0</ele><time>2026-04-26T08:38:24.004Z</time></trkpt><trkpt lat="45.7860162" lon="8.8664073"><ele>322.5</ele><time>2026-04-26T08:38:25.002Z</time></trkpt><trkpt lat="45.7859874" lon="8.8665823"><ele>320.0</ele><time>2026-04-26T08:38:26.004Z</time></trkpt><trkpt lat="45.7859431" lon="8.8667534"><ele>317.5</ele><time>2026-04-26T08:38:27.004Z</time></trkpt><trkpt lat="45.785892" lon="8.8669144"><ele>315.0</ele><time>2026-04-26T08:38:28.003Z</time></trkpt><trkpt lat="45.7858133" lon="8.8670622"><ele>315.0</ele><time>2026-04-26T08:38:29.003Z</time></trkpt><trkpt lat="45.7857299" lon="8.8672211"><ele>315.0</ele><time>2026-04-26T08:38:30.003Z</time></trkpt><trkpt lat="45.7856114" lon="8.8673639"><ele>315.0</ele><time>2026-04-26T08:38:31.003Z</time></trkpt><trkpt lat="45.785492" lon="8.8675222"><ele>312.6666666666667</ele><time>2026-04-26T08:38:32.003Z</time></trkpt><trkpt lat="45.7853845" lon="8.8676775"><ele>310.33333333333337</ele><time>2026-04-26T08:38:33.003Z</time></trkpt><trkpt lat="45.7852751" lon="8.8678302"><ele>308.0</ele><time>2026-04-26T08:38:34.004Z</time></trkpt><trkpt lat="45.785174" lon="8.8679791"><ele>308.0</ele><time>2026-04-26T08:38:35.003Z</time></trkpt><trkpt lat="45.7850638" lon="8.8681116"><ele>308.0</ele><time>2026-04-26T08:38:36.004Z</time></trkpt><trkpt lat="45.7849485" lon="8.8682271"><ele>308.0</ele><time>2026-04-26T08:38:37.004Z</time></trkpt><trkpt lat="45.7848271" lon="8.8683263"><ele>308.0</ele><time>2026-04-26T08:38:38.003Z</time></trkpt><trkpt lat="45.7846872" lon="8.8683857"><ele>305.33333333333337</ele><time>2026-04-26T08:38:39.004Z</time></trkpt><trkpt lat="45.7845399" lon="8.868448"><ele>302.6666666666667</ele><time>2026-04-26T08:38:40.002Z</time></trkpt><trkpt lat="45.7843806" lon="8.8684995"><ele>300.0</ele><time>2026-04-26T08:38:41.003Z</time></trkpt><trkpt lat="45.7842138" lon="8.868558"><ele>300.0</ele><time>2026-04-26T08:38:42.004Z</time></trkpt><trkpt lat="45.7840479" lon="8.8686135"><ele>300.0</ele><time>2026-04-26T08:38:43.003Z</time></trkpt><trkpt lat="45.7838861" lon="8.8686783"><ele>300.0</ele><time>2026-04-26T08:38:44.004Z</time></trkpt><trkpt lat="45.7837301" lon="8.8687724"><ele>300.0</ele><time>2026-04-26T08:38:45.004Z</time></trkpt><trkpt lat="45.783571" lon="8.8688915"><ele>300.0</ele><time>2026-04-26T08:38:46.004Z</time></trkpt><trkpt lat="45.7834094" lon="8.8690485"><ele>300.0</ele><time>2026-04-26T08:38:47.004Z</time></trkpt><trkpt lat="45.7832399" lon="8.869212"><ele>298.3333333333333</ele><time>2026-04-26T08:38:48.004Z</time></trkpt><trkpt lat="45.7830607" lon="8.8693819"><ele>296.66666666666663</ele><time>2026-04-26T08:38:49.003Z</time></trkpt><trkpt lat="45.7828725" lon="8.8695472"><ele>295.0</ele><time>2026-04-26T08:38:50.003Z</time></trkpt><trkpt lat="45.7826789" lon="8.8697215"><ele>292.0</ele><time>2026-04-26T08:38:51.003Z</time></trkpt><trkpt lat="45.7824817" lon="8.8699074"><ele>289.0</ele><time>2026-04-26T08:38:52.003Z</time></trkpt><trkpt lat="45.7822774" lon="8.8700979"><ele>290.5</ele><time>2026-04-26T08:38:53.004Z</time></trkpt><trkpt lat="45.782074" lon="8.8702947"><ele>292.0</ele><time>2026-04-26T08:38:54.003Z</time></trkpt><trkpt lat="45.781867" lon="8.8704887"><ele>289.0</ele><time>2026-04-26T08:38:55.003Z</time></trkpt><trkpt lat="45.7816615" lon="8.8706847"><ele>286.0</ele><time>2026-04-26T08:38:56.003Z</time></trkpt><trkpt lat="45.781454" lon="8.8708801"><ele>285.5</ele><time>2026-04-26T08:38:57.004Z</time></trkpt><trkpt lat="45.7812532" lon="8.8710765"><ele>285.0</ele><time>2026-04-26T08:38:58.003Z</time></trkpt><trkpt lat="45.7810546" lon="8.8712717"><ele>285.0</ele><time>2026-04-26T08:38:59.003Z</time></trkpt><trkpt lat="45.780856" lon="8.8714613"><ele>285.0</ele><time>2026-04-26T08:39:00.002Z</time></trkpt><trkpt lat="45.7806636" lon="8.8716456"><ele>284.6666666666667</ele><time>2026-04-26T08:39:01.003Z</time></trkpt><trkpt lat="45.7804779" lon="8.8718165"><ele>284.33333333333337</ele><time>2026-04-26T08:39:02.003Z</time></trkpt><trkpt lat="45.7802919" lon="8.871962"><ele>284.0</ele><time>2026-04-26T08:39:03.002Z</time></trkpt><trkpt lat="45.7800994" lon="8.8720834"><ele>284.0</ele><time>2026-04-26T08:39:04.003Z</time></trkpt><trkpt lat="45.7799051" lon="8.8721766"><ele>284.0</ele><time>2026-04-26T08:39:05.003Z</time></trkpt><trkpt lat="45.7797112" lon="8.8722538"><ele>284.0</ele><time>2026-04-26T08:39:06.003Z</time></trkpt><trkpt lat="45.7795202" lon="8.8723263"><ele>284.33333333333337</ele><time>2026-04-26T08:39:07.003Z</time></trkpt><trkpt lat="45.779333" lon="8.8723848"><ele>284.6666666666667</ele><time>2026-04-26T08:39:08.003Z</time></trkpt><trkpt lat="45.7791514" lon="8.8724356"><ele>285.0</ele><time>2026-04-26T08:39:09.004Z</time></trkpt><trkpt lat="45.7789913" lon="8.8724793"><ele>285.0</ele><time>2026-04-26T08:39:10.002Z</time></trkpt><trkpt lat="45.7788506" lon="8.8725151"><ele>285.0</ele><time>2026-04-26T08:39:11.003Z</time></trkpt><trkpt lat="45.7787329" lon="8.8725146"><ele>285.0</ele><time>2026-04-26T08:39:12.003Z</time></trkpt><trkpt lat="45.7786399" lon="8.8724623"><ele>285.0</ele><time>2026-04-26T08:39:13.003Z</time></trkpt><trkpt lat="45.7785887" lon="8.8723688"><ele>285.0</ele><time>2026-04-26T08:39:14.002Z</time></trkpt><trkpt lat="45.7785685" lon="8.8722333"><ele>285.0</ele><time>2026-04-26T08:39:15.003Z</time></trkpt><trkpt lat="45.7785715" lon="8.8720597"><ele>285.0</ele><time>2026-04-26T08:39:16.003Z</time></trkpt><trkpt lat="45.7785579" lon="8.8718829"><ele>285.0</ele><time>2026-04-26T08:39:17.003Z</time></trkpt><trkpt lat="45.7785063" lon="8.8717449"><ele>285.0</ele><time>2026-04-26T08:39:18.004Z</time></trkpt><trkpt lat="45.7784276" lon="8.8716449"><ele>285.0</ele><time>2026-04-26T08:39:19.004Z</time></trkpt><trkpt lat="45.7783147" lon="8.871578"><ele>285.0</ele><time>2026-04-26T08:39:20.004Z</time></trkpt><trkpt lat="45.778185" lon="8.8715096"><ele>285.0</ele><time>2026-04-26T08:39:21.003Z</time></trkpt><trkpt lat="45.7780488" lon="8.8714435"><ele>285.0</ele><time>2026-04-26T08:39:22.004Z</time></trkpt><trkpt lat="45.7779186" lon="8.8713806"><ele>285.0</ele><time>2026-04-26T08:39:23.004Z</time></trkpt><trkpt lat="45.7778008" lon="8.8713193"><ele>285.0</ele><time>2026-04-26T08:39:24.004Z</time></trkpt><trkpt lat="45.7777031" lon="8.8712656"><ele>285.0</ele><time>2026-04-26T08:39:25.002Z</time></trkpt><trkpt lat="45.7776247" lon="8.871212"><ele>285.0</ele><time>2026-04-26T08:39:26.002Z</time></trkpt><trkpt lat="45.7775742" lon="8.8711568"><ele>285.0</ele><time>2026-04-26T08:39:27.004Z</time></trkpt><trkpt lat="45.7775264" lon="8.8710579"><ele>284.8</ele><time>2026-04-26T08:39:29.004Z</time></trkpt><trkpt lat="45.7774949" lon="8.8709159"><ele>284.6</ele><time>2026-04-26T08:39:32.004Z</time></trkpt><trkpt lat="45.7775264" lon="8.8707449"><ele>284.4</ele><time>2026-04-26T08:39:34.002Z</time></trkpt><trkpt lat="45.7775785" lon="8.8706639"><ele>284.2</ele><time>2026-04-26T08:39:35.003Z</time></trkpt><trkpt lat="45.777651" lon="8.8706012"><ele>284.0</ele><time>2026-04-26T08:39:36.004Z</time></trkpt><trkpt lat="45.7777365" lon="8.87057"><ele>283.8</ele><time>2026-04-26T08:39:37.004Z</time></trkpt><trkpt lat="45.7778295" lon="8.8705906"><ele>283.59999999999997</ele><time>2026-04-26T08:39:38.003Z</time></trkpt><trkpt lat="45.7779274" lon="8.8706148"><ele>283.4</ele><time>2026-04-26T08:39:39.002Z</time></trkpt><trkpt lat="45.7780387" lon="8.8706148"><ele>283.2</ele><time>2026-04-26T08:39:40.003Z</time></trkpt><trkpt lat="45.7781431" lon="8.8705944"><ele>283.0</ele><time>2026-04-26T08:39:41.004Z</time></trkpt><trkpt lat="45.7782428" lon="8.8705562"><ele>283.0</ele><time>2026-04-26T08:39:42.004Z</time></trkpt><trkpt lat="45.7783395" lon="8.8705031"><ele>283.0</ele><time>2026-04-26T08:39:43.003Z</time></trkpt><trkpt lat="45.7784373" lon="8.8704455"><ele>283.0</ele><time>2026-04-26T08:39:44.004Z</time></trkpt><trkpt lat="45.7785372" lon="8.8703895"><ele>283.0</ele><time>2026-04-26T08:39:45.003Z</time></trkpt><trkpt lat="45.7786391" lon="8.8703296"><ele>283.0</ele><time>2026-04-26T08:39:46.003Z</time></trkpt><trkpt lat="45.7787449" lon="8.8702677"><ele>282.5</ele><time>2026-04-26T08:39:47.002Z</time></trkpt><trkpt lat="45.778853" lon="8.8702"><ele>282.0</ele><time>2026-04-26T08:39:48.004Z</time></trkpt><trkpt lat="45.7789663" lon="8.8701338"><ele>281.5</ele><time>2026-04-26T08:39:49.003Z</time></trkpt><trkpt lat="45.7790814" lon="8.8700617"><ele>281.0</ele><time>2026-04-26T08:39:50.002Z</time></trkpt><trkpt lat="45.7791989" lon="8.8699879"><ele>281.0</ele><time>2026-04-26T08:39:51.003Z</time></trkpt><trkpt lat="45.7793235" lon="8.869914"><ele>281.0</ele><time>2026-04-26T08:39:52.002Z</time></trkpt><trkpt lat="45.7794513" lon="8.8698439"><ele>281.0</ele><time>2026-04-26T08:39:53.003Z</time></trkpt><trkpt lat="45.7795807" lon="8.8697745"><ele>281.0</ele><time>2026-04-26T08:39:54.003Z</time></trkpt><trkpt lat="45.7797057" lon="8.8697084"><ele>281.25</ele><time>2026-04-26T08:39:55.003Z</time></trkpt><trkpt lat="45.7798306" lon="8.8696435"><ele>281.5</ele><time>2026-04-26T08:39:56.004Z</time></trkpt><trkpt lat="45.7799519" lon="8.869576"><ele>281.75</ele><time>2026-04-26T08:39:57.002Z</time></trkpt><trkpt lat="45.7800736" lon="8.8695081"><ele>282.0</ele><time>2026-04-26T08:39:58.004Z</time></trkpt><trkpt lat="45.7801934" lon="8.8694476"><ele>282.0</ele><time>2026-04-26T08:39:59.004Z</time></trkpt><trkpt lat="45.7803081" lon="8.8693924"><ele>282.0</ele><time>2026-04-26T08:40:00.003Z</time></trkpt><trkpt lat="45.7804236" lon="8.8693379"><ele>282.0</ele><time>2026-04-26T08:40:01.003Z</time></trkpt><trkpt lat="45.7805435" lon="8.8692788"><ele>282.0</ele><time>2026-04-26T08:40:02.004Z</time></trkpt><trkpt lat="45.7806797" lon="8.8692131"><ele>282.0</ele><time>2026-04-26T08:40:03.003Z</time></trkpt><trkpt lat="45.7808237" lon="8.8691456"><ele>282.0</ele><time>2026-04-26T08:40:04.004Z</time></trkpt><trkpt lat="45.780981" lon="8.8690733"><ele>282.0</ele><time>2026-04-26T08:40:05.004Z</time></trkpt><trkpt lat="45.7811505" lon="8.8689989"><ele>282.3333333333333</ele><time>2026-04-26T08:40:06.003Z</time></trkpt><trkpt lat="45.7813233" lon="8.8689205"><ele>282.66666666666663</ele><time>2026-04-26T08:40:07.003Z</time></trkpt><trkpt lat="45.7815017" lon="8.868833"><ele>283.0</ele><time>2026-04-26T08:40:08.002Z</time></trkpt><trkpt lat="45.7816805" lon="8.8687391"><ele>284.0</ele><time>2026-04-26T08:40:09.004Z</time></trkpt><trkpt lat="45.7818616" lon="8.8686444"><ele>285.0</ele><time>2026-04-26T08:40:10.004Z</time></trkpt><trkpt lat="45.7820421" lon="8.8685363"><ele>286.0</ele><time>2026-04-26T08:40:11.004Z</time></trkpt><trkpt lat="45.7822265" lon="8.8684192"><ele>286.3333333333333</ele><time>2026-04-26T08:40:12.004Z</time></trkpt><trkpt lat="45.7824113" lon="8.8682994"><ele>286.6666666666667</ele><time>2026-04-26T08:40:13.004Z</time></trkpt><trkpt lat="45.7825916" lon="8.8681789"><ele>287.0</ele><time>2026-04-26T08:40:14.004Z</time></trkpt><trkpt lat="45.7827611" lon="8.8680555"><ele>287.0</ele><time>2026-04-26T08:40:15.004Z</time></trkpt><trkpt lat="45.7829273" lon="8.8679252"><ele>287.0</ele><time>2026-04-26T08:40:16.003Z</time></trkpt><trkpt lat="45.7830916" lon="8.8677937"><ele>287.0</ele><time>2026-04-26T08:40:17.002Z</time></trkpt><trkpt lat="45.7832533" lon="8.8676584"><ele>287.33333333333337</ele><time>2026-04-26T08:40:18.003Z</time></trkpt><trkpt lat="45.7834151" lon="8.8675195"><ele>287.6666666666667</ele><time>2026-04-26T08:40:19.003Z</time></trkpt><trkpt lat="45.7835783" lon="8.8673763"><ele>288.0</ele><time>2026-04-26T08:40:20.004Z</time></trkpt><trkpt lat="45.7837409" lon="8.8672332"><ele>288.0</ele><time>2026-04-26T08:40:21.003Z</time></trkpt><trkpt lat="45.7839051" lon="8.8670894"><ele>288.0</ele><time>2026-04-26T08:40:22.003Z</time></trkpt><trkpt lat="45.7840699" lon="8.8669511"><ele>288.0</ele><time>2026-04-26T08:40:23.002Z</time></trkpt><trkpt lat="45.7842298" lon="8.8668134"><ele>289.3333333333333</ele><time>2026-04-26T08:40:24.003Z</time></trkpt><trkpt lat="45.784391" lon="8.8666814"><ele>290.66666666666663</ele><time>2026-04-26T08:40:25.004Z</time></trkpt><trkpt lat="45.7845483" lon="8.8665461"><ele>292.0</ele><time>2026-04-26T08:40:26.004Z</time></trkpt><trkpt lat="45.7847046" lon="8.8664121"><ele>292.0</ele><time>2026-04-26T08:40:27.003Z</time></trkpt><trkpt lat="45.7848628" lon="8.8662767"><ele>292.0</ele><time>2026-04-26T08:40:28.003Z</time></trkpt><trkpt lat="45.785022" lon="8.8661376"><ele>292.0</ele><time>2026-04-26T08:40:29.004Z</time></trkpt><trkpt lat="45.7851833" lon="8.8659947"><ele>294.0</ele><time>2026-04-26T08:40:30.004Z</time></trkpt><trkpt lat="45.7853471" lon="8.865851"><ele>296.0</ele><time>2026-04-26T08:40:31.004Z</time></trkpt><trkpt lat="45.7855121" lon="8.8657049"><ele>298.0</ele><time>2026-04-26T08:40:32.004Z</time></trkpt><trkpt lat="45.7856772" lon="8.8655594"><ele>298.0</ele><time>2026-04-26T08:40:33.004Z</time></trkpt><trkpt lat="45.7858491" lon="8.8654112"><ele>298.0</ele><time>2026-04-26T08:40:34.004Z</time></trkpt><trkpt lat="45.7860206" lon="8.86526"><ele>298.0</ele><time>2026-04-26T08:40:35.002Z</time></trkpt><trkpt lat="45.786194" lon="8.8651105"><ele>299.66666666666663</ele><time>2026-04-26T08:40:36.004Z</time></trkpt><trkpt lat="45.7863627" lon="8.8649663"><ele>301.3333333333333</ele><time>2026-04-26T08:40:37.003Z</time></trkpt><trkpt lat="45.78653" lon="8.8648247"><ele>303.0</ele><time>2026-04-26T08:40:38.003Z</time></trkpt><trkpt lat="45.7866925" lon="8.8646793"><ele>302.6666666666667</ele><time>2026-04-26T08:40:39.002Z</time></trkpt><trkpt lat="45.7868554" lon="8.8645344"><ele>302.33333333333337</ele><time>2026-04-26T08:40:40.003Z</time></trkpt><trkpt lat="45.7870181" lon="8.8643918"><ele>302.0</ele><time>2026-04-26T08:40:41.003Z</time></trkpt><trkpt lat="45.78718" lon="8.8642467"><ele>302.0</ele><time>2026-04-26T08:40:42.004Z</time></trkpt><trkpt lat="45.7873404" lon="8.8641043"><ele>302.0</ele><time>2026-04-26T08:40:43.002Z</time></trkpt><trkpt lat="45.7875055" lon="8.8639649"><ele>302.0</ele><time>2026-04-26T08:40:44.002Z</time></trkpt><trkpt lat="45.787666" lon="8.8638209"><ele>304.33333333333337</ele><time>2026-04-26T08:40:45.001Z</time></trkpt><trkpt lat="45.7878286" lon="8.8636789"><ele>306.6666666666667</ele><time>2026-04-26T08:40:46.001Z</time></trkpt><trkpt lat="45.7879909" lon="8.8635325"><ele>309.0</ele><time>2026-04-26T08:40:47.003Z</time></trkpt><trkpt lat="45.7881547" lon="8.8633935"><ele>306.0</ele><time>2026-04-26T08:40:48.002Z</time></trkpt><trkpt lat="45.7883208" lon="8.8632442"><ele>303.0</ele><time>2026-04-26T08:40:49.002Z</time></trkpt><trkpt lat="45.7884908" lon="8.8631026"><ele>300.0</ele><time>2026-04-26T08:40:50.002Z</time></trkpt><trkpt lat="45.7886615" lon="8.8629507"><ele>300.0</ele><time>2026-04-26T08:40:51.001Z</time></trkpt><trkpt lat="45.7888388" lon="8.8628093"><ele>300.0</ele><time>2026-04-26T08:40:52.003Z</time></trkpt><trkpt lat="45.7890112" lon="8.8626622"><ele>300.0</ele><time>2026-04-26T08:40:53.003Z</time></trkpt><trkpt lat="45.7891858" lon="8.8625253"><ele>299.6666666666667</ele><time>2026-04-26T08:40:54.003Z</time></trkpt><trkpt lat="45.7893605" lon="8.8623942"><ele>299.33333333333337</ele><time>2026-04-26T08:40:55.001Z</time></trkpt><trkpt lat="45.7895383" lon="8.8622677"><ele>299.0</ele><time>2026-04-26T08:40:56.002Z</time></trkpt><trkpt lat="45.7897184" lon="8.8621523"><ele>299.0</ele><time>2026-04-26T08:40:57.002Z</time></trkpt><trkpt lat="45.789905" lon="8.8620526"><ele>299.0</ele><time>2026-04-26T08:40:58.001Z</time></trkpt><trkpt lat="45.7900961" lon="8.8619642"><ele>299.0</ele><time>2026-04-26T08:40:59.002Z</time></trkpt><trkpt lat="45.7902926" lon="8.8618909"><ele>299.6666666666667</ele><time>2026-04-26T08:41:00.002Z</time></trkpt><trkpt lat="45.7904906" lon="8.8618318"><ele>300.3333333333333</ele><time>2026-04-26T08:41:01.003Z</time></trkpt><trkpt lat="45.7906944" lon="8.8617882"><ele>301.0</ele><time>2026-04-26T08:41:02.003Z</time></trkpt><trkpt lat="45.7908966" lon="8.8617569"><ele>299.66666666666663</ele><time>2026-04-26T08:41:03.002Z</time></trkpt><trkpt lat="45.7910998" lon="8.8617462"><ele>298.3333333333333</ele><time>2026-04-26T08:41:04.002Z</time></trkpt><trkpt lat="45.7913033" lon="8.8617545"><ele>297.0</ele><time>2026-04-26T08:41:05.002Z</time></trkpt><trkpt lat="45.7915059" lon="8.8617683"><ele>301.3333333333333</ele><time>2026-04-26T08:41:06.002Z</time></trkpt><trkpt lat="45.7917115" lon="8.8618069"><ele>305.66666666666663</ele><time>2026-04-26T08:41:07.002Z</time></trkpt><trkpt lat="45.7919132" lon="8.8618618"><ele>310.0</ele><time>2026-04-26T08:41:08.002Z</time></trkpt><trkpt lat="45.7921088" lon="8.8619365"><ele>310.66666666666663</ele><time>2026-04-26T08:41:09.003Z</time></trkpt><trkpt lat="45.792303" lon="8.862024"><ele>311.3333333333333</ele><time>2026-04-26T08:41:10.003Z</time></trkpt><trkpt lat="45.7924917" lon="8.8621277"><ele>312.0</ele><time>2026-04-26T08:41:11.001Z</time></trkpt><trkpt lat="45.7926702" lon="8.8622486"><ele>308.0</ele><time>2026-04-26T08:41:12.003Z</time></trkpt><trkpt lat="45.7928528" lon="8.8623913"><ele>304.0</ele><time>2026-04-26T08:41:13.003Z</time></trkpt><trkpt lat="45.7930221" lon="8.8625358"><ele>300.0</ele><time>2026-04-26T08:41:14.002Z</time></trkpt><trkpt lat="45.7931861" lon="8.8626862"><ele>299.3333333333333</ele><time>2026-04-26T08:41:15.002Z</time></trkpt><trkpt lat="45.7933475" lon="8.8628493"><ele>298.66666666666663</ele><time>2026-04-26T08:41:16.001Z</time></trkpt><trkpt lat="45.7935048" lon="8.8630194"><ele>298.0</ele><time>2026-04-26T08:41:17.002Z</time></trkpt><trkpt lat="45.7936594" lon="8.8631976"><ele>298.0</ele><time>2026-04-26T08:41:18.002Z</time></trkpt><trkpt lat="45.7938134" lon="8.8633782"><ele>298.0</ele><time>2026-04-26T08:41:19.001Z</time></trkpt><trkpt lat="45.7939649" lon="8.8635676"><ele>298.0</ele><time>2026-04-26T08:41:20.002Z</time></trkpt><trkpt lat="45.7941143" lon="8.8637593"><ele>298.3333333333333</ele><time>2026-04-26T08:41:21.002Z</time></trkpt><trkpt lat="45.794263" lon="8.8639528"><ele>298.6666666666667</ele><time>2026-04-26T08:41:22.002Z</time></trkpt><trkpt lat="45.7944079" lon="8.8641411"><ele>299.0</ele><time>2026-04-26T08:41:23.003Z</time></trkpt><trkpt lat="45.7945568" lon="8.8643312"><ele>303.6666666666667</ele><time>2026-04-26T08:41:24.003Z</time></trkpt><trkpt lat="45.7947054" lon="8.8645172"><ele>308.3333333333333</ele><time>2026-04-26T08:41:25.002Z</time></trkpt><trkpt lat="45.7948474" lon="8.8647017"><ele>313.0</ele><time>2026-04-26T08:41:26.002Z</time></trkpt><trkpt lat="45.7949922" lon="8.8648825"><ele>313.0</ele><time>2026-04-26T08:41:27.003Z</time></trkpt><trkpt lat="45.7951394" lon="8.8650625"><ele>313.0</ele><time>2026-04-26T08:41:28.003Z</time></trkpt><trkpt lat="45.7952817" lon="8.8652425"><ele>313.0</ele><time>2026-04-26T08:41:29.002Z</time></trkpt><trkpt lat="45.7954363" lon="8.8654211"><ele>312.66666666666663</ele><time>2026-04-26T08:41:30.001Z</time></trkpt><trkpt lat="45.7955942" lon="8.8655826"><ele>312.3333333333333</ele><time>2026-04-26T08:41:31.003Z</time></trkpt><trkpt lat="45.7957616" lon="8.8657298"><ele>312.0</ele><time>2026-04-26T08:41:32.001Z</time></trkpt><trkpt lat="45.7959244" lon="8.8658704"><ele>310.0</ele><time>2026-04-26T08:41:33.002Z</time></trkpt><trkpt lat="45.7960992" lon="8.8660038"><ele>308.0</ele><time>2026-04-26T08:41:34.003Z</time></trkpt><trkpt lat="45.7962737" lon="8.8661216"><ele>306.0</ele><time>2026-04-26T08:41:35.003Z</time></trkpt><trkpt lat="45.7964526" lon="8.8662303"><ele>306.0</ele><time>2026-04-26T08:41:36.002Z</time></trkpt><trkpt lat="45.7966298" lon="8.8663146"><ele>306.0</ele><time>2026-04-26T08:41:37.001Z</time></trkpt><trkpt lat="45.7968083" lon="8.8663736"><ele>306.0</ele><time>2026-04-26T08:41:38.002Z</time></trkpt><trkpt lat="45.7969872" lon="8.8664305"><ele>311.6666666666667</ele><time>2026-04-26T08:41:39.003Z</time></trkpt><trkpt lat="45.7971671" lon="8.8664765"><ele>317.33333333333337</ele><time>2026-04-26T08:41:40.002Z</time></trkpt><trkpt lat="45.7973542" lon="8.8665094"><ele>323.0</ele><time>2026-04-26T08:41:41.003Z</time></trkpt><trkpt lat="45.7975281" lon="8.8665363"><ele>316.0</ele><time>2026-04-26T08:41:42.001Z</time></trkpt><trkpt lat="45.7977035" lon="8.8665615"><ele>309.0</ele><time>2026-04-26T08:41:43.002Z</time></trkpt><trkpt lat="45.8009703" lon="8.8661237"><ele>308.0</ele><time>2026-04-26T08:42:00.002Z</time></trkpt><trkpt lat="45.8011243" lon="8.8660195"><ele>307.0</ele><time>2026-04-26T08:42:01.003Z</time></trkpt><trkpt lat="45.8012686" lon="8.8658915"><ele>306.0</ele><time>2026-04-26T08:42:02.002Z</time></trkpt><trkpt lat="45.8014071" lon="8.8657689"><ele>306.0</ele><time>2026-04-26T08:42:03.003Z</time></trkpt><trkpt lat="45.8015503" lon="8.8656433"><ele>306.0</ele><time>2026-04-26T08:42:04.002Z</time></trkpt><trkpt lat="45.8016921" lon="8.8655124"><ele>306.0</ele><time>2026-04-26T08:42:05.001Z</time></trkpt><trkpt lat="45.8018285" lon="8.8653883"><ele>306.0</ele><time>2026-04-26T08:42:06.002Z</time></trkpt><trkpt lat="45.8019614" lon="8.8652744"><ele>306.0</ele><time>2026-04-26T08:42:07.002Z</time></trkpt><trkpt lat="45.8020832" lon="8.8651671"><ele>306.0</ele><time>2026-04-26T08:42:08.002Z</time></trkpt><trkpt lat="45.8021977" lon="8.8650809"><ele>306.0</ele><time>2026-04-26T08:42:09.003Z</time></trkpt><trkpt lat="45.8023015" lon="8.8650129"><ele>305.40000000000003</ele><time>2026-04-26T08:42:10.002Z</time></trkpt><trkpt lat="45.8024053" lon="8.8649686"><ele>304.8</ele><time>2026-04-26T08:42:11.003Z</time></trkpt><trkpt lat="45.8024989" lon="8.8649484"><ele>304.20000000000005</ele><time>2026-04-26T08:42:12.003Z</time></trkpt><trkpt lat="45.8025884" lon="8.8649602"><ele>303.6</ele><time>2026-04-26T08:42:13.003Z</time></trkpt><trkpt lat="45.8026702" lon="8.8650081"><ele>303.0</ele><time>2026-04-26T08:42:14.001Z</time></trkpt><trkpt lat="45.8027429" lon="8.8650896"><ele>307.8</ele><time>2026-04-26T08:42:15.002Z</time></trkpt><trkpt lat="45.8028005" lon="8.8651996"><ele>312.6</ele><time>2026-04-26T08:42:16.002Z</time></trkpt><trkpt lat="45.8028363" lon="8.8653278"><ele>317.40000000000003</ele><time>2026-04-26T08:42:17.002Z</time></trkpt><trkpt lat="45.8028478" lon="8.8654718"><ele>322.20000000000005</ele><time>2026-04-26T08:42:18.003Z</time></trkpt><trkpt lat="45.8028303" lon="8.8656107"><ele>327.0</ele><time>2026-04-26T08:42:19.003Z</time></trkpt><trkpt lat="45.8027799" lon="8.8657325"><ele>327.0</ele><time>2026-04-26T08:42:20.003Z</time></trkpt><trkpt lat="45.8026983" lon="8.8658257"><ele>327.0</ele><time>2026-04-26T08:42:21.002Z</time></trkpt><trkpt lat="45.802601" lon="8.8658849"><ele>327.0</ele><time>2026-04-26T08:42:22.001Z</time></trkpt><trkpt lat="45.8024927" lon="8.8658956"><ele>327.0</ele><time>2026-04-26T08:42:23.002Z</time></trkpt><trkpt lat="45.8023894" lon="8.8658672"><ele>327.0</ele><time>2026-04-26T08:42:24.002Z</time></trkpt><trkpt lat="45.8022935" lon="8.8657912"><ele>321.75</ele><time>2026-04-26T08:42:25.003Z</time></trkpt><trkpt lat="45.8022129" lon="8.8656764"><ele>316.5</ele><time>2026-04-26T08:42:26.002Z</time></trkpt><trkpt lat="45.8021401" lon="8.8655337"><ele>311.25</ele><time>2026-04-26T08:42:27.003Z</time></trkpt><trkpt lat="45.8020984" lon="8.8653668"><ele>306.0</ele><time>2026-04-26T08:42:28.003Z</time></trkpt><trkpt lat="45.8020649" lon="8.8652031"><ele>305.25</ele><time>2026-04-26T08:42:29.003Z</time></trkpt><trkpt lat="45.8020618" lon="8.865026"><ele>304.5</ele><time>2026-04-26T08:42:30.002Z</time></trkpt><trkpt lat="45.8020939" lon="8.8648285"><ele>303.75</ele><time>2026-04-26T08:42:31.003Z</time></trkpt><trkpt lat="45.8021362" lon="8.8646385"><ele>303.0</ele><time>2026-04-26T08:42:32.001Z</time></trkpt><trkpt lat="45.8021997" lon="8.8644523"><ele>303.5</ele><time>2026-04-26T08:42:33.002Z</time></trkpt><trkpt lat="45.8022717" lon="8.8642761"><ele>304.0</ele><time>2026-04-26T08:42:34.003Z</time></trkpt><trkpt lat="45.8023464" lon="8.8641"><ele>304.5</ele><time>2026-04-26T08:42:35.003Z</time></trkpt><trkpt lat="45.8024189" lon="8.8639307"><ele>305.0</ele><time>2026-04-26T08:42:36.002Z</time></trkpt><trkpt lat="45.8024705" lon="8.8637621"><ele>305.0</ele><time>2026-04-26T08:42:37.002Z</time></trkpt><trkpt lat="45.8025339" lon="8.8635993"><ele>305.0</ele><time>2026-04-26T08:42:38.002Z</time></trkpt><trkpt lat="45.8026071" lon="8.8634593"><ele>305.0</ele><time>2026-04-26T08:42:39.001Z</time></trkpt><trkpt lat="45.8026859" lon="8.8633323"><ele>305.0</ele><time>2026-04-26T08:42:40.002Z</time></trkpt><trkpt lat="45.8027786" lon="8.8632212"><ele>306.25</ele><time>2026-04-26T08:42:41.002Z</time></trkpt><trkpt lat="45.8028806" lon="8.8631279"><ele>307.5</ele><time>2026-04-26T08:42:42.002Z</time></trkpt><trkpt lat="45.8029908" lon="8.8630591"><ele>308.75</ele><time>2026-04-26T08:42:43.003Z</time></trkpt><trkpt lat="45.8031094" lon="8.8630174"><ele>310.0</ele><time>2026-04-26T08:42:44.003Z</time></trkpt><trkpt lat="45.803235" lon="8.862995"><ele>310.0</ele><time>2026-04-26T08:42:45.001Z</time></trkpt><trkpt lat="45.8033765" lon="8.8629864"><ele>310.0</ele><time>2026-04-26T08:42:46.001Z</time></trkpt><trkpt lat="45.8035197" lon="8.8629759"><ele>310.0</ele><time>2026-04-26T08:42:47.002Z</time></trkpt><trkpt lat="45.8036705" lon="8.8629714"><ele>310.0</ele><time>2026-04-26T08:42:48.003Z</time></trkpt><trkpt lat="45.8038207" lon="8.8629695"><ele>308.0</ele><time>2026-04-26T08:42:49.003Z</time></trkpt><trkpt lat="45.8039815" lon="8.8629569"><ele>306.0</ele><time>2026-04-26T08:42:50.002Z</time></trkpt><trkpt lat="45.8041367" lon="8.8629531"><ele>304.0</ele><time>2026-04-26T08:42:51.002Z</time></trkpt><trkpt lat="45.8042911" lon="8.8629516"><ele>303.66666666666663</ele><time>2026-04-26T08:42:52.002Z</time></trkpt><trkpt lat="45.8044486" lon="8.8629742"><ele>303.3333333333333</ele><time>2026-04-26T08:42:53.001Z</time></trkpt><trkpt lat="45.8046073" lon="8.8630191"><ele>303.0</ele><time>2026-04-26T08:42:54.003Z</time></trkpt><trkpt lat="45.8047637" lon="8.8630938"><ele>303.0</ele><time>2026-04-26T08:42:55.002Z</time></trkpt><trkpt lat="45.8049193" lon="8.8632031"><ele>303.0</ele><time>2026-04-26T08:42:56.003Z</time></trkpt><trkpt lat="45.8050602" lon="8.8633319"><ele>303.0</ele><time>2026-04-26T08:42:57.003Z</time></trkpt><trkpt lat="45.8051996" lon="8.8634877"><ele>304.0</ele><time>2026-04-26T08:42:58.001Z</time></trkpt><trkpt lat="45.8053282" lon="8.8636662"><ele>305.0</ele><time>2026-04-26T08:42:59.001Z</time></trkpt><trkpt lat="45.8054551" lon="8.8638631"><ele>306.0</ele><time>2026-04-26T08:43:00.003Z</time></trkpt><trkpt lat="45.8055784" lon="8.8640648"><ele>306.0</ele><time>2026-04-26T08:43:01.003Z</time></trkpt><trkpt lat="45.8057111" lon="8.8642493"><ele>306.0</ele><time>2026-04-26T08:43:02.002Z</time></trkpt><trkpt lat="45.8058516" lon="8.8644135"><ele>306.0</ele><time>2026-04-26T08:43:03.003Z</time></trkpt><trkpt lat="45.8060002" lon="8.8645584"><ele>305.6666666666667</ele><time>2026-04-26T08:43:04.002Z</time></trkpt><trkpt lat="45.8061628" lon="8.8646827"><ele>305.33333333333337</ele><time>2026-04-26T08:43:05.002Z</time></trkpt><trkpt lat="45.8063313" lon="8.8647829"><ele>305.0</ele><time>2026-04-26T08:43:06.002Z</time></trkpt><trkpt lat="45.8065089" lon="8.8648561"><ele>305.0</ele><time>2026-04-26T08:43:07.002Z</time></trkpt><trkpt lat="45.8066842" lon="8.8649005"><ele>305.0</ele><time>2026-04-26T08:43:08.002Z</time></trkpt><trkpt lat="45.8068638" lon="8.8649272"><ele>305.0</ele><time>2026-04-26T08:43:09.003Z</time></trkpt><trkpt lat="45.80704" lon="8.8649215"><ele>305.0</ele><time>2026-04-26T08:43:10.003Z</time></trkpt><trkpt lat="45.8072177" lon="8.8648875"><ele>305.0</ele><time>2026-04-26T08:43:11.003Z</time></trkpt><trkpt lat="45.8073848" lon="8.8648325"><ele>305.0</ele><time>2026-04-26T08:43:12.003Z</time></trkpt><trkpt lat="45.8075423" lon="8.8647616"><ele>306.33333333333337</ele><time>2026-04-26T08:43:13.002Z</time></trkpt><trkpt lat="45.807693" lon="8.8646842"><ele>307.6666666666667</ele><time>2026-04-26T08:43:14.003Z</time></trkpt><trkpt lat="45.8078418" lon="8.8646115"><ele>309.0</ele><time>2026-04-26T08:43:15.003Z</time></trkpt><trkpt lat="45.8079748" lon="8.8645407"><ele>309.0</ele><time>2026-04-26T08:43:16.003Z</time></trkpt><trkpt lat="45.8080924" lon="8.8644813"><ele>309.0</ele><time>2026-04-26T08:43:17.003Z</time></trkpt><trkpt lat="45.8081915" lon="8.8644385"><ele>309.0</ele><time>2026-04-26T08:43:18.003Z</time></trkpt><trkpt lat="45.8082654" lon="8.8644207"><ele>309.0</ele><time>2026-04-26T08:43:19.002Z</time></trkpt><trkpt lat="45.8083534" lon="8.8644035"><ele>309.0</ele><time>2026-04-26T08:43:22.003Z</time></trkpt><trkpt lat="45.8084436" lon="8.8644157"><ele>309.59999999999997</ele><time>2026-04-26T08:43:24.003Z</time></trkpt><trkpt lat="45.8085783" lon="8.8644324"><ele>310.2</ele><time>2026-04-26T08:43:26.002Z</time></trkpt><trkpt lat="45.808651" lon="8.8644181"><ele>310.79999999999995</ele><time>2026-04-26T08:43:27.002Z</time></trkpt><trkpt lat="45.8087233" lon="8.8643714"><ele>311.4</ele><time>2026-04-26T08:43:28.002Z</time></trkpt><trkpt lat="45.8087916" lon="8.8643008"><ele>312.0</ele><time>2026-04-26T08:43:29.001Z</time></trkpt><trkpt lat="45.8088535" lon="8.8642182"><ele>310.8</ele><time>2026-04-26T08:43:30.003Z</time></trkpt><trkpt lat="45.8089296" lon="8.8641309"><ele>309.6</ele><time>2026-04-26T08:43:31.002Z</time></trkpt><trkpt lat="45.8090091" lon="8.8640433"><ele>308.40000000000003</ele><time>2026-04-26T08:43:32.002Z</time></trkpt><trkpt lat="45.8090929" lon="8.8639601"><ele>307.2</ele><time>2026-04-26T08:43:33.002Z</time></trkpt><trkpt lat="45.8091836" lon="8.8638885"><ele>306.0</ele><time>2026-04-26T08:43:34.002Z</time></trkpt><trkpt lat="45.80928" lon="8.8638245"><ele>306.6</ele><time>2026-04-26T08:43:35.002Z</time></trkpt><trkpt lat="45.8093768" lon="8.8637521"><ele>307.20000000000005</ele><time>2026-04-26T08:43:36.003Z</time></trkpt><trkpt lat="45.8094812" lon="8.8636797"><ele>307.79999999999995</ele><time>2026-04-26T08:43:37.003Z</time></trkpt><trkpt lat="45.8095793" lon="8.8636034"><ele>308.4</ele><time>2026-04-26T08:43:38.003Z</time></trkpt><trkpt lat="45.8096794" lon="8.8635327"><ele>309.0</ele><time>2026-04-26T08:43:39.002Z</time></trkpt><trkpt lat="45.8097893" lon="8.8634612"><ele>308.75</ele><time>2026-04-26T08:43:40.002Z</time></trkpt><trkpt lat="45.8098952" lon="8.863384"><ele>308.5</ele><time>2026-04-26T08:43:41.002Z</time></trkpt><trkpt lat="45.8100016" lon="8.8633083"><ele>308.25</ele><time>2026-04-26T08:43:42.003Z</time></trkpt><trkpt lat="45.8101103" lon="8.8632317"><ele>308.0</ele><time>2026-04-26T08:43:43.002Z</time></trkpt><trkpt lat="45.8102215" lon="8.8631532"><ele>308.75</ele><time>2026-04-26T08:43:44.001Z</time></trkpt><trkpt lat="45.8103314" lon="8.8630746"><ele>309.5</ele><time>2026-04-26T08:43:45.003Z</time></trkpt><trkpt lat="45.8104414" lon="8.8629955"><ele>310.25</ele><time>2026-04-26T08:43:46.002Z</time></trkpt><trkpt lat="45.8105559" lon="8.8629099"><ele>311.0</ele><time>2026-04-26T08:43:47.002Z</time></trkpt><trkpt lat="45.8106705" lon="8.8628185"><ele>311.0</ele><time>2026-04-26T08:43:48.003Z</time></trkpt><trkpt lat="45.8107816" lon="8.8627152"><ele>311.0</ele><time>2026-04-26T08:43:49.002Z</time></trkpt><trkpt lat="45.8108887" lon="8.8626083"><ele>311.0</ele><time>2026-04-26T08:43:50.003Z</time></trkpt><trkpt lat="45.8109902" lon="8.8625104"><ele>311.0</ele><time>2026-04-26T08:43:51.003Z</time></trkpt><trkpt lat="45.8110902" lon="8.8624116"><ele>310.75</ele><time>2026-04-26T08:43:52.002Z</time></trkpt><trkpt lat="45.8111871" lon="8.8623073"><ele>310.5</ele><time>2026-04-26T08:43:53.003Z</time></trkpt><trkpt lat="45.8112821" lon="8.8622035"><ele>310.25</ele><time>2026-04-26T08:43:54.002Z</time></trkpt><trkpt lat="45.811376" lon="8.8621012"><ele>310.0</ele><time>2026-04-26T08:43:55.001Z</time></trkpt><trkpt lat="45.8114706" lon="8.8619974"><ele>310.0</ele><time>2026-04-26T08:43:56.002Z</time></trkpt><trkpt lat="45.8115629" lon="8.861898"><ele>310.0</ele><time>2026-04-26T08:43:57.002Z</time></trkpt><trkpt lat="45.8116526" lon="8.8617992"><ele>310.0</ele><time>2026-04-26T08:43:58.002Z</time></trkpt><trkpt lat="45.8117465" lon="8.8617131"><ele>310.0</ele><time>2026-04-26T08:43:59.001Z</time></trkpt><trkpt lat="45.8118393" lon="8.8616333"><ele>310.0</ele><time>2026-04-26T08:44:00.002Z</time></trkpt><trkpt lat="45.8119402" lon="8.8615622"><ele>310.2</ele><time>2026-04-26T08:44:01.002Z</time></trkpt><trkpt lat="45.812048" lon="8.8614902"><ele>310.4</ele><time>2026-04-26T08:44:02.001Z</time></trkpt><trkpt lat="45.8121492" lon="8.8614229"><ele>310.6</ele><time>2026-04-26T08:44:03.003Z</time></trkpt><trkpt lat="45.8122382" lon="8.86136"><ele>310.8</ele><time>2026-04-26T08:44:04.002Z</time></trkpt><trkpt lat="45.8123161" lon="8.8613084"><ele>311.0</ele><time>2026-04-26T08:44:05.001Z</time></trkpt><trkpt lat="45.8123907" lon="8.8612688"><ele>311.0</ele><time>2026-04-26T08:44:06.003Z</time></trkpt><trkpt lat="45.8124538" lon="8.861262"><ele>311.0</ele><time>2026-04-26T08:44:07.002Z</time></trkpt><trkpt lat="45.8125658" lon="8.8613083"><ele>311.0</ele><time>2026-04-26T08:44:09.001Z</time></trkpt><trkpt lat="45.8126267" lon="8.8613557"><ele>311.0</ele><time>2026-04-26T08:44:10.002Z</time></trkpt><trkpt lat="45.8126978" lon="8.861388"><ele>311.0</ele><time>2026-04-26T08:44:11.002Z</time></trkpt><trkpt lat="45.8127648" lon="8.8613879"><ele>311.0</ele><time>2026-04-26T08:44:12.002Z</time></trkpt><trkpt lat="45.8128298" lon="8.8613659"><ele>312.83333333333337</ele><time>2026-04-26T08:44:13.002Z</time></trkpt><trkpt lat="45.8128976" lon="8.8613182"><ele>314.6666666666667</ele><time>2026-04-26T08:44:14.002Z</time></trkpt><trkpt lat="45.8129675" lon="8.8612601"><ele>316.5</ele><time>2026-04-26T08:44:15.001Z</time></trkpt><trkpt lat="45.8130451" lon="8.8611963"><ele>318.3333333333333</ele><time>2026-04-26T08:44:16.003Z</time></trkpt><trkpt lat="45.8131167" lon="8.8611288"><ele>320.16666666666663</ele><time>2026-04-26T08:44:17.003Z</time></trkpt><trkpt lat="45.813174" lon="8.861055"><ele>322.0</ele><time>2026-04-26T08:44:18.002Z</time></trkpt><trkpt lat="45.8132214" lon="8.8609721"><ele>321.20000000000005</ele><time>2026-04-26T08:44:19.002Z</time></trkpt><trkpt lat="45.8132694" lon="8.860867"><ele>320.40000000000003</ele><time>2026-04-26T08:44:20.003Z</time></trkpt><trkpt lat="45.8133258" lon="8.8607588"><ele>319.6</ele><time>2026-04-26T08:44:21.002Z</time></trkpt><trkpt lat="45.8134014" lon="8.8606595"><ele>318.8</ele><time>2026-04-26T08:44:22.002Z</time></trkpt><trkpt lat="45.8134895" lon="8.8605746"><ele>318.0</ele><time>2026-04-26T08:44:23.002Z</time></trkpt><trkpt lat="45.8135825" lon="8.8604928"><ele>322.75</ele><time>2026-04-26T08:44:24.002Z</time></trkpt><trkpt lat="45.8136786" lon="8.8604126"><ele>327.5</ele><time>2026-04-26T08:44:25.001Z</time></trkpt><trkpt lat="45.813774" lon="8.8603287"><ele>332.25</ele><time>2026-04-26T08:44:26.001Z</time></trkpt><trkpt lat="45.8138705" lon="8.8602336"><ele>337.0</ele><time>2026-04-26T08:44:27.001Z</time></trkpt><trkpt lat="45.8139661" lon="8.8601286"><ele>337.25</ele><time>2026-04-26T08:44:28.002Z</time></trkpt><trkpt lat="45.8140604" lon="8.8600222"><ele>337.5</ele><time>2026-04-26T08:44:29.001Z</time></trkpt><trkpt lat="45.8141587" lon="8.8599266"><ele>337.75</ele><time>2026-04-26T08:44:30.001Z</time></trkpt><trkpt lat="45.8142528" lon="8.8598194"><ele>338.0</ele><time>2026-04-26T08:44:31.002Z</time></trkpt><trkpt lat="45.8143551" lon="8.8597084"><ele>338.0</ele><time>2026-04-26T08:44:32.001Z</time></trkpt><trkpt lat="45.8144584" lon="8.8595957"><ele>338.0</ele><time>2026-04-26T08:44:33.001Z</time></trkpt><trkpt lat="45.8145676" lon="8.8594707"><ele>338.0</ele><time>2026-04-26T08:44:34.001Z</time></trkpt><trkpt lat="45.8146732" lon="8.8593478"><ele>338.0</ele><time>2026-04-26T08:44:35.001Z</time></trkpt><trkpt lat="45.8147733" lon="8.8592312"><ele>340.5</ele><time>2026-04-26T08:44:36.001Z</time></trkpt><trkpt lat="45.8148833" lon="8.8591219"><ele>343.0</ele><time>2026-04-26T08:44:37.002Z</time></trkpt><trkpt lat="45.8149872" lon="8.8590041"><ele>345.5</ele><time>2026-04-26T08:44:38.002Z</time></trkpt><trkpt lat="45.8150866" lon="8.8588902"><ele>348.0</ele><time>2026-04-26T08:44:39Z</time></trkpt><trkpt lat="45.8151929" lon="8.8587869"><ele>348.0</ele><time>2026-04-26T08:44:40.001Z</time></trkpt><trkpt lat="45.8152951" lon="8.8586772"><ele>348.0</ele><time>2026-04-26T08:44:41.001Z</time></trkpt><trkpt lat="45.8154026" lon="8.8585658"><ele>348.0</ele><time>2026-04-26T08:44:42Z</time></trkpt><trkpt lat="45.8155062" lon="8.8584617"><ele>348.0</ele><time>2026-04-26T08:44:43.001Z</time></trkpt><trkpt lat="45.8156094" lon="8.858356"><ele>349.75</ele><time>2026-04-26T08:44:44.002Z</time></trkpt><trkpt lat="45.8157183" lon="8.8582502"><ele>351.5</ele><time>2026-04-26T08:44:45.002Z</time></trkpt><trkpt lat="45.8158267" lon="8.8581301"><ele>353.25</ele><time>2026-04-26T08:44:46.001Z</time></trkpt><trkpt lat="45.815935" lon="8.858012"><ele>355.0</ele><time>2026-04-26T08:44:47.001Z</time></trkpt><trkpt lat="45.8160399" lon="8.8578907"><ele>355.0</ele><time>2026-04-26T08:44:48.001Z</time></trkpt><trkpt lat="45.8161518" lon="8.85778"><ele>355.0</ele><time>2026-04-26T08:44:49.001Z</time></trkpt><trkpt lat="45.8162566" lon="8.857654"><ele>355.0</ele><time>2026-04-26T08:44:50Z</time></trkpt><trkpt lat="45.816374" lon="8.8575254"><ele>355.0</ele><time>2026-04-26T08:44:51.002Z</time></trkpt><trkpt lat="45.8164879" lon="8.857392"><ele>358.75</ele><time>2026-04-26T08:44:52.001Z</time></trkpt><trkpt lat="45.8166044" lon="8.8572622"><ele>362.5</ele><time>2026-04-26T08:44:53Z</time></trkpt><trkpt lat="45.8167134" lon="8.857125"><ele>366.25</ele><time>2026-04-26T08:44:54.001Z</time></trkpt><trkpt lat="45.8168212" lon="8.8569847"><ele>370.0</ele><time>2026-04-26T08:44:55.001Z</time></trkpt><trkpt lat="45.8169255" lon="8.8568423"><ele>365.0</ele><time>2026-04-26T08:44:56.002Z</time></trkpt><trkpt lat="45.8170326" lon="8.8566894"><ele>360.0</ele><time>2026-04-26T08:44:57.002Z</time></trkpt><trkpt lat="45.8171366" lon="8.8565405"><ele>355.0</ele><time>2026-04-26T08:44:58Z</time></trkpt><trkpt lat="45.8172385" lon="8.8563801"><ele>350.0</ele><time>2026-04-26T08:44:59.001Z</time></trkpt><trkpt lat="45.8173346" lon="8.8562217"><ele>350.0</ele><time>2026-04-26T08:45:00.001Z</time></trkpt><trkpt lat="45.817429" lon="8.8560483"><ele>350.0</ele><time>2026-04-26T08:45:01.001Z</time></trkpt><trkpt lat="45.8175156" lon="8.8558835"><ele>350.0</ele><time>2026-04-26T08:45:02Z</time></trkpt><trkpt lat="45.8175953" lon="8.8557196"><ele>350.0</ele><time>2026-04-26T08:45:03.001Z</time></trkpt><trkpt lat="45.8176732" lon="8.8555558"><ele>349.0</ele><time>2026-04-26T08:45:04.001Z</time></trkpt><trkpt lat="45.8177467" lon="8.8553818"><ele>348.0</ele><time>2026-04-26T08:45:05.001Z</time></trkpt><trkpt lat="45.817821" lon="8.855208"><ele>347.0</ele><time>2026-04-26T08:45:06.001Z</time></trkpt><trkpt lat="45.817893" lon="8.8550189"><ele>346.0</ele><time>2026-04-26T08:45:07.002Z</time></trkpt><trkpt lat="45.8179646" lon="8.8548223"><ele>346.0</ele><time>2026-04-26T08:45:08.001Z</time></trkpt><trkpt lat="45.8180318" lon="8.8546245"><ele>346.0</ele><time>2026-04-26T08:45:09.001Z</time></trkpt><trkpt lat="45.8180962" lon="8.8544202"><ele>346.0</ele><time>2026-04-26T08:45:10.002Z</time></trkpt><trkpt lat="45.8181587" lon="8.854221"><ele>343.0</ele><time>2026-04-26T08:45:11Z</time></trkpt><trkpt lat="45.8182198" lon="8.8540164"><ele>340.0</ele><time>2026-04-26T08:45:12Z</time></trkpt><trkpt lat="45.8182826" lon="8.8538102"><ele>337.0</ele><time>2026-04-26T08:45:13.002Z</time></trkpt><trkpt lat="45.8183362" lon="8.8535972"><ele>335.0</ele><time>2026-04-26T08:45:14.001Z</time></trkpt><trkpt lat="45.8183948" lon="8.8533922"><ele>333.0</ele><time>2026-04-26T08:45:15.001Z</time></trkpt><trkpt lat="45.8184591" lon="8.8531915"><ele>331.0</ele><time>2026-04-26T08:45:16.001Z</time></trkpt><trkpt lat="45.818534" lon="8.8530021"><ele>332.25</ele><time>2026-04-26T08:45:17.002Z</time></trkpt><trkpt lat="45.8186109" lon="8.8528257"><ele>333.5</ele><time>2026-04-26T08:45:18.002Z</time></trkpt><trkpt lat="45.8186923" lon="8.8526688"><ele>334.75</ele><time>2026-04-26T08:45:19.002Z</time></trkpt><trkpt lat="45.8187829" lon="8.8525304"><ele>336.0</ele><time>2026-04-26T08:45:20.002Z</time></trkpt><trkpt lat="45.8188813" lon="8.8524038"><ele>336.0</ele><time>2026-04-26T08:45:21Z</time></trkpt><trkpt lat="45.8189917" lon="8.8522924"><ele>336.0</ele><time>2026-04-26T08:45:22.001Z</time></trkpt><trkpt lat="45.8191135" lon="8.8521996"><ele>336.0</ele><time>2026-04-26T08:45:23.001Z</time></trkpt><trkpt lat="45.8192493" lon="8.8521303"><ele>336.0</ele><time>2026-04-26T08:45:24.002Z</time></trkpt><trkpt lat="45.8193859" lon="8.8520689"><ele>339.3333333333333</ele><time>2026-04-26T08:45:25Z</time></trkpt><trkpt lat="45.8195293" lon="8.8520198"><ele>342.66666666666663</ele><time>2026-04-26T08:45:26Z</time></trkpt><trkpt lat="45.8196788" lon="8.8519781"><ele>346.0</ele><time>2026-04-26T08:45:27.001Z</time></trkpt><trkpt lat="45.819833" lon="8.8519393"><ele>346.0</ele><time>2026-04-26T08:45:28Z</time></trkpt><trkpt lat="45.8199993" lon="8.8519096"><ele>346.0</ele><time>2026-04-26T08:45:29.002Z</time></trkpt><trkpt lat="45.8201655" lon="8.8518723"><ele>346.0</ele><time>2026-04-26T08:45:30.001Z</time></trkpt><trkpt lat="45.8203222" lon="8.851825"><ele>340.66666666666663</ele><time>2026-04-26T08:45:31.002Z</time></trkpt><trkpt lat="45.8204771" lon="8.8517767"><ele>335.3333333333333</ele><time>2026-04-26T08:45:32.002Z</time></trkpt><trkpt lat="45.8206316" lon="8.8517227"><ele>330.0</ele><time>2026-04-26T08:45:33.002Z</time></trkpt><trkpt lat="45.8207757" lon="8.8516545"><ele>330.0</ele><time>2026-04-26T08:45:34.001Z</time></trkpt><trkpt lat="45.820907" lon="8.8515711"><ele>330.0</ele><time>2026-04-26T08:45:35Z</time></trkpt><trkpt lat="45.8210361" lon="8.851486"><ele>330.0</ele><time>2026-04-26T08:45:36Z</time></trkpt><trkpt lat="45.8211538" lon="8.8513836"><ele>330.0</ele><time>2026-04-26T08:45:37.001Z</time></trkpt><trkpt lat="45.8212673" lon="8.851272"><ele>329.0</ele><time>2026-04-26T08:45:38.001Z</time></trkpt><trkpt lat="45.8213736" lon="8.851152"><ele>328.0</ele><time>2026-04-26T08:45:39.001Z</time></trkpt><trkpt lat="45.8214744" lon="8.8510222"><ele>327.0</ele><time>2026-04-26T08:45:40.001Z</time></trkpt><trkpt lat="45.8215579" lon="8.8509014"><ele>326.0</ele><time>2026-04-26T08:45:41.002Z</time></trkpt><trkpt lat="45.8216192" lon="8.8508036"><ele>326.0</ele><time>2026-04-26T08:45:42.002Z</time></trkpt><trkpt lat="45.8216736" lon="8.8507142"><ele>326.0</ele><time>2026-04-26T08:45:43.002Z</time></trkpt><trkpt lat="45.821719" lon="8.8506317"><ele>326.0</ele><time>2026-04-26T08:45:44.002Z</time></trkpt><trkpt lat="45.8217624" lon="8.8505608"><ele>326.0</ele><time>2026-04-26T08:45:45.001Z</time></trkpt><trkpt lat="45.8218357" lon="8.8504454"><ele>326.0</ele><time>2026-04-26T08:45:47.002Z</time></trkpt><trkpt lat="45.8219447" lon="8.8503757"><ele>328.0</ele><time>2026-04-26T08:45:49.002Z</time></trkpt><trkpt lat="45.8220139" lon="8.8503276"><ele>330.0</ele><time>2026-04-26T08:45:50.001Z</time></trkpt><trkpt lat="45.8220775" lon="8.8502648"><ele>332.0</ele><time>2026-04-26T08:45:51Z</time></trkpt><trkpt lat="45.822115" lon="8.8501734"><ele>334.0</ele><time>2026-04-26T08:45:52.001Z</time></trkpt><trkpt lat="45.8221128" lon="8.8500712"><ele>336.0</ele><time>2026-04-26T08:45:53.002Z</time></trkpt><trkpt lat="45.8220694" lon="8.8499801"><ele>338.0</ele><time>2026-04-26T08:45:54.002Z</time></trkpt><trkpt lat="45.8220065" lon="8.8498858"><ele>338.0</ele><time>2026-04-26T08:45:55.001Z</time></trkpt><trkpt lat="45.8219611" lon="8.849763"><ele>338.0</ele><time>2026-04-26T08:45:56.002Z</time></trkpt><trkpt lat="45.821941" lon="8.8496177"><ele>338.0</ele><time>2026-04-26T08:45:57.002Z</time></trkpt><trkpt lat="45.8219427" lon="8.8494407"><ele>338.0</ele><time>2026-04-26T08:45:58.002Z</time></trkpt><trkpt lat="45.8219596" lon="8.8492541"><ele>335.6666666666667</ele><time>2026-04-26T08:45:59.002Z</time></trkpt><trkpt lat="45.8220007" lon="8.8490477"><ele>333.3333333333333</ele><time>2026-04-26T08:46:00.002Z</time></trkpt><trkpt lat="45.8220617" lon="8.8488418"><ele>331.0</ele><time>2026-04-26T08:46:01.001Z</time></trkpt><trkpt lat="45.822143" lon="8.8486469"><ele>331.0</ele><time>2026-04-26T08:46:02.002Z</time></trkpt><trkpt lat="45.822246" lon="8.8484754"><ele>331.0</ele><time>2026-04-26T08:46:03.002Z</time></trkpt><trkpt lat="45.8223688" lon="8.8483207"><ele>331.0</ele><time>2026-04-26T08:46:04.001Z</time></trkpt><trkpt lat="45.8225117" lon="8.8481788"><ele>333.0</ele><time>2026-04-26T08:46:05.001Z</time></trkpt><trkpt lat="45.8226535" lon="8.848037"><ele>335.0</ele><time>2026-04-26T08:46:06Z</time></trkpt><trkpt lat="45.8227886" lon="8.8478806"><ele>337.0</ele><time>2026-04-26T08:46:07.002Z</time></trkpt><trkpt lat="45.8229097" lon="8.8477037"><ele>335.0</ele><time>2026-04-26T08:46:08.002Z</time></trkpt><trkpt lat="45.8230195" lon="8.8475123"><ele>333.0</ele><time>2026-04-26T08:46:09.002Z</time></trkpt><trkpt lat="45.8231076" lon="8.8472971"><ele>331.0</ele><time>2026-04-26T08:46:10.002Z</time></trkpt><trkpt lat="45.8231769" lon="8.847057"><ele>331.0</ele><time>2026-04-26T08:46:11Z</time></trkpt><trkpt lat="45.8232262" lon="8.8467983"><ele>331.0</ele><time>2026-04-26T08:46:12.001Z</time></trkpt><trkpt lat="45.8232655" lon="8.8465405"><ele>331.0</ele><time>2026-04-26T08:46:13Z</time></trkpt><trkpt lat="45.823292" lon="8.8462734"><ele>332.0</ele><time>2026-04-26T08:46:14.002Z</time></trkpt><trkpt lat="45.8233201" lon="8.8460054"><ele>333.0</ele><time>2026-04-26T08:46:15.002Z</time></trkpt><trkpt lat="45.8233477" lon="8.845733"><ele>334.0</ele><time>2026-04-26T08:46:16.002Z</time></trkpt><trkpt lat="45.8233704" lon="8.8454607"><ele>334.66666666666663</ele><time>2026-04-26T08:46:17.001Z</time></trkpt><trkpt lat="45.8233991" lon="8.8451864"><ele>335.3333333333333</ele><time>2026-04-26T08:46:18.001Z</time></trkpt><trkpt lat="45.8234292" lon="8.8449132"><ele>336.0</ele><time>2026-04-26T08:46:19.001Z</time></trkpt><trkpt lat="45.8234728" lon="8.844642"><ele>335.6666666666667</ele><time>2026-04-26T08:46:20Z</time></trkpt><trkpt lat="45.8235305" lon="8.8443804"><ele>335.33333333333337</ele><time>2026-04-26T08:46:21.001Z</time></trkpt><trkpt lat="45.8236037" lon="8.8441262"><ele>335.0</ele><time>2026-04-26T08:46:22.001Z</time></trkpt><trkpt lat="45.8236942" lon="8.8438896"><ele>335.0</ele><time>2026-04-26T08:46:23.002Z</time></trkpt><trkpt lat="45.8238092" lon="8.8436723"><ele>335.0</ele><time>2026-04-26T08:46:24.001Z</time></trkpt><trkpt lat="45.8239446" lon="8.8434843"><ele>335.0</ele><time>2026-04-26T08:46:25.002Z</time></trkpt><trkpt lat="45.8240981" lon="8.8433243"><ele>335.33333333333337</ele><time>2026-04-26T08:46:26.001Z</time></trkpt><trkpt lat="45.8242616" lon="8.84317"><ele>335.6666666666667</ele><time>2026-04-26T08:46:27.001Z</time></trkpt><trkpt lat="45.8244352" lon="8.8430221"><ele>336.0</ele><time>2026-04-26T08:46:28.001Z</time></trkpt><trkpt lat="45.824614" lon="8.8428843"><ele>335.3333333333333</ele><time>2026-04-26T08:46:29Z</time></trkpt><trkpt lat="45.824802" lon="8.842749"><ele>334.66666666666663</ele><time>2026-04-26T08:46:30.002Z</time></trkpt><trkpt lat="45.8249868" lon="8.8426112"><ele>334.0</ele><time>2026-04-26T08:46:31Z</time></trkpt><trkpt lat="45.8251658" lon="8.8424804"><ele>333.66666666666663</ele><time>2026-04-26T08:46:32.001Z</time></trkpt><trkpt lat="45.8253378" lon="8.8423531"><ele>333.3333333333333</ele><time>2026-04-26T08:46:33.001Z</time></trkpt><trkpt lat="45.8255059" lon="8.8422313"><ele>333.0</ele><time>2026-04-26T08:46:34.002Z</time></trkpt><trkpt lat="45.8256807" lon="8.8421105"><ele>333.0</ele><time>2026-04-26T08:46:35.001Z</time></trkpt><trkpt lat="45.825855" lon="8.8419947"><ele>333.0</ele><time>2026-04-26T08:46:36Z</time></trkpt><trkpt lat="45.8260312" lon="8.8418883"><ele>333.0</ele><time>2026-04-26T08:46:37Z</time></trkpt><trkpt lat="45.8262098" lon="8.8417858"><ele>334.6666666666667</ele><time>2026-04-26T08:46:38.001Z</time></trkpt><trkpt lat="45.8263992" lon="8.8417088"><ele>336.33333333333337</ele><time>2026-04-26T08:46:39.001Z</time></trkpt><trkpt lat="45.82659" lon="8.841654"><ele>338.0</ele><time>2026-04-26T08:46:40Z</time></trkpt><trkpt lat="45.8267777" lon="8.841626"><ele>338.6666666666667</ele><time>2026-04-26T08:46:41Z</time></trkpt><trkpt lat="45.8269738" lon="8.8416392"><ele>339.3333333333333</ele><time>2026-04-26T08:46:42.001Z</time></trkpt><trkpt lat="45.827169" lon="8.8416718"><ele>340.0</ele><time>2026-04-26T08:46:43.002Z</time></trkpt><trkpt lat="45.8273659" lon="8.8417319"><ele>340.0</ele><time>2026-04-26T08:46:44.001Z</time></trkpt><trkpt lat="45.8275647" lon="8.8417986"><ele>340.0</ele><time>2026-04-26T08:46:45.002Z</time></trkpt><trkpt lat="45.8277625" lon="8.8418676"><ele>340.0</ele><time>2026-04-26T08:46:46Z</time></trkpt><trkpt lat="45.8279599" lon="8.8419368"><ele>340.3333333333333</ele><time>2026-04-26T08:46:47.002Z</time></trkpt><trkpt lat="45.8281614" lon="8.841996"><ele>340.6666666666667</ele><time>2026-04-26T08:46:48.002Z</time></trkpt><trkpt lat="45.8283644" lon="8.8420407"><ele>341.0</ele><time>2026-04-26T08:46:49.002Z</time></trkpt><trkpt lat="45.8285693" lon="8.8420627"><ele>341.0</ele><time>2026-04-26T08:46:50.002Z</time></trkpt><trkpt lat="45.8287754" lon="8.8420676"><ele>341.0</ele><time>2026-04-26T08:46:51.001Z</time></trkpt><trkpt lat="45.8289856" lon="8.8420442"><ele>341.0</ele><time>2026-04-26T08:46:52.002Z</time></trkpt><trkpt lat="45.829196" lon="8.8420026"><ele>341.0</ele><time>2026-04-26T08:46:53.001Z</time></trkpt><trkpt lat="45.8294043" lon="8.8419401"><ele>341.0</ele><time>2026-04-26T08:46:54.001Z</time></trkpt><trkpt lat="45.8296073" lon="8.841867"><ele>341.0</ele><time>2026-04-26T08:46:55.001Z</time></trkpt><trkpt lat="45.8298167" lon="8.8417984"><ele>340.33333333333337</ele><time>2026-04-26T08:46:56.001Z</time></trkpt><trkpt lat="45.8300238" lon="8.8417264"><ele>339.6666666666667</ele><time>2026-04-26T08:46:57.002Z</time></trkpt><trkpt lat="45.830227" lon="8.8416493"><ele>339.0</ele><time>2026-04-26T08:46:58.002Z</time></trkpt><trkpt lat="45.8304237" lon="8.8415764"><ele>339.0</ele><time>2026-04-26T08:46:59.001Z</time></trkpt><trkpt lat="45.8306202" lon="8.841508"><ele>339.0</ele><time>2026-04-26T08:47:00.002Z</time></trkpt><trkpt lat="45.8308076" lon="8.8414406"><ele>339.0</ele><time>2026-04-26T08:47:01Z</time></trkpt><trkpt lat="45.8309874" lon="8.8413744"><ele>340.3333333333333</ele><time>2026-04-26T08:47:02.001Z</time></trkpt><trkpt lat="45.8311553" lon="8.8413129"><ele>341.66666666666663</ele><time>2026-04-26T08:47:03.001Z</time></trkpt><trkpt lat="45.8313047" lon="8.841255"><ele>343.0</ele><time>2026-04-26T08:47:04.001Z</time></trkpt><trkpt lat="45.8314375" lon="8.8412043"><ele>343.0</ele><time>2026-04-26T08:47:05.002Z</time></trkpt><trkpt lat="45.8315539" lon="8.841166"><ele>343.0</ele><time>2026-04-26T08:47:06.002Z</time></trkpt><trkpt lat="45.8316424" lon="8.8411343"><ele>343.0</ele><time>2026-04-26T08:47:07.002Z</time></trkpt><trkpt lat="45.8317133" lon="8.841125"><ele>343.0</ele><time>2026-04-26T08:47:08Z</time></trkpt><trkpt lat="45.831793" lon="8.841121"><ele>343.0</ele><time>2026-04-26T08:47:09.001Z</time></trkpt><trkpt lat="45.8318886" lon="8.8411517"><ele>343.2</ele><time>2026-04-26T08:47:10.001Z</time></trkpt><trkpt lat="45.8319692" lon="8.8411175"><ele>343.4</ele><time>2026-04-26T08:47:11.001Z</time></trkpt><trkpt lat="45.8320407" lon="8.8410473"><ele>343.59999999999997</ele><time>2026-04-26T08:47:12.002Z</time></trkpt><trkpt lat="45.8321141" lon="8.8409495"><ele>343.79999999999995</ele><time>2026-04-26T08:47:13.002Z</time></trkpt><trkpt lat="45.8322045" lon="8.8408412"><ele>344.0</ele><time>2026-04-26T08:47:14.001Z</time></trkpt><trkpt lat="45.8323127" lon="8.8407406"><ele>344.0</ele><time>2026-04-26T08:47:15.001Z</time></trkpt><trkpt lat="45.8324329" lon="8.8406435"><ele>344.0</ele><time>2026-04-26T08:47:16.001Z</time></trkpt><trkpt lat="45.8325519" lon="8.8405374"><ele>344.0</ele><time>2026-04-26T08:47:17.002Z</time></trkpt><trkpt lat="45.8326799" lon="8.8404247"><ele>344.0</ele><time>2026-04-26T08:47:18Z</time></trkpt><trkpt lat="45.8328033" lon="8.8403047"><ele>345.0</ele><time>2026-04-26T08:47:19.001Z</time></trkpt><trkpt lat="45.8329299" lon="8.8401758"><ele>346.0</ele><time>2026-04-26T08:47:20.001Z</time></trkpt><trkpt lat="45.8330572" lon="8.8400381"><ele>347.0</ele><time>2026-04-26T08:47:21.001Z</time></trkpt><trkpt lat="45.8331793" lon="8.8399067"><ele>347.0</ele><time>2026-04-26T08:47:22Z</time></trkpt><trkpt lat="45.8332941" lon="8.8397781"><ele>347.0</ele><time>2026-04-26T08:47:23Z</time></trkpt><trkpt lat="45.8334042" lon="8.8396452"><ele>347.0</ele><time>2026-04-26T08:47:24Z</time></trkpt><trkpt lat="45.8335119" lon="8.8395182"><ele>347.0</ele><time>2026-04-26T08:47:25.001Z</time></trkpt><trkpt lat="45.833621" lon="8.8393938"><ele>347.0</ele><time>2026-04-26T08:47:26.001Z</time></trkpt><trkpt lat="45.8337288" lon="8.8392684"><ele>347.0</ele><time>2026-04-26T08:47:27Z</time></trkpt><trkpt lat="45.833833" lon="8.8391436"><ele>347.0</ele><time>2026-04-26T08:47:28.001Z</time></trkpt><trkpt lat="45.8339376" lon="8.839019"><ele>347.0</ele><time>2026-04-26T08:47:29.002Z</time></trkpt><trkpt lat="45.8340384" lon="8.8388998"><ele>347.0</ele><time>2026-04-26T08:47:30.002Z</time></trkpt><trkpt lat="45.8341338" lon="8.8387881"><ele>347.0</ele><time>2026-04-26T08:47:31.001Z</time></trkpt><trkpt lat="45.8342187" lon="8.8386827"><ele>347.0</ele><time>2026-04-26T08:47:32Z</time></trkpt><trkpt lat="45.8342984" lon="8.8385978"><ele>347.0</ele><time>2026-04-26T08:47:33Z</time></trkpt><trkpt lat="45.8343871" lon="8.8385325"><ele>347.0</ele><time>2026-04-26T08:47:34.001Z</time></trkpt><trkpt lat="45.8344846" lon="8.8385058"><ele>349.0</ele><time>2026-04-26T08:47:35.002Z</time></trkpt><trkpt lat="45.8345795" lon="8.8384618"><ele>351.0</ele><time>2026-04-26T08:47:36.001Z</time></trkpt><trkpt lat="45.8346552" lon="8.8383827"><ele>353.0</ele><time>2026-04-26T08:47:37Z</time></trkpt><trkpt lat="45.8347166" lon="8.8382732"><ele>355.0</ele><time>2026-04-26T08:47:38Z</time></trkpt><trkpt lat="45.8347675" lon="8.8381493"><ele>357.0</ele><time>2026-04-26T08:47:39.001Z</time></trkpt><trkpt lat="45.8348357" lon="8.8380468"><ele>357.0</ele><time>2026-04-26T08:47:40.001Z</time></trkpt><trkpt lat="45.8349148" lon="8.8379564"><ele>357.0</ele><time>2026-04-26T08:47:41.001Z</time></trkpt><trkpt lat="45.8350037" lon="8.8378836"><ele>357.0</ele><time>2026-04-26T08:47:42Z</time></trkpt><trkpt lat="45.8350946" lon="8.8378248"><ele>357.0</ele><time>2026-04-26T08:47:43Z</time></trkpt><trkpt lat="45.8351894" lon="8.8377706"><ele>357.0</ele><time>2026-04-26T08:47:43.999Z</time></trkpt><trkpt lat="45.835292" lon="8.8377264"><ele>356.25</ele><time>2026-04-26T08:47:45Z</time></trkpt><trkpt lat="45.8354059" lon="8.8376871"><ele>355.5</ele><time>2026-04-26T08:47:46.001Z</time></trkpt><trkpt lat="45.8355254" lon="8.837671"><ele>354.75</ele><time>2026-04-26T08:47:47.001Z</time></trkpt><trkpt lat="45.8356474" lon="8.8376612"><ele>354.0</ele><time>2026-04-26T08:47:48Z</time></trkpt><trkpt lat="45.8357751" lon="8.8376563"><ele>354.0</ele><time>2026-04-26T08:47:49Z</time></trkpt><trkpt lat="45.835903" lon="8.8376591"><ele>354.0</ele><time>2026-04-26T08:47:50Z</time></trkpt><trkpt lat="45.8360315" lon="8.837661"><ele>354.0</ele><time>2026-04-26T08:47:50.999Z</time></trkpt><trkpt lat="45.836164" lon="8.837665"><ele>354.0</ele><time>2026-04-26T08:47:52Z</time></trkpt><trkpt lat="45.8362996" lon="8.837659"><ele>355.0</ele><time>2026-04-26T08:47:53Z</time></trkpt><trkpt lat="45.8364305" lon="8.8376319"><ele>356.0</ele><time>2026-04-26T08:47:54Z</time></trkpt><trkpt lat="45.8365674" lon="8.8375807"><ele>357.0</ele><time>2026-04-26T08:47:55Z</time></trkpt><trkpt lat="45.8367001" lon="8.8375162"><ele>358.0</ele><time>2026-04-26T08:47:56.001Z</time></trkpt><trkpt lat="45.8368286" lon="8.8374214"><ele>362.75</ele><time>2026-04-26T08:47:56.999Z</time></trkpt><trkpt lat="45.8369467" lon="8.8373051"><ele>367.5</ele><time>2026-04-26T08:47:57.999Z</time></trkpt><trkpt lat="45.8370542" lon="8.837163"><ele>372.25</ele><time>2026-04-26T08:47:59.001Z</time></trkpt><trkpt lat="45.8371438" lon="8.8370019"><ele>377.0</ele><time>2026-04-26T08:48:00.001Z</time></trkpt><trkpt lat="45.8372216" lon="8.8368216"><ele>376.25</ele><time>2026-04-26T08:48:01Z</time></trkpt><trkpt lat="45.8372816" lon="8.8366255"><ele>375.5</ele><time>2026-04-26T08:48:02Z</time></trkpt><trkpt lat="45.8373246" lon="8.8364268"><ele>374.75</ele><time>2026-04-26T08:48:03.001Z</time></trkpt><trkpt lat="45.8373631" lon="8.8362207"><ele>374.0</ele><time>2026-04-26T08:48:04.001Z</time></trkpt><trkpt lat="45.8373717" lon="8.8359997"><ele>373.25</ele><time>2026-04-26T08:48:05Z</time></trkpt><trkpt lat="45.8374007" lon="8.8357953"><ele>372.5</ele><time>2026-04-26T08:48:05.999Z</time></trkpt><trkpt lat="45.8374201" lon="8.8355841"><ele>371.75</ele><time>2026-04-26T08:48:07Z</time></trkpt><trkpt lat="45.837449" lon="8.8353825"><ele>371.0</ele><time>2026-04-26T08:48:08.001Z</time></trkpt><trkpt lat="45.8374833" lon="8.8351837"><ele>369.0</ele><time>2026-04-26T08:48:09Z</time></trkpt><trkpt lat="45.8375287" lon="8.8349868"><ele>367.0</ele><time>2026-04-26T08:48:10Z</time></trkpt><trkpt lat="45.8375886" lon="8.8347848"><ele>365.0</ele><time>2026-04-26T08:48:11Z</time></trkpt><trkpt lat="45.8376524" lon="8.8345804"><ele>371.6666666666667</ele><time>2026-04-26T08:48:12Z</time></trkpt><trkpt lat="45.8377195" lon="8.8343767"><ele>378.33333333333337</ele><time>2026-04-26T08:48:13Z</time></trkpt><trkpt lat="45.8377958" lon="8.8341724"><ele>385.0</ele><time>2026-04-26T08:48:14Z</time></trkpt><trkpt lat="45.8378752" lon="8.8339697"><ele>385.0</ele><time>2026-04-26T08:48:15Z</time></trkpt><trkpt lat="45.8379565" lon="8.8337628"><ele>385.0</ele><time>2026-04-26T08:48:16Z</time></trkpt><trkpt lat="45.8380351" lon="8.8335591"><ele>385.0</ele><time>2026-04-26T08:48:17Z</time></trkpt><trkpt lat="45.8381151" lon="8.8333569"><ele>382.6666666666667</ele><time>2026-04-26T08:48:17.999Z</time></trkpt><trkpt lat="45.8381938" lon="8.8331579"><ele>380.33333333333337</ele><time>2026-04-26T08:48:18.999Z</time></trkpt><trkpt lat="45.8382717" lon="8.8329511"><ele>378.0</ele><time>2026-04-26T08:48:20.001Z</time></trkpt><trkpt lat="45.8383502" lon="8.8327434"><ele>381.0</ele><time>2026-04-26T08:48:21Z</time></trkpt><trkpt lat="45.8384284" lon="8.8325315"><ele>384.0</ele><time>2026-04-26T08:48:22Z</time></trkpt><trkpt lat="45.8385067" lon="8.8323296"><ele>387.0</ele><time>2026-04-26T08:48:23Z</time></trkpt><trkpt lat="45.8385846" lon="8.8321249"><ele>387.0</ele><time>2026-04-26T08:48:24Z</time></trkpt><trkpt lat="45.8386581" lon="8.8319149"><ele>387.0</ele><time>2026-04-26T08:48:25.001Z</time></trkpt><trkpt lat="45.8387381" lon="8.8317119"><ele>387.0</ele><time>2026-04-26T08:48:26Z</time></trkpt><trkpt lat="45.838818" lon="8.8315106"><ele>385.3333333333333</ele><time>2026-04-26T08:48:26.999Z</time></trkpt><trkpt lat="45.838901" lon="8.8313118"><ele>383.66666666666663</ele><time>2026-04-26T08:48:28.001Z</time></trkpt><trkpt lat="45.8389804" lon="8.8311204"><ele>382.0</ele><time>2026-04-26T08:48:29Z</time></trkpt><trkpt lat="45.839053" lon="8.8309117"><ele>379.0</ele><time>2026-04-26T08:48:30.001Z</time></trkpt><trkpt lat="45.8391219" lon="8.8307199"><ele>376.0</ele><time>2026-04-26T08:48:31Z</time></trkpt><trkpt lat="45.8391854" lon="8.8305251"><ele>373.0</ele><time>2026-04-26T08:48:32.001Z</time></trkpt><trkpt lat="45.8392445" lon="8.8303239"><ele>371.3333333333333</ele><time>2026-04-26T08:48:33.001Z</time></trkpt><trkpt lat="45.8392915" lon="8.8301192"><ele>369.6666666666667</ele><time>2026-04-26T08:48:34Z</time></trkpt><trkpt lat="45.8393246" lon="8.8299071"><ele>368.0</ele><time>2026-04-26T08:48:35.001Z</time></trkpt><trkpt lat="45.8393439" lon="8.8296919"><ele>367.0</ele><time>2026-04-26T08:48:36.001Z</time></trkpt><trkpt lat="45.83935" lon="8.8294782"><ele>366.0</ele><time>2026-04-26T08:48:37.001Z</time></trkpt><trkpt lat="45.8393409" lon="8.8292563"><ele>365.0</ele><time>2026-04-26T08:48:38.001Z</time></trkpt><trkpt lat="45.8393162" lon="8.8290515"><ele>364.0</ele><time>2026-04-26T08:48:38.999Z</time></trkpt><trkpt lat="45.8392838" lon="8.8288555"><ele>364.0</ele><time>2026-04-26T08:48:39.999Z</time></trkpt><trkpt lat="45.8392406" lon="8.8286746"><ele>364.0</ele><time>2026-04-26T08:48:41Z</time></trkpt><trkpt lat="45.8391931" lon="8.8285077"><ele>364.0</ele><time>2026-04-26T08:48:42.001Z</time></trkpt><trkpt lat="45.8391459" lon="8.8283429"><ele>364.0</ele><time>2026-04-26T08:48:43Z</time></trkpt><trkpt lat="45.8390997" lon="8.828196"><ele>363.8333333333333</ele><time>2026-04-26T08:48:43.999Z</time></trkpt><trkpt lat="45.8390654" lon="8.8280831"><ele>363.66666666666663</ele><time>2026-04-26T08:48:45Z</time></trkpt><trkpt lat="45.8390388" lon="8.8279937"><ele>363.5</ele><time>2026-04-26T08:48:46Z</time></trkpt><trkpt lat="45.8390109" lon="8.8278741"><ele>363.3333333333333</ele><time>2026-04-26T08:48:48Z</time></trkpt><trkpt lat="45.8389934" lon="8.8277651"><ele>363.1666666666667</ele><time>2026-04-26T08:48:52Z</time></trkpt><trkpt lat="45.8390131" lon="8.8276608"><ele>363.0</ele><time>2026-04-26T08:48:53.999Z</time></trkpt><trkpt lat="45.8390231" lon="8.8275266"><ele>363.5</ele><time>2026-04-26T08:48:56.001Z</time></trkpt><trkpt lat="45.8389914" lon="8.8273708"><ele>364.0</ele><time>2026-04-26T08:48:58Z</time></trkpt><trkpt lat="45.8389685" lon="8.8272755"><ele>364.5</ele><time>2026-04-26T08:48:59Z</time></trkpt><trkpt lat="45.838967" lon="8.8271701"><ele>365.0</ele><time>2026-04-26T08:48:59.999Z</time></trkpt><trkpt lat="45.838994" lon="8.8270658"><ele>365.5</ele><time>2026-04-26T08:49:01Z</time></trkpt><trkpt lat="45.8390443" lon="8.8269769"><ele>366.0</ele><time>2026-04-26T08:49:02.001Z</time></trkpt><trkpt lat="45.8391021" lon="8.8268863"><ele>366.20000000000005</ele><time>2026-04-26T08:49:03.001Z</time></trkpt><trkpt lat="45.8391685" lon="8.8267903"><ele>366.40000000000003</ele><time>2026-04-26T08:49:04Z</time></trkpt><trkpt lat="45.8392419" lon="8.8266742"><ele>366.6</ele><time>2026-04-26T08:49:05Z</time></trkpt><trkpt lat="45.8393258" lon="8.8265633"><ele>366.8</ele><time>2026-04-26T08:49:06Z</time></trkpt><trkpt lat="45.8394127" lon="8.8264392"><ele>367.0</ele><time>2026-04-26T08:49:07Z</time></trkpt><trkpt lat="45.8395127" lon="8.8263174"><ele>367.0</ele><time>2026-04-26T08:49:07.999Z</time></trkpt><trkpt lat="45.8396168" lon="8.8261915"><ele>367.0</ele><time>2026-04-26T08:49:09Z</time></trkpt><trkpt lat="45.8397257" lon="8.8260677"><ele>367.0</ele><time>2026-04-26T08:49:10Z</time></trkpt><trkpt lat="45.8398451" lon="8.8259538"><ele>367.0</ele><time>2026-04-26T08:49:11.001Z</time></trkpt><trkpt lat="45.839973" lon="8.825848"><ele>368.3333333333333</ele><time>2026-04-26T08:49:12.001Z</time></trkpt><trkpt lat="45.8401067" lon="8.825744"><ele>369.6666666666667</ele><time>2026-04-26T08:49:13.001Z</time></trkpt><trkpt lat="45.8402431" lon="8.8256345"><ele>371.0</ele><time>2026-04-26T08:49:14Z</time></trkpt><trkpt lat="45.8403797" lon="8.8255221"><ele>371.0</ele><time>2026-04-26T08:49:15Z</time></trkpt><trkpt lat="45.8405185" lon="8.8254049"><ele>371.0</ele><time>2026-04-26T08:49:15.999Z</time></trkpt><trkpt lat="45.840657" lon="8.8252848"><ele>371.0</ele><time>2026-04-26T08:49:17.001Z</time></trkpt><trkpt lat="45.8407934" lon="8.825159"><ele>372.33333333333337</ele><time>2026-04-26T08:49:18.001Z</time></trkpt><trkpt lat="45.8409349" lon="8.8250396"><ele>373.6666666666667</ele><time>2026-04-26T08:49:19.001Z</time></trkpt><trkpt lat="45.8410754" lon="8.8249168"><ele>375.0</ele><time>2026-04-26T08:49:20Z</time></trkpt><trkpt lat="45.8412234" lon="8.824799"><ele>377.0</ele><time>2026-04-26T08:49:21.001Z</time></trkpt><trkpt lat="45.8413648" lon="8.824673"><ele>379.0</ele><time>2026-04-26T08:49:22.001Z</time></trkpt><trkpt lat="45.8415075" lon="8.8245582"><ele>381.0</ele><time>2026-04-26T08:49:23Z</time></trkpt><trkpt lat="45.8416484" lon="8.8244453"><ele>381.0</ele><time>2026-04-26T08:49:24Z</time></trkpt><trkpt lat="45.8417843" lon="8.8243551"><ele>381.0</ele><time>2026-04-26T08:49:25.001Z</time></trkpt><trkpt lat="45.8419219" lon="8.8242962"><ele>381.0</ele><time>2026-04-26T08:49:26.001Z</time></trkpt><trkpt lat="45.842053" lon="8.8243077"><ele>381.0</ele><time>2026-04-26T08:49:27Z</time></trkpt><trkpt lat="45.8421749" lon="8.8243822"><ele>381.75</ele><time>2026-04-26T08:49:28Z</time></trkpt><trkpt lat="45.8422843" lon="8.824504"><ele>382.5</ele><time>2026-04-26T08:49:29.001Z</time></trkpt><trkpt lat="45.8423885" lon="8.8246502"><ele>383.25</ele><time>2026-04-26T08:49:30Z</time></trkpt><trkpt lat="45.8424921" lon="8.8248155"><ele>384.0</ele><time>2026-04-26T08:49:31Z</time></trkpt><trkpt lat="45.8425871" lon="8.8249931"><ele>382.5</ele><time>2026-04-26T08:49:32Z</time></trkpt><trkpt lat="45.8426674" lon="8.8251622"><ele>381.0</ele><time>2026-04-26T08:49:33Z</time></trkpt><trkpt lat="45.8427394" lon="8.8253383"><ele>379.5</ele><time>2026-04-26T08:49:34Z</time></trkpt><trkpt lat="45.8428096" lon="8.8255174"><ele>378.0</ele><time>2026-04-26T08:49:35.001Z</time></trkpt><trkpt lat="45.8428743" lon="8.8257026"><ele>378.0</ele><time>2026-04-26T08:49:36.001Z</time></trkpt><trkpt lat="45.8429324" lon="8.8258942"><ele>378.0</ele><time>2026-04-26T08:49:37Z</time></trkpt><trkpt lat="45.8429939" lon="8.8260836"><ele>378.0</ele><time>2026-04-26T08:49:37.999Z</time></trkpt><trkpt lat="45.8430618" lon="8.8262706"><ele>378.0</ele><time>2026-04-26T08:49:38.999Z</time></trkpt><trkpt lat="45.8431439" lon="8.8264444"><ele>380.25</ele><time>2026-04-26T08:49:40.001Z</time></trkpt><trkpt lat="45.8432411" lon="8.8265979"><ele>382.5</ele><time>2026-04-26T08:49:41Z</time></trkpt><trkpt lat="45.8433509" lon="8.8267435"><ele>384.75</ele><time>2026-04-26T08:49:42Z</time></trkpt><trkpt lat="45.8434645" lon="8.8268715"><ele>387.0</ele><time>2026-04-26T08:49:43Z</time></trkpt><trkpt lat="45.843578" lon="8.8269948"><ele>387.0</ele><time>2026-04-26T08:49:44.001Z</time></trkpt><trkpt lat="45.8436904" lon="8.8271175"><ele>387.0</ele><time>2026-04-26T08:49:45Z</time></trkpt><trkpt lat="45.8438049" lon="8.8272364"><ele>387.0</ele><time>2026-04-26T08:49:45.999Z</time></trkpt><trkpt lat="45.8439144" lon="8.8273524"><ele>387.0</ele><time>2026-04-26T08:49:47Z</time></trkpt><trkpt lat="45.8440276" lon="8.8274734"><ele>387.0</ele><time>2026-04-26T08:49:48Z</time></trkpt><trkpt lat="45.8441325" lon="8.8275959"><ele>387.0</ele><time>2026-04-26T08:49:49.001Z</time></trkpt><trkpt lat="45.8442456" lon="8.8277025"><ele>387.0</ele><time>2026-04-26T08:49:50Z</time></trkpt><trkpt lat="45.84437" lon="8.8277979"><ele>387.0</ele><time>2026-04-26T08:49:50.999Z</time></trkpt><trkpt lat="45.8444906" lon="8.8278663"><ele>389.5</ele><time>2026-04-26T08:49:52Z</time></trkpt><trkpt lat="45.8446182" lon="8.8279398"><ele>392.0</ele><time>2026-04-26T08:49:52.999Z</time></trkpt><trkpt lat="45.8447452" lon="8.8280066"><ele>394.5</ele><time>2026-04-26T08:49:54Z</time></trkpt><trkpt lat="45.8448569" lon="8.828065"><ele>397.0</ele><time>2026-04-26T08:49:54.999Z</time></trkpt><trkpt lat="45.8449613" lon="8.8281249"><ele>397.0</ele><time>2026-04-26T08:49:56Z</time></trkpt><trkpt lat="45.8450556" lon="8.8281891"><ele>397.0</ele><time>2026-04-26T08:49:56.999Z</time></trkpt><trkpt lat="45.8451091" lon="8.8283273"><ele>397.0</ele><time>2026-04-26T08:49:58Z</time></trkpt><trkpt lat="45.8451595" lon="8.8284699"><ele>397.0</ele><time>2026-04-26T08:49:59Z</time></trkpt><trkpt lat="45.8451885" lon="8.8286149"><ele>397.0</ele><time>2026-04-26T08:50:00.001Z</time></trkpt><trkpt lat="45.8452081" lon="8.82876"><ele>397.40000000000003</ele><time>2026-04-26T08:50:01.001Z</time></trkpt><trkpt lat="45.8452442" lon="8.8289082"><ele>397.8</ele><time>2026-04-26T08:50:02.001Z</time></trkpt><trkpt lat="45.845299" lon="8.8290463"><ele>398.2</ele><time>2026-04-26T08:50:03Z</time></trkpt><trkpt lat="45.8453666" lon="8.8291607"><ele>398.6</ele><time>2026-04-26T08:50:04Z</time></trkpt><trkpt lat="45.8454475" lon="8.8292499"><ele>399.0</ele><time>2026-04-26T08:50:04.999Z</time></trkpt><trkpt lat="45.8455384" lon="8.8293072"><ele>399.79999999999995</ele><time>2026-04-26T08:50:06Z</time></trkpt><trkpt lat="45.84563" lon="8.8293456"><ele>400.59999999999997</ele><time>2026-04-26T08:50:06.999Z</time></trkpt><trkpt lat="45.8457219" lon="8.8293887"><ele>401.4</ele><time>2026-04-26T08:50:07.999Z</time></trkpt><trkpt lat="45.8458116" lon="8.8294284"><ele>402.2</ele><time>2026-04-26T08:50:09Z</time></trkpt><trkpt lat="45.8459031" lon="8.8294647"><ele>403.0</ele><time>2026-04-26T08:50:09.999Z</time></trkpt><trkpt lat="45.845995" lon="8.8295035"><ele>403.79999999999995</ele><time>2026-04-26T08:50:10.999Z</time></trkpt><trkpt lat="45.8460853" lon="8.8295399"><ele>404.6</ele><time>2026-04-26T08:50:12Z</time></trkpt><trkpt lat="45.8461716" lon="8.8295789"><ele>405.4</ele><time>2026-04-26T08:50:12.999Z</time></trkpt><trkpt lat="45.8462615" lon="8.8296102"><ele>406.20000000000005</ele><time>2026-04-26T08:50:14Z</time></trkpt><trkpt lat="45.8463625" lon="8.829612"><ele>407.0</ele><time>2026-04-26T08:50:15Z</time></trkpt><trkpt lat="45.8464574" lon="8.8295749"><ele>407.0</ele><time>2026-04-26T08:50:16.001Z</time></trkpt><trkpt lat="45.8465462" lon="8.8295132"><ele>407.0</ele><time>2026-04-26T08:50:17Z</time></trkpt><trkpt lat="45.8466162" lon="8.8294184"><ele>407.0</ele><time>2026-04-26T08:50:18.001Z</time></trkpt><trkpt lat="45.8466658" lon="8.8292997"><ele>407.0</ele><time>2026-04-26T08:50:18.999Z</time></trkpt><trkpt lat="45.8466939" lon="8.8291635"><ele>407.0</ele><time>2026-04-26T08:50:20.001Z</time></trkpt><trkpt lat="45.84671" lon="8.8290109"><ele>406.5</ele><time>2026-04-26T08:50:20.999Z</time></trkpt><trkpt lat="45.8467092" lon="8.8288351"><ele>406.0</ele><time>2026-04-26T08:50:22Z</time></trkpt><trkpt lat="45.8466991" lon="8.8286465"><ele>405.5</ele><time>2026-04-26T08:50:23Z</time></trkpt><trkpt lat="45.8466854" lon="8.8284527"><ele>405.0</ele><time>2026-04-26T08:50:23.999Z</time></trkpt><trkpt lat="45.8466708" lon="8.8282631"><ele>404.5</ele><time>2026-04-26T08:50:25Z</time></trkpt><trkpt lat="45.8466535" lon="8.8280863"><ele>404.0</ele><time>2026-04-26T08:50:25.999Z</time></trkpt><trkpt lat="45.8466355" lon="8.8278974"><ele>403.5</ele><time>2026-04-26T08:50:26.999Z</time></trkpt><trkpt lat="45.846624" lon="8.8277194"><ele>403.0</ele><time>2026-04-26T08:50:28Z</time></trkpt><trkpt lat="45.8466407" lon="8.8275381"><ele>403.0</ele><time>2026-04-26T08:50:29Z</time></trkpt><trkpt lat="45.8466822" lon="8.8273687"><ele>403.0</ele><time>2026-04-26T08:50:30Z</time></trkpt><trkpt lat="45.8467487" lon="8.8272016"><ele>403.0</ele><time>2026-04-26T08:50:31Z</time></trkpt><trkpt lat="45.8468258" lon="8.8270302"><ele>403.0</ele><time>2026-04-26T08:50:31.999Z</time></trkpt><trkpt lat="45.8468949" lon="8.826862"><ele>406.5</ele><time>2026-04-26T08:50:33Z</time></trkpt><trkpt lat="45.8469577" lon="8.826697"><ele>410.0</ele><time>2026-04-26T08:50:34Z</time></trkpt><trkpt lat="45.8470204" lon="8.8265242"><ele>413.5</ele><time>2026-04-26T08:50:35.001Z</time></trkpt><trkpt lat="45.8470696" lon="8.8263558"><ele>417.0</ele><time>2026-04-26T08:50:36.001Z</time></trkpt><trkpt lat="45.8471036" lon="8.8261813"><ele>417.0</ele><time>2026-04-26T08:50:36.999Z</time></trkpt><trkpt lat="45.8471169" lon="8.826005"><ele>417.0</ele><time>2026-04-26T08:50:38Z</time></trkpt><trkpt lat="45.8471189" lon="8.8258341"><ele>417.0</ele><time>2026-04-26T08:50:39.001Z</time></trkpt><trkpt lat="45.8471283" lon="8.8256619"><ele>417.0</ele><time>2026-04-26T08:50:40.001Z</time></trkpt><trkpt lat="45.8471666" lon="8.8255053"><ele>416.5</ele><time>2026-04-26T08:50:41Z</time></trkpt><trkpt lat="45.8472291" lon="8.8253656"><ele>416.0</ele><time>2026-04-26T08:50:42Z</time></trkpt><trkpt lat="45.8473163" lon="8.825267"><ele>415.5</ele><time>2026-04-26T08:50:43Z</time></trkpt><trkpt lat="45.8474206" lon="8.8252134"><ele>415.0</ele><time>2026-04-26T08:50:44Z</time></trkpt><trkpt lat="45.8475398" lon="8.825213"><ele>412.75</ele><time>2026-04-26T08:50:45Z</time></trkpt><trkpt lat="45.8476596" lon="8.8252641"><ele>410.5</ele><time>2026-04-26T08:50:46Z</time></trkpt><trkpt lat="45.8477756" lon="8.8253637"><ele>408.25</ele><time>2026-04-26T08:50:47.001Z</time></trkpt><trkpt lat="45.8478913" lon="8.8254897"><ele>406.0</ele><time>2026-04-26T08:50:48Z</time></trkpt><trkpt lat="45.8480072" lon="8.825623"><ele>406.0</ele><time>2026-04-26T08:50:49Z</time></trkpt><trkpt lat="45.8481273" lon="8.8257639"><ele>406.0</ele><time>2026-04-26T08:50:49.999Z</time></trkpt><trkpt lat="45.8482511" lon="8.8259065"><ele>406.0</ele><time>2026-04-26T08:50:51Z</time></trkpt><trkpt lat="45.8483776" lon="8.8260407"><ele>409.6666666666667</ele><time>2026-04-26T08:50:52.001Z</time></trkpt><trkpt lat="45.8485135" lon="8.826176"><ele>413.33333333333337</ele><time>2026-04-26T08:50:53Z</time></trkpt><trkpt lat="45.84864" lon="8.82628"><ele>417.0</ele><time>2026-04-26T08:50:54.001Z</time></trkpt><trkpt lat="45.8487695" lon="8.8263854"><ele>417.0</ele><time>2026-04-26T08:50:55.001Z</time></trkpt><trkpt lat="45.8489054" lon="8.8264867"><ele>417.0</ele><time>2026-04-26T08:50:56.001Z</time></trkpt><trkpt lat="45.8490403" lon="8.8265819"><ele>417.0</ele><time>2026-04-26T08:50:57.001Z</time></trkpt><trkpt lat="45.8491882" lon="8.8266228"><ele>416.0</ele><time>2026-04-26T08:50:58Z</time></trkpt><trkpt lat="45.8493393" lon="8.8266574"><ele>415.0</ele><time>2026-04-26T08:50:59Z</time></trkpt><trkpt lat="45.849489" lon="8.8266765"><ele>414.0</ele><time>2026-04-26T08:51:00Z</time></trkpt><trkpt lat="45.8496324" lon="8.8266952"><ele>413.0</ele><time>2026-04-26T08:51:00.998Z</time></trkpt><trkpt lat="45.8497682" lon="8.8267067"><ele>413.0</ele><time>2026-04-26T08:51:01.999Z</time></trkpt><trkpt lat="45.8498884" lon="8.8267197"><ele>413.0</ele><time>2026-04-26T08:51:02.999Z</time></trkpt><trkpt lat="45.8500083" lon="8.8267335"><ele>413.0</ele><time>2026-04-26T08:51:03.999Z</time></trkpt><trkpt lat="45.8501284" lon="8.8267477"><ele>413.0</ele><time>2026-04-26T08:51:05Z</time></trkpt><trkpt lat="45.850244" lon="8.8267462"><ele>421.25</ele><time>2026-04-26T08:51:05.999Z</time></trkpt><trkpt lat="45.8503613" lon="8.8267166"><ele>429.5</ele><time>2026-04-26T08:51:06.999Z</time></trkpt><trkpt lat="45.8504771" lon="8.8266667"><ele>437.75</ele><time>2026-04-26T08:51:08Z</time></trkpt><trkpt lat="45.8505649" lon="8.8265557"><ele>446.0</ele><time>2026-04-26T08:51:09Z</time></trkpt><trkpt lat="45.8506424" lon="8.8264379"><ele>446.0</ele><time>2026-04-26T08:51:10Z</time></trkpt><trkpt lat="45.8507178" lon="8.8263238"><ele>446.0</ele><time>2026-04-26T08:51:11Z</time></trkpt><trkpt lat="45.8507934" lon="8.8262046"><ele>446.0</ele><time>2026-04-26T08:51:11.999Z</time></trkpt><trkpt lat="45.8520567" lon="8.8231778"><ele>445.75</ele><time>2026-04-26T08:51:33Z</time></trkpt><trkpt lat="45.8521709" lon="8.8231388"><ele>445.5</ele><time>2026-04-26T08:51:33.999Z</time></trkpt><trkpt lat="45.8522721" lon="8.8231582"><ele>445.25</ele><time>2026-04-26T08:51:34.999Z</time></trkpt><trkpt lat="45.8524015" lon="8.8231469"><ele>445.0</ele><time>2026-04-26T08:51:35.999Z</time></trkpt><trkpt lat="45.8525056" lon="8.8231706"><ele>445.0</ele><time>2026-04-26T08:51:36.999Z</time></trkpt><trkpt lat="45.8526119" lon="8.8231843"><ele>445.0</ele><time>2026-04-26T08:51:37.999Z</time></trkpt><trkpt lat="45.8527149" lon="8.8232041"><ele>445.0</ele><time>2026-04-26T08:51:39Z</time></trkpt><trkpt lat="45.8528135" lon="8.8232078"><ele>445.0</ele><time>2026-04-26T08:51:40Z</time></trkpt><trkpt lat="45.8529323" lon="8.82321"><ele>445.0</ele><time>2026-04-26T08:51:40.999Z</time></trkpt><trkpt lat="45.8530533" lon="8.8232252"><ele>443.0</ele><time>2026-04-26T08:51:41.998Z</time></trkpt><trkpt lat="45.8531823" lon="8.8232337"><ele>441.0</ele><time>2026-04-26T08:51:42.998Z</time></trkpt><trkpt lat="45.8533113" lon="8.8232469"><ele>439.0</ele><time>2026-04-26T08:51:43.999Z</time></trkpt><trkpt lat="45.8534161" lon="8.8232466"><ele>437.0</ele><time>2026-04-26T08:51:44.998Z</time></trkpt><trkpt lat="45.8535357" lon="8.8232452"><ele>437.0</ele><time>2026-04-26T08:51:46Z</time></trkpt><trkpt lat="45.853662" lon="8.8232687"><ele>437.0</ele><time>2026-04-26T08:51:46.998Z</time></trkpt><trkpt lat="45.8537852" lon="8.8232776"><ele>437.0</ele><time>2026-04-26T08:51:47.998Z</time></trkpt><trkpt lat="45.853902" lon="8.8232816"><ele>437.0</ele><time>2026-04-26T08:51:49Z</time></trkpt><trkpt lat="45.8540321" lon="8.8232715"><ele>437.0</ele><time>2026-04-26T08:51:49.998Z</time></trkpt><trkpt lat="45.8541581" lon="8.8232512"><ele>437.0</ele><time>2026-04-26T08:51:50.999Z</time></trkpt><trkpt lat="45.8542781" lon="8.823229"><ele>437.0</ele><time>2026-04-26T08:51:51.998Z</time></trkpt><trkpt lat="45.8544054" lon="8.8231997"><ele>437.0</ele><time>2026-04-26T08:51:53Z</time></trkpt><trkpt lat="45.8545287" lon="8.8231617"><ele>439.5</ele><time>2026-04-26T08:51:54Z</time></trkpt><trkpt lat="45.8546484" lon="8.8231244"><ele>442.0</ele><time>2026-04-26T08:51:54.999Z</time></trkpt><trkpt lat="45.854772" lon="8.8230868"><ele>444.5</ele><time>2026-04-26T08:51:55.999Z</time></trkpt><trkpt lat="45.8548899" lon="8.8230682"><ele>447.0</ele><time>2026-04-26T08:51:57Z</time></trkpt><trkpt lat="45.8550098" lon="8.8230648"><ele>447.25</ele><time>2026-04-26T08:51:57.999Z</time></trkpt><trkpt lat="45.8551321" lon="8.8230702"><ele>447.5</ele><time>2026-04-26T08:51:58.998Z</time></trkpt><trkpt lat="45.855249" lon="8.8231101"><ele>447.75</ele><time>2026-04-26T08:51:59.998Z</time></trkpt><trkpt lat="45.8553584" lon="8.8231692"><ele>448.0</ele><time>2026-04-26T08:52:00.999Z</time></trkpt><trkpt lat="45.8554821" lon="8.8232787"><ele>448.0</ele><time>2026-04-26T08:52:02Z</time></trkpt><trkpt lat="45.8555852" lon="8.8234116"><ele>448.0</ele><time>2026-04-26T08:52:02.999Z</time></trkpt><trkpt lat="45.8556826" lon="8.8235601"><ele>448.0</ele><time>2026-04-26T08:52:03.999Z</time></trkpt><trkpt lat="45.8557766" lon="8.82372"><ele>448.0</ele><time>2026-04-26T08:52:05Z</time></trkpt><trkpt lat="45.8558721" lon="8.823887"><ele>449.5</ele><time>2026-04-26T08:52:06Z</time></trkpt><trkpt lat="45.8559661" lon="8.8240489"><ele>451.0</ele><time>2026-04-26T08:52:06.999Z</time></trkpt><trkpt lat="45.8560567" lon="8.8242129"><ele>452.5</ele><time>2026-04-26T08:52:07.998Z</time></trkpt><trkpt lat="45.8561459" lon="8.8243727"><ele>454.0</ele><time>2026-04-26T08:52:08.999Z</time></trkpt><trkpt lat="45.8562377" lon="8.8245189"><ele>454.0</ele><time>2026-04-26T08:52:10Z</time></trkpt><trkpt lat="45.8563442" lon="8.8246444"><ele>454.0</ele><time>2026-04-26T08:52:10.999Z</time></trkpt><trkpt lat="45.8564616" lon="8.8247578"><ele>454.0</ele><time>2026-04-26T08:52:12Z</time></trkpt><trkpt lat="45.856588" lon="8.8248427"><ele>454.0</ele><time>2026-04-26T08:52:12.999Z</time></trkpt><trkpt lat="45.8567288" lon="8.8249041"><ele>457.0</ele><time>2026-04-26T08:52:13.999Z</time></trkpt><trkpt lat="45.8568695" lon="8.8249456"><ele>460.0</ele><time>2026-04-26T08:52:14.998Z</time></trkpt><trkpt lat="45.8570114" lon="8.8249722"><ele>463.0</ele><time>2026-04-26T08:52:15.999Z</time></trkpt><trkpt lat="45.8571602" lon="8.8249949"><ele>466.0</ele><time>2026-04-26T08:52:17Z</time></trkpt><trkpt lat="45.8573103" lon="8.82502"><ele>466.0</ele><time>2026-04-26T08:52:18Z</time></trkpt><trkpt lat="45.8574537" lon="8.8250518"><ele>466.0</ele><time>2026-04-26T08:52:18.999Z</time></trkpt><trkpt lat="45.8576011" lon="8.8250826"><ele>466.0</ele><time>2026-04-26T08:52:19.998Z</time></trkpt><trkpt lat="45.8577461" lon="8.8251139"><ele>466.0</ele><time>2026-04-26T08:52:20.999Z</time></trkpt><trkpt lat="45.8583314" lon="8.8255412"><ele>465.6666666666667</ele><time>2026-04-26T08:52:25Z</time></trkpt><trkpt lat="45.8585173" lon="8.8256862"><ele>465.33333333333337</ele><time>2026-04-26T08:52:26Z</time></trkpt><trkpt lat="45.8585787" lon="8.8258977"><ele>465.0</ele><time>2026-04-26T08:52:27Z</time></trkpt><trkpt lat="45.8587155" lon="8.8260619"><ele>465.0</ele><time>2026-04-26T08:52:28Z</time></trkpt><trkpt lat="45.8588138" lon="8.8262342"><ele>465.0</ele><time>2026-04-26T08:52:28.998Z</time></trkpt><trkpt lat="45.8589083" lon="8.8263873"><ele>465.0</ele><time>2026-04-26T08:52:29.999Z</time></trkpt><trkpt lat="45.8590186" lon="8.8265539"><ele>465.0</ele><time>2026-04-26T08:52:30.999Z</time></trkpt><trkpt lat="45.8591284" lon="8.8267104"><ele>465.0</ele><time>2026-04-26T08:52:32Z</time></trkpt><trkpt lat="45.8592248" lon="8.8268648"><ele>465.0</ele><time>2026-04-26T08:52:33Z</time></trkpt><trkpt lat="45.8593298" lon="8.8270346"><ele>464.66666666666663</ele><time>2026-04-26T08:52:33.998Z</time></trkpt><trkpt lat="45.8594407" lon="8.8271816"><ele>464.3333333333333</ele><time>2026-04-26T08:52:35Z</time></trkpt><trkpt lat="45.8595489" lon="8.8273265"><ele>464.0</ele><time>2026-04-26T08:52:36Z</time></trkpt><trkpt lat="45.8596981" lon="8.827422"><ele>464.0</ele><time>2026-04-26T08:52:36.999Z</time></trkpt><trkpt lat="45.8598477" lon="8.8275187"><ele>464.0</ele><time>2026-04-26T08:52:37.998Z</time></trkpt><trkpt lat="45.8600037" lon="8.8276116"><ele>464.0</ele><time>2026-04-26T08:52:38.999Z</time></trkpt><trkpt lat="45.8601488" lon="8.8277166"><ele>465.3333333333333</ele><time>2026-04-26T08:52:40Z</time></trkpt><trkpt lat="45.860301" lon="8.8278236"><ele>466.66666666666663</ele><time>2026-04-26T08:52:40.998Z</time></trkpt><trkpt lat="45.8604534" lon="8.8279408"><ele>468.0</ele><time>2026-04-26T08:52:41.999Z</time></trkpt><trkpt lat="45.8605863" lon="8.8280952"><ele>468.0</ele><time>2026-04-26T08:52:43Z</time></trkpt><trkpt lat="45.8607251" lon="8.8282506"><ele>468.0</ele><time>2026-04-26T08:52:43.999Z</time></trkpt><trkpt lat="45.8608562" lon="8.828407"><ele>468.0</ele><time>2026-04-26T08:52:44.998Z</time></trkpt><trkpt lat="45.8609809" lon="8.8285514"><ele>473.0</ele><time>2026-04-26T08:52:45.998Z</time></trkpt><trkpt lat="45.8611033" lon="8.8287016"><ele>478.0</ele><time>2026-04-26T08:52:46.999Z</time></trkpt><trkpt lat="45.8612214" lon="8.8288506"><ele>483.0</ele><time>2026-04-26T08:52:48Z</time></trkpt><trkpt lat="45.8613373" lon="8.8289965"><ele>483.0</ele><time>2026-04-26T08:52:49Z</time></trkpt><trkpt lat="45.8614607" lon="8.8291362"><ele>483.0</ele><time>2026-04-26T08:52:49.998Z</time></trkpt><trkpt lat="45.8615811" lon="8.8292781"><ele>483.0</ele><time>2026-04-26T08:52:50.999Z</time></trkpt><trkpt lat="45.8616998" lon="8.8294261"><ele>488.66666666666663</ele><time>2026-04-26T08:52:52Z</time></trkpt><trkpt lat="45.8618075" lon="8.829591"><ele>494.3333333333333</ele><time>2026-04-26T08:52:53Z</time></trkpt><trkpt lat="45.8619104" lon="8.8297819"><ele>500.0</ele><time>2026-04-26T08:52:53.999Z</time></trkpt><trkpt lat="45.8619999" lon="8.8299792"><ele>492.66666666666663</ele><time>2026-04-26T08:52:54.999Z</time></trkpt><trkpt lat="45.8620688" lon="8.8301906"><ele>485.33333333333337</ele><time>2026-04-26T08:52:55.999Z</time></trkpt><trkpt lat="45.8621352" lon="8.8303999"><ele>478.0</ele><time>2026-04-26T08:52:56.998Z</time></trkpt><trkpt lat="45.8621963" lon="8.8306219"><ele>478.0</ele><time>2026-04-26T08:52:57.999Z</time></trkpt><trkpt lat="45.8622539" lon="8.8308597"><ele>478.0</ele><time>2026-04-26T08:52:59Z</time></trkpt><trkpt lat="45.8623083" lon="8.8310946"><ele>478.0</ele><time>2026-04-26T08:53:00Z</time></trkpt><trkpt lat="45.8623588" lon="8.8313188"><ele>475.33333333333337</ele><time>2026-04-26T08:53:00.999Z</time></trkpt><trkpt lat="45.8624149" lon="8.8315306"><ele>472.66666666666663</ele><time>2026-04-26T08:53:02Z</time></trkpt><trkpt lat="45.8624791" lon="8.8317313"><ele>470.0</ele><time>2026-04-26T08:53:02.999Z</time></trkpt><trkpt lat="45.8625563" lon="8.831912"><ele>470.75</ele><time>2026-04-26T08:53:03.999Z</time></trkpt><trkpt lat="45.862651" lon="8.8320752"><ele>471.5</ele><time>2026-04-26T08:53:04.999Z</time></trkpt><trkpt lat="45.862769" lon="8.8322138"><ele>472.25</ele><time>2026-04-26T08:53:06Z</time></trkpt><trkpt lat="45.8628986" lon="8.8323197"><ele>473.0</ele><time>2026-04-26T08:53:06.998Z</time></trkpt><trkpt lat="45.863026" lon="8.8323899"><ele>473.0</ele><time>2026-04-26T08:53:07.998Z</time></trkpt><trkpt lat="45.8631514" lon="8.8324425"><ele>473.0</ele><time>2026-04-26T08:53:08.999Z</time></trkpt><trkpt lat="45.8632748" lon="8.8324511"><ele>473.0</ele><time>2026-04-26T08:53:09.998Z</time></trkpt><trkpt lat="45.8634092" lon="8.8324552"><ele>473.0</ele><time>2026-04-26T08:53:11Z</time></trkpt><trkpt lat="45.8635414" lon="8.8324272"><ele>472.75</ele><time>2026-04-26T08:53:11.999Z</time></trkpt><trkpt lat="45.8636811" lon="8.8324008"><ele>472.5</ele><time>2026-04-26T08:53:13Z</time></trkpt><trkpt lat="45.8638272" lon="8.8323685"><ele>472.25</ele><time>2026-04-26T08:53:13.998Z</time></trkpt><trkpt lat="45.8639717" lon="8.8323302"><ele>472.0</ele><time>2026-04-26T08:53:14.999Z</time></trkpt><trkpt lat="45.864121" lon="8.8322944"><ele>472.0</ele><time>2026-04-26T08:53:15.999Z</time></trkpt><trkpt lat="45.8642701" lon="8.8322636"><ele>472.0</ele><time>2026-04-26T08:53:16.999Z</time></trkpt><trkpt lat="45.8644181" lon="8.8322472"><ele>472.0</ele><time>2026-04-26T08:53:18Z</time></trkpt><trkpt lat="45.8645627" lon="8.8322436"><ele>472.0</ele><time>2026-04-26T08:53:18.999Z</time></trkpt><trkpt lat="45.8647152" lon="8.8322564"><ele>472.0</ele><time>2026-04-26T08:53:19.999Z</time></trkpt><trkpt lat="45.8648677" lon="8.832282"><ele>472.0</ele><time>2026-04-26T08:53:21Z</time></trkpt><trkpt lat="45.8650264" lon="8.8323138"><ele>472.0</ele><time>2026-04-26T08:53:22Z</time></trkpt><trkpt lat="45.8651882" lon="8.8323425"><ele>472.6666666666667</ele><time>2026-04-26T08:53:23Z</time></trkpt><trkpt lat="45.865346" lon="8.8323697"><ele>473.33333333333337</ele><time>2026-04-26T08:53:24Z</time></trkpt><trkpt lat="45.8655049" lon="8.8323991"><ele>474.0</ele><time>2026-04-26T08:53:25Z</time></trkpt><trkpt lat="45.8656652" lon="8.8324282"><ele>474.0</ele><time>2026-04-26T08:53:26Z</time></trkpt><trkpt lat="45.8658267" lon="8.8324577"><ele>474.0</ele><time>2026-04-26T08:53:26.998Z</time></trkpt><trkpt lat="45.8659863" lon="8.8324888"><ele>474.0</ele><time>2026-04-26T08:53:27.999Z</time></trkpt><trkpt lat="45.8661506" lon="8.8325194"><ele>475.66666666666663</ele><time>2026-04-26T08:53:28.999Z</time></trkpt><trkpt lat="45.8663208" lon="8.8325492"><ele>477.3333333333333</ele><time>2026-04-26T08:53:29.999Z</time></trkpt><trkpt lat="45.866505" lon="8.8325803"><ele>479.0</ele><time>2026-04-26T08:53:30.999Z</time></trkpt><trkpt lat="45.8667002" lon="8.8326133"><ele>477.66666666666663</ele><time>2026-04-26T08:53:31.999Z</time></trkpt><trkpt lat="45.8669144" lon="8.832647"><ele>476.33333333333337</ele><time>2026-04-26T08:53:32.998Z</time></trkpt><trkpt lat="45.86714" lon="8.8326897"><ele>475.0</ele><time>2026-04-26T08:53:33.999Z</time></trkpt><trkpt lat="45.8673737" lon="8.8327391"><ele>475.0</ele><time>2026-04-26T08:53:34.999Z</time></trkpt><trkpt lat="45.8676084" lon="8.8327891"><ele>475.0</ele><time>2026-04-26T08:53:35.998Z</time></trkpt><trkpt lat="45.8678527" lon="8.8328439"><ele>475.5</ele><time>2026-04-26T08:53:36.999Z</time></trkpt><trkpt lat="45.8680935" lon="8.8328909"><ele>476.0</ele><time>2026-04-26T08:53:38Z</time></trkpt><trkpt lat="45.8683438" lon="8.8329382"><ele>477.0</ele><time>2026-04-26T08:53:38.998Z</time></trkpt><trkpt lat="45.8685887" lon="8.8329795"><ele>478.0</ele><time>2026-04-26T08:53:40Z</time></trkpt><trkpt lat="45.8688252" lon="8.8330267"><ele>478.0</ele><time>2026-04-26T08:53:41Z</time></trkpt><trkpt lat="45.8690492" lon="8.8330666"><ele>478.0</ele><time>2026-04-26T08:53:42Z</time></trkpt><trkpt lat="45.8692634" lon="8.8331016"><ele>478.0</ele><time>2026-04-26T08:53:42.999Z</time></trkpt><trkpt lat="45.8694674" lon="8.8331388"><ele>478.0</ele><time>2026-04-26T08:53:43.999Z</time></trkpt><trkpt lat="45.8696714" lon="8.8331768"><ele>478.0</ele><time>2026-04-26T08:53:44.998Z</time></trkpt><trkpt lat="45.8698711" lon="8.8332159"><ele>478.0</ele><time>2026-04-26T08:53:45.999Z</time></trkpt><trkpt lat="45.8700713" lon="8.8332548"><ele>479.0</ele><time>2026-04-26T08:53:46.998Z</time></trkpt><trkpt lat="45.8702657" lon="8.8332933"><ele>480.0</ele><time>2026-04-26T08:53:48Z</time></trkpt><trkpt lat="45.8704476" lon="8.8333457"><ele>481.0</ele><time>2026-04-26T08:53:48.999Z</time></trkpt><trkpt lat="45.8706351" lon="8.8334059"><ele>482.6666666666667</ele><time>2026-04-26T08:53:50Z</time></trkpt><trkpt lat="45.8708091" lon="8.8334992"><ele>484.33333333333337</ele><time>2026-04-26T08:53:50.998Z</time></trkpt><trkpt lat="45.8709696" lon="8.8336262"><ele>486.0</ele><time>2026-04-26T08:53:52Z</time></trkpt><trkpt lat="45.8711147" lon="8.8337861"><ele>486.0</ele><time>2026-04-26T08:53:52.999Z</time></trkpt><trkpt lat="45.8712571" lon="8.8339715"><ele>486.0</ele><time>2026-04-26T08:53:53.999Z</time></trkpt><trkpt lat="45.8713934" lon="8.8341729"><ele>486.0</ele><time>2026-04-26T08:53:55Z</time></trkpt><trkpt lat="45.8715242" lon="8.8343793"><ele>486.66666666666663</ele><time>2026-04-26T08:53:56Z</time></trkpt><trkpt lat="45.871673" lon="8.8345934"><ele>487.3333333333333</ele><time>2026-04-26T08:53:56.999Z</time></trkpt><trkpt lat="45.871808" lon="8.8347992"><ele>488.0</ele><time>2026-04-26T08:53:57.999Z</time></trkpt><trkpt lat="45.8719502" lon="8.8349827"><ele>487.3333333333333</ele><time>2026-04-26T08:53:59Z</time></trkpt><trkpt lat="45.8721107" lon="8.8351497"><ele>486.66666666666663</ele><time>2026-04-26T08:53:59.999Z</time></trkpt><trkpt lat="45.8722722" lon="8.8352954"><ele>486.0</ele><time>2026-04-26T08:54:01Z</time></trkpt><trkpt lat="45.8724349" lon="8.8354329"><ele>486.0</ele><time>2026-04-26T08:54:01.999Z</time></trkpt><trkpt lat="45.872606" lon="8.8355316"><ele>486.0</ele><time>2026-04-26T08:54:03Z</time></trkpt><trkpt lat="45.8727838" lon="8.8356207"><ele>486.0</ele><time>2026-04-26T08:54:03.998Z</time></trkpt><trkpt lat="45.8729729" lon="8.8356906"><ele>485.0</ele><time>2026-04-26T08:54:04.999Z</time></trkpt><trkpt lat="45.8731643" lon="8.8357376"><ele>484.0</ele><time>2026-04-26T08:54:05.998Z</time></trkpt><trkpt lat="45.8733594" lon="8.8357876"><ele>483.0</ele><time>2026-04-26T08:54:07Z</time></trkpt><trkpt lat="45.8735574" lon="8.8358198"><ele>483.0</ele><time>2026-04-26T08:54:07.999Z</time></trkpt><trkpt lat="45.8737611" lon="8.8358537"><ele>483.0</ele><time>2026-04-26T08:54:09Z</time></trkpt><trkpt lat="45.8739657" lon="8.8358852"><ele>483.0</ele><time>2026-04-26T08:54:09.999Z</time></trkpt><trkpt lat="45.8741838" lon="8.8359195"><ele>483.33333333333337</ele><time>2026-04-26T08:54:11Z</time></trkpt><trkpt lat="45.8744005" lon="8.8359601"><ele>483.6666666666667</ele><time>2026-04-26T08:54:11.999Z</time></trkpt><trkpt lat="45.8746218" lon="8.8360015"><ele>484.0</ele><time>2026-04-26T08:54:12.999Z</time></trkpt><trkpt lat="45.8748441" lon="8.8360415"><ele>482.0</ele><time>2026-04-26T08:54:13.999Z</time></trkpt><trkpt lat="45.8750704" lon="8.8360794"><ele>480.0</ele><time>2026-04-26T08:54:15Z</time></trkpt><trkpt lat="45.8752977" lon="8.8361156"><ele>477.0</ele><time>2026-04-26T08:54:15.999Z</time></trkpt><trkpt lat="45.8755275" lon="8.8361532"><ele>474.0</ele><time>2026-04-26T08:54:16.999Z</time></trkpt><trkpt lat="45.8757638" lon="8.8361841"><ele>471.5</ele><time>2026-04-26T08:54:18Z</time></trkpt><trkpt lat="45.876" lon="8.8362242"><ele>469.0</ele><time>2026-04-26T08:54:18.999Z</time></trkpt><trkpt lat="45.8762273" lon="8.8362647"><ele>469.0</ele><time>2026-04-26T08:54:19.998Z</time></trkpt><trkpt lat="45.8764634" lon="8.8363085"><ele>469.0</ele><time>2026-04-26T08:54:20.999Z</time></trkpt><trkpt lat="45.8766795" lon="8.8363502"><ele>469.0</ele><time>2026-04-26T08:54:22Z</time></trkpt><trkpt lat="45.8768911" lon="8.8363867"><ele>469.0</ele><time>2026-04-26T08:54:22.999Z</time></trkpt><trkpt lat="45.8771012" lon="8.836421"><ele>469.0</ele><time>2026-04-26T08:54:24Z</time></trkpt><trkpt lat="45.8773127" lon="8.8364571"><ele>469.0</ele><time>2026-04-26T08:54:25Z</time></trkpt><trkpt lat="45.8775206" lon="8.8364928"><ele>469.0</ele><time>2026-04-26T08:54:25.999Z</time></trkpt><trkpt lat="45.8777335" lon="8.8365309"><ele>469.0</ele><time>2026-04-26T08:54:26.999Z</time></trkpt><trkpt lat="45.877943" lon="8.8365617"><ele>468.6666666666667</ele><time>2026-04-26T08:54:27.999Z</time></trkpt><trkpt lat="45.8781596" lon="8.836599"><ele>468.33333333333337</ele><time>2026-04-26T08:54:29Z</time></trkpt><trkpt lat="45.8783665" lon="8.8366334"><ele>468.0</ele><time>2026-04-26T08:54:29.999Z</time></trkpt><trkpt lat="45.8785773" lon="8.8366625"><ele>469.0</ele><time>2026-04-26T08:54:31Z</time></trkpt><trkpt lat="45.878784" lon="8.8366964"><ele>470.0</ele><time>2026-04-26T08:54:31.999Z</time></trkpt><trkpt lat="45.8789938" lon="8.8367336"><ele>471.0</ele><time>2026-04-26T08:54:32.998Z</time></trkpt><trkpt lat="45.8792028" lon="8.8367635"><ele>469.0</ele><time>2026-04-26T08:54:34Z</time></trkpt><trkpt lat="45.8794119" lon="8.8367976"><ele>467.0</ele><time>2026-04-26T08:54:34.999Z</time></trkpt><trkpt lat="45.8796187" lon="8.8368316"><ele>465.0</ele><time>2026-04-26T08:54:36Z</time></trkpt><trkpt lat="45.879834" lon="8.8368542"><ele>465.33333333333337</ele><time>2026-04-26T08:54:37Z</time></trkpt><trkpt lat="45.8800444" lon="8.8368397"><ele>465.6666666666667</ele><time>2026-04-26T08:54:38Z</time></trkpt><trkpt lat="45.8802522" lon="8.8367946"><ele>466.0</ele><time>2026-04-26T08:54:38.999Z</time></trkpt><trkpt lat="45.8804777" lon="8.8367451"><ele>466.0</ele><time>2026-04-26T08:54:39.999Z</time></trkpt><trkpt lat="45.880685" lon="8.8366584"><ele>466.0</ele><time>2026-04-26T08:54:40.999Z</time></trkpt><trkpt lat="45.8808888" lon="8.8365444"><ele>466.0</ele><time>2026-04-26T08:54:41.999Z</time></trkpt><trkpt lat="45.8810915" lon="8.8364312"><ele>468.6666666666667</ele><time>2026-04-26T08:54:42.998Z</time></trkpt><trkpt lat="45.8812997" lon="8.8363167"><ele>471.33333333333337</ele><time>2026-04-26T08:54:44Z</time></trkpt><trkpt lat="45.8814995" lon="8.8361967"><ele>474.0</ele><time>2026-04-26T08:54:44.998Z</time></trkpt><trkpt lat="45.8817023" lon="8.8360778"><ele>471.66666666666663</ele><time>2026-04-26T08:54:46Z</time></trkpt><trkpt lat="45.8819023" lon="8.8359591"><ele>469.3333333333333</ele><time>2026-04-26T08:54:46.999Z</time></trkpt><trkpt lat="45.8820958" lon="8.8358457"><ele>467.0</ele><time>2026-04-26T08:54:47.999Z</time></trkpt><trkpt lat="45.8822871" lon="8.835727"><ele>467.0</ele><time>2026-04-26T08:54:48.998Z</time></trkpt><trkpt lat="45.8824723" lon="8.8356176"><ele>467.0</ele><time>2026-04-26T08:54:49.999Z</time></trkpt><trkpt lat="45.8826548" lon="8.8355115"><ele>467.0</ele><time>2026-04-26T08:54:51Z</time></trkpt><trkpt lat="45.882836" lon="8.8354054"><ele>467.3333333333333</ele><time>2026-04-26T08:54:51.998Z</time></trkpt><trkpt lat="45.8830143" lon="8.8353003"><ele>467.66666666666663</ele><time>2026-04-26T08:54:53Z</time></trkpt><trkpt lat="45.8831838" lon="8.8351978"><ele>468.0</ele><time>2026-04-26T08:54:54Z</time></trkpt><trkpt lat="45.8833568" lon="8.8350924"><ele>468.33333333333337</ele><time>2026-04-26T08:54:55Z</time></trkpt><trkpt lat="45.8835277" lon="8.8349886"><ele>468.6666666666667</ele><time>2026-04-26T08:54:55.999Z</time></trkpt><trkpt lat="45.8836966" lon="8.8348921"><ele>469.0</ele><time>2026-04-26T08:54:56.999Z</time></trkpt><trkpt lat="45.8838685" lon="8.8347986"><ele>469.0</ele><time>2026-04-26T08:54:57.999Z</time></trkpt><trkpt lat="45.8840399" lon="8.8347136"><ele>469.0</ele><time>2026-04-26T08:54:58.998Z</time></trkpt><trkpt lat="45.8842171" lon="8.834647"><ele>469.0</ele><time>2026-04-26T08:55:00Z</time></trkpt><trkpt lat="45.8844055" lon="8.8345948"><ele>472.33333333333337</ele><time>2026-04-26T08:55:00.998Z</time></trkpt><trkpt lat="45.8845956" lon="8.8345524"><ele>475.66666666666663</ele><time>2026-04-26T08:55:01.998Z</time></trkpt><trkpt lat="45.8847888" lon="8.8345132"><ele>479.0</ele><time>2026-04-26T08:55:02.999Z</time></trkpt><trkpt lat="45.8849761" lon="8.8344707"><ele>481.0</ele><time>2026-04-26T08:55:03.997Z</time></trkpt><trkpt lat="45.8851664" lon="8.8344282"><ele>483.0</ele><time>2026-04-26T08:55:04.998Z</time></trkpt><trkpt lat="45.885352" lon="8.8343881"><ele>485.0</ele><time>2026-04-26T08:55:05.998Z</time></trkpt><trkpt lat="45.8855387" lon="8.8343332"><ele>482.66666666666663</ele><time>2026-04-26T08:55:06.998Z</time></trkpt><trkpt lat="45.8857252" lon="8.8342683"><ele>480.33333333333337</ele><time>2026-04-26T08:55:07.998Z</time></trkpt><trkpt lat="45.8859136" lon="8.8342037"><ele>478.0</ele><time>2026-04-26T08:55:08.999Z</time></trkpt><trkpt lat="45.8860852" lon="8.8340928"><ele>478.0</ele><time>2026-04-26T08:55:09.998Z</time></trkpt><trkpt lat="45.8862573" lon="8.8339806"><ele>478.0</ele><time>2026-04-26T08:55:10.998Z</time></trkpt><trkpt lat="45.8864275" lon="8.8338391"><ele>478.0</ele><time>2026-04-26T08:55:11.997Z</time></trkpt><trkpt lat="45.8865994" lon="8.8337103"><ele>477.0</ele><time>2026-04-26T08:55:12.999Z</time></trkpt><trkpt lat="45.8867673" lon="8.833589"><ele>476.0</ele><time>2026-04-26T08:55:13.998Z</time></trkpt><trkpt lat="45.8869294" lon="8.8334594"><ele>475.0</ele><time>2026-04-26T08:55:14.998Z</time></trkpt><trkpt lat="45.8870826" lon="8.8333197"><ele>475.0</ele><time>2026-04-26T08:55:15.998Z</time></trkpt><trkpt lat="45.8872426" lon="8.8331828"><ele>475.0</ele><time>2026-04-26T08:55:16.998Z</time></trkpt><trkpt lat="45.8874004" lon="8.833055"><ele>475.0</ele><time>2026-04-26T08:55:17.998Z</time></trkpt><trkpt lat="45.887559" lon="8.8329253"><ele>472.33333333333337</ele><time>2026-04-26T08:55:18.998Z</time></trkpt><trkpt lat="45.8877182" lon="8.8327977"><ele>469.66666666666663</ele><time>2026-04-26T08:55:19.997Z</time></trkpt><trkpt lat="45.8878777" lon="8.8326691"><ele>467.0</ele><time>2026-04-26T08:55:20.997Z</time></trkpt><trkpt lat="45.888036" lon="8.8325414"><ele>467.0</ele><time>2026-04-26T08:55:21.999Z</time></trkpt><trkpt lat="45.8881957" lon="8.8324079"><ele>467.0</ele><time>2026-04-26T08:55:22.998Z</time></trkpt><trkpt lat="45.8883564" lon="8.8322723"><ele>467.0</ele><time>2026-04-26T08:55:23.999Z</time></trkpt><trkpt lat="45.8885214" lon="8.8321336"><ele>467.3333333333333</ele><time>2026-04-26T08:55:24.998Z</time></trkpt><trkpt lat="45.8886895" lon="8.832"><ele>467.66666666666663</ele><time>2026-04-26T08:55:25.997Z</time></trkpt><trkpt lat="45.8888547" lon="8.8318651"><ele>468.0</ele><time>2026-04-26T08:55:26.999Z</time></trkpt><trkpt lat="45.889018" lon="8.8317353"><ele>467.0</ele><time>2026-04-26T08:55:27.999Z</time></trkpt><trkpt lat="45.889178" lon="8.8316112"><ele>466.0</ele><time>2026-04-26T08:55:28.999Z</time></trkpt><trkpt lat="45.8893368" lon="8.8314874"><ele>465.0</ele><time>2026-04-26T08:55:29.997Z</time></trkpt><trkpt lat="45.8894885" lon="8.8313596"><ele>468.66666666666663</ele><time>2026-04-26T08:55:30.997Z</time></trkpt><trkpt lat="45.8896412" lon="8.8312339"><ele>472.3333333333333</ele><time>2026-04-26T08:55:31.999Z</time></trkpt><trkpt lat="45.8897987" lon="8.8311044"><ele>476.0</ele><time>2026-04-26T08:55:32.999Z</time></trkpt><trkpt lat="45.889963" lon="8.8309815"><ele>475.3333333333333</ele><time>2026-04-26T08:55:33.998Z</time></trkpt><trkpt lat="45.8901313" lon="8.8308621"><ele>474.66666666666663</ele><time>2026-04-26T08:55:34.998Z</time></trkpt><trkpt lat="45.8902994" lon="8.8307558"><ele>474.0</ele><time>2026-04-26T08:55:35.999Z</time></trkpt><trkpt lat="45.8904794" lon="8.8306652"><ele>474.0</ele><time>2026-04-26T08:55:36.998Z</time></trkpt><trkpt lat="45.8906638" lon="8.8305899"><ele>474.0</ele><time>2026-04-26T08:55:37.999Z</time></trkpt><trkpt lat="45.8908584" lon="8.8305419"><ele>474.0</ele><time>2026-04-26T08:55:38.999Z</time></trkpt><trkpt lat="45.891046" lon="8.8304984"><ele>474.0</ele><time>2026-04-26T08:55:39.998Z</time></trkpt><trkpt lat="45.8912383" lon="8.8304701"><ele>474.0</ele><time>2026-04-26T08:55:40.998Z</time></trkpt><trkpt lat="45.8914312" lon="8.8304418"><ele>474.0</ele><time>2026-04-26T08:55:41.998Z</time></trkpt><trkpt lat="45.8916187" lon="8.8304214"><ele>474.0</ele><time>2026-04-26T08:55:42.998Z</time></trkpt><trkpt lat="45.8917991" lon="8.8303889"><ele>474.0</ele><time>2026-04-26T08:55:43.997Z</time></trkpt><trkpt lat="45.8919822" lon="8.8303679"><ele>474.0</ele><time>2026-04-26T08:55:44.999Z</time></trkpt><trkpt lat="45.8921657" lon="8.830348"><ele>474.0</ele><time>2026-04-26T08:55:45.998Z</time></trkpt><trkpt lat="45.8923481" lon="8.8303277"><ele>474.0</ele><time>2026-04-26T08:55:46.999Z</time></trkpt><trkpt lat="45.8925253" lon="8.8303071"><ele>474.0</ele><time>2026-04-26T08:55:47.997Z</time></trkpt><trkpt lat="45.8927063" lon="8.8302754"><ele>475.66666666666663</ele><time>2026-04-26T08:55:48.998Z</time></trkpt><trkpt lat="45.892889" lon="8.8302329"><ele>477.3333333333333</ele><time>2026-04-26T08:55:49.998Z</time></trkpt><trkpt lat="45.8930715" lon="8.8301855"><ele>479.0</ele><time>2026-04-26T08:55:50.999Z</time></trkpt><trkpt lat="45.8932504" lon="8.8301282"><ele>476.3333333333333</ele><time>2026-04-26T08:55:51.997Z</time></trkpt><trkpt lat="45.8934347" lon="8.8300673"><ele>473.66666666666663</ele><time>2026-04-26T08:55:52.999Z</time></trkpt><trkpt lat="45.8936125" lon="8.8299943"><ele>471.0</ele><time>2026-04-26T08:55:53.998Z</time></trkpt><trkpt lat="45.8937862" lon="8.8299152"><ele>471.0</ele><time>2026-04-26T08:55:54.999Z</time></trkpt><trkpt lat="45.8939455" lon="8.8298276"><ele>471.0</ele><time>2026-04-26T08:55:55.998Z</time></trkpt><trkpt lat="45.8941055" lon="8.8297299"><ele>471.0</ele><time>2026-04-26T08:55:56.998Z</time></trkpt><trkpt lat="45.8942594" lon="8.8296201"><ele>472.66666666666663</ele><time>2026-04-26T08:55:57.999Z</time></trkpt><trkpt lat="45.894407" lon="8.8295058"><ele>474.3333333333333</ele><time>2026-04-26T08:55:58.997Z</time></trkpt><trkpt lat="45.8945558" lon="8.829407"><ele>476.0</ele><time>2026-04-26T08:55:59.998Z</time></trkpt><trkpt lat="45.894704" lon="8.8293193"><ele>472.66666666666663</ele><time>2026-04-26T08:56:00.998Z</time></trkpt><trkpt lat="45.8948632" lon="8.8292673"><ele>469.33333333333337</ele><time>2026-04-26T08:56:01.999Z</time></trkpt><trkpt lat="45.8950281" lon="8.8292272"><ele>466.0</ele><time>2026-04-26T08:56:02.997Z</time></trkpt><trkpt lat="45.8951925" lon="8.8292014"><ele>466.0</ele><time>2026-04-26T08:56:03.999Z</time></trkpt><trkpt lat="45.8953486" lon="8.8291767"><ele>466.0</ele><time>2026-04-26T08:56:04.999Z</time></trkpt><trkpt lat="45.8955068" lon="8.8291363"><ele>466.0</ele><time>2026-04-26T08:56:05.997Z</time></trkpt><trkpt lat="45.895665" lon="8.8290807"><ele>466.0</ele><time>2026-04-26T08:56:06.998Z</time></trkpt><trkpt lat="45.8958067" lon="8.8289885"><ele>466.0</ele><time>2026-04-26T08:56:07.998Z</time></trkpt><trkpt lat="45.8959365" lon="8.8288646"><ele>466.0</ele><time>2026-04-26T08:56:08.998Z</time></trkpt><trkpt lat="45.8960618" lon="8.8287337"><ele>465.5</ele><time>2026-04-26T08:56:09.998Z</time></trkpt><trkpt lat="45.8961778" lon="8.8286132"><ele>465.0</ele><time>2026-04-26T08:56:10.999Z</time></trkpt><trkpt lat="45.8962965" lon="8.8285096"><ele>464.5</ele><time>2026-04-26T08:56:11.998Z</time></trkpt><trkpt lat="45.8964247" lon="8.8284231"><ele>464.0</ele><time>2026-04-26T08:56:12.998Z</time></trkpt><trkpt lat="45.8965604" lon="8.8283396"><ele>464.0</ele><time>2026-04-26T08:56:13.998Z</time></trkpt><trkpt lat="45.8967026" lon="8.8282841"><ele>464.0</ele><time>2026-04-26T08:56:14.999Z</time></trkpt><trkpt lat="45.8968448" lon="8.8282404"><ele>464.0</ele><time>2026-04-26T08:56:15.999Z</time></trkpt><trkpt lat="45.896993" lon="8.8282055"><ele>464.0</ele><time>2026-04-26T08:56:16.998Z</time></trkpt><trkpt lat="45.8971422" lon="8.828174"><ele>464.25</ele><time>2026-04-26T08:56:17.998Z</time></trkpt><trkpt lat="45.8972906" lon="8.8281489"><ele>464.5</ele><time>2026-04-26T08:56:18.998Z</time></trkpt><trkpt lat="45.8974336" lon="8.8281159"><ele>464.75</ele><time>2026-04-26T08:56:19.998Z</time></trkpt><trkpt lat="45.8975715" lon="8.8280635"><ele>465.0</ele><time>2026-04-26T08:56:20.999Z</time></trkpt><trkpt lat="45.8977106" lon="8.828003"><ele>465.25</ele><time>2026-04-26T08:56:21.998Z</time></trkpt><trkpt lat="45.8978445" lon="8.8279364"><ele>465.5</ele><time>2026-04-26T08:56:22.998Z</time></trkpt><trkpt lat="45.8979689" lon="8.827866"><ele>465.75</ele><time>2026-04-26T08:56:23.999Z</time></trkpt><trkpt lat="45.8980899" lon="8.827788"><ele>466.0</ele><time>2026-04-26T08:56:24.998Z</time></trkpt><trkpt lat="45.8982087" lon="8.8277137"><ele>465.25</ele><time>2026-04-26T08:56:25.998Z</time></trkpt><trkpt lat="45.8983259" lon="8.827642"><ele>464.5</ele><time>2026-04-26T08:56:26.998Z</time></trkpt><trkpt lat="45.8984425" lon="8.8275653"><ele>463.75</ele><time>2026-04-26T08:56:27.998Z</time></trkpt><trkpt lat="45.8985636" lon="8.8274954"><ele>463.0</ele><time>2026-04-26T08:56:28.999Z</time></trkpt><trkpt lat="45.8986844" lon="8.827416"><ele>463.0</ele><time>2026-04-26T08:56:29.999Z</time></trkpt><trkpt lat="45.8988021" lon="8.8273365"><ele>463.0</ele><time>2026-04-26T08:56:30.998Z</time></trkpt><trkpt lat="45.898924" lon="8.8272523"><ele>463.0</ele><time>2026-04-26T08:56:31.998Z</time></trkpt><trkpt lat="45.8990506" lon="8.8271786"><ele>463.0</ele><time>2026-04-26T08:56:32.997Z</time></trkpt><trkpt lat="45.8991685" lon="8.8271084"><ele>463.0</ele><time>2026-04-26T08:56:33.997Z</time></trkpt><trkpt lat="45.8992716" lon="8.8270396"><ele>462.99999999999994</ele><time>2026-04-26T08:56:34.999Z</time></trkpt><trkpt lat="45.899366" lon="8.8269809"><ele>462.99999999999994</ele><time>2026-04-26T08:56:35.998Z</time></trkpt><trkpt lat="45.8994555" lon="8.8269149"><ele>463.0</ele><time>2026-04-26T08:56:36.998Z</time></trkpt><trkpt lat="45.8995397" lon="8.8268569"><ele>463.0</ele><time>2026-04-26T08:56:37.999Z</time></trkpt><trkpt lat="45.8996238" lon="8.8268033"><ele>463.00000000000006</ele><time>2026-04-26T08:56:38.998Z</time></trkpt><trkpt lat="45.899704" lon="8.8267471"><ele>463.0</ele><time>2026-04-26T08:56:39.999Z</time></trkpt><trkpt lat="45.8997891" lon="8.8266962"><ele>463.0</ele><time>2026-04-26T08:56:40.997Z</time></trkpt><trkpt lat="45.8998584" lon="8.8266617"><ele>463.0</ele><time>2026-04-26T08:56:41.999Z</time></trkpt><trkpt lat="45.8999153" lon="8.826596"><ele>463.00000000000006</ele><time>2026-04-26T08:56:51.998Z</time></trkpt><trkpt lat="45.8999891" lon="8.8265504"><ele>463.0</ele><time>2026-04-26T08:56:53.999Z</time></trkpt><trkpt lat="45.900066" lon="8.8264866"><ele>463.59999999999997</ele><time>2026-04-26T08:56:55.999Z</time></trkpt><trkpt lat="45.9001781" lon="8.8264349"><ele>464.19999999999993</ele><time>2026-04-26T08:56:57.999Z</time></trkpt><trkpt lat="45.9002624" lon="8.826367"><ele>464.8</ele><time>2026-04-26T08:56:59.998Z</time></trkpt><trkpt lat="45.9003308" lon="8.8263091"><ele>465.4</ele><time>2026-04-26T08:57:01.999Z</time></trkpt><trkpt lat="45.9004114" lon="8.8262607"><ele>466.0</ele><time>2026-04-26T08:57:03.999Z</time></trkpt><trkpt lat="45.9005106" lon="8.8262157"><ele>466.00000000000006</ele><time>2026-04-26T08:57:05.999Z</time></trkpt><trkpt lat="45.9005924" lon="8.8261742"><ele>466.0</ele><time>2026-04-26T08:57:07.998Z</time></trkpt><trkpt lat="45.9007001" lon="8.8261756"><ele>466.0</ele><time>2026-04-26T08:57:09.998Z</time></trkpt><trkpt lat="45.9007642" lon="8.8261804"><ele>466.0</ele><time>2026-04-26T08:57:10.998Z</time></trkpt><trkpt lat="45.9008454" lon="8.8260722"><ele>466.00000000000006</ele><time>2026-04-26T08:57:12.998Z</time></trkpt><trkpt lat="45.900854" lon="8.8259694"><ele>466.0</ele><time>2026-04-26T08:57:13.999Z</time></trkpt><trkpt lat="45.9008519" lon="8.8258531"><ele>464.8</ele><time>2026-04-26T08:57:14.998Z</time></trkpt><trkpt lat="45.9008557" lon="8.8257175"><ele>463.6</ele><time>2026-04-26T08:57:15.999Z</time></trkpt><trkpt lat="45.9008552" lon="8.8255704"><ele>462.4</ele><time>2026-04-26T08:57:16.999Z</time></trkpt><trkpt lat="45.9008464" lon="8.8254123"><ele>461.2</ele><time>2026-04-26T08:57:17.999Z</time></trkpt><trkpt lat="45.9008371" lon="8.8252483"><ele>460.0</ele><time>2026-04-26T08:57:18.999Z</time></trkpt><trkpt lat="45.9008438" lon="8.8250765"><ele>459.75</ele><time>2026-04-26T08:57:19.998Z</time></trkpt><trkpt lat="45.9008582" lon="8.8249053"><ele>459.5</ele><time>2026-04-26T08:57:20.998Z</time></trkpt><trkpt lat="45.9008964" lon="8.8247432"><ele>459.25</ele><time>2026-04-26T08:57:21.998Z</time></trkpt><trkpt lat="45.9009449" lon="8.8245854"><ele>459.0</ele><time>2026-04-26T08:57:22.999Z</time></trkpt><trkpt lat="45.9010033" lon="8.8244398"><ele>459.4</ele><time>2026-04-26T08:57:23.998Z</time></trkpt><trkpt lat="45.9010689" lon="8.8243168"><ele>459.79999999999995</ele><time>2026-04-26T08:57:24.998Z</time></trkpt><trkpt lat="45.9011412" lon="8.824201"><ele>460.20000000000005</ele><time>2026-04-26T08:57:25.998Z</time></trkpt><trkpt lat="45.9012168" lon="8.8241076"><ele>460.6</ele><time>2026-04-26T08:57:26.998Z</time></trkpt><trkpt lat="45.90129" lon="8.8240386"><ele>461.0</ele><time>2026-04-26T08:57:27.998Z</time></trkpt><trkpt lat="45.9013639" lon="8.8239751"><ele>460.99999999999994</ele><time>2026-04-26T08:57:28.998Z</time></trkpt><trkpt lat="45.9014345" lon="8.823913"><ele>461.0</ele><time>2026-04-26T08:57:29.999Z</time></trkpt><trkpt lat="45.9015076" lon="8.8238516"><ele>461.0</ele><time>2026-04-26T08:57:30.998Z</time></trkpt><trkpt lat="45.901583" lon="8.8237863"><ele>461.0</ele><time>2026-04-26T08:57:31.999Z</time></trkpt><trkpt lat="45.9016603" lon="8.8237199"><ele>460.99999999999994</ele><time>2026-04-26T08:57:32.998Z</time></trkpt><trkpt lat="45.9017414" lon="8.8236467"><ele>461.0</ele><time>2026-04-26T08:57:33.999Z</time></trkpt><trkpt lat="45.9018217" lon="8.8235767"><ele>460.99999999999994</ele><time>2026-04-26T08:57:34.999Z</time></trkpt><trkpt lat="45.9019028" lon="8.823506"><ele>461.0</ele><time>2026-04-26T08:57:35.998Z</time></trkpt><trkpt lat="45.9019797" lon="8.8234398"><ele>461.0</ele><time>2026-04-26T08:57:36.997Z</time></trkpt><trkpt lat="45.9020524" lon="8.8233779"><ele>461.0</ele><time>2026-04-26T08:57:37.998Z</time></trkpt><trkpt lat="45.9021234" lon="8.823311"><ele>460.99999999999994</ele><time>2026-04-26T08:57:38.999Z</time></trkpt><trkpt lat="45.9021865" lon="8.823243"><ele>461.0</ele><time>2026-04-26T08:57:39.998Z</time></trkpt><trkpt lat="45.9022439" lon="8.8231698"><ele>461.0</ele><time>2026-04-26T08:57:40.999Z</time></trkpt><trkpt lat="45.9022934" lon="8.8231128"><ele>461.00000000000006</ele><time>2026-04-26T08:57:41.998Z</time></trkpt><trkpt lat="45.9023425" lon="8.8230482"><ele>461.0</ele><time>2026-04-26T08:57:42.998Z</time></trkpt><trkpt lat="45.9023858" lon="8.8229773"><ele>461.0</ele><time>2026-04-26T08:57:43.997Z</time></trkpt><trkpt lat="45.9024259" lon="8.8229051"><ele>461.00000000000006</ele><time>2026-04-26T08:57:44.999Z</time></trkpt><trkpt lat="45.9024888" lon="8.8227543"><ele>461.0</ele><time>2026-04-26T08:57:46.998Z</time></trkpt><trkpt lat="45.9025164" lon="8.8226706"><ele>461.0</ele><time>2026-04-26T08:57:47.998Z</time></trkpt><trkpt lat="45.9025398" lon="8.8225815"><ele>462.0</ele><time>2026-04-26T08:57:48.999Z</time></trkpt><trkpt lat="45.9025594" lon="8.8224865"><ele>463.00000000000006</ele><time>2026-04-26T08:57:49.997Z</time></trkpt><trkpt lat="45.9025745" lon="8.8223852"><ele>464.0</ele><time>2026-04-26T08:57:50.998Z</time></trkpt><trkpt lat="45.9025817" lon="8.8222798"><ele>465.0</ele><time>2026-04-26T08:57:51.999Z</time></trkpt><trkpt lat="45.9025731" lon="8.822176"><ele>466.00000000000006</ele><time>2026-04-26T08:57:52.998Z</time></trkpt><trkpt lat="45.9025543" lon="8.8220799"><ele>467.0</ele><time>2026-04-26T08:57:53.999Z</time></trkpt><trkpt lat="45.9025346" lon="8.8219925"><ele>468.0</ele><time>2026-04-26T08:57:54.998Z</time></trkpt><trkpt lat="45.9024958" lon="8.8218209"><ele>468.6666666666667</ele><time>2026-04-26T08:57:56.999Z</time></trkpt><trkpt lat="45.9024747" lon="8.8217274"><ele>469.33333333333337</ele><time>2026-04-26T08:57:57.998Z</time></trkpt><trkpt lat="45.9024446" lon="8.8216319"><ele>470.0</ele><time>2026-04-26T08:57:58.998Z</time></trkpt><trkpt lat="45.9024165" lon="8.8215435"><ele>470.6666666666667</ele><time>2026-04-26T08:57:59.998Z</time></trkpt><trkpt lat="45.9023867" lon="8.8214449"><ele>471.33333333333337</ele><time>2026-04-26T08:58:00.998Z</time></trkpt><trkpt lat="45.9023566" lon="8.8213313"><ele>472.0</ele><time>2026-04-26T08:58:01.999Z</time></trkpt><trkpt lat="45.9023217" lon="8.8212161"><ele>472.0</ele><time>2026-04-26T08:58:02.999Z</time></trkpt><trkpt lat="45.9022953" lon="8.8210991"><ele>472.00000000000006</ele><time>2026-04-26T08:58:03.998Z</time></trkpt><trkpt lat="45.9022774" lon="8.8209776"><ele>472.00000000000006</ele><time>2026-04-26T08:58:04.999Z</time></trkpt><trkpt lat="45.9022646" lon="8.8208441"><ele>472.0</ele><time>2026-04-26T08:58:05.997Z</time></trkpt><trkpt lat="45.9022602" lon="8.8206821"><ele>472.0</ele><time>2026-04-26T08:58:06.997Z</time></trkpt><trkpt lat="45.9022552" lon="8.820491"><ele>473.6666666666667</ele><time>2026-04-26T08:58:07.998Z</time></trkpt><trkpt lat="45.9022431" lon="8.8202674"><ele>475.33333333333337</ele><time>2026-04-26T08:58:08.998Z</time></trkpt><trkpt lat="45.9022267" lon="8.8200267"><ele>477.0</ele><time>2026-04-26T08:58:09.998Z</time></trkpt><trkpt lat="45.9021972" lon="8.819778"><ele>477.75</ele><time>2026-04-26T08:58:10.997Z</time></trkpt><trkpt lat="45.9021679" lon="8.8195568"><ele>478.5</ele><time>2026-04-26T08:58:11.998Z</time></trkpt><trkpt lat="45.9021453" lon="8.8193407"><ele>479.25</ele><time>2026-04-26T08:58:12.999Z</time></trkpt><trkpt lat="45.9021074" lon="8.8191895"><ele>480.0</ele><time>2026-04-26T08:58:13.998Z</time></trkpt><trkpt lat="45.9020919" lon="8.8190241"><ele>480.0</ele><time>2026-04-26T08:58:14.998Z</time></trkpt><trkpt lat="45.902086" lon="8.8188589"><ele>480.0</ele><time>2026-04-26T08:58:15.999Z</time></trkpt><trkpt lat="45.9020737" lon="8.8186935"><ele>480.0</ele><time>2026-04-26T08:58:16.998Z</time></trkpt><trkpt lat="45.9020947" lon="8.8185213"><ele>480.0</ele><time>2026-04-26T08:58:17.997Z</time></trkpt><trkpt lat="45.9021108" lon="8.8183555"><ele>479.75</ele><time>2026-04-26T08:58:18.998Z</time></trkpt><trkpt lat="45.9021419" lon="8.8181941"><ele>479.5</ele><time>2026-04-26T08:58:19.999Z</time></trkpt><trkpt lat="45.9021805" lon="8.8180387"><ele>479.25</ele><time>2026-04-26T08:58:20.998Z</time></trkpt><trkpt lat="45.9022381" lon="8.8178916"><ele>479.0</ele><time>2026-04-26T08:58:21.998Z</time></trkpt><trkpt lat="45.9023145" lon="8.8177469"><ele>476.25</ele><time>2026-04-26T08:58:22.998Z</time></trkpt><trkpt lat="45.9023941" lon="8.8175917"><ele>473.5</ele><time>2026-04-26T08:58:23.997Z</time></trkpt><trkpt lat="45.9024758" lon="8.8174351"><ele>470.75</ele><time>2026-04-26T08:58:24.998Z</time></trkpt><trkpt lat="45.9025562" lon="8.8172715"><ele>468.0</ele><time>2026-04-26T08:58:25.999Z</time></trkpt><trkpt lat="45.9026244" lon="8.8170924"><ele>474.5</ele><time>2026-04-26T08:58:26.998Z</time></trkpt><trkpt lat="45.902676" lon="8.8169024"><ele>481.0</ele><time>2026-04-26T08:58:27.998Z</time></trkpt><trkpt lat="45.9027224" lon="8.8167021"><ele>487.5</ele><time>2026-04-26T08:58:28.998Z</time></trkpt><trkpt lat="45.90275" lon="8.8164957"><ele>494.0</ele><time>2026-04-26T08:58:29.997Z</time></trkpt><trkpt lat="45.9027822" lon="8.8162989"><ele>494.0</ele><time>2026-04-26T08:58:30.998Z</time></trkpt><trkpt lat="45.9028064" lon="8.8160891"><ele>494.0</ele><time>2026-04-26T08:58:31.999Z</time></trkpt><trkpt lat="45.9028398" lon="8.8158754"><ele>494.0</ele><time>2026-04-26T08:58:32.999Z</time></trkpt><trkpt lat="45.9028704" lon="8.8156698"><ele>494.0</ele><time>2026-04-26T08:58:33.999Z</time></trkpt><trkpt lat="45.9029048" lon="8.8154747"><ele>491.5</ele><time>2026-04-26T08:58:34.997Z</time></trkpt><trkpt lat="45.9029416" lon="8.8152818"><ele>489.0</ele><time>2026-04-26T08:58:35.997Z</time></trkpt><trkpt lat="45.9029825" lon="8.8150846"><ele>486.5</ele><time>2026-04-26T08:58:36.998Z</time></trkpt><trkpt lat="45.9030163" lon="8.8148956"><ele>484.0</ele><time>2026-04-26T08:58:37.998Z</time></trkpt><trkpt lat="45.9030518" lon="8.8147088"><ele>481.75</ele><time>2026-04-26T08:58:38.997Z</time></trkpt><trkpt lat="45.9030843" lon="8.81453"><ele>479.5</ele><time>2026-04-26T08:58:39.999Z</time></trkpt><trkpt lat="45.9031209" lon="8.8143535"><ele>477.25</ele><time>2026-04-26T08:58:40.999Z</time></trkpt><trkpt lat="45.9031702" lon="8.8141847"><ele>475.0</ele><time>2026-04-26T08:58:41.998Z</time></trkpt><trkpt lat="45.903224" lon="8.8140245"><ele>475.33333333333337</ele><time>2026-04-26T08:58:42.999Z</time></trkpt><trkpt lat="45.9032938" lon="8.8138582"><ele>475.66666666666663</ele><time>2026-04-26T08:58:43.999Z</time></trkpt><trkpt lat="45.9033786" lon="8.8136651"><ele>476.0</ele><time>2026-04-26T08:58:44.998Z</time></trkpt><trkpt lat="45.9034704" lon="8.813474"><ele>476.0</ele><time>2026-04-26T08:58:45.998Z</time></trkpt><trkpt lat="45.9036013" lon="8.8132436"><ele>476.0</ele><time>2026-04-26T08:58:46.998Z</time></trkpt><trkpt lat="45.9037252" lon="8.8130286"><ele>476.0</ele><time>2026-04-26T08:58:47.999Z</time></trkpt><trkpt lat="45.9038462" lon="8.8128197"><ele>472.3333333333333</ele><time>2026-04-26T08:58:48.999Z</time></trkpt><trkpt lat="45.9039506" lon="8.8126099"><ele>468.66666666666663</ele><time>2026-04-26T08:58:49.998Z</time></trkpt><trkpt lat="45.9040601" lon="8.8123824"><ele>465.0</ele><time>2026-04-26T08:58:50.998Z</time></trkpt><trkpt lat="45.9041813" lon="8.8121359"><ele>467.66666666666663</ele><time>2026-04-26T08:58:51.998Z</time></trkpt><trkpt lat="45.9042955" lon="8.811885"><ele>470.3333333333333</ele><time>2026-04-26T08:58:52.997Z</time></trkpt><trkpt lat="45.9044364" lon="8.811639"><ele>473.0</ele><time>2026-04-26T08:58:53.998Z</time></trkpt><trkpt lat="45.9045678" lon="8.8113748"><ele>473.0</ele><time>2026-04-26T08:58:54.998Z</time></trkpt><trkpt lat="45.9047048" lon="8.8111156"><ele>473.0</ele><time>2026-04-26T08:58:55.998Z</time></trkpt><trkpt lat="45.9048349" lon="8.8108517"><ele>475.3333333333333</ele><time>2026-04-26T08:58:56.999Z</time></trkpt><trkpt lat="45.9049635" lon="8.8105923"><ele>477.66666666666663</ele><time>2026-04-26T08:58:57.997Z</time></trkpt><trkpt lat="45.9050904" lon="8.8103319"><ele>480.0</ele><time>2026-04-26T08:58:58.998Z</time></trkpt><trkpt lat="45.9052109" lon="8.8100715"><ele>480.0</ele><time>2026-04-26T08:58:59.999Z</time></trkpt><trkpt lat="45.9053342" lon="8.8098107"><ele>480.0</ele><time>2026-04-26T08:59:00.998Z</time></trkpt><trkpt lat="45.9054569" lon="8.8095472"><ele>480.0</ele><time>2026-04-26T08:59:01.998Z</time></trkpt><trkpt lat="45.9055759" lon="8.8092753"><ele>476.0</ele><time>2026-04-26T08:59:02.999Z</time></trkpt><trkpt lat="45.9056928" lon="8.8090076"><ele>472.0</ele><time>2026-04-26T08:59:03.999Z</time></trkpt><trkpt lat="45.9058044" lon="8.8087726"><ele>468.0</ele><time>2026-04-26T08:59:04.998Z</time></trkpt><trkpt lat="45.9058988" lon="8.8085717"><ele>471.25</ele><time>2026-04-26T08:59:05.999Z</time></trkpt><trkpt lat="45.905976" lon="8.8083917"><ele>474.5</ele><time>2026-04-26T08:59:06.998Z</time></trkpt><trkpt lat="45.9060385" lon="8.8082404"><ele>477.75</ele><time>2026-04-26T08:59:07.999Z</time></trkpt><trkpt lat="45.9061172" lon="8.8080644"><ele>481.0</ele><time>2026-04-26T08:59:08.997Z</time></trkpt><trkpt lat="45.906205" lon="8.8078851"><ele>481.0</ele><time>2026-04-26T08:59:09.999Z</time></trkpt><trkpt lat="45.9062983" lon="8.8076939"><ele>481.0</ele><time>2026-04-26T08:59:10.999Z</time></trkpt><trkpt lat="45.9063849" lon="8.807477"><ele>481.0</ele><time>2026-04-26T08:59:11.999Z</time></trkpt><trkpt lat="45.9064463" lon="8.8072461"><ele>479.6666666666667</ele><time>2026-04-26T08:59:12.997Z</time></trkpt><trkpt lat="45.9064938" lon="8.8069985"><ele>478.33333333333337</ele><time>2026-04-26T08:59:13.997Z</time></trkpt><trkpt lat="45.9065066" lon="8.8067484"><ele>477.0</ele><time>2026-04-26T08:59:14.998Z</time></trkpt><trkpt lat="45.9064938" lon="8.806482"><ele>475.0</ele><time>2026-04-26T08:59:15.998Z</time></trkpt><trkpt lat="45.9064615" lon="8.8062036"><ele>473.0</ele><time>2026-04-26T08:59:16.998Z</time></trkpt><trkpt lat="45.9064348" lon="8.8059262"><ele>471.0</ele><time>2026-04-26T08:59:17.998Z</time></trkpt><trkpt lat="45.9064145" lon="8.8056699"><ele>471.0</ele><time>2026-04-26T08:59:18.999Z</time></trkpt><trkpt lat="45.9063977" lon="8.8054209"><ele>471.0</ele><time>2026-04-26T08:59:19.997Z</time></trkpt><trkpt lat="45.9064073" lon="8.8051954"><ele>471.0</ele><time>2026-04-26T08:59:20.997Z</time></trkpt><trkpt lat="45.9064462" lon="8.8049659"><ele>471.0</ele><time>2026-04-26T08:59:21.998Z</time></trkpt><trkpt lat="45.9065118" lon="8.8047403"><ele>471.0</ele><time>2026-04-26T08:59:22.998Z</time></trkpt><trkpt lat="45.9065837" lon="8.8045205"><ele>471.0</ele><time>2026-04-26T08:59:23.998Z</time></trkpt><trkpt lat="45.9066609" lon="8.8042855"><ele>471.0</ele><time>2026-04-26T08:59:24.998Z</time></trkpt><trkpt lat="45.9067363" lon="8.8040497"><ele>471.0</ele><time>2026-04-26T08:59:25.999Z</time></trkpt><trkpt lat="45.9068102" lon="8.8038154"><ele>471.0</ele><time>2026-04-26T08:59:26.999Z</time></trkpt><trkpt lat="45.9068868" lon="8.8035764"><ele>475.33333333333337</ele><time>2026-04-26T08:59:27.998Z</time></trkpt><trkpt lat="45.9069611" lon="8.8033448"><ele>479.6666666666667</ele><time>2026-04-26T08:59:28.998Z</time></trkpt><trkpt lat="45.9070289" lon="8.8031181"><ele>484.0</ele><time>2026-04-26T08:59:29.998Z</time></trkpt><trkpt lat="45.9071117" lon="8.8028915"><ele>483.0</ele><time>2026-04-26T08:59:30.997Z</time></trkpt><trkpt lat="45.9071914" lon="8.8026633"><ele>482.0</ele><time>2026-04-26T08:59:31.997Z</time></trkpt><trkpt lat="45.90727" lon="8.8024222"><ele>481.0</ele><time>2026-04-26T08:59:32.999Z</time></trkpt><trkpt lat="45.9073533" lon="8.8021844"><ele>481.0</ele><time>2026-04-26T08:59:33.997Z</time></trkpt><trkpt lat="45.9074332" lon="8.8019491"><ele>481.0</ele><time>2026-04-26T08:59:34.997Z</time></trkpt><trkpt lat="45.9075058" lon="8.8017074"><ele>481.0</ele><time>2026-04-26T08:59:35.999Z</time></trkpt><trkpt lat="45.9075833" lon="8.8014783"><ele>482.33333333333337</ele><time>2026-04-26T08:59:36.998Z</time></trkpt><trkpt lat="45.9076623" lon="8.8012391"><ele>483.66666666666663</ele><time>2026-04-26T08:59:37.998Z</time></trkpt><trkpt lat="45.9077439" lon="8.8010137"><ele>485.0</ele><time>2026-04-26T08:59:38.998Z</time></trkpt><trkpt lat="45.907809" lon="8.8007885"><ele>485.0</ele><time>2026-04-26T08:59:39.997Z</time></trkpt><trkpt lat="45.9078851" lon="8.8005654"><ele>485.0</ele><time>2026-04-26T08:59:40.997Z</time></trkpt><trkpt lat="45.9079583" lon="8.8003387"><ele>485.0</ele><time>2026-04-26T08:59:41.996Z</time></trkpt><trkpt lat="45.9080329" lon="8.800109"><ele>485.3333333333333</ele><time>2026-04-26T08:59:42.997Z</time></trkpt><trkpt lat="45.908105" lon="8.7998769"><ele>485.66666666666663</ele><time>2026-04-26T08:59:43.997Z</time></trkpt><trkpt lat="45.908181" lon="8.799647"><ele>486.0</ele><time>2026-04-26T08:59:44.996Z</time></trkpt><trkpt lat="45.9082546" lon="8.7994152"><ele>487.33333333333337</ele><time>2026-04-26T08:59:45.998Z</time></trkpt><trkpt lat="45.9083313" lon="8.7991897"><ele>488.6666666666667</ele><time>2026-04-26T08:59:46.997Z</time></trkpt><trkpt lat="45.9084118" lon="8.798963"><ele>490.0</ele><time>2026-04-26T08:59:47.997Z</time></trkpt><trkpt lat="45.9084784" lon="8.7987431"><ele>489.5</ele><time>2026-04-26T08:59:48.996Z</time></trkpt><trkpt lat="45.9085497" lon="8.7985388"><ele>489.0</ele><time>2026-04-26T08:59:49.997Z</time></trkpt><trkpt lat="45.908614" lon="8.7983522"><ele>488.5</ele><time>2026-04-26T08:59:50.997Z</time></trkpt><trkpt lat="45.9086816" lon="8.798174"><ele>488.0</ele><time>2026-04-26T08:59:51.997Z</time></trkpt><trkpt lat="45.9087556" lon="8.7980228"><ele>488.0</ele><time>2026-04-26T08:59:52.997Z</time></trkpt><trkpt lat="45.908842" lon="8.7978867"><ele>488.0</ele><time>2026-04-26T08:59:53.997Z</time></trkpt><trkpt lat="45.9089363" lon="8.7977572"><ele>488.0</ele><time>2026-04-26T08:59:54.997Z</time></trkpt><trkpt lat="45.9090393" lon="8.7976423"><ele>488.0</ele><time>2026-04-26T08:59:55.998Z</time></trkpt><trkpt lat="45.909145" lon="8.7975294"><ele>487.75</ele><time>2026-04-26T08:59:56.998Z</time></trkpt><trkpt lat="45.9092498" lon="8.7974168"><ele>487.5</ele><time>2026-04-26T08:59:57.997Z</time></trkpt><trkpt lat="45.9093578" lon="8.7973061"><ele>487.25</ele><time>2026-04-26T08:59:58.996Z</time></trkpt><trkpt lat="45.9094649" lon="8.7971887"><ele>487.0</ele><time>2026-04-26T08:59:59.997Z</time></trkpt><trkpt lat="45.9095672" lon="8.7970759"><ele>487.0</ele><time>2026-04-26T09:00:00.997Z</time></trkpt><trkpt lat="45.9096586" lon="8.7969678"><ele>487.00000000000006</ele><time>2026-04-26T09:00:01.997Z</time></trkpt><trkpt lat="45.9097388" lon="8.796874"><ele>487.00000000000006</ele><time>2026-04-26T09:00:02.996Z</time></trkpt><trkpt lat="45.9098097" lon="8.7967955"><ele>487.0</ele><time>2026-04-26T09:00:03.997Z</time></trkpt><trkpt lat="45.9098758" lon="8.796712"><ele>487.0</ele><time>2026-04-26T09:00:04.998Z</time></trkpt><trkpt lat="45.9099449" lon="8.7966285"><ele>487.0</ele><time>2026-04-26T09:00:05.998Z</time></trkpt><trkpt lat="45.9100225" lon="8.7965432"><ele>487.00000000000006</ele><time>2026-04-26T09:00:06.998Z</time></trkpt><trkpt lat="45.9101006" lon="8.7964562"><ele>487.00000000000006</ele><time>2026-04-26T09:00:07.996Z</time></trkpt><trkpt lat="45.9101881" lon="8.7963689"><ele>487.0</ele><time>2026-04-26T09:00:08.997Z</time></trkpt><trkpt lat="45.9102717" lon="8.7962802"><ele>487.0</ele><time>2026-04-26T09:00:09.998Z</time></trkpt><trkpt lat="45.9103559" lon="8.7961794"><ele>487.5</ele><time>2026-04-26T09:00:10.998Z</time></trkpt><trkpt lat="45.9104459" lon="8.7960726"><ele>488.0</ele><time>2026-04-26T09:00:11.997Z</time></trkpt><trkpt lat="45.9105431" lon="8.7959566"><ele>488.5</ele><time>2026-04-26T09:00:12.998Z</time></trkpt><trkpt lat="45.9106451" lon="8.7958452"><ele>489.0</ele><time>2026-04-26T09:00:13.997Z</time></trkpt><trkpt lat="45.9107479" lon="8.795733"><ele>489.25</ele><time>2026-04-26T09:00:14.997Z</time></trkpt><trkpt lat="45.9108469" lon="8.7956234"><ele>489.5</ele><time>2026-04-26T09:00:15.998Z</time></trkpt><trkpt lat="45.9109402" lon="8.7955232"><ele>489.75</ele><time>2026-04-26T09:00:16.998Z</time></trkpt><trkpt lat="45.9110228" lon="8.7954152"><ele>490.0</ele><time>2026-04-26T09:00:17.997Z</time></trkpt><trkpt lat="45.9110972" lon="8.7953097"><ele>490.83333333333337</ele><time>2026-04-26T09:00:18.997Z</time></trkpt><trkpt lat="45.9111617" lon="8.7952085"><ele>491.6666666666667</ele><time>2026-04-26T09:00:19.997Z</time></trkpt><trkpt lat="45.9112168" lon="8.7951035"><ele>492.5</ele><time>2026-04-26T09:00:20.996Z</time></trkpt><trkpt lat="45.9112617" lon="8.7949988"><ele>493.33333333333337</ele><time>2026-04-26T09:00:21.998Z</time></trkpt><trkpt lat="45.9113019" lon="8.7948916"><ele>494.1666666666667</ele><time>2026-04-26T09:00:22.996Z</time></trkpt><trkpt lat="45.911347" lon="8.7947788"><ele>495.0</ele><time>2026-04-26T09:00:23.997Z</time></trkpt><trkpt lat="45.9113868" lon="8.7946604"><ele>495.0</ele><time>2026-04-26T09:00:24.998Z</time></trkpt><trkpt lat="45.9114266" lon="8.7945451"><ele>495.0</ele><time>2026-04-26T09:00:25.997Z</time></trkpt><trkpt lat="45.9114651" lon="8.7944267"><ele>495.0</ele><time>2026-04-26T09:00:26.997Z</time></trkpt><trkpt lat="45.9114978" lon="8.7943034"><ele>495.0</ele><time>2026-04-26T09:00:27.997Z</time></trkpt><trkpt lat="45.9115231" lon="8.7941743"><ele>495.0</ele><time>2026-04-26T09:00:28.996Z</time></trkpt><trkpt lat="45.9115369" lon="8.7940341"><ele>495.1666666666667</ele><time>2026-04-26T09:00:29.997Z</time></trkpt><trkpt lat="45.9115414" lon="8.79389"><ele>495.33333333333337</ele><time>2026-04-26T09:00:30.997Z</time></trkpt><trkpt lat="45.9115394" lon="8.7937448"><ele>495.5</ele><time>2026-04-26T09:00:31.998Z</time></trkpt><trkpt lat="45.9115366" lon="8.793614"><ele>495.6666666666667</ele><time>2026-04-26T09:00:32.998Z</time></trkpt><trkpt lat="45.9115268" lon="8.7935128"><ele>495.83333333333337</ele><time>2026-04-26T09:00:33.998Z</time></trkpt><trkpt lat="45.9115151" lon="8.7934232"><ele>496.0</ele><time>2026-04-26T09:00:34.998Z</time></trkpt><trkpt lat="45.9114752" lon="8.7932408"><ele>496.0</ele><time>2026-04-26T09:00:36.998Z</time></trkpt><trkpt lat="45.9114371" lon="8.7931185"><ele>496.0</ele><time>2026-04-26T09:00:37.996Z</time></trkpt><trkpt lat="45.91138" lon="8.792974"><ele>496.0</ele><time>2026-04-26T09:00:38.996Z</time></trkpt><trkpt lat="45.9113073" lon="8.7928231"><ele>496.0</ele><time>2026-04-26T09:00:39.998Z</time></trkpt><trkpt lat="45.9112218" lon="8.7926709"><ele>494.25</ele><time>2026-04-26T09:00:40.997Z</time></trkpt><trkpt lat="45.9111255" lon="8.792519"><ele>492.5</ele><time>2026-04-26T09:00:41.997Z</time></trkpt><trkpt lat="45.9110168" lon="8.7923883"><ele>490.75</ele><time>2026-04-26T09:00:42.998Z</time></trkpt><trkpt lat="45.9109035" lon="8.7922703"><ele>489.0</ele><time>2026-04-26T09:00:43.998Z</time></trkpt><trkpt lat="45.9107845" lon="8.792167"><ele>489.0</ele><time>2026-04-26T09:00:44.997Z</time></trkpt><trkpt lat="45.9106681" lon="8.7920874"><ele>489.0</ele><time>2026-04-26T09:00:45.998Z</time></trkpt><trkpt lat="45.9105559" lon="8.7920272"><ele>489.0</ele><time>2026-04-26T09:00:46.997Z</time></trkpt><trkpt lat="45.9104298" lon="8.7919803"><ele>489.0</ele><time>2026-04-26T09:00:47.998Z</time></trkpt><trkpt lat="45.9102868" lon="8.7919443"><ele>489.0</ele><time>2026-04-26T09:00:48.998Z</time></trkpt><trkpt lat="45.9101337" lon="8.7919154"><ele>489.0</ele><time>2026-04-26T09:00:49.997Z</time></trkpt><trkpt lat="45.9099719" lon="8.7918911"><ele>489.0</ele><time>2026-04-26T09:00:50.998Z</time></trkpt><trkpt lat="45.9098029" lon="8.7918805"><ele>489.66666666666663</ele><time>2026-04-26T09:00:51.996Z</time></trkpt><trkpt lat="45.9096323" lon="8.7918687"><ele>490.3333333333333</ele><time>2026-04-26T09:00:52.997Z</time></trkpt><trkpt lat="45.9094658" lon="8.7918624"><ele>491.0</ele><time>2026-04-26T09:00:53.997Z</time></trkpt><trkpt lat="45.9092996" lon="8.7918555"><ele>490.66666666666663</ele><time>2026-04-26T09:00:54.997Z</time></trkpt><trkpt lat="45.9091395" lon="8.7918487"><ele>490.33333333333337</ele><time>2026-04-26T09:00:55.997Z</time></trkpt><trkpt lat="45.9089798" lon="8.7918401"><ele>490.0</ele><time>2026-04-26T09:00:56.998Z</time></trkpt><trkpt lat="45.9088241" lon="8.7918202"><ele>487.0</ele><time>2026-04-26T09:00:57.998Z</time></trkpt><trkpt lat="45.9086852" lon="8.7917811"><ele>484.0</ele><time>2026-04-26T09:00:58.998Z</time></trkpt><trkpt lat="45.9085561" lon="8.7917144"><ele>481.0</ele><time>2026-04-26T09:00:59.997Z</time></trkpt><trkpt lat="45.9084414" lon="8.7916324"><ele>478.0</ele><time>2026-04-26T09:01:00.997Z</time></trkpt><trkpt lat="45.9083329" lon="8.7915459"><ele>477.0</ele><time>2026-04-26T09:01:01.998Z</time></trkpt><trkpt lat="45.9082371" lon="8.7914564"><ele>476.0</ele><time>2026-04-26T09:01:02.997Z</time></trkpt><trkpt lat="45.9081477" lon="8.7913706"><ele>475.0</ele><time>2026-04-26T09:01:03.997Z</time></trkpt><trkpt lat="45.9080511" lon="8.791265"><ele>474.0</ele><time>2026-04-26T09:01:04.998Z</time></trkpt><trkpt lat="45.9079436" lon="8.7911524"><ele>474.0</ele><time>2026-04-26T09:01:05.998Z</time></trkpt><trkpt lat="45.9078295" lon="8.791024"><ele>474.0</ele><time>2026-04-26T09:01:06.997Z</time></trkpt><trkpt lat="45.9077118" lon="8.7908866"><ele>474.0</ele><time>2026-04-26T09:01:07.997Z</time></trkpt><trkpt lat="45.9075855" lon="8.7907484"><ele>472.0</ele><time>2026-04-26T09:01:08.997Z</time></trkpt><trkpt lat="45.9074514" lon="8.7906063"><ele>470.0</ele><time>2026-04-26T09:01:09.997Z</time></trkpt><trkpt lat="45.9073168" lon="8.7904627"><ele>468.0</ele><time>2026-04-26T09:01:10.997Z</time></trkpt><trkpt lat="45.9071898" lon="8.7903228"><ele>468.0</ele><time>2026-04-26T09:01:11.997Z</time></trkpt><trkpt lat="45.9070715" lon="8.790179"><ele>468.0</ele><time>2026-04-26T09:01:12.998Z</time></trkpt><trkpt lat="45.9069606" lon="8.7900212"><ele>468.0</ele><time>2026-04-26T09:01:13.998Z</time></trkpt><trkpt lat="45.9068675" lon="8.7898553"><ele>468.75</ele><time>2026-04-26T09:01:14.998Z</time></trkpt><trkpt lat="45.9067777" lon="8.789704"><ele>469.5</ele><time>2026-04-26T09:01:15.997Z</time></trkpt><trkpt lat="45.9066899" lon="8.7895734"><ele>470.25</ele><time>2026-04-26T09:01:16.998Z</time></trkpt><trkpt lat="45.9065985" lon="8.7894383"><ele>471.0</ele><time>2026-04-26T09:01:17.998Z</time></trkpt><trkpt lat="45.9065053" lon="8.7893195"><ele>471.0</ele><time>2026-04-26T09:01:18.998Z</time></trkpt><trkpt lat="45.9064272" lon="8.7892361"><ele>471.0</ele><time>2026-04-26T09:01:19.997Z</time></trkpt><trkpt lat="45.9063639" lon="8.7891538"><ele>471.0</ele><time>2026-04-26T09:01:20.998Z</time></trkpt><trkpt lat="45.9063766" lon="8.7889988"><ele>471.0</ele><time>2026-04-26T09:01:21.996Z</time></trkpt><trkpt lat="45.9063672" lon="8.7888949"><ele>471.0</ele><time>2026-04-26T09:01:22.997Z</time></trkpt><trkpt lat="45.9063489" lon="8.7887599"><ele>471.0</ele><time>2026-04-26T09:01:23.997Z</time></trkpt><trkpt lat="45.9063076" lon="8.7886237"><ele>471.0</ele><time>2026-04-26T09:01:24.997Z</time></trkpt><trkpt lat="45.9062462" lon="8.78852"><ele>471.0</ele><time>2026-04-26T09:01:25.997Z</time></trkpt><trkpt lat="45.9061826" lon="8.7883877"><ele>471.0</ele><time>2026-04-26T09:01:26.997Z</time></trkpt><trkpt lat="45.9060775" lon="8.7882566"><ele>471.0</ele><time>2026-04-26T09:01:27.997Z</time></trkpt><trkpt lat="45.9059604" lon="8.7881042"><ele>471.33333333333337</ele><time>2026-04-26T09:01:28.998Z</time></trkpt><trkpt lat="45.9058302" lon="8.7879642"><ele>471.6666666666667</ele><time>2026-04-26T09:01:29.997Z</time></trkpt><trkpt lat="45.9057222" lon="8.7878193"><ele>472.0</ele><time>2026-04-26T09:01:30.998Z</time></trkpt><trkpt lat="45.9056089" lon="8.7876686"><ele>472.0</ele><time>2026-04-26T09:01:31.998Z</time></trkpt><trkpt lat="45.9055081" lon="8.7875238"><ele>472.0</ele><time>2026-04-26T09:01:32.997Z</time></trkpt><trkpt lat="45.9053977" lon="8.7873458"><ele>472.0</ele><time>2026-04-26T09:01:33.997Z</time></trkpt><trkpt lat="45.9052994" lon="8.7871764"><ele>472.0</ele><time>2026-04-26T09:01:34.998Z</time></trkpt><trkpt lat="45.9052128" lon="8.7870017"><ele>472.0</ele><time>2026-04-26T09:01:35.998Z</time></trkpt><trkpt lat="45.9051399" lon="8.7868384"><ele>472.0</ele><time>2026-04-26T09:01:36.997Z</time></trkpt><trkpt lat="45.9050765" lon="8.7866867"><ele>472.0</ele><time>2026-04-26T09:01:37.998Z</time></trkpt><trkpt lat="45.905027" lon="8.7865635"><ele>472.25</ele><time>2026-04-26T09:01:38.998Z</time></trkpt><trkpt lat="45.9049709" lon="8.7864441"><ele>472.5</ele><time>2026-04-26T09:01:39.997Z</time></trkpt><trkpt lat="45.9048924" lon="8.7863156"><ele>472.75</ele><time>2026-04-26T09:01:40.998Z</time></trkpt><trkpt lat="45.9048302" lon="8.7861699"><ele>473.0</ele><time>2026-04-26T09:01:41.997Z</time></trkpt><trkpt lat="45.9047851" lon="8.7859835"><ele>471.99999999999994</ele><time>2026-04-26T09:01:42.997Z</time></trkpt><trkpt lat="45.9047421" lon="8.7858235"><ele>471.0</ele><time>2026-04-26T09:01:43.997Z</time></trkpt><trkpt lat="45.9046911" lon="8.7856951"><ele>470.0</ele><time>2026-04-26T09:01:44.997Z</time></trkpt><trkpt lat="45.9046567" lon="8.7855775"><ele>469.0</ele><time>2026-04-26T09:01:45.998Z</time></trkpt><trkpt lat="45.9046291" lon="8.7854894"><ele>467.99999999999994</ele><time>2026-04-26T09:01:46.997Z</time></trkpt><trkpt lat="45.9045886" lon="8.7854171"><ele>467.0</ele><time>2026-04-26T09:01:47.997Z</time></trkpt><trkpt lat="45.9045115" lon="8.785305"><ele>467.0</ele><time>2026-04-26T09:01:49.998Z</time></trkpt><trkpt lat="45.9044369" lon="8.7852671"><ele>467.00000000000006</ele><time>2026-04-26T09:01:50.998Z</time></trkpt><trkpt lat="45.9043697" lon="8.7852435"><ele>467.00000000000006</ele><time>2026-04-26T09:01:51.997Z</time></trkpt><trkpt lat="45.9042492" lon="8.7852358"><ele>467.0</ele><time>2026-04-26T09:01:52.998Z</time></trkpt><trkpt lat="45.9041379" lon="8.7851875"><ele>467.0</ele><time>2026-04-26T09:01:53.997Z</time></trkpt><trkpt lat="45.9040218" lon="8.7851216"><ele>468.5</ele><time>2026-04-26T09:01:54.997Z</time></trkpt><trkpt lat="45.9039158" lon="8.785013"><ele>470.0</ele><time>2026-04-26T09:01:55.997Z</time></trkpt><trkpt lat="45.9037956" lon="8.7848937"><ele>471.5</ele><time>2026-04-26T09:01:56.997Z</time></trkpt><trkpt lat="45.9036907" lon="8.78474"><ele>473.0</ele><time>2026-04-26T09:01:57.997Z</time></trkpt><trkpt lat="45.9035733" lon="8.7845805"><ele>473.0</ele><time>2026-04-26T09:01:58.997Z</time></trkpt><trkpt lat="45.9034585" lon="8.784419"><ele>473.0</ele><time>2026-04-26T09:01:59.998Z</time></trkpt><trkpt lat="45.9033265" lon="8.7842421"><ele>473.0</ele><time>2026-04-26T09:02:00.996Z</time></trkpt><trkpt lat="45.9032051" lon="8.7840734"><ele>473.0</ele><time>2026-04-26T09:02:01.998Z</time></trkpt><trkpt lat="45.9030791" lon="8.7838988"><ele>473.0</ele><time>2026-04-26T09:02:02.997Z</time></trkpt><trkpt lat="45.9029541" lon="8.7837313"><ele>473.0</ele><time>2026-04-26T09:02:03.998Z</time></trkpt><trkpt lat="45.9028233" lon="8.7835754"><ele>474.3333333333333</ele><time>2026-04-26T09:02:04.997Z</time></trkpt><trkpt lat="45.902697" lon="8.7834374"><ele>475.66666666666663</ele><time>2026-04-26T09:02:05.998Z</time></trkpt><trkpt lat="45.9025598" lon="8.7833118"><ele>477.0</ele><time>2026-04-26T09:02:06.997Z</time></trkpt><trkpt lat="45.9024189" lon="8.7831983"><ele>477.0</ele><time>2026-04-26T09:02:07.997Z</time></trkpt><trkpt lat="45.9022703" lon="8.7830966"><ele>477.0</ele><time>2026-04-26T09:02:08.997Z</time></trkpt><trkpt lat="45.9021001" lon="8.7830011"><ele>477.0</ele><time>2026-04-26T09:02:09.997Z</time></trkpt><trkpt lat="45.9019468" lon="8.7829135"><ele>477.0</ele><time>2026-04-26T09:02:10.997Z</time></trkpt><trkpt lat="45.9018102" lon="8.7828174"><ele>477.0</ele><time>2026-04-26T09:02:11.997Z</time></trkpt><trkpt lat="45.9016847" lon="8.7827146"><ele>477.0</ele><time>2026-04-26T09:02:12.997Z</time></trkpt><trkpt lat="45.9015743" lon="8.7826287"><ele>477.0</ele><time>2026-04-26T09:02:13.998Z</time></trkpt><trkpt lat="45.9014703" lon="8.78256"><ele>476.8</ele><time>2026-04-26T09:02:14.997Z</time></trkpt><trkpt lat="45.9013478" lon="8.7825441"><ele>476.6</ele><time>2026-04-26T09:02:15.996Z</time></trkpt><trkpt lat="45.9012263" lon="8.7825734"><ele>476.40000000000003</ele><time>2026-04-26T09:02:16.997Z</time></trkpt><trkpt lat="45.9011282" lon="8.7825898"><ele>476.20000000000005</ele><time>2026-04-26T09:02:17.997Z</time></trkpt><trkpt lat="45.9010271" lon="8.78262"><ele>476.0</ele><time>2026-04-26T09:02:18.998Z</time></trkpt><trkpt lat="45.9009511" lon="8.7826192"><ele>476.0</ele><time>2026-04-26T09:02:19.998Z</time></trkpt><trkpt lat="45.9008915" lon="8.7825828"><ele>476.0</ele><time>2026-04-26T09:02:20.998Z</time></trkpt><trkpt lat="45.9008285" lon="8.7824596"><ele>476.0</ele><time>2026-04-26T09:02:22.997Z</time></trkpt><trkpt lat="45.9008987" lon="8.7823143"><ele>476.0</ele><time>2026-04-26T09:02:23.998Z</time></trkpt><trkpt lat="45.9009421" lon="8.7821865"><ele>476.0</ele><time>2026-04-26T09:02:24.997Z</time></trkpt><trkpt lat="45.9010017" lon="8.7820502"><ele>476.0</ele><time>2026-04-26T09:02:25.998Z</time></trkpt><trkpt lat="45.9010566" lon="8.7819177"><ele>476.0</ele><time>2026-04-26T09:02:26.997Z</time></trkpt><trkpt lat="45.9011106" lon="8.7817715"><ele>476.0</ele><time>2026-04-26T09:02:27.997Z</time></trkpt><trkpt lat="45.9010967" lon="8.7816813"><ele>476.0</ele><time>2026-04-26T09:02:28.998Z</time></trkpt><trkpt lat="45.9011045" lon="8.7815562"><ele>476.0</ele><time>2026-04-26T09:02:29.997Z</time></trkpt><trkpt lat="45.9010281" lon="8.7814662"><ele>480.5</ele><time>2026-04-26T09:02:30.998Z</time></trkpt><trkpt lat="45.9009628" lon="8.7813637"><ele>485.0</ele><time>2026-04-26T09:02:31.998Z</time></trkpt><trkpt lat="45.9008782" lon="8.7812697"><ele>489.5</ele><time>2026-04-26T09:02:32.998Z</time></trkpt><trkpt lat="45.9007827" lon="8.7811684"><ele>494.0</ele><time>2026-04-26T09:02:33.998Z</time></trkpt><trkpt lat="45.9006756" lon="8.7810626"><ele>489.75</ele><time>2026-04-26T09:02:34.997Z</time></trkpt><trkpt lat="45.90057" lon="8.7809539"><ele>485.5</ele><time>2026-04-26T09:02:35.997Z</time></trkpt><trkpt lat="45.9004413" lon="8.7808671"><ele>481.25</ele><time>2026-04-26T09:02:36.996Z</time></trkpt><trkpt lat="45.9003221" lon="8.7807479"><ele>477.0</ele><time>2026-04-26T09:02:37.998Z</time></trkpt><trkpt lat="45.9002169" lon="8.7805938"><ele>477.0</ele><time>2026-04-26T09:02:38.998Z</time></trkpt><trkpt lat="45.9000989" lon="8.7804355"><ele>477.0</ele><time>2026-04-26T09:02:39.997Z</time></trkpt><trkpt lat="45.9000032" lon="8.7802628"><ele>477.0</ele><time>2026-04-26T09:02:40.996Z</time></trkpt><trkpt lat="45.8998796" lon="8.7801073"><ele>480.66666666666663</ele><time>2026-04-26T09:02:41.997Z</time></trkpt><trkpt lat="45.8997522" lon="8.7799509"><ele>484.3333333333333</ele><time>2026-04-26T09:02:42.997Z</time></trkpt><trkpt lat="45.8996332" lon="8.7797914"><ele>488.0</ele><time>2026-04-26T09:02:43.996Z</time></trkpt><trkpt lat="45.8995195" lon="8.7796163"><ele>488.0</ele><time>2026-04-26T09:02:44.996Z</time></trkpt><trkpt lat="45.8994097" lon="8.779449"><ele>488.0</ele><time>2026-04-26T09:02:45.998Z</time></trkpt><trkpt lat="45.8992989" lon="8.7792961"><ele>488.0</ele><time>2026-04-26T09:02:46.998Z</time></trkpt><trkpt lat="45.899204" lon="8.7791263"><ele>488.0</ele><time>2026-04-26T09:02:47.998Z</time></trkpt><trkpt lat="45.8991335" lon="8.7789525"><ele>488.0</ele><time>2026-04-26T09:02:48.997Z</time></trkpt><trkpt lat="45.8990878" lon="8.7787733"><ele>488.0</ele><time>2026-04-26T09:02:49.997Z</time></trkpt><trkpt lat="45.8990318" lon="8.7785892"><ele>488.0</ele><time>2026-04-26T09:02:50.998Z</time></trkpt><trkpt lat="45.898982" lon="8.7784089"><ele>488.0</ele><time>2026-04-26T09:02:51.998Z</time></trkpt><trkpt lat="45.8989259" lon="8.778238"><ele>488.0</ele><time>2026-04-26T09:02:52.998Z</time></trkpt><trkpt lat="45.8988657" lon="8.7780731"><ele>488.0</ele><time>2026-04-26T09:02:53.997Z</time></trkpt><trkpt lat="45.8988077" lon="8.7779288"><ele>488.0</ele><time>2026-04-26T09:02:54.996Z</time></trkpt><trkpt lat="45.8987359" lon="8.7778293"><ele>488.0</ele><time>2026-04-26T09:02:55.997Z</time></trkpt><trkpt lat="45.898648" lon="8.7777388"><ele>488.0</ele><time>2026-04-26T09:02:56.998Z</time></trkpt><trkpt lat="45.8985535" lon="8.7776922"><ele>488.0</ele><time>2026-04-26T09:02:57.997Z</time></trkpt><trkpt lat="45.8984358" lon="8.7776829"><ele>488.0</ele><time>2026-04-26T09:02:58.997Z</time></trkpt><trkpt lat="45.8982757" lon="8.7777203"><ele>496.3333333333333</ele><time>2026-04-26T09:02:59.996Z</time></trkpt><trkpt lat="45.8981491" lon="8.7777331"><ele>504.66666666666663</ele><time>2026-04-26T09:03:00.996Z</time></trkpt><trkpt lat="45.8979472" lon="8.7777815"><ele>513.0</ele><time>2026-04-26T09:03:01.996Z</time></trkpt><trkpt lat="45.8978147" lon="8.7778069"><ele>513.0</ele><time>2026-04-26T09:03:02.997Z</time></trkpt><trkpt lat="45.8976686" lon="8.7777702"><ele>513.0</ele><time>2026-04-26T09:03:03.997Z</time></trkpt><trkpt lat="45.8975212" lon="8.7776864"><ele>513.0</ele><time>2026-04-26T09:03:04.997Z</time></trkpt><trkpt lat="45.8973924" lon="8.7775535"><ele>511.25</ele><time>2026-04-26T09:03:05.998Z</time></trkpt><trkpt lat="45.8972684" lon="8.7774191"><ele>509.5</ele><time>2026-04-26T09:03:06.997Z</time></trkpt><trkpt lat="45.8971573" lon="8.7772911"><ele>507.75</ele><time>2026-04-26T09:03:07.997Z</time></trkpt><trkpt lat="45.8970444" lon="8.7772562"><ele>506.0</ele><time>2026-04-26T09:03:08.998Z</time></trkpt><trkpt lat="45.89693" lon="8.7771705"><ele>506.0</ele><time>2026-04-26T09:03:09.997Z</time></trkpt><trkpt lat="45.8968382" lon="8.7771287"><ele>506.0</ele><time>2026-04-26T09:03:10.998Z</time></trkpt><trkpt lat="45.896682" lon="8.7772663"><ele>506.0</ele><time>2026-04-26T09:03:11.998Z</time></trkpt><trkpt lat="45.8965424" lon="8.7773335"><ele>506.0</ele><time>2026-04-26T09:03:12.998Z</time></trkpt><trkpt lat="45.8963877" lon="8.7774238"><ele>508.0</ele><time>2026-04-26T09:03:13.998Z</time></trkpt><trkpt lat="45.8962432" lon="8.7775427"><ele>510.0</ele><time>2026-04-26T09:03:14.998Z</time></trkpt><trkpt lat="45.896098" lon="8.7776742"><ele>512.0</ele><time>2026-04-26T09:03:15.998Z</time></trkpt><trkpt lat="45.8959504" lon="8.7778188"><ele>511.0</ele><time>2026-04-26T09:03:16.997Z</time></trkpt><trkpt lat="45.8958071" lon="8.7779715"><ele>510.0</ele><time>2026-04-26T09:03:17.998Z</time></trkpt><trkpt lat="45.8956417" lon="8.7781028"><ele>509.0</ele><time>2026-04-26T09:03:18.998Z</time></trkpt><trkpt lat="45.8954887" lon="8.7782424"><ele>509.0</ele><time>2026-04-26T09:03:19.998Z</time></trkpt><trkpt lat="45.8953366" lon="8.7783746"><ele>509.0</ele><time>2026-04-26T09:03:20.998Z</time></trkpt><trkpt lat="45.8951902" lon="8.7785064"><ele>509.0</ele><time>2026-04-26T09:03:21.998Z</time></trkpt><trkpt lat="45.8950492" lon="8.7786409"><ele>510.3333333333333</ele><time>2026-04-26T09:03:22.998Z</time></trkpt><trkpt lat="45.8949028" lon="8.7787836"><ele>511.66666666666663</ele><time>2026-04-26T09:03:23.997Z</time></trkpt><trkpt lat="45.8947555" lon="8.7789205"><ele>513.0</ele><time>2026-04-26T09:03:24.997Z</time></trkpt><trkpt lat="45.8946296" lon="8.7790635"><ele>513.0</ele><time>2026-04-26T09:03:25.998Z</time></trkpt><trkpt lat="45.8945059" lon="8.7792212"><ele>513.0</ele><time>2026-04-26T09:03:26.998Z</time></trkpt><trkpt lat="45.8943921" lon="8.7793921"><ele>513.0</ele><time>2026-04-26T09:03:27.998Z</time></trkpt><trkpt lat="45.8942892" lon="8.7795731"><ele>511.25</ele><time>2026-04-26T09:03:28.998Z</time></trkpt><trkpt lat="45.8941977" lon="8.7797585"><ele>509.5</ele><time>2026-04-26T09:03:29.997Z</time></trkpt><trkpt lat="45.8941077" lon="8.7799281"><ele>507.75</ele><time>2026-04-26T09:03:30.998Z</time></trkpt><trkpt lat="45.8940249" lon="8.7800784"><ele>506.0</ele><time>2026-04-26T09:03:31.998Z</time></trkpt><trkpt lat="45.8939313" lon="8.7801927"><ele>511.25</ele><time>2026-04-26T09:03:32.998Z</time></trkpt><trkpt lat="45.8938315" lon="8.7802646"><ele>516.5</ele><time>2026-04-26T09:03:33.997Z</time></trkpt><trkpt lat="45.893718" lon="8.7802979"><ele>521.75</ele><time>2026-04-26T09:03:34.997Z</time></trkpt><trkpt lat="45.8935875" lon="8.7803078"><ele>527.0</ele><time>2026-04-26T09:03:35.998Z</time></trkpt><trkpt lat="45.8934608" lon="8.7803086"><ele>525.0</ele><time>2026-04-26T09:03:36.997Z</time></trkpt><trkpt lat="45.8933192" lon="8.7803162"><ele>523.0</ele><time>2026-04-26T09:03:37.997Z</time></trkpt><trkpt lat="45.8932225" lon="8.7804217"><ele>521.0</ele><time>2026-04-26T09:03:38.997Z</time></trkpt><trkpt lat="45.8930973" lon="8.7805293"><ele>519.0</ele><time>2026-04-26T09:03:39.998Z</time></trkpt><trkpt lat="45.8929736" lon="8.780616"><ele>519.0</ele><time>2026-04-26T09:03:40.998Z</time></trkpt><trkpt lat="45.8928195" lon="8.7806501"><ele>519.0</ele><time>2026-04-26T09:03:41.998Z</time></trkpt><trkpt lat="45.8926624" lon="8.780681"><ele>519.0</ele><time>2026-04-26T09:03:42.997Z</time></trkpt><trkpt lat="45.8924981" lon="8.7807039"><ele>517.6666666666666</ele><time>2026-04-26T09:03:43.998Z</time></trkpt><trkpt lat="45.892343" lon="8.7806937"><ele>516.3333333333333</ele><time>2026-04-26T09:03:44.998Z</time></trkpt><trkpt lat="45.8921776" lon="8.7807123"><ele>515.0</ele><time>2026-04-26T09:03:45.998Z</time></trkpt><trkpt lat="45.8920247" lon="8.7807444"><ele>515.0</ele><time>2026-04-26T09:03:46.997Z</time></trkpt><trkpt lat="45.8918768" lon="8.780809"><ele>515.0</ele><time>2026-04-26T09:03:47.997Z</time></trkpt><trkpt lat="45.8917305" lon="8.7809006"><ele>515.0</ele><time>2026-04-26T09:03:48.997Z</time></trkpt><trkpt lat="45.8915851" lon="8.7809985"><ele>517.0</ele><time>2026-04-26T09:03:49.998Z</time></trkpt><trkpt lat="45.8914259" lon="8.7810842"><ele>519.0</ele><time>2026-04-26T09:03:50.997Z</time></trkpt><trkpt lat="45.891281" lon="8.7811895"><ele>521.0</ele><time>2026-04-26T09:03:51.996Z</time></trkpt><trkpt lat="45.8911441" lon="8.7812944"><ele>521.0</ele><time>2026-04-26T09:03:52.998Z</time></trkpt><trkpt lat="45.8910094" lon="8.7813876"><ele>521.0</ele><time>2026-04-26T09:03:53.998Z</time></trkpt><trkpt lat="45.8908957" lon="8.7815096"><ele>521.0</ele><time>2026-04-26T09:03:54.997Z</time></trkpt><trkpt lat="45.8908013" lon="8.7816587"><ele>521.0</ele><time>2026-04-26T09:03:55.998Z</time></trkpt><trkpt lat="45.8907196" lon="8.7818344"><ele>519.0</ele><time>2026-04-26T09:03:56.997Z</time></trkpt><trkpt lat="45.8906599" lon="8.782018"><ele>517.0</ele><time>2026-04-26T09:03:57.996Z</time></trkpt><trkpt lat="45.8906044" lon="8.782198"><ele>515.0</ele><time>2026-04-26T09:03:58.996Z</time></trkpt><trkpt lat="45.8905682" lon="8.782378"><ele>513.0</ele><time>2026-04-26T09:03:59.997Z</time></trkpt><trkpt lat="45.8905406" lon="8.7825621"><ele>511.33333333333337</ele><time>2026-04-26T09:04:00.996Z</time></trkpt><trkpt lat="45.8905922" lon="8.7827791"><ele>509.6666666666667</ele><time>2026-04-26T09:04:01.996Z</time></trkpt><trkpt lat="45.8906252" lon="8.7829804"><ele>508.0</ele><time>2026-04-26T09:04:02.996Z</time></trkpt><trkpt lat="45.8906659" lon="8.7831844"><ele>508.0</ele><time>2026-04-26T09:04:03.997Z</time></trkpt><trkpt lat="45.89071" lon="8.7833781"><ele>508.0</ele><time>2026-04-26T09:04:04.997Z</time></trkpt><trkpt lat="45.8907335" lon="8.78358"><ele>508.0</ele><time>2026-04-26T09:04:05.997Z</time></trkpt><trkpt lat="45.8907386" lon="8.7837725"><ele>508.0</ele><time>2026-04-26T09:04:06.997Z</time></trkpt><trkpt lat="45.890732" lon="8.7839749"><ele>506.75</ele><time>2026-04-26T09:04:07.996Z</time></trkpt><trkpt lat="45.890711" lon="8.784178"><ele>505.5</ele><time>2026-04-26T09:04:08.997Z</time></trkpt><trkpt lat="45.8906802" lon="8.78438"><ele>504.25</ele><time>2026-04-26T09:04:09.997Z</time></trkpt><trkpt lat="45.8906513" lon="8.7845963"><ele>503.0</ele><time>2026-04-26T09:04:10.996Z</time></trkpt><trkpt lat="45.8906204" lon="8.7848044"><ele>503.0</ele><time>2026-04-26T09:04:11.996Z</time></trkpt><trkpt lat="45.8905903" lon="8.7850127"><ele>503.0</ele><time>2026-04-26T09:04:12.997Z</time></trkpt><trkpt lat="45.8905563" lon="8.7852226"><ele>503.0</ele><time>2026-04-26T09:04:13.997Z</time></trkpt><trkpt lat="45.8905321" lon="8.7854225"><ele>503.0</ele><time>2026-04-26T09:04:14.996Z</time></trkpt><trkpt lat="45.8905084" lon="8.7856141"><ele>503.75</ele><time>2026-04-26T09:04:15.997Z</time></trkpt><trkpt lat="45.8904845" lon="8.785807"><ele>504.5</ele><time>2026-04-26T09:04:16.997Z</time></trkpt><trkpt lat="45.8904618" lon="8.7859849"><ele>505.25</ele><time>2026-04-26T09:04:17.995Z</time></trkpt><trkpt lat="45.8904407" lon="8.7861594"><ele>506.0</ele><time>2026-04-26T09:04:18.997Z</time></trkpt><trkpt lat="45.8904173" lon="8.7863237"><ele>507.20000000000005</ele><time>2026-04-26T09:04:19.997Z</time></trkpt><trkpt lat="45.8903986" lon="8.7864867"><ele>508.40000000000003</ele><time>2026-04-26T09:04:20.996Z</time></trkpt><trkpt lat="45.8903728" lon="8.7866328"><ele>509.6</ele><time>2026-04-26T09:04:21.995Z</time></trkpt><trkpt lat="45.8903391" lon="8.7867599"><ele>510.8</ele><time>2026-04-26T09:04:22.996Z</time></trkpt><trkpt lat="45.8902984" lon="8.7868749"><ele>512.0</ele><time>2026-04-26T09:04:23.996Z</time></trkpt><trkpt lat="45.8902524" lon="8.7869693"><ele>513.3333333333333</ele><time>2026-04-26T09:04:24.997Z</time></trkpt><trkpt lat="45.8902044" lon="8.7870491"><ele>514.6666666666666</ele><time>2026-04-26T09:04:25.996Z</time></trkpt><trkpt lat="45.890161" lon="8.7871321"><ele>516.0</ele><time>2026-04-26T09:04:26.995Z</time></trkpt><trkpt lat="45.8901168" lon="8.7872168"><ele>517.3333333333334</ele><time>2026-04-26T09:04:27.996Z</time></trkpt><trkpt lat="45.8900613" lon="8.7873135"><ele>518.6666666666667</ele><time>2026-04-26T09:04:28.997Z</time></trkpt><trkpt lat="45.890002" lon="8.7874196"><ele>520.0</ele><time>2026-04-26T09:04:29.997Z</time></trkpt><trkpt lat="45.8899421" lon="8.7875271"><ele>518.0</ele><time>2026-04-26T09:04:30.997Z</time></trkpt><trkpt lat="45.8898923" lon="8.7876254"><ele>516.0</ele><time>2026-04-26T09:04:31.996Z</time></trkpt><trkpt lat="45.8898454" lon="8.7877044"><ele>514.0</ele><time>2026-04-26T09:04:32.995Z</time></trkpt><trkpt lat="45.8897499" lon="8.7877477"><ele>512.0</ele><time>2026-04-26T09:04:34.996Z</time></trkpt><trkpt lat="45.8897031" lon="8.7876237"><ele>510.00000000000006</ele><time>2026-04-26T09:04:36.995Z</time></trkpt><trkpt lat="45.8896855" lon="8.7875066"><ele>508.0</ele><time>2026-04-26T09:04:37.995Z</time></trkpt><trkpt lat="45.8896693" lon="8.7873682"><ele>507.0</ele><time>2026-04-26T09:04:38.996Z</time></trkpt><trkpt lat="45.8896522" lon="8.7872179"><ele>506.0</ele><time>2026-04-26T09:04:39.996Z</time></trkpt><trkpt lat="45.8896338" lon="8.7870648"><ele>505.0</ele><time>2026-04-26T09:04:40.996Z</time></trkpt><trkpt lat="45.8896195" lon="8.7868908"><ele>504.0</ele><time>2026-04-26T09:04:41.996Z</time></trkpt><trkpt lat="45.8896032" lon="8.7866984"><ele>503.0</ele><time>2026-04-26T09:04:42.996Z</time></trkpt><trkpt lat="45.8895892" lon="8.7864954"><ele>502.0</ele><time>2026-04-26T09:04:43.995Z</time></trkpt><trkpt lat="45.8895784" lon="8.7862951"><ele>501.0</ele><time>2026-04-26T09:04:44.996Z</time></trkpt><trkpt lat="45.889557" lon="8.7860698"><ele>500.0</ele><time>2026-04-26T09:04:45.997Z</time></trkpt><trkpt lat="45.8895386" lon="8.785854"><ele>499.0</ele><time>2026-04-26T09:04:46.997Z</time></trkpt><trkpt lat="45.8895117" lon="8.7856402"><ele>498.0</ele><time>2026-04-26T09:04:47.997Z</time></trkpt><trkpt lat="45.8894846" lon="8.7854295"><ele>497.0</ele><time>2026-04-26T09:04:48.996Z</time></trkpt><trkpt lat="45.8894437" lon="8.7852168"><ele>496.66666666666663</ele><time>2026-04-26T09:04:49.997Z</time></trkpt><trkpt lat="45.8894004" lon="8.7849976"><ele>496.33333333333337</ele><time>2026-04-26T09:04:50.996Z</time></trkpt><trkpt lat="45.889357" lon="8.7847804"><ele>496.0</ele><time>2026-04-26T09:04:51.996Z</time></trkpt><trkpt lat="45.8893203" lon="8.7845658"><ele>496.0</ele><time>2026-04-26T09:04:52.997Z</time></trkpt><trkpt lat="45.8892872" lon="8.7843538"><ele>496.0</ele><time>2026-04-26T09:04:53.996Z</time></trkpt><trkpt lat="45.8892622" lon="8.7841297"><ele>496.0</ele><time>2026-04-26T09:04:54.996Z</time></trkpt><trkpt lat="45.8892542" lon="8.7839091"><ele>496.33333333333337</ele><time>2026-04-26T09:04:55.996Z</time></trkpt><trkpt lat="45.8892525" lon="8.7836877"><ele>496.66666666666663</ele><time>2026-04-26T09:04:56.997Z</time></trkpt><trkpt lat="45.8892511" lon="8.783471"><ele>497.0</ele><time>2026-04-26T09:04:57.997Z</time></trkpt><trkpt lat="45.889251" lon="8.7832545"><ele>497.25</ele><time>2026-04-26T09:04:58.996Z</time></trkpt><trkpt lat="45.8892539" lon="8.7830384"><ele>497.5</ele><time>2026-04-26T09:04:59.996Z</time></trkpt><trkpt lat="45.8892574" lon="8.7828247"><ele>497.75</ele><time>2026-04-26T09:05:00.995Z</time></trkpt><trkpt lat="45.88926" lon="8.7826243"><ele>498.0</ele><time>2026-04-26T09:05:01.996Z</time></trkpt><trkpt lat="45.8892617" lon="8.7824261"><ele>498.25</ele><time>2026-04-26T09:05:02.996Z</time></trkpt><trkpt lat="45.8892693" lon="8.782232"><ele>498.5</ele><time>2026-04-26T09:05:03.996Z</time></trkpt><trkpt lat="45.8892724" lon="8.7820499"><ele>498.75</ele><time>2026-04-26T09:05:04.997Z</time></trkpt><trkpt lat="45.8892695" lon="8.7818815"><ele>499.0</ele><time>2026-04-26T09:05:05.995Z</time></trkpt><trkpt lat="45.8892455" lon="8.7817306"><ele>499.25</ele><time>2026-04-26T09:05:06.995Z</time></trkpt><trkpt lat="45.8891941" lon="8.7815919"><ele>499.5</ele><time>2026-04-26T09:05:07.996Z</time></trkpt><trkpt lat="45.8891132" lon="8.7814741"><ele>499.75</ele><time>2026-04-26T09:05:08.997Z</time></trkpt><trkpt lat="45.8890084" lon="8.7813712"><ele>500.0</ele><time>2026-04-26T09:05:09.996Z</time></trkpt><trkpt lat="45.8888897" lon="8.7812811"><ele>500.0</ele><time>2026-04-26T09:05:10.995Z</time></trkpt><trkpt lat="45.8887568" lon="8.7811936"><ele>500.0</ele><time>2026-04-26T09:05:11.995Z</time></trkpt><trkpt lat="45.8886267" lon="8.7810982"><ele>500.0</ele><time>2026-04-26T09:05:12.997Z</time></trkpt><trkpt lat="45.8884935" lon="8.7810027"><ele>500.0</ele><time>2026-04-26T09:05:13.996Z</time></trkpt><trkpt lat="45.8883618" lon="8.7809316"><ele>500.3333333333333</ele><time>2026-04-26T09:05:14.997Z</time></trkpt><trkpt lat="45.8882212" lon="8.7808791"><ele>500.66666666666663</ele><time>2026-04-26T09:05:15.996Z</time></trkpt><trkpt lat="45.8880751" lon="8.7808346"><ele>501.0</ele><time>2026-04-26T09:05:16.996Z</time></trkpt><trkpt lat="45.8879217" lon="8.7807974"><ele>501.0</ele><time>2026-04-26T09:05:17.997Z</time></trkpt><trkpt lat="45.8877733" lon="8.7807595"><ele>501.0</ele><time>2026-04-26T09:05:18.996Z</time></trkpt><trkpt lat="45.8876343" lon="8.7807222"><ele>501.0</ele><time>2026-04-26T09:05:19.996Z</time></trkpt><trkpt lat="45.8875034" lon="8.7806871"><ele>501.0</ele><time>2026-04-26T09:05:20.996Z</time></trkpt><trkpt lat="45.8873796" lon="8.7806376"><ele>502.0</ele><time>2026-04-26T09:05:21.997Z</time></trkpt><trkpt lat="45.8872571" lon="8.7805722"><ele>503.0</ele><time>2026-04-26T09:05:22.997Z</time></trkpt><trkpt lat="45.8871455" lon="8.7804786"><ele>504.0</ele><time>2026-04-26T09:05:23.996Z</time></trkpt><trkpt lat="45.8870417" lon="8.780356"><ele>505.0</ele><time>2026-04-26T09:05:24.996Z</time></trkpt><trkpt lat="45.8869375" lon="8.7802204"><ele>505.75</ele><time>2026-04-26T09:05:25.996Z</time></trkpt><trkpt lat="45.8868287" lon="8.7800772"><ele>506.5</ele><time>2026-04-26T09:05:26.996Z</time></trkpt><trkpt lat="45.8867182" lon="8.779944"><ele>507.25</ele><time>2026-04-26T09:05:27.995Z</time></trkpt><trkpt lat="45.8866165" lon="8.7798058"><ele>508.0</ele><time>2026-04-26T09:05:28.997Z</time></trkpt><trkpt lat="45.8865205" lon="8.7796684"><ele>508.0</ele><time>2026-04-26T09:05:29.997Z</time></trkpt><trkpt lat="45.8864282" lon="8.7795445"><ele>507.99999999999994</ele><time>2026-04-26T09:05:30.996Z</time></trkpt><trkpt lat="45.8863485" lon="8.779425"><ele>507.99999999999994</ele><time>2026-04-26T09:05:31.997Z</time></trkpt><trkpt lat="45.8862825" lon="8.7793215"><ele>508.0</ele><time>2026-04-26T09:05:32.996Z</time></trkpt><trkpt lat="45.8862237" lon="8.7792082"><ele>508.0</ele><time>2026-04-26T09:05:33.997Z</time></trkpt><trkpt lat="45.8861959" lon="8.7790568"><ele>507.0</ele><time>2026-04-26T09:05:34.997Z</time></trkpt><trkpt lat="45.8861637" lon="8.7788932"><ele>505.99999999999994</ele><time>2026-04-26T09:05:35.997Z</time></trkpt><trkpt lat="45.8861328" lon="8.7787317"><ele>504.99999999999994</ele><time>2026-04-26T09:05:36.997Z</time></trkpt><trkpt lat="45.8861121" lon="8.7785889"><ele>504.0</ele><time>2026-04-26T09:05:37.997Z</time></trkpt><trkpt lat="45.8861021" lon="8.7784551"><ele>503.0</ele><time>2026-04-26T09:05:38.996Z</time></trkpt><trkpt lat="45.8861056" lon="8.7783437"><ele>503.0</ele><time>2026-04-26T09:05:39.997Z</time></trkpt><trkpt lat="45.8861376" lon="8.7782603"><ele>502.99999999999994</ele><time>2026-04-26T09:05:40.996Z</time></trkpt><trkpt lat="45.8861821" lon="8.7781736"><ele>502.99999999999994</ele><time>2026-04-26T09:05:41.995Z</time></trkpt><trkpt lat="45.8862442" lon="8.7781014"><ele>503.0</ele><time>2026-04-26T09:05:42.996Z</time></trkpt><trkpt lat="45.886351" lon="8.7779767"><ele>503.0</ele><time>2026-04-26T09:05:43.995Z</time></trkpt><trkpt lat="45.8864887" lon="8.7779006"><ele>503.0</ele><time>2026-04-26T09:05:44.997Z</time></trkpt><trkpt lat="45.8866023" lon="8.7778315"><ele>503.0</ele><time>2026-04-26T09:05:45.995Z</time></trkpt><trkpt lat="45.8867222" lon="8.7777527"><ele>503.0</ele><time>2026-04-26T09:05:46.996Z</time></trkpt><trkpt lat="45.8868386" lon="8.7776465"><ele>503.0</ele><time>2026-04-26T09:05:47.996Z</time></trkpt><trkpt lat="45.8869618" lon="8.7775441"><ele>502.0</ele><time>2026-04-26T09:05:48.996Z</time></trkpt><trkpt lat="45.8870929" lon="8.777444"><ele>501.0</ele><time>2026-04-26T09:05:49.995Z</time></trkpt><trkpt lat="45.8872089" lon="8.7773132"><ele>500.0</ele><time>2026-04-26T09:05:50.996Z</time></trkpt><trkpt lat="45.8873392" lon="8.7771956"><ele>500.0</ele><time>2026-04-26T09:05:51.995Z</time></trkpt><trkpt lat="45.8874649" lon="8.777064"><ele>500.0</ele><time>2026-04-26T09:05:52.997Z</time></trkpt><trkpt lat="45.8875992" lon="8.7769319"><ele>500.0</ele><time>2026-04-26T09:05:53.996Z</time></trkpt><trkpt lat="45.8877277" lon="8.7767762"><ele>500.0</ele><time>2026-04-26T09:05:54.997Z</time></trkpt><trkpt lat="45.8878702" lon="8.7766319"><ele>500.0</ele><time>2026-04-26T09:05:55.997Z</time></trkpt><trkpt lat="45.8880069" lon="8.7764819"><ele>500.0</ele><time>2026-04-26T09:05:56.996Z</time></trkpt><trkpt lat="45.8881456" lon="8.7763367"><ele>500.0</ele><time>2026-04-26T09:05:57.995Z</time></trkpt><trkpt lat="45.8882772" lon="8.7761945"><ele>500.0</ele><time>2026-04-26T09:05:58.996Z</time></trkpt><trkpt lat="45.8884002" lon="8.7760587"><ele>500.0</ele><time>2026-04-26T09:05:59.996Z</time></trkpt><trkpt lat="45.8885207" lon="8.7759201"><ele>499.5</ele><time>2026-04-26T09:06:00.997Z</time></trkpt><trkpt lat="45.8886456" lon="8.775807"><ele>499.0</ele><time>2026-04-26T09:06:01.997Z</time></trkpt><trkpt lat="45.8887465" lon="8.7756982"><ele>498.5</ele><time>2026-04-26T09:06:02.996Z</time></trkpt><trkpt lat="45.888851" lon="8.7755806"><ele>498.0</ele><time>2026-04-26T09:06:03.996Z</time></trkpt><trkpt lat="45.8889566" lon="8.7754607"><ele>498.0</ele><time>2026-04-26T09:06:04.997Z</time></trkpt><trkpt lat="45.8890535" lon="8.7753349"><ele>497.99999999999994</ele><time>2026-04-26T09:06:05.996Z</time></trkpt><trkpt lat="45.8890849" lon="8.7751765"><ele>497.99999999999994</ele><time>2026-04-26T09:06:06.996Z</time></trkpt><trkpt lat="45.8890546" lon="8.7750648"><ele>498.0</ele><time>2026-04-26T09:06:07.997Z</time></trkpt><trkpt lat="45.889084" lon="8.7749195"><ele>498.0</ele><time>2026-04-26T09:06:08.995Z</time></trkpt><trkpt lat="45.8891078" lon="8.7747159"><ele>498.4</ele><time>2026-04-26T09:06:09.997Z</time></trkpt><trkpt lat="45.8891558" lon="8.7745502"><ele>498.79999999999995</ele><time>2026-04-26T09:06:10.996Z</time></trkpt><trkpt lat="45.8891973" lon="8.7744235"><ele>499.2</ele><time>2026-04-26T09:06:11.996Z</time></trkpt><trkpt lat="45.889258" lon="8.7743207"><ele>499.6</ele><time>2026-04-26T09:06:12.997Z</time></trkpt><trkpt lat="45.8893211" lon="8.7742216"><ele>500.0</ele><time>2026-04-26T09:06:13.996Z</time></trkpt><trkpt lat="45.88942" lon="8.7741909"><ele>500.0</ele><time>2026-04-26T09:06:14.997Z</time></trkpt><trkpt lat="45.8895337" lon="8.7741614"><ele>500.0</ele><time>2026-04-26T09:06:15.996Z</time></trkpt><trkpt lat="45.8896362" lon="8.7741549"><ele>500.0</ele><time>2026-04-26T09:06:16.996Z</time></trkpt><trkpt lat="45.8897475" lon="8.7741788"><ele>500.0</ele><time>2026-04-26T09:06:17.997Z</time></trkpt><trkpt lat="45.8898596" lon="8.7742108"><ele>500.0</ele><time>2026-04-26T09:06:18.997Z</time></trkpt><trkpt lat="45.8899805" lon="8.7742258"><ele>499.5</ele><time>2026-04-26T09:06:19.996Z</time></trkpt><trkpt lat="45.8900984" lon="8.7741937"><ele>499.0</ele><time>2026-04-26T09:06:20.996Z</time></trkpt><trkpt lat="45.8902194" lon="8.7741622"><ele>498.5</ele><time>2026-04-26T09:06:21.996Z</time></trkpt><trkpt lat="45.890341" lon="8.7741284"><ele>498.0</ele><time>2026-04-26T09:06:22.996Z</time></trkpt><trkpt lat="45.8904785" lon="8.7740748"><ele>498.0</ele><time>2026-04-26T09:06:23.996Z</time></trkpt><trkpt lat="45.8906153" lon="8.7740256"><ele>498.0</ele><time>2026-04-26T09:06:24.996Z</time></trkpt><trkpt lat="45.8907553" lon="8.7739676"><ele>498.0</ele><time>2026-04-26T09:06:25.996Z</time></trkpt><trkpt lat="45.8908946" lon="8.7739046"><ele>498.0</ele><time>2026-04-26T09:06:26.996Z</time></trkpt><trkpt lat="45.8910245" lon="8.7738557"><ele>497.0</ele><time>2026-04-26T09:06:27.996Z</time></trkpt><trkpt lat="45.8911426" lon="8.7737861"><ele>496.0</ele><time>2026-04-26T09:06:28.995Z</time></trkpt><trkpt lat="45.8912469" lon="8.7737094"><ele>495.0</ele><time>2026-04-26T09:06:29.997Z</time></trkpt><trkpt lat="45.8913282" lon="8.7735714"><ele>494.0</ele><time>2026-04-26T09:06:30.997Z</time></trkpt><trkpt lat="45.8914163" lon="8.7734445"><ele>494.0</ele><time>2026-04-26T09:06:31.997Z</time></trkpt><trkpt lat="45.8914896" lon="8.7732972"><ele>494.0</ele><time>2026-04-26T09:06:32.996Z</time></trkpt><trkpt lat="45.8915358" lon="8.7730567"><ele>494.0</ele><time>2026-04-26T09:06:33.996Z</time></trkpt><trkpt lat="45.8915814" lon="8.7728486"><ele>496.5</ele><time>2026-04-26T09:06:34.996Z</time></trkpt><trkpt lat="45.891609" lon="8.7726267"><ele>499.0</ele><time>2026-04-26T09:06:35.997Z</time></trkpt><trkpt lat="45.891624" lon="8.7724209"><ele>501.5</ele><time>2026-04-26T09:06:36.996Z</time></trkpt><trkpt lat="45.891643" lon="8.7722303"><ele>504.0</ele><time>2026-04-26T09:06:37.996Z</time></trkpt><trkpt lat="45.8916629" lon="8.7720428"><ele>504.0</ele><time>2026-04-26T09:06:38.997Z</time></trkpt><trkpt lat="45.8917047" lon="8.7719034"><ele>504.0</ele><time>2026-04-26T09:06:39.997Z</time></trkpt><trkpt lat="45.8917372" lon="8.7717622"><ele>504.0</ele><time>2026-04-26T09:06:40.995Z</time></trkpt><trkpt lat="45.8918158" lon="8.7716271"><ele>504.0</ele><time>2026-04-26T09:06:41.995Z</time></trkpt><trkpt lat="45.8918585" lon="8.7714731"><ele>504.0</ele><time>2026-04-26T09:06:42.996Z</time></trkpt><trkpt lat="45.8919351" lon="8.7713053"><ele>505.0</ele><time>2026-04-26T09:06:43.996Z</time></trkpt><trkpt lat="45.892007" lon="8.7711399"><ele>506.0</ele><time>2026-04-26T09:06:44.995Z</time></trkpt><trkpt lat="45.8920688" lon="8.7709527"><ele>507.0</ele><time>2026-04-26T09:06:45.997Z</time></trkpt><trkpt lat="45.8921313" lon="8.7707988"><ele>508.0</ele><time>2026-04-26T09:06:46.996Z</time></trkpt><trkpt lat="45.8921828" lon="8.770659"><ele>508.00000000000006</ele><time>2026-04-26T09:06:47.995Z</time></trkpt><trkpt lat="45.8922328" lon="8.7705497"><ele>508.0</ele><time>2026-04-26T09:06:48.996Z</time></trkpt><trkpt lat="45.8922548" lon="8.7704399"><ele>508.0</ele><time>2026-04-26T09:06:49.996Z</time></trkpt><trkpt lat="45.892294" lon="8.7703471"><ele>508.0</ele><time>2026-04-26T09:06:50.996Z</time></trkpt><trkpt lat="45.8923279" lon="8.7702539"><ele>508.00000000000006</ele><time>2026-04-26T09:06:52.995Z</time></trkpt><trkpt lat="45.8923898" lon="8.7701631"><ele>508.0</ele><time>2026-04-26T09:07:40.997Z</time></trkpt><trkpt lat="45.8924191" lon="8.770058"><ele>508.59999999999997</ele><time>2026-04-26T09:07:41.997Z</time></trkpt><trkpt lat="45.8924524" lon="8.7699549"><ele>509.19999999999993</ele><time>2026-04-26T09:07:42.997Z</time></trkpt><trkpt lat="45.8925068" lon="8.7698405"><ele>509.8</ele><time>2026-04-26T09:07:43.997Z</time></trkpt><trkpt lat="45.8925526" lon="8.7697193"><ele>510.4</ele><time>2026-04-26T09:07:44.996Z</time></trkpt><trkpt lat="45.8926059" lon="8.7696068"><ele>511.0</ele><time>2026-04-26T09:07:45.997Z</time></trkpt><trkpt lat="45.8926105" lon="8.7694587"><ele>511.75</ele><time>2026-04-26T09:07:46.996Z</time></trkpt><trkpt lat="45.8926108" lon="8.7692791"><ele>512.5</ele><time>2026-04-26T09:07:47.996Z</time></trkpt><trkpt lat="45.8925893" lon="8.7691102"><ele>513.25</ele><time>2026-04-26T09:07:48.996Z</time></trkpt><trkpt lat="45.8925802" lon="8.7689448"><ele>514.0</ele><time>2026-04-26T09:07:49.995Z</time></trkpt><trkpt lat="45.8925443" lon="8.7687468"><ele>514.75</ele><time>2026-04-26T09:07:50.996Z</time></trkpt><trkpt lat="45.8925154" lon="8.7685447"><ele>515.5</ele><time>2026-04-26T09:07:51.997Z</time></trkpt><trkpt lat="45.8924825" lon="8.7683428"><ele>516.25</ele><time>2026-04-26T09:07:52.996Z</time></trkpt><trkpt lat="45.892457" lon="8.768133"><ele>517.0</ele><time>2026-04-26T09:07:53.995Z</time></trkpt><trkpt lat="45.8924258" lon="8.7679331"><ele>517.0</ele><time>2026-04-26T09:07:54.995Z</time></trkpt><trkpt lat="45.8923765" lon="8.7677173"><ele>517.0</ele><time>2026-04-26T09:07:55.996Z</time></trkpt><trkpt lat="45.8923382" lon="8.767506"><ele>517.0</ele><time>2026-04-26T09:07:56.997Z</time></trkpt><trkpt lat="45.8922706" lon="8.7673054"><ele>516.6666666666667</ele><time>2026-04-26T09:07:57.996Z</time></trkpt><trkpt lat="45.8922005" lon="8.7671267"><ele>516.3333333333334</ele><time>2026-04-26T09:07:58.997Z</time></trkpt><trkpt lat="45.8921244" lon="8.766931"><ele>516.0</ele><time>2026-04-26T09:07:59.996Z</time></trkpt><trkpt lat="45.8920163" lon="8.7667691"><ele>516.25</ele><time>2026-04-26T09:08:00.996Z</time></trkpt><trkpt lat="45.8919301" lon="8.766618"><ele>516.5</ele><time>2026-04-26T09:08:01.995Z</time></trkpt><trkpt lat="45.8918467" lon="8.7665077"><ele>516.75</ele><time>2026-04-26T09:08:02.996Z</time></trkpt><trkpt lat="45.8917598" lon="8.766417"><ele>517.0</ele><time>2026-04-26T09:08:03.995Z</time></trkpt><trkpt lat="45.8916627" lon="8.7664219"><ele>517.0</ele><time>2026-04-26T09:08:04.995Z</time></trkpt><trkpt lat="45.8915436" lon="8.7664908"><ele>517.0</ele><time>2026-04-26T09:08:05.996Z</time></trkpt><trkpt lat="45.8914311" lon="8.7665592"><ele>517.0</ele><time>2026-04-26T09:08:06.996Z</time></trkpt><trkpt lat="45.8913125" lon="8.7666329"><ele>517.0</ele><time>2026-04-26T09:08:07.997Z</time></trkpt><trkpt lat="45.8912064" lon="8.7666798"><ele>517.0</ele><time>2026-04-26T09:08:08.996Z</time></trkpt><trkpt lat="45.8911072" lon="8.766709"><ele>517.0</ele><time>2026-04-26T09:08:09.996Z</time></trkpt><trkpt lat="45.891021" lon="8.7667258"><ele>517.0</ele><time>2026-04-26T09:08:10.996Z</time></trkpt><trkpt lat="45.8909471" lon="8.7667165"><ele>517.0</ele><time>2026-04-26T09:08:11.996Z</time></trkpt><trkpt lat="45.8908771" lon="8.766712"><ele>517.0</ele><time>2026-04-26T09:08:12.995Z</time></trkpt><trkpt lat="45.8909021" lon="8.7665909"><ele>517.0</ele><time>2026-04-26T09:08:13.996Z</time></trkpt><trkpt lat="45.8909752" lon="8.7664344"><ele>517.0</ele><time>2026-04-26T09:08:15.997Z</time></trkpt><trkpt lat="45.891051" lon="8.7663149"><ele>517.0</ele><time>2026-04-26T09:08:16.996Z</time></trkpt><trkpt lat="45.8911209" lon="8.7661876"><ele>517.0</ele><time>2026-04-26T09:08:17.996Z</time></trkpt><trkpt lat="45.8912085" lon="8.7660409"><ele>517.0</ele><time>2026-04-26T09:08:18.996Z</time></trkpt><trkpt lat="45.89129" lon="8.7658932"><ele>514.75</ele><time>2026-04-26T09:08:19.997Z</time></trkpt><trkpt lat="45.8913474" lon="8.7657298"><ele>512.5</ele><time>2026-04-26T09:08:20.996Z</time></trkpt><trkpt lat="45.8914094" lon="8.7655828"><ele>510.25</ele><time>2026-04-26T09:08:21.996Z</time></trkpt><trkpt lat="45.8914636" lon="8.7654379"><ele>508.0</ele><time>2026-04-26T09:08:22.995Z</time></trkpt><trkpt lat="45.8914846" lon="8.7652936"><ele>508.0</ele><time>2026-04-26T09:08:23.996Z</time></trkpt><trkpt lat="45.8914768" lon="8.7651378"><ele>508.0</ele><time>2026-04-26T09:08:24.996Z</time></trkpt><trkpt lat="45.8914332" lon="8.7649798"><ele>508.0</ele><time>2026-04-26T09:08:25.996Z</time></trkpt><trkpt lat="45.8913675" lon="8.7648187"><ele>508.0</ele><time>2026-04-26T09:08:26.996Z</time></trkpt><trkpt lat="45.8912932" lon="8.7646362"><ele>508.0</ele><time>2026-04-26T09:08:27.996Z</time></trkpt><trkpt lat="45.8912101" lon="8.7644599"><ele>508.0</ele><time>2026-04-26T09:08:28.996Z</time></trkpt><trkpt lat="45.8911095" lon="8.7642759"><ele>508.0</ele><time>2026-04-26T09:08:29.997Z</time></trkpt><trkpt lat="45.8910184" lon="8.764088"><ele>511.33333333333337</ele><time>2026-04-26T09:08:30.996Z</time></trkpt><trkpt lat="45.8909193" lon="8.7638977"><ele>514.6666666666666</ele><time>2026-04-26T09:08:31.997Z</time></trkpt><trkpt lat="45.8908232" lon="8.7637063"><ele>518.0</ele><time>2026-04-26T09:08:32.997Z</time></trkpt><trkpt lat="45.8907244" lon="8.7635028"><ele>518.0</ele><time>2026-04-26T09:08:33.997Z</time></trkpt><trkpt lat="45.8906314" lon="8.7633046"><ele>518.0</ele><time>2026-04-26T09:08:34.996Z</time></trkpt><trkpt lat="45.8905401" lon="8.7631153"><ele>518.0</ele><time>2026-04-26T09:08:35.997Z</time></trkpt><trkpt lat="45.8904631" lon="8.762934"><ele>518.0</ele><time>2026-04-26T09:08:36.995Z</time></trkpt><trkpt lat="45.8903886" lon="8.7627741"><ele>518.0</ele><time>2026-04-26T09:08:37.995Z</time></trkpt><trkpt lat="45.8903102" lon="8.7626382"><ele>518.0</ele><time>2026-04-26T09:08:38.995Z</time></trkpt><trkpt lat="45.8902208" lon="8.762503"><ele>518.0</ele><time>2026-04-26T09:08:39.994Z</time></trkpt><trkpt lat="45.8900929" lon="8.7624279"><ele>517.5</ele><time>2026-04-26T09:08:40.995Z</time></trkpt><trkpt lat="45.8899563" lon="8.7623426"><ele>517.0</ele><time>2026-04-26T09:08:41.994Z</time></trkpt><trkpt lat="45.889814" lon="8.7622634"><ele>516.5</ele><time>2026-04-26T09:08:42.994Z</time></trkpt><trkpt lat="45.8896777" lon="8.7621812"><ele>516.0</ele><time>2026-04-26T09:08:43.996Z</time></trkpt><trkpt lat="45.8895514" lon="8.7621055"><ele>516.0</ele><time>2026-04-26T09:08:44.996Z</time></trkpt><trkpt lat="45.8894448" lon="8.7620082"><ele>516.0</ele><time>2026-04-26T09:08:45.995Z</time></trkpt><trkpt lat="45.889353" lon="8.7619115"><ele>516.0</ele><time>2026-04-26T09:08:46.995Z</time></trkpt><trkpt lat="45.8892847" lon="8.7618009"><ele>516.0</ele><time>2026-04-26T09:08:47.995Z</time></trkpt><trkpt lat="45.8892361" lon="8.7616781"><ele>516.0</ele><time>2026-04-26T09:08:48.995Z</time></trkpt><trkpt lat="45.8892276" lon="8.7615316"><ele>516.0</ele><time>2026-04-26T09:08:49.994Z</time></trkpt><trkpt lat="45.8892466" lon="8.7613835"><ele>516.0</ele><time>2026-04-26T09:08:50.996Z</time></trkpt><trkpt lat="45.8892846" lon="8.7612301"><ele>516.0</ele><time>2026-04-26T09:08:51.995Z</time></trkpt><trkpt lat="45.8893636" lon="8.7611196"><ele>516.0</ele><time>2026-04-26T09:08:52.995Z</time></trkpt><trkpt lat="45.8894591" lon="8.7610267"><ele>516.0</ele><time>2026-04-26T09:08:53.994Z</time></trkpt><trkpt lat="45.8895637" lon="8.7609603"><ele>513.25</ele><time>2026-04-26T09:08:54.996Z</time></trkpt><trkpt lat="45.8897225" lon="8.760931"><ele>510.5</ele><time>2026-04-26T09:08:55.995Z</time></trkpt><trkpt lat="45.8898551" lon="8.7608714"><ele>507.75</ele><time>2026-04-26T09:08:56.995Z</time></trkpt><trkpt lat="45.8900013" lon="8.7608232"><ele>505.0</ele><time>2026-04-26T09:08:57.996Z</time></trkpt><trkpt lat="45.8901452" lon="8.7607748"><ele>503.5</ele><time>2026-04-26T09:08:58.994Z</time></trkpt><trkpt lat="45.8902812" lon="8.7607337"><ele>502.0</ele><time>2026-04-26T09:08:59.995Z</time></trkpt><trkpt lat="45.8903976" lon="8.7606886"><ele>500.5</ele><time>2026-04-26T09:09:00.994Z</time></trkpt><trkpt lat="45.8904998" lon="8.7606412"><ele>499.0</ele><time>2026-04-26T09:09:01.995Z</time></trkpt><trkpt lat="45.8905761" lon="8.7605599"><ele>499.0</ele><time>2026-04-26T09:09:02.995Z</time></trkpt><trkpt lat="45.8906108" lon="8.7604383"><ele>499.0</ele><time>2026-04-26T09:09:03.994Z</time></trkpt><trkpt lat="45.8906213" lon="8.760301"><ele>499.0</ele><time>2026-04-26T09:09:04.995Z</time></trkpt><trkpt lat="45.8906085" lon="8.7601336"><ele>499.0</ele><time>2026-04-26T09:09:05.995Z</time></trkpt><trkpt lat="45.8905923" lon="8.7599447"><ele>499.0</ele><time>2026-04-26T09:09:06.996Z</time></trkpt><trkpt lat="45.8905782" lon="8.7597456"><ele>499.75</ele><time>2026-04-26T09:09:07.995Z</time></trkpt><trkpt lat="45.8905556" lon="8.7595351"><ele>500.5</ele><time>2026-04-26T09:09:08.996Z</time></trkpt><trkpt lat="45.8905251" lon="8.7593207"><ele>501.25</ele><time>2026-04-26T09:09:09.995Z</time></trkpt><trkpt lat="45.890507" lon="8.7591111"><ele>502.0</ele><time>2026-04-26T09:09:10.996Z</time></trkpt><trkpt lat="45.8904769" lon="8.7588865"><ele>502.0</ele><time>2026-04-26T09:09:11.996Z</time></trkpt><trkpt lat="45.8904458" lon="8.7586624"><ele>502.0</ele><time>2026-04-26T09:09:12.995Z</time></trkpt><trkpt lat="45.8904256" lon="8.7584437"><ele>502.0</ele><time>2026-04-26T09:09:13.994Z</time></trkpt><trkpt lat="45.8904011" lon="8.7582252"><ele>502.33333333333337</ele><time>2026-04-26T09:09:14.994Z</time></trkpt><trkpt lat="45.8903762" lon="8.7580108"><ele>502.66666666666663</ele><time>2026-04-26T09:09:15.995Z</time></trkpt><trkpt lat="45.8903444" lon="8.7577945"><ele>503.0</ele><time>2026-04-26T09:09:16.995Z</time></trkpt><trkpt lat="45.8903165" lon="8.7575861"><ele>503.25</ele><time>2026-04-26T09:09:17.995Z</time></trkpt><trkpt lat="45.8902916" lon="8.7574043"><ele>503.5</ele><time>2026-04-26T09:09:18.994Z</time></trkpt><trkpt lat="45.8902773" lon="8.7572378"><ele>503.75</ele><time>2026-04-26T09:09:19.996Z</time></trkpt><trkpt lat="45.8902745" lon="8.7570791"><ele>504.0</ele><time>2026-04-26T09:09:20.996Z</time></trkpt><trkpt lat="45.89029" lon="8.7569361"><ele>504.0</ele><time>2026-04-26T09:09:21.996Z</time></trkpt><trkpt lat="45.8903319" lon="8.7568076"><ele>504.0</ele><time>2026-04-26T09:09:22.996Z</time></trkpt><trkpt lat="45.8903959" lon="8.7567151"><ele>504.0</ele><time>2026-04-26T09:09:23.994Z</time></trkpt><trkpt lat="45.8904681" lon="8.75666"><ele>504.0</ele><time>2026-04-26T09:09:24.995Z</time></trkpt><trkpt lat="45.8905582" lon="8.7566255"><ele>504.0</ele><time>2026-04-26T09:09:25.995Z</time></trkpt><trkpt lat="45.890669" lon="8.7566327"><ele>504.0</ele><time>2026-04-26T09:09:26.995Z</time></trkpt><trkpt lat="45.8907733" lon="8.7566383"><ele>504.0</ele><time>2026-04-26T09:09:27.995Z</time></trkpt><trkpt lat="45.8908709" lon="8.7566339"><ele>504.0</ele><time>2026-04-26T09:09:28.996Z</time></trkpt><trkpt lat="45.8909593" lon="8.7566108"><ele>504.0</ele><time>2026-04-26T09:09:29.996Z</time></trkpt><trkpt lat="45.891016" lon="8.756539"><ele>504.0</ele><time>2026-04-26T09:09:30.996Z</time></trkpt><trkpt lat="45.8910672" lon="8.7564289"><ele>505.4</ele><time>2026-04-26T09:09:31.996Z</time></trkpt><trkpt lat="45.8911039" lon="8.7562943"><ele>506.79999999999995</ele><time>2026-04-26T09:09:32.995Z</time></trkpt><trkpt lat="45.8911297" lon="8.7561405"><ele>508.20000000000005</ele><time>2026-04-26T09:09:33.994Z</time></trkpt><trkpt lat="45.8911877" lon="8.7560312"><ele>509.6</ele><time>2026-04-26T09:09:34.994Z</time></trkpt><trkpt lat="45.8912363" lon="8.755921"><ele>511.0</ele><time>2026-04-26T09:09:35.995Z</time></trkpt><trkpt lat="45.8912751" lon="8.7558107"><ele>511.00000000000006</ele><time>2026-04-26T09:09:36.994Z</time></trkpt><trkpt lat="45.8912952" lon="8.7556788"><ele>511.0</ele><time>2026-04-26T09:09:37.995Z</time></trkpt><trkpt lat="45.8912886" lon="8.755549"><ele>511.0</ele><time>2026-04-26T09:09:38.996Z</time></trkpt><trkpt lat="45.8912661" lon="8.755427"><ele>511.0</ele><time>2026-04-26T09:09:39.995Z</time></trkpt><trkpt lat="45.8912457" lon="8.7553206"><ele>511.00000000000006</ele><time>2026-04-26T09:09:40.995Z</time></trkpt><trkpt lat="45.891218" lon="8.755201"><ele>511.0</ele><time>2026-04-26T09:09:41.996Z</time></trkpt><trkpt lat="45.8911833" lon="8.7550789"><ele>510.0</ele><time>2026-04-26T09:09:42.996Z</time></trkpt><trkpt lat="45.8911553" lon="8.7549563"><ele>509.0</ele><time>2026-04-26T09:09:43.996Z</time></trkpt><trkpt lat="45.8911189" lon="8.7548191"><ele>508.0</ele><time>2026-04-26T09:09:44.995Z</time></trkpt><trkpt lat="45.8910923" lon="8.7546708"><ele>507.0</ele><time>2026-04-26T09:09:45.995Z</time></trkpt><trkpt lat="45.8910599" lon="8.7545202"><ele>506.0</ele><time>2026-04-26T09:09:46.995Z</time></trkpt><trkpt lat="45.8910222" lon="8.7543573"><ele>506.0</ele><time>2026-04-26T09:09:47.995Z</time></trkpt><trkpt lat="45.890982" lon="8.754192"><ele>506.0</ele><time>2026-04-26T09:09:48.994Z</time></trkpt><trkpt lat="45.8909284" lon="8.7540176"><ele>506.0</ele><time>2026-04-26T09:09:49.995Z</time></trkpt><trkpt lat="45.8908609" lon="8.7538424"><ele>506.0</ele><time>2026-04-26T09:09:50.994Z</time></trkpt><trkpt lat="45.890794" lon="8.7536667"><ele>506.25</ele><time>2026-04-26T09:09:51.995Z</time></trkpt><trkpt lat="45.8907228" lon="8.7534895"><ele>506.5</ele><time>2026-04-26T09:09:52.995Z</time></trkpt><trkpt lat="45.8906479" lon="8.7533204"><ele>506.75</ele><time>2026-04-26T09:09:53.995Z</time></trkpt><trkpt lat="45.8905595" lon="8.7531616"><ele>507.0</ele><time>2026-04-26T09:09:54.996Z</time></trkpt><trkpt lat="45.8904595" lon="8.7530142"><ele>507.0</ele><time>2026-04-26T09:09:55.996Z</time></trkpt><trkpt lat="45.8903588" lon="8.7528649"><ele>507.0</ele><time>2026-04-26T09:09:56.995Z</time></trkpt><trkpt lat="45.890253" lon="8.7527223"><ele>507.0</ele><time>2026-04-26T09:09:57.996Z</time></trkpt><trkpt lat="45.8901348" lon="8.7525833"><ele>507.0</ele><time>2026-04-26T09:09:58.996Z</time></trkpt><trkpt lat="45.8900155" lon="8.7524419"><ele>507.66666666666663</ele><time>2026-04-26T09:09:59.994Z</time></trkpt><trkpt lat="45.8898949" lon="8.7522963"><ele>508.3333333333333</ele><time>2026-04-26T09:10:00.996Z</time></trkpt><trkpt lat="45.8897752" lon="8.7521469"><ele>509.0</ele><time>2026-04-26T09:10:01.996Z</time></trkpt><trkpt lat="45.8896564" lon="8.7520051"><ele>514.3333333333333</ele><time>2026-04-26T09:10:02.995Z</time></trkpt><trkpt lat="45.8895353" lon="8.7518644"><ele>519.6666666666666</ele><time>2026-04-26T09:10:03.996Z</time></trkpt><trkpt lat="45.8894192" lon="8.7517222"><ele>525.0</ele><time>2026-04-26T09:10:04.996Z</time></trkpt><trkpt lat="45.8893025" lon="8.7515758"><ele>518.0</ele><time>2026-04-26T09:10:05.994Z</time></trkpt><trkpt lat="45.8891886" lon="8.7514294"><ele>511.0</ele><time>2026-04-26T09:10:06.996Z</time></trkpt><trkpt lat="45.889079" lon="8.7512812"><ele>504.0</ele><time>2026-04-26T09:10:07.994Z</time></trkpt><trkpt lat="45.8889734" lon="8.7511259"><ele>508.33333333333337</ele><time>2026-04-26T09:10:08.996Z</time></trkpt><trkpt lat="45.888882" lon="8.7509481"><ele>512.6666666666667</ele><time>2026-04-26T09:10:09.996Z</time></trkpt><trkpt lat="45.8888038" lon="8.7507472"><ele>517.0</ele><time>2026-04-26T09:10:10.995Z</time></trkpt><trkpt lat="45.8887275" lon="8.7505349"><ele>517.0</ele><time>2026-04-26T09:10:11.996Z</time></trkpt><trkpt lat="45.8886553" lon="8.7503206"><ele>517.0</ele><time>2026-04-26T09:10:12.996Z</time></trkpt><trkpt lat="45.8885873" lon="8.7501054"><ele>517.0</ele><time>2026-04-26T09:10:13.994Z</time></trkpt><trkpt lat="45.8885179" lon="8.7498835"><ele>519.6666666666667</ele><time>2026-04-26T09:10:14.994Z</time></trkpt><trkpt lat="45.8884454" lon="8.7496682"><ele>522.3333333333334</ele><time>2026-04-26T09:10:15.995Z</time></trkpt><trkpt lat="45.8883676" lon="8.7494485"><ele>525.0</ele><time>2026-04-26T09:10:16.996Z</time></trkpt><trkpt lat="45.8882855" lon="8.7492261"><ele>518.0</ele><time>2026-04-26T09:10:17.996Z</time></trkpt><trkpt lat="45.8882069" lon="8.7490045"><ele>511.0</ele><time>2026-04-26T09:10:18.996Z</time></trkpt><trkpt lat="45.888132" lon="8.7487935"><ele>504.0</ele><time>2026-04-26T09:10:19.996Z</time></trkpt><trkpt lat="45.8880497" lon="8.7485693"><ele>507.0</ele><time>2026-04-26T09:10:20.994Z</time></trkpt><trkpt lat="45.8879692" lon="8.7483545"><ele>510.0</ele><time>2026-04-26T09:10:21.995Z</time></trkpt><trkpt lat="45.8878867" lon="8.7481332"><ele>513.0</ele><time>2026-04-26T09:10:22.995Z</time></trkpt><trkpt lat="45.8878119" lon="8.7479107"><ele>511.0</ele><time>2026-04-26T09:10:23.996Z</time></trkpt><trkpt lat="45.8877251" lon="8.7476939"><ele>509.0</ele><time>2026-04-26T09:10:24.995Z</time></trkpt><trkpt lat="45.8876426" lon="8.7474797"><ele>507.0</ele><time>2026-04-26T09:10:25.995Z</time></trkpt><trkpt lat="45.8875609" lon="8.7472603"><ele>507.0</ele><time>2026-04-26T09:10:26.995Z</time></trkpt><trkpt lat="45.8874851" lon="8.7470422"><ele>507.0</ele><time>2026-04-26T09:10:27.994Z</time></trkpt><trkpt lat="45.8874141" lon="8.7468099"><ele>507.0</ele><time>2026-04-26T09:10:28.994Z</time></trkpt><trkpt lat="45.8873482" lon="8.7465833"><ele>507.0</ele><time>2026-04-26T09:10:29.995Z</time></trkpt><trkpt lat="45.8872927" lon="8.7463522"><ele>507.0</ele><time>2026-04-26T09:10:30.996Z</time></trkpt><trkpt lat="45.8872413" lon="8.7461095"><ele>507.0</ele><time>2026-04-26T09:10:31.995Z</time></trkpt><trkpt lat="45.8871871" lon="8.7458782"><ele>507.0</ele><time>2026-04-26T09:10:32.994Z</time></trkpt><trkpt lat="45.8871378" lon="8.7456331"><ele>507.0</ele><time>2026-04-26T09:10:33.996Z</time></trkpt><trkpt lat="45.8870898" lon="8.7454026"><ele>507.0</ele><time>2026-04-26T09:10:34.996Z</time></trkpt><trkpt lat="45.8870429" lon="8.7451747"><ele>510.33333333333337</ele><time>2026-04-26T09:10:35.995Z</time></trkpt><trkpt lat="45.8869988" lon="8.7449453"><ele>513.6666666666667</ele><time>2026-04-26T09:10:36.995Z</time></trkpt><trkpt lat="45.8869573" lon="8.744727"><ele>517.0</ele><time>2026-04-26T09:10:37.995Z</time></trkpt><trkpt lat="45.8869179" lon="8.7445027"><ele>521.0</ele><time>2026-04-26T09:10:38.995Z</time></trkpt><trkpt lat="45.8868836" lon="8.7442808"><ele>525.0</ele><time>2026-04-26T09:10:39.996Z</time></trkpt><trkpt lat="45.8868434" lon="8.7440573"><ele>529.0</ele><time>2026-04-26T09:10:40.996Z</time></trkpt><trkpt lat="45.8867974" lon="8.743819"><ele>520.0</ele><time>2026-04-26T09:10:41.995Z</time></trkpt><trkpt lat="45.886751" lon="8.7435842"><ele>511.0</ele><time>2026-04-26T09:10:42.995Z</time></trkpt><trkpt lat="45.8867072" lon="8.743359"><ele>502.0</ele><time>2026-04-26T09:10:43.996Z</time></trkpt><trkpt lat="45.8866616" lon="8.7431204"><ele>502.0</ele><time>2026-04-26T09:10:44.995Z</time></trkpt><trkpt lat="45.8866179" lon="8.7428775"><ele>502.0</ele><time>2026-04-26T09:10:45.996Z</time></trkpt><trkpt lat="45.8865764" lon="8.7426326"><ele>502.0</ele><time>2026-04-26T09:10:46.995Z</time></trkpt><trkpt lat="45.8865269" lon="8.7423908"><ele>502.33333333333337</ele><time>2026-04-26T09:10:47.996Z</time></trkpt><trkpt lat="45.8864861" lon="8.7421665"><ele>502.66666666666663</ele><time>2026-04-26T09:10:48.995Z</time></trkpt><trkpt lat="45.8864413" lon="8.7419475"><ele>503.0</ele><time>2026-04-26T09:10:49.996Z</time></trkpt><trkpt lat="45.8863981" lon="8.7417493"><ele>505.25</ele><time>2026-04-26T09:10:50.995Z</time></trkpt><trkpt lat="45.8863528" lon="8.7415613"><ele>507.5</ele><time>2026-04-26T09:10:51.996Z</time></trkpt><trkpt lat="45.8862906" lon="8.7413882"><ele>509.75</ele><time>2026-04-26T09:10:52.994Z</time></trkpt><trkpt lat="45.8862098" lon="8.7412278"><ele>512.0</ele><time>2026-04-26T09:10:53.996Z</time></trkpt><trkpt lat="45.8861077" lon="8.7410843"><ele>515.25</ele><time>2026-04-26T09:10:54.996Z</time></trkpt><trkpt lat="45.8859962" lon="8.7409304"><ele>518.5</ele><time>2026-04-26T09:10:55.996Z</time></trkpt><trkpt lat="45.8858821" lon="8.7408181"><ele>521.75</ele><time>2026-04-26T09:10:56.994Z</time></trkpt><trkpt lat="45.8857807" lon="8.7407023"><ele>525.0</ele><time>2026-04-26T09:10:57.996Z</time></trkpt><trkpt lat="45.8856906" lon="8.7405969"><ele>518.8</ele><time>2026-04-26T09:10:58.996Z</time></trkpt><trkpt lat="45.8856076" lon="8.7405042"><ele>512.6</ele><time>2026-04-26T09:10:59.996Z</time></trkpt><trkpt lat="45.8855881" lon="8.7403691"><ele>506.4</ele><time>2026-04-26T09:11:00.994Z</time></trkpt><trkpt lat="45.8855497" lon="8.7402391"><ele>500.2</ele><time>2026-04-26T09:11:01.996Z</time></trkpt><trkpt lat="45.8855751" lon="8.7400448"><ele>494.0</ele><time>2026-04-26T09:11:02.994Z</time></trkpt><trkpt lat="45.8855907" lon="8.7398564"><ele>492.3333333333333</ele><time>2026-04-26T09:11:03.994Z</time></trkpt><trkpt lat="45.8856272" lon="8.7396376"><ele>490.66666666666663</ele><time>2026-04-26T09:11:04.995Z</time></trkpt><trkpt lat="45.8856528" lon="8.7394234"><ele>489.0</ele><time>2026-04-26T09:11:05.996Z</time></trkpt><trkpt lat="45.8856841" lon="8.739196"><ele>486.66666666666663</ele><time>2026-04-26T09:11:06.994Z</time></trkpt><trkpt lat="45.8857246" lon="8.738966"><ele>484.3333333333333</ele><time>2026-04-26T09:11:07.996Z</time></trkpt><trkpt lat="45.8857713" lon="8.7387379"><ele>482.0</ele><time>2026-04-26T09:11:08.996Z</time></trkpt><trkpt lat="45.8858199" lon="8.7385036"><ele>481.0</ele><time>2026-04-26T09:11:09.994Z</time></trkpt><trkpt lat="45.885867" lon="8.7382898"><ele>480.0</ele><time>2026-04-26T09:11:10.996Z</time></trkpt><trkpt lat="45.8859117" lon="8.7380795"><ele>479.0</ele><time>2026-04-26T09:11:11.995Z</time></trkpt><trkpt lat="45.8859542" lon="8.7378723"><ele>474.66666666666663</ele><time>2026-04-26T09:11:12.995Z</time></trkpt><trkpt lat="45.8860302" lon="8.7376752"><ele>470.33333333333337</ele><time>2026-04-26T09:11:13.996Z</time></trkpt><trkpt lat="45.8861316" lon="8.7375044"><ele>466.0</ele><time>2026-04-26T09:11:14.996Z</time></trkpt><trkpt lat="45.8862547" lon="8.7373321"><ele>466.0</ele><time>2026-04-26T09:11:15.994Z</time></trkpt><trkpt lat="45.886358" lon="8.7371556"><ele>466.0</ele><time>2026-04-26T09:11:16.995Z</time></trkpt><trkpt lat="45.8864628" lon="8.7369831"><ele>466.0</ele><time>2026-04-26T09:11:17.996Z</time></trkpt><trkpt lat="45.8865716" lon="8.7368049"><ele>469.0</ele><time>2026-04-26T09:11:18.995Z</time></trkpt><trkpt lat="45.886688" lon="8.7366267"><ele>472.0</ele><time>2026-04-26T09:11:19.995Z</time></trkpt><trkpt lat="45.886799" lon="8.7364396"><ele>475.0</ele><time>2026-04-26T09:11:20.995Z</time></trkpt><trkpt lat="45.8869155" lon="8.736253"><ele>468.6666666666667</ele><time>2026-04-26T09:11:21.995Z</time></trkpt><trkpt lat="45.8870309" lon="8.7360746"><ele>462.33333333333337</ele><time>2026-04-26T09:11:22.995Z</time></trkpt><trkpt lat="45.8871451" lon="8.7358907"><ele>456.0</ele><time>2026-04-26T09:11:23.996Z</time></trkpt><trkpt lat="45.8872639" lon="8.7357103"><ele>455.66666666666663</ele><time>2026-04-26T09:11:24.995Z</time></trkpt><trkpt lat="45.8873839" lon="8.7355233"><ele>455.3333333333333</ele><time>2026-04-26T09:11:25.994Z</time></trkpt><trkpt lat="45.8875197" lon="8.7353256"><ele>455.0</ele><time>2026-04-26T09:11:26.994Z</time></trkpt><trkpt lat="45.8876498" lon="8.7351125"><ele>450.3333333333333</ele><time>2026-04-26T09:11:27.996Z</time></trkpt><trkpt lat="45.8877792" lon="8.7349076"><ele>445.66666666666663</ele><time>2026-04-26T09:11:28.996Z</time></trkpt><trkpt lat="45.8878961" lon="8.7347125"><ele>441.0</ele><time>2026-04-26T09:11:29.996Z</time></trkpt><trkpt lat="45.8880213" lon="8.7345187"><ele>445.0</ele><time>2026-04-26T09:11:30.995Z</time></trkpt><trkpt lat="45.8881442" lon="8.7343331"><ele>449.0</ele><time>2026-04-26T09:11:31.996Z</time></trkpt><trkpt lat="45.8882495" lon="8.7341472"><ele>453.0</ele><time>2026-04-26T09:11:32.995Z</time></trkpt><trkpt lat="45.8883728" lon="8.7339803"><ele>447.0</ele><time>2026-04-26T09:11:33.996Z</time></trkpt><trkpt lat="45.8884801" lon="8.7338024"><ele>441.0</ele><time>2026-04-26T09:11:34.996Z</time></trkpt><trkpt lat="45.8885948" lon="8.7336224"><ele>435.0</ele><time>2026-04-26T09:11:35.995Z</time></trkpt><trkpt lat="45.8887119" lon="8.7334297"><ele>435.0</ele><time>2026-04-26T09:11:36.996Z</time></trkpt><trkpt lat="45.8888073" lon="8.7332316"><ele>435.0</ele><time>2026-04-26T09:11:37.996Z</time></trkpt><trkpt lat="45.8888944" lon="8.7330343"><ele>435.0</ele><time>2026-04-26T09:11:38.994Z</time></trkpt><trkpt lat="45.8889873" lon="8.7328535"><ele>438.0</ele><time>2026-04-26T09:11:39.994Z</time></trkpt><trkpt lat="45.8890781" lon="8.7326841"><ele>441.0</ele><time>2026-04-26T09:11:40.995Z</time></trkpt><trkpt lat="45.8891496" lon="8.7325092"><ele>444.0</ele><time>2026-04-26T09:11:41.995Z</time></trkpt><trkpt lat="45.8892111" lon="8.7323167"><ele>447.0</ele><time>2026-04-26T09:11:42.995Z</time></trkpt><trkpt lat="45.8892387" lon="8.7321046"><ele>447.33333333333337</ele><time>2026-04-26T09:11:43.995Z</time></trkpt><trkpt lat="45.8892555" lon="8.7318787"><ele>447.6666666666667</ele><time>2026-04-26T09:11:44.996Z</time></trkpt><trkpt lat="45.889264" lon="8.7316481"><ele>448.0</ele><time>2026-04-26T09:11:45.995Z</time></trkpt><trkpt lat="45.8892819" lon="8.7314163"><ele>441.0</ele><time>2026-04-26T09:11:46.995Z</time></trkpt><trkpt lat="45.8892962" lon="8.7312002"><ele>434.0</ele><time>2026-04-26T09:11:47.994Z</time></trkpt><trkpt lat="45.8893157" lon="8.7309801"><ele>427.0</ele><time>2026-04-26T09:11:48.996Z</time></trkpt><trkpt lat="45.8893484" lon="8.7307411"><ele>426.6666666666667</ele><time>2026-04-26T09:11:49.996Z</time></trkpt><trkpt lat="45.8893805" lon="8.7305319"><ele>426.33333333333337</ele><time>2026-04-26T09:11:50.996Z</time></trkpt><trkpt lat="45.8894128" lon="8.7303125"><ele>426.0</ele><time>2026-04-26T09:11:51.994Z</time></trkpt><trkpt lat="45.8894599" lon="8.7300854"><ele>425.66666666666663</ele><time>2026-04-26T09:11:52.994Z</time></trkpt><trkpt lat="45.8894897" lon="8.7298712"><ele>425.3333333333333</ele><time>2026-04-26T09:11:53.996Z</time></trkpt><trkpt lat="45.8895588" lon="8.7296632"><ele>425.0</ele><time>2026-04-26T09:11:54.996Z</time></trkpt><trkpt lat="45.889614" lon="8.7294493"><ele>426.3333333333333</ele><time>2026-04-26T09:11:55.995Z</time></trkpt><trkpt lat="45.8896636" lon="8.7292394"><ele>427.66666666666663</ele><time>2026-04-26T09:11:56.994Z</time></trkpt><trkpt lat="45.889725" lon="8.7290127"><ele>429.0</ele><time>2026-04-26T09:11:57.996Z</time></trkpt><trkpt lat="45.8897754" lon="8.7287737"><ele>428.33333333333337</ele><time>2026-04-26T09:11:58.996Z</time></trkpt><trkpt lat="45.8898189" lon="8.7285499"><ele>427.6666666666667</ele><time>2026-04-26T09:11:59.996Z</time></trkpt><trkpt lat="45.8898708" lon="8.7283208"><ele>427.0</ele><time>2026-04-26T09:12:00.996Z</time></trkpt><trkpt lat="45.8899053" lon="8.7280988"><ele>427.0</ele><time>2026-04-26T09:12:01.995Z</time></trkpt><trkpt lat="45.8899448" lon="8.7278783"><ele>427.0</ele><time>2026-04-26T09:12:02.996Z</time></trkpt><trkpt lat="45.8899706" lon="8.7276431"><ele>427.0</ele><time>2026-04-26T09:12:03.996Z</time></trkpt><trkpt lat="45.889991" lon="8.7274062"><ele>426.33333333333337</ele><time>2026-04-26T09:12:04.995Z</time></trkpt><trkpt lat="45.8899977" lon="8.7271617"><ele>425.66666666666663</ele><time>2026-04-26T09:12:05.996Z</time></trkpt><trkpt lat="45.8900107" lon="8.7269465"><ele>425.0</ele><time>2026-04-26T09:12:06.996Z</time></trkpt><trkpt lat="45.8900152" lon="8.726743"><ele>424.25</ele><time>2026-04-26T09:12:07.995Z</time></trkpt><trkpt lat="45.8900184" lon="8.7265547"><ele>423.5</ele><time>2026-04-26T09:12:08.995Z</time></trkpt><trkpt lat="45.8900213" lon="8.7263742"><ele>422.75</ele><time>2026-04-26T09:12:09.996Z</time></trkpt><trkpt lat="45.8900166" lon="8.7262152"><ele>422.0</ele><time>2026-04-26T09:12:10.995Z</time></trkpt><trkpt lat="45.890015" lon="8.7260805"><ele>421.16666666666663</ele><time>2026-04-26T09:12:11.994Z</time></trkpt><trkpt lat="45.8900106" lon="8.7259557"><ele>420.3333333333333</ele><time>2026-04-26T09:12:12.995Z</time></trkpt><trkpt lat="45.8900065" lon="8.7258364"><ele>419.5</ele><time>2026-04-26T09:12:13.995Z</time></trkpt><trkpt lat="45.8900111" lon="8.7257156"><ele>418.66666666666663</ele><time>2026-04-26T09:12:14.996Z</time></trkpt><trkpt lat="45.8900207" lon="8.7255941"><ele>417.8333333333333</ele><time>2026-04-26T09:12:15.994Z</time></trkpt><trkpt lat="45.890023" lon="8.7254685"><ele>417.0</ele><time>2026-04-26T09:12:16.996Z</time></trkpt><trkpt lat="45.8900225" lon="8.7253404"><ele>416.0</ele><time>2026-04-26T09:12:17.996Z</time></trkpt><trkpt lat="45.8900189" lon="8.7252109"><ele>415.0</ele><time>2026-04-26T09:12:18.994Z</time></trkpt><trkpt lat="45.8900016" lon="8.7250712"><ele>414.0</ele><time>2026-04-26T09:12:19.994Z</time></trkpt><trkpt lat="45.8899817" lon="8.7249195"><ele>413.0</ele><time>2026-04-26T09:12:20.995Z</time></trkpt><trkpt lat="45.8899667" lon="8.7247585"><ele>412.0</ele><time>2026-04-26T09:12:21.995Z</time></trkpt><trkpt lat="45.8899539" lon="8.7245837"><ele>412.0</ele><time>2026-04-26T09:12:22.996Z</time></trkpt><trkpt lat="45.8899445" lon="8.7244058"><ele>412.0</ele><time>2026-04-26T09:12:23.995Z</time></trkpt><trkpt lat="45.8899298" lon="8.724217"><ele>412.0</ele><time>2026-04-26T09:12:24.996Z</time></trkpt><trkpt lat="45.8899161" lon="8.7240248"><ele>412.0</ele><time>2026-04-26T09:12:25.995Z</time></trkpt><trkpt lat="45.8899015" lon="8.7238185"><ele>410.5</ele><time>2026-04-26T09:12:26.996Z</time></trkpt><trkpt lat="45.8898817" lon="8.7236117"><ele>409.0</ele><time>2026-04-26T09:12:27.995Z</time></trkpt><trkpt lat="45.8898698" lon="8.7234012"><ele>407.5</ele><time>2026-04-26T09:12:28.994Z</time></trkpt><trkpt lat="45.8898555" lon="8.7232041"><ele>406.0</ele><time>2026-04-26T09:12:29.995Z</time></trkpt><trkpt lat="45.8898395" lon="8.7230255"><ele>405.20000000000005</ele><time>2026-04-26T09:12:30.996Z</time></trkpt><trkpt lat="45.8898192" lon="8.7228703"><ele>404.40000000000003</ele><time>2026-04-26T09:12:31.995Z</time></trkpt><trkpt lat="45.8898093" lon="8.7227357"><ele>403.6</ele><time>2026-04-26T09:12:32.995Z</time></trkpt><trkpt lat="45.8898291" lon="8.7226298"><ele>402.8</ele><time>2026-04-26T09:12:33.994Z</time></trkpt><trkpt lat="45.8898989" lon="8.7224949"><ele>402.0</ele><time>2026-04-26T09:12:35.994Z</time></trkpt><trkpt lat="45.8900452" lon="8.7225535"><ele>401.25</ele><time>2026-04-26T09:12:37.993Z</time></trkpt><trkpt lat="45.8900869" lon="8.7226719"><ele>400.5</ele><time>2026-04-26T09:12:38.995Z</time></trkpt><trkpt lat="45.8901018" lon="8.7228279"><ele>399.75</ele><time>2026-04-26T09:12:39.995Z</time></trkpt><trkpt lat="45.8901352" lon="8.7230514"><ele>399.0</ele><time>2026-04-26T09:12:40.995Z</time></trkpt><trkpt lat="45.8902392" lon="8.7232498"><ele>398.0</ele><time>2026-04-26T09:12:41.994Z</time></trkpt><trkpt lat="45.8902897" lon="8.7234681"><ele>397.0</ele><time>2026-04-26T09:12:42.994Z</time></trkpt><trkpt lat="45.8903442" lon="8.7236395"><ele>396.0</ele><time>2026-04-26T09:12:43.994Z</time></trkpt><trkpt lat="45.8904054" lon="8.7238251"><ele>395.0</ele><time>2026-04-26T09:12:44.993Z</time></trkpt><trkpt lat="45.8904667" lon="8.7240198"><ele>395.0</ele><time>2026-04-26T09:12:45.994Z</time></trkpt><trkpt lat="45.8905323" lon="8.7242171"><ele>395.0</ele><time>2026-04-26T09:12:46.994Z</time></trkpt><trkpt lat="45.8905917" lon="8.7244016"><ele>395.0</ele><time>2026-04-26T09:12:47.994Z</time></trkpt><trkpt lat="45.8906607" lon="8.7245939"><ele>395.0</ele><time>2026-04-26T09:12:48.995Z</time></trkpt><trkpt lat="45.8907104" lon="8.7247873"><ele>395.0</ele><time>2026-04-26T09:12:49.993Z</time></trkpt><trkpt lat="45.8907657" lon="8.7249505"><ele>395.0</ele><time>2026-04-26T09:12:50.994Z</time></trkpt><trkpt lat="45.8908374" lon="8.725091"><ele>395.0</ele><time>2026-04-26T09:12:51.995Z</time></trkpt><trkpt lat="45.8909157" lon="8.7252367"><ele>395.0</ele><time>2026-04-26T09:12:52.994Z</time></trkpt><trkpt lat="45.8909737" lon="8.7253512"><ele>392.4</ele><time>2026-04-26T09:12:53.995Z</time></trkpt><trkpt lat="45.8910497" lon="8.7254402"><ele>389.8</ele><time>2026-04-26T09:12:54.994Z</time></trkpt><trkpt lat="45.8911499" lon="8.7254841"><ele>387.20000000000005</ele><time>2026-04-26T09:12:55.994Z</time></trkpt><trkpt lat="45.8912448" lon="8.7254792"><ele>384.6</ele><time>2026-04-26T09:12:56.995Z</time></trkpt><trkpt lat="45.8913238" lon="8.7254119"><ele>382.0</ele><time>2026-04-26T09:12:57.994Z</time></trkpt><trkpt lat="45.8913752" lon="8.7252945"><ele>382.25</ele><time>2026-04-26T09:12:58.994Z</time></trkpt><trkpt lat="45.8913817" lon="8.7251713"><ele>382.5</ele><time>2026-04-26T09:12:59.995Z</time></trkpt><trkpt lat="45.8913654" lon="8.7250025"><ele>382.75</ele><time>2026-04-26T09:13:00.994Z</time></trkpt><trkpt lat="45.8913411" lon="8.7248336"><ele>383.0</ele><time>2026-04-26T09:13:01.994Z</time></trkpt><trkpt lat="45.8913087" lon="8.7246598"><ele>383.0</ele><time>2026-04-26T09:13:02.995Z</time></trkpt><trkpt lat="45.8912784" lon="8.7244788"><ele>383.0</ele><time>2026-04-26T09:13:03.995Z</time></trkpt><trkpt lat="45.8912447" lon="8.7242921"><ele>383.0</ele><time>2026-04-26T09:13:04.993Z</time></trkpt><trkpt lat="45.8912142" lon="8.7240781"><ele>383.0</ele><time>2026-04-26T09:13:05.993Z</time></trkpt><trkpt lat="45.891183" lon="8.7238785"><ele>382.75</ele><time>2026-04-26T09:13:06.994Z</time></trkpt><trkpt lat="45.8911341" lon="8.7236656"><ele>382.5</ele><time>2026-04-26T09:13:07.993Z</time></trkpt><trkpt lat="45.8911072" lon="8.7234615"><ele>382.25</ele><time>2026-04-26T09:13:08.993Z</time></trkpt><trkpt lat="45.8910724" lon="8.7232544"><ele>382.0</ele><time>2026-04-26T09:13:09.994Z</time></trkpt><trkpt lat="45.8910364" lon="8.7230418"><ele>381.75</ele><time>2026-04-26T09:13:10.995Z</time></trkpt><trkpt lat="45.8910055" lon="8.7228381"><ele>381.5</ele><time>2026-04-26T09:13:11.994Z</time></trkpt><trkpt lat="45.8909707" lon="8.7226273"><ele>381.25</ele><time>2026-04-26T09:13:12.995Z</time></trkpt><trkpt lat="45.8909365" lon="8.7224229"><ele>381.0</ele><time>2026-04-26T09:13:13.994Z</time></trkpt><trkpt lat="45.8909033" lon="8.7222193"><ele>380.25</ele><time>2026-04-26T09:13:14.995Z</time></trkpt><trkpt lat="45.8908734" lon="8.7220193"><ele>379.5</ele><time>2026-04-26T09:13:15.995Z</time></trkpt><trkpt lat="45.8908412" lon="8.7218252"><ele>378.75</ele><time>2026-04-26T09:13:16.994Z</time></trkpt><trkpt lat="45.890808" lon="8.7216266"><ele>378.0</ele><time>2026-04-26T09:13:17.995Z</time></trkpt><trkpt lat="45.8907782" lon="8.7214404"><ele>377.0</ele><time>2026-04-26T09:13:18.993Z</time></trkpt><trkpt lat="45.8907552" lon="8.7212475"><ele>376.0</ele><time>2026-04-26T09:13:19.995Z</time></trkpt><trkpt lat="45.8907415" lon="8.7210428"><ele>375.0</ele><time>2026-04-26T09:13:20.994Z</time></trkpt><trkpt lat="45.8907342" lon="8.7208395"><ele>374.0</ele><time>2026-04-26T09:13:21.993Z</time></trkpt><trkpt lat="45.890731" lon="8.7206292"><ele>374.0</ele><time>2026-04-26T09:13:22.995Z</time></trkpt><trkpt lat="45.8907291" lon="8.720412"><ele>374.0</ele><time>2026-04-26T09:13:23.995Z</time></trkpt><trkpt lat="45.8907321" lon="8.7201856"><ele>374.0</ele><time>2026-04-26T09:13:24.993Z</time></trkpt><trkpt lat="45.890741" lon="8.7199647"><ele>372.33333333333337</ele><time>2026-04-26T09:13:25.994Z</time></trkpt><trkpt lat="45.8907426" lon="8.7197374"><ele>370.6666666666667</ele><time>2026-04-26T09:13:26.994Z</time></trkpt><trkpt lat="45.8907468" lon="8.7195138"><ele>369.0</ele><time>2026-04-26T09:13:27.995Z</time></trkpt><trkpt lat="45.8907446" lon="8.7192952"><ele>368.5</ele><time>2026-04-26T09:13:28.995Z</time></trkpt><trkpt lat="45.8907469" lon="8.7190784"><ele>368.0</ele><time>2026-04-26T09:13:29.995Z</time></trkpt><trkpt lat="45.8907469" lon="8.7188591"><ele>367.5</ele><time>2026-04-26T09:13:30.994Z</time></trkpt><trkpt lat="45.8907452" lon="8.718653"><ele>367.0</ele><time>2026-04-26T09:13:31.994Z</time></trkpt><trkpt lat="45.8907485" lon="8.7184544"><ele>366.25</ele><time>2026-04-26T09:13:32.993Z</time></trkpt><trkpt lat="45.8907648" lon="8.718264"><ele>365.5</ele><time>2026-04-26T09:13:33.994Z</time></trkpt><trkpt lat="45.8907965" lon="8.7180818"><ele>364.75</ele><time>2026-04-26T09:13:34.994Z</time></trkpt><trkpt lat="45.890827" lon="8.7179005"><ele>364.0</ele><time>2026-04-26T09:13:35.994Z</time></trkpt><trkpt lat="45.8908721" lon="8.71773"><ele>362.5</ele><time>2026-04-26T09:13:36.993Z</time></trkpt><trkpt lat="45.8909307" lon="8.7175604"><ele>361.0</ele><time>2026-04-26T09:13:37.993Z</time></trkpt><trkpt lat="45.8909899" lon="8.717399"><ele>359.5</ele><time>2026-04-26T09:13:38.994Z</time></trkpt><trkpt lat="45.8910446" lon="8.7172488"><ele>358.0</ele><time>2026-04-26T09:13:39.994Z</time></trkpt><trkpt lat="45.8910993" lon="8.7171194"><ele>358.0</ele><time>2026-04-26T09:13:40.994Z</time></trkpt><trkpt lat="45.8911474" lon="8.7170024"><ele>358.0</ele><time>2026-04-26T09:13:41.994Z</time></trkpt><trkpt lat="45.8911807" lon="8.7169053"><ele>358.0</ele><time>2026-04-26T09:13:42.995Z</time></trkpt><trkpt lat="45.8912036" lon="8.7168174"><ele>358.0</ele><time>2026-04-26T09:13:43.993Z</time></trkpt><trkpt lat="45.891235" lon="8.7167181"><ele>358.0</ele><time>2026-04-26T09:13:44.995Z</time></trkpt><trkpt lat="45.891271" lon="8.7166197"><ele>358.0</ele><time>2026-04-26T09:13:45.993Z</time></trkpt><trkpt lat="45.8912792" lon="8.7165156"><ele>355.79999999999995</ele><time>2026-04-26T09:13:46.995Z</time></trkpt><trkpt lat="45.8912535" lon="8.7164206"><ele>353.6</ele><time>2026-04-26T09:13:47.994Z</time></trkpt><trkpt lat="45.8912193" lon="8.7163145"><ele>351.4</ele><time>2026-04-26T09:13:48.994Z</time></trkpt><trkpt lat="45.8911738" lon="8.7161921"><ele>349.20000000000005</ele><time>2026-04-26T09:13:49.994Z</time></trkpt><trkpt lat="45.8911157" lon="8.7160755"><ele>347.0</ele><time>2026-04-26T09:13:50.995Z</time></trkpt><trkpt lat="45.8910509" lon="8.7159565"><ele>347.0</ele><time>2026-04-26T09:13:51.994Z</time></trkpt><trkpt lat="45.8909784" lon="8.7158258"><ele>347.0</ele><time>2026-04-26T09:13:52.995Z</time></trkpt><trkpt lat="45.8909065" lon="8.7156973"><ele>347.0</ele><time>2026-04-26T09:13:53.995Z</time></trkpt><trkpt lat="45.8908388" lon="8.7155642"><ele>347.0</ele><time>2026-04-26T09:13:54.993Z</time></trkpt><trkpt lat="45.8907767" lon="8.7154439"><ele>347.20000000000005</ele><time>2026-04-26T09:13:55.993Z</time></trkpt><trkpt lat="45.8907123" lon="8.7153215"><ele>347.4</ele><time>2026-04-26T09:13:56.994Z</time></trkpt><trkpt lat="45.8906447" lon="8.7152005"><ele>347.6</ele><time>2026-04-26T09:13:57.993Z</time></trkpt><trkpt lat="45.890579" lon="8.7150849"><ele>347.79999999999995</ele><time>2026-04-26T09:13:58.993Z</time></trkpt><trkpt lat="45.8905186" lon="8.7149652"><ele>348.0</ele><time>2026-04-26T09:13:59.994Z</time></trkpt><trkpt lat="45.8904593" lon="8.7148516"><ele>347.4</ele><time>2026-04-26T09:14:00.993Z</time></trkpt><trkpt lat="45.8904033" lon="8.7147403"><ele>346.79999999999995</ele><time>2026-04-26T09:14:01.994Z</time></trkpt><trkpt lat="45.8903459" lon="8.7146314"><ele>346.2</ele><time>2026-04-26T09:14:02.993Z</time></trkpt><trkpt lat="45.8902924" lon="8.714516"><ele>345.6</ele><time>2026-04-26T09:14:03.995Z</time></trkpt><trkpt lat="45.8902388" lon="8.7144156"><ele>345.0</ele><time>2026-04-26T09:14:04.994Z</time></trkpt><trkpt lat="45.8901827" lon="8.7143007"><ele>344.8</ele><time>2026-04-26T09:14:05.994Z</time></trkpt><trkpt lat="45.8901234" lon="8.7141791"><ele>344.6</ele><time>2026-04-26T09:14:06.994Z</time></trkpt><trkpt lat="45.8900654" lon="8.7140479"><ele>344.4</ele><time>2026-04-26T09:14:07.994Z</time></trkpt><trkpt lat="45.8899995" lon="8.7139166"><ele>344.2</ele><time>2026-04-26T09:14:08.995Z</time></trkpt><trkpt lat="45.889933" lon="8.7137769"><ele>344.0</ele><time>2026-04-26T09:14:09.994Z</time></trkpt><trkpt lat="45.8898683" lon="8.7136343"><ele>342.0</ele><time>2026-04-26T09:14:10.994Z</time></trkpt><trkpt lat="45.8897949" lon="8.7134852"><ele>340.0</ele><time>2026-04-26T09:14:11.994Z</time></trkpt><trkpt lat="45.8897188" lon="8.713329"><ele>338.0</ele><time>2026-04-26T09:14:12.994Z</time></trkpt><trkpt lat="45.8896444" lon="8.7131718"><ele>336.0</ele><time>2026-04-26T09:14:13.994Z</time></trkpt><trkpt lat="45.889565" lon="8.7130104"><ele>336.0</ele><time>2026-04-26T09:14:14.995Z</time></trkpt><trkpt lat="45.8894852" lon="8.7128441"><ele>336.0</ele><time>2026-04-26T09:14:15.993Z</time></trkpt><trkpt lat="45.8894087" lon="8.7126806"><ele>336.0</ele><time>2026-04-26T09:14:16.994Z</time></trkpt><trkpt lat="45.8893314" lon="8.7125144"><ele>336.0</ele><time>2026-04-26T09:14:17.993Z</time></trkpt><trkpt lat="45.889267" lon="8.7123401"><ele>338.25</ele><time>2026-04-26T09:14:18.994Z</time></trkpt><trkpt lat="45.8892023" lon="8.7121538"><ele>340.5</ele><time>2026-04-26T09:14:19.994Z</time></trkpt><trkpt lat="45.889144" lon="8.7119699"><ele>342.75</ele><time>2026-04-26T09:14:20.995Z</time></trkpt><trkpt lat="45.8890903" lon="8.7117836"><ele>345.0</ele><time>2026-04-26T09:14:21.994Z</time></trkpt><trkpt lat="45.8890376" lon="8.711596"><ele>345.75</ele><time>2026-04-26T09:14:22.993Z</time></trkpt><trkpt lat="45.8889867" lon="8.7114037"><ele>346.5</ele><time>2026-04-26T09:14:23.994Z</time></trkpt><trkpt lat="45.8889414" lon="8.7112356"><ele>347.25</ele><time>2026-04-26T09:14:24.995Z</time></trkpt><trkpt lat="45.8888968" lon="8.7110745"><ele>348.0</ele><time>2026-04-26T09:14:25.995Z</time></trkpt><trkpt lat="45.8888536" lon="8.7109217"><ele>348.0</ele><time>2026-04-26T09:14:26.994Z</time></trkpt><trkpt lat="45.8888066" lon="8.7107698"><ele>348.0</ele><time>2026-04-26T09:14:27.994Z</time></trkpt><trkpt lat="45.8887454" lon="8.7106309"><ele>348.0</ele><time>2026-04-26T09:14:28.994Z</time></trkpt><trkpt lat="45.888663" lon="8.7105077"><ele>348.0</ele><time>2026-04-26T09:14:29.995Z</time></trkpt><trkpt lat="45.8885715" lon="8.71038"><ele>348.0</ele><time>2026-04-26T09:14:30.995Z</time></trkpt><trkpt lat="45.8884747" lon="8.7102448"><ele>348.0</ele><time>2026-04-26T09:14:31.994Z</time></trkpt><trkpt lat="45.8883741" lon="8.710115"><ele>348.0</ele><time>2026-04-26T09:14:32.995Z</time></trkpt><trkpt lat="45.8882697" lon="8.7099831"><ele>348.0</ele><time>2026-04-26T09:14:33.995Z</time></trkpt><trkpt lat="45.8881653" lon="8.709851"><ele>350.5</ele><time>2026-04-26T09:14:34.993Z</time></trkpt><trkpt lat="45.8880616" lon="8.709715"><ele>353.0</ele><time>2026-04-26T09:14:35.995Z</time></trkpt><trkpt lat="45.8879541" lon="8.7095766"><ele>355.5</ele><time>2026-04-26T09:14:36.995Z</time></trkpt><trkpt lat="45.8878506" lon="8.7094413"><ele>358.0</ele><time>2026-04-26T09:14:37.993Z</time></trkpt><trkpt lat="45.887754" lon="8.7093102"><ele>359.0</ele><time>2026-04-26T09:14:38.995Z</time></trkpt><trkpt lat="45.8876593" lon="8.7091897"><ele>360.0</ele><time>2026-04-26T09:14:39.995Z</time></trkpt><trkpt lat="45.8875731" lon="8.7090818"><ele>361.0</ele><time>2026-04-26T09:14:40.994Z</time></trkpt><trkpt lat="45.8874936" lon="8.7089873"><ele>362.0</ele><time>2026-04-26T09:14:41.994Z</time></trkpt><trkpt lat="45.8874254" lon="8.7088895"><ele>363.0</ele><time>2026-04-26T09:14:42.994Z</time></trkpt><trkpt lat="45.8873734" lon="8.7088168"><ele>364.2</ele><time>2026-04-26T09:14:43.995Z</time></trkpt><trkpt lat="45.887311" lon="8.7087185"><ele>365.4</ele><time>2026-04-26T09:14:45.995Z</time></trkpt><trkpt lat="45.8872335" lon="8.7086922"><ele>366.59999999999997</ele><time>2026-04-26T09:14:47.994Z</time></trkpt><trkpt lat="45.8872356" lon="8.7085369"><ele>367.79999999999995</ele><time>2026-04-26T09:15:14.995Z</time></trkpt><trkpt lat="45.8872097" lon="8.7084247"><ele>369.0</ele><time>2026-04-26T09:15:15.995Z</time></trkpt><trkpt lat="45.887181" lon="8.708305"><ele>370.0</ele><time>2026-04-26T09:15:16.995Z</time></trkpt><trkpt lat="45.8871464" lon="8.708169"><ele>371.0</ele><time>2026-04-26T09:15:17.994Z</time></trkpt><trkpt lat="45.8871131" lon="8.7080273"><ele>372.0</ele><time>2026-04-26T09:15:18.994Z</time></trkpt><trkpt lat="45.8870736" lon="8.7078806"><ele>373.0</ele><time>2026-04-26T09:15:19.995Z</time></trkpt><trkpt lat="45.8870365" lon="8.7077264"><ele>374.0</ele><time>2026-04-26T09:15:20.994Z</time></trkpt><trkpt lat="45.8870073" lon="8.7075977"><ele>373.83333333333337</ele><time>2026-04-26T09:15:21.995Z</time></trkpt><trkpt lat="45.8869789" lon="8.7074706"><ele>373.6666666666667</ele><time>2026-04-26T09:15:22.993Z</time></trkpt><trkpt lat="45.8869438" lon="8.707364"><ele>373.5</ele><time>2026-04-26T09:15:23.993Z</time></trkpt><trkpt lat="45.8869084" lon="8.7072781"><ele>373.3333333333333</ele><time>2026-04-26T09:15:24.995Z</time></trkpt><trkpt lat="45.8867957" lon="8.7072232"><ele>373.16666666666663</ele><time>2026-04-26T09:15:26.995Z</time></trkpt><trkpt lat="45.8867231" lon="8.7072605"><ele>373.0</ele><time>2026-04-26T09:15:27.995Z</time></trkpt><trkpt lat="45.8866485" lon="8.7073465"><ele>373.0</ele><time>2026-04-26T09:15:28.994Z</time></trkpt><trkpt lat="45.8865736" lon="8.7074459"><ele>373.0</ele><time>2026-04-26T09:15:29.995Z</time></trkpt><trkpt lat="45.8864871" lon="8.7075534"><ele>373.0</ele><time>2026-04-26T09:15:30.994Z</time></trkpt><trkpt lat="45.8863802" lon="8.707664"><ele>373.0</ele><time>2026-04-26T09:15:31.994Z</time></trkpt><trkpt lat="45.8862741" lon="8.7077778"><ele>373.0</ele><time>2026-04-26T09:15:32.995Z</time></trkpt><trkpt lat="45.8861624" lon="8.7078952"><ele>373.0</ele><time>2026-04-26T09:15:33.995Z</time></trkpt><trkpt lat="45.8860515" lon="8.7080159"><ele>373.0</ele><time>2026-04-26T09:15:34.995Z</time></trkpt><trkpt lat="45.8859342" lon="8.7081356"><ele>373.0</ele><time>2026-04-26T09:15:35.994Z</time></trkpt><trkpt lat="45.8858176" lon="8.7082553"><ele>374.25</ele><time>2026-04-26T09:15:36.994Z</time></trkpt><trkpt lat="45.8857087" lon="8.7083651"><ele>375.5</ele><time>2026-04-26T09:15:37.995Z</time></trkpt><trkpt lat="45.885603" lon="8.7084696"><ele>376.75</ele><time>2026-04-26T09:15:38.995Z</time></trkpt><trkpt lat="45.8855011" lon="8.7085751"><ele>378.0</ele><time>2026-04-26T09:15:39.995Z</time></trkpt><trkpt lat="45.8854029" lon="8.7086824"><ele>378.59999999999997</ele><time>2026-04-26T09:15:40.994Z</time></trkpt><trkpt lat="45.8853073" lon="8.7087823"><ele>379.2</ele><time>2026-04-26T09:15:41.994Z</time></trkpt><trkpt lat="45.88521" lon="8.708874"><ele>379.8</ele><time>2026-04-26T09:15:42.994Z</time></trkpt><trkpt lat="45.885116" lon="8.7089539"><ele>380.4</ele><time>2026-04-26T09:15:43.995Z</time></trkpt><trkpt lat="45.88502" lon="8.7090164"><ele>381.0</ele><time>2026-04-26T09:15:44.994Z</time></trkpt><trkpt lat="45.884926" lon="8.7090745"><ele>382.0</ele><time>2026-04-26T09:15:45.993Z</time></trkpt><trkpt lat="45.8848203" lon="8.7091237"><ele>383.0</ele><time>2026-04-26T09:15:46.993Z</time></trkpt><trkpt lat="45.8847178" lon="8.7091703"><ele>384.0</ele><time>2026-04-26T09:15:47.995Z</time></trkpt><trkpt lat="45.884608" lon="8.7092334"><ele>385.0</ele><time>2026-04-26T09:15:48.993Z</time></trkpt><trkpt lat="45.8845016" lon="8.7093173"><ele>387.5</ele><time>2026-04-26T09:15:49.994Z</time></trkpt><trkpt lat="45.884411" lon="8.7094285"><ele>390.0</ele><time>2026-04-26T09:15:50.994Z</time></trkpt><trkpt lat="45.8843314" lon="8.7095884"><ele>392.5</ele><time>2026-04-26T09:15:51.994Z</time></trkpt><trkpt lat="45.8842662" lon="8.7097774"><ele>395.0</ele><time>2026-04-26T09:15:52.995Z</time></trkpt><trkpt lat="45.8842095" lon="8.7099849"><ele>395.66666666666663</ele><time>2026-04-26T09:15:53.995Z</time></trkpt><trkpt lat="45.8841512" lon="8.7101996"><ele>396.33333333333337</ele><time>2026-04-26T09:15:54.994Z</time></trkpt><trkpt lat="45.8840924" lon="8.7104121"><ele>397.0</ele><time>2026-04-26T09:15:55.995Z</time></trkpt><trkpt lat="45.8840355" lon="8.7106276"><ele>399.0</ele><time>2026-04-26T09:15:56.994Z</time></trkpt><trkpt lat="45.8839841" lon="8.7108449"><ele>401.0</ele><time>2026-04-26T09:15:57.994Z</time></trkpt><trkpt lat="45.8839304" lon="8.7110569"><ele>403.0</ele><time>2026-04-26T09:15:58.994Z</time></trkpt><trkpt lat="45.8838783" lon="8.7112689"><ele>404.0</ele><time>2026-04-26T09:15:59.995Z</time></trkpt><trkpt lat="45.8838272" lon="8.7114671"><ele>405.0</ele><time>2026-04-26T09:16:00.995Z</time></trkpt><trkpt lat="45.8837836" lon="8.7116479"><ele>406.0</ele><time>2026-04-26T09:16:01.995Z</time></trkpt><trkpt lat="45.8837443" lon="8.7118173"><ele>407.0</ele><time>2026-04-26T09:16:02.993Z</time></trkpt><trkpt lat="45.8837052" lon="8.7119657"><ele>407.6</ele><time>2026-04-26T09:16:03.995Z</time></trkpt><trkpt lat="45.8836655" lon="8.7120925"><ele>408.20000000000005</ele><time>2026-04-26T09:16:04.995Z</time></trkpt><trkpt lat="45.8836104" lon="8.7122006"><ele>408.8</ele><time>2026-04-26T09:16:05.994Z</time></trkpt><trkpt lat="45.8835369" lon="8.7122823"><ele>409.4</ele><time>2026-04-26T09:16:06.995Z</time></trkpt><trkpt lat="45.8834616" lon="8.7123455"><ele>410.0</ele><time>2026-04-26T09:16:07.995Z</time></trkpt><trkpt lat="45.8833788" lon="8.7123637"><ele>410.0</ele><time>2026-04-26T09:16:08.995Z</time></trkpt><trkpt lat="45.8832874" lon="8.7123407"><ele>410.0</ele><time>2026-04-26T09:16:09.994Z</time></trkpt><trkpt lat="45.8831903" lon="8.7122933"><ele>410.0</ele><time>2026-04-26T09:16:10.994Z</time></trkpt><trkpt lat="45.8830771" lon="8.7122396"><ele>410.0</ele><time>2026-04-26T09:16:11.994Z</time></trkpt><trkpt lat="45.8829583" lon="8.7121773"><ele>410.0</ele><time>2026-04-26T09:16:12.995Z</time></trkpt><trkpt lat="45.8828394" lon="8.7121142"><ele>410.0</ele><time>2026-04-26T09:16:13.994Z</time></trkpt><trkpt lat="45.8827138" lon="8.7120467"><ele>410.0</ele><time>2026-04-26T09:16:14.995Z</time></trkpt><trkpt lat="45.8825831" lon="8.7119722"><ele>410.0</ele><time>2026-04-26T09:16:15.994Z</time></trkpt><trkpt lat="45.8824483" lon="8.7118952"><ele>410.0</ele><time>2026-04-26T09:16:16.995Z</time></trkpt><trkpt lat="45.8823091" lon="8.7118181"><ele>411.3333333333333</ele><time>2026-04-26T09:16:17.994Z</time></trkpt><trkpt lat="45.8821668" lon="8.7117387"><ele>412.66666666666663</ele><time>2026-04-26T09:16:18.995Z</time></trkpt><trkpt lat="45.8820275" lon="8.7116631"><ele>414.0</ele><time>2026-04-26T09:16:19.995Z</time></trkpt><trkpt lat="45.8818846" lon="8.7115819"><ele>417.66666666666663</ele><time>2026-04-26T09:16:20.993Z</time></trkpt><trkpt lat="45.8817399" lon="8.7115"><ele>421.3333333333333</ele><time>2026-04-26T09:16:21.993Z</time></trkpt><trkpt lat="45.881597" lon="8.7114227"><ele>425.0</ele><time>2026-04-26T09:16:22.993Z</time></trkpt><trkpt lat="45.8814528" lon="8.7113438"><ele>425.0</ele><time>2026-04-26T09:16:23.994Z</time></trkpt><trkpt lat="45.8813129" lon="8.7112655"><ele>425.0</ele><time>2026-04-26T09:16:24.995Z</time></trkpt><trkpt lat="45.8811794" lon="8.7111905"><ele>425.0</ele><time>2026-04-26T09:16:25.994Z</time></trkpt><trkpt lat="45.8810602" lon="8.7111182"><ele>425.0</ele><time>2026-04-26T09:16:26.994Z</time></trkpt><trkpt lat="45.8809448" lon="8.7110407"><ele>426.5</ele><time>2026-04-26T09:16:27.993Z</time></trkpt><trkpt lat="45.8808366" lon="8.7109428"><ele>428.0</ele><time>2026-04-26T09:16:28.995Z</time></trkpt><trkpt lat="45.8807385" lon="8.710826"><ele>429.5</ele><time>2026-04-26T09:16:29.994Z</time></trkpt><trkpt lat="45.8806581" lon="8.7106871"><ele>431.0</ele><time>2026-04-26T09:16:30.993Z</time></trkpt><trkpt lat="45.8805914" lon="8.7105311"><ele>431.0</ele><time>2026-04-26T09:16:31.994Z</time></trkpt><trkpt lat="45.8805457" lon="8.7103758"><ele>431.0</ele><time>2026-04-26T09:16:32.995Z</time></trkpt><trkpt lat="45.8805163" lon="8.7102359"><ele>431.0</ele><time>2026-04-26T09:16:33.993Z</time></trkpt><trkpt lat="45.8804871" lon="8.7101183"><ele>431.0</ele><time>2026-04-26T09:16:34.993Z</time></trkpt><trkpt lat="45.8804605" lon="8.7100007"><ele>431.0</ele><time>2026-04-26T09:16:35.993Z</time></trkpt><trkpt lat="45.8804324" lon="8.7098668"><ele>429.75</ele><time>2026-04-26T09:16:36.993Z</time></trkpt><trkpt lat="45.8803987" lon="8.7097118"><ele>428.5</ele><time>2026-04-26T09:16:37.993Z</time></trkpt><trkpt lat="45.8803663" lon="8.7095422"><ele>427.25</ele><time>2026-04-26T09:16:38.993Z</time></trkpt><trkpt lat="45.8803209" lon="8.709366"><ele>426.0</ele><time>2026-04-26T09:16:39.992Z</time></trkpt><trkpt lat="45.8802829" lon="8.7091736"><ele>425.5</ele><time>2026-04-26T09:16:40.993Z</time></trkpt><trkpt lat="45.8802464" lon="8.7089842"><ele>425.0</ele><time>2026-04-26T09:16:41.994Z</time></trkpt><trkpt lat="45.8802148" lon="8.7087749"><ele>424.5</ele><time>2026-04-26T09:16:42.994Z</time></trkpt><trkpt lat="45.8801952" lon="8.7085622"><ele>424.0</ele><time>2026-04-26T09:16:43.992Z</time></trkpt><trkpt lat="45.8801832" lon="8.708346"><ele>424.0</ele><time>2026-04-26T09:16:44.993Z</time></trkpt><trkpt lat="45.8801681" lon="8.7081195"><ele>424.0</ele><time>2026-04-26T09:16:45.993Z</time></trkpt><trkpt lat="45.8801548" lon="8.7078833"><ele>424.0</ele><time>2026-04-26T09:16:46.994Z</time></trkpt><trkpt lat="45.8801498" lon="8.7076596"><ele>423.75</ele><time>2026-04-26T09:16:47.994Z</time></trkpt><trkpt lat="45.8801455" lon="8.7074437"><ele>423.5</ele><time>2026-04-26T09:16:48.993Z</time></trkpt><trkpt lat="45.8801346" lon="8.7072289"><ele>423.25</ele><time>2026-04-26T09:16:49.993Z</time></trkpt><trkpt lat="45.8801163" lon="8.7070252"><ele>423.0</ele><time>2026-04-26T09:16:50.992Z</time></trkpt><trkpt lat="45.8800901" lon="8.7068188"><ele>424.33333333333337</ele><time>2026-04-26T09:16:51.994Z</time></trkpt><trkpt lat="45.8800504" lon="8.7066057"><ele>425.6666666666667</ele><time>2026-04-26T09:16:52.994Z</time></trkpt><trkpt lat="45.8800033" lon="8.7063842"><ele>427.0</ele><time>2026-04-26T09:16:53.994Z</time></trkpt><trkpt lat="45.8799566" lon="8.7061576"><ele>426.0</ele><time>2026-04-26T09:16:54.994Z</time></trkpt><trkpt lat="45.8799116" lon="8.7059334"><ele>425.0</ele><time>2026-04-26T09:16:55.993Z</time></trkpt><trkpt lat="45.8798581" lon="8.7057109"><ele>424.0</ele><time>2026-04-26T09:16:56.992Z</time></trkpt><trkpt lat="45.8798087" lon="8.7054776"><ele>424.0</ele><time>2026-04-26T09:16:57.992Z</time></trkpt><trkpt lat="45.8797549" lon="8.7052513"><ele>424.0</ele><time>2026-04-26T09:16:58.993Z</time></trkpt><trkpt lat="45.8797034" lon="8.7050231"><ele>424.0</ele><time>2026-04-26T09:16:59.994Z</time></trkpt><trkpt lat="45.8796499" lon="8.7047886"><ele>422.0</ele><time>2026-04-26T09:17:00.994Z</time></trkpt><trkpt lat="45.8795971" lon="8.7045505"><ele>420.0</ele><time>2026-04-26T09:17:01.994Z</time></trkpt><trkpt lat="45.8795463" lon="8.7043104"><ele>418.0</ele><time>2026-04-26T09:17:02.994Z</time></trkpt><trkpt lat="45.8794917" lon="8.7040734"><ele>416.0</ele><time>2026-04-26T09:17:03.994Z</time></trkpt><trkpt lat="45.8794367" lon="8.7038348"><ele>414.0</ele><time>2026-04-26T09:17:04.993Z</time></trkpt><trkpt lat="45.8793754" lon="8.7035882"><ele>412.0</ele><time>2026-04-26T09:17:05.993Z</time></trkpt><trkpt lat="45.8793194" lon="8.7033443"><ele>415.6666666666667</ele><time>2026-04-26T09:17:06.993Z</time></trkpt><trkpt lat="45.8792629" lon="8.7030953"><ele>419.33333333333337</ele><time>2026-04-26T09:17:07.992Z</time></trkpt><trkpt lat="45.879206" lon="8.7028489"><ele>423.0</ele><time>2026-04-26T09:17:08.993Z</time></trkpt><trkpt lat="45.8791533" lon="8.7025968"><ele>423.0</ele><time>2026-04-26T09:17:09.993Z</time></trkpt><trkpt lat="45.8790982" lon="8.7023573"><ele>423.0</ele><time>2026-04-26T09:17:10.993Z</time></trkpt><trkpt lat="45.8790372" lon="8.7021091"><ele>423.0</ele><time>2026-04-26T09:17:11.993Z</time></trkpt><trkpt lat="45.8789916" lon="8.7018536"><ele>421.33333333333337</ele><time>2026-04-26T09:17:12.993Z</time></trkpt><trkpt lat="45.8789272" lon="8.7016032"><ele>419.6666666666667</ele><time>2026-04-26T09:17:13.994Z</time></trkpt><trkpt lat="45.8788765" lon="8.7013464"><ele>418.0</ele><time>2026-04-26T09:17:14.994Z</time></trkpt><trkpt lat="45.8788061" lon="8.7010957"><ele>416.0</ele><time>2026-04-26T09:17:15.993Z</time></trkpt><trkpt lat="45.878748" lon="8.700838"><ele>414.0</ele><time>2026-04-26T09:17:16.994Z</time></trkpt><trkpt lat="45.8786903" lon="8.7005875"><ele>412.0</ele><time>2026-04-26T09:17:17.994Z</time></trkpt><trkpt lat="45.8786264" lon="8.7003359"><ele>410.33333333333337</ele><time>2026-04-26T09:17:18.993Z</time></trkpt><trkpt lat="45.8785618" lon="8.700085"><ele>408.66666666666663</ele><time>2026-04-26T09:17:19.992Z</time></trkpt><trkpt lat="45.878491" lon="8.6998321"><ele>407.0</ele><time>2026-04-26T09:17:20.994Z</time></trkpt><trkpt lat="45.8784272" lon="8.6995769"><ele>409.3333333333333</ele><time>2026-04-26T09:17:21.994Z</time></trkpt><trkpt lat="45.8783584" lon="8.6993264"><ele>411.66666666666663</ele><time>2026-04-26T09:17:22.992Z</time></trkpt><trkpt lat="45.8782905" lon="8.6990684"><ele>414.0</ele><time>2026-04-26T09:17:23.992Z</time></trkpt><trkpt lat="45.878224" lon="8.6988091"><ele>411.33333333333337</ele><time>2026-04-26T09:17:24.994Z</time></trkpt><trkpt lat="45.8781593" lon="8.6985573"><ele>408.6666666666667</ele><time>2026-04-26T09:17:25.993Z</time></trkpt><trkpt lat="45.8780968" lon="8.6983046"><ele>406.0</ele><time>2026-04-26T09:17:26.993Z</time></trkpt><trkpt lat="45.8780283" lon="8.6980591"><ele>406.0</ele><time>2026-04-26T09:17:27.994Z</time></trkpt><trkpt lat="45.8779623" lon="8.6978151"><ele>406.0</ele><time>2026-04-26T09:17:28.994Z</time></trkpt><trkpt lat="45.8778932" lon="8.6975625"><ele>406.0</ele><time>2026-04-26T09:17:29.994Z</time></trkpt><trkpt lat="45.8778255" lon="8.6972975"><ele>402.6666666666667</ele><time>2026-04-26T09:17:30.993Z</time></trkpt><trkpt lat="45.8777618" lon="8.6970479"><ele>399.33333333333337</ele><time>2026-04-26T09:17:31.993Z</time></trkpt><trkpt lat="45.8776933" lon="8.6968079"><ele>396.0</ele><time>2026-04-26T09:17:32.993Z</time></trkpt><trkpt lat="45.8776207" lon="8.696576"><ele>394.66666666666663</ele><time>2026-04-26T09:17:33.993Z</time></trkpt><trkpt lat="45.8775364" lon="8.6963546"><ele>393.3333333333333</ele><time>2026-04-26T09:17:34.993Z</time></trkpt><trkpt lat="45.8774338" lon="8.6961389"><ele>392.0</ele><time>2026-04-26T09:17:35.992Z</time></trkpt><trkpt lat="45.8773231" lon="8.6959307"><ele>392.0</ele><time>2026-04-26T09:17:36.993Z</time></trkpt><trkpt lat="45.8772012" lon="8.6957232"><ele>392.0</ele><time>2026-04-26T09:17:37.993Z</time></trkpt><trkpt lat="45.8770857" lon="8.6955253"><ele>392.0</ele><time>2026-04-26T09:17:38.992Z</time></trkpt><trkpt lat="45.8769751" lon="8.6953441"><ele>391.0</ele><time>2026-04-26T09:17:39.993Z</time></trkpt><trkpt lat="45.8768707" lon="8.6951645"><ele>390.0</ele><time>2026-04-26T09:17:40.993Z</time></trkpt><trkpt lat="45.8767663" lon="8.6949941"><ele>389.0</ele><time>2026-04-26T09:17:41.994Z</time></trkpt><trkpt lat="45.8766646" lon="8.6948307"><ele>389.5</ele><time>2026-04-26T09:17:42.994Z</time></trkpt><trkpt lat="45.8765639" lon="8.6946825"><ele>390.0</ele><time>2026-04-26T09:17:43.993Z</time></trkpt><trkpt lat="45.8764563" lon="8.6945414"><ele>390.5</ele><time>2026-04-26T09:17:44.994Z</time></trkpt><trkpt lat="45.8763444" lon="8.6944059"><ele>391.0</ele><time>2026-04-26T09:17:45.993Z</time></trkpt><trkpt lat="45.8762284" lon="8.6942773"><ele>391.0</ele><time>2026-04-26T09:17:46.993Z</time></trkpt><trkpt lat="45.8761135" lon="8.694145"><ele>391.0</ele><time>2026-04-26T09:17:47.992Z</time></trkpt><trkpt lat="45.8759947" lon="8.6940114"><ele>391.0</ele><time>2026-04-26T09:17:48.994Z</time></trkpt><trkpt lat="45.8758714" lon="8.6938788"><ele>391.0</ele><time>2026-04-26T09:17:49.994Z</time></trkpt><trkpt lat="45.8757493" lon="8.693749"><ele>391.0</ele><time>2026-04-26T09:17:50.992Z</time></trkpt><trkpt lat="45.8756383" lon="8.6936193"><ele>391.0</ele><time>2026-04-26T09:17:51.993Z</time></trkpt><trkpt lat="45.8755284" lon="8.6934918"><ele>391.0</ele><time>2026-04-26T09:17:52.993Z</time></trkpt><trkpt lat="45.8754194" lon="8.6933603"><ele>391.0</ele><time>2026-04-26T09:17:53.992Z</time></trkpt><trkpt lat="45.8753115" lon="8.6932231"><ele>391.0</ele><time>2026-04-26T09:17:54.992Z</time></trkpt><trkpt lat="45.8752035" lon="8.693077"><ele>391.0</ele><time>2026-04-26T09:17:55.994Z</time></trkpt><trkpt lat="45.8750995" lon="8.6929409"><ele>391.0</ele><time>2026-04-26T09:17:56.993Z</time></trkpt><trkpt lat="45.8749913" lon="8.6928073"><ele>390.5</ele><time>2026-04-26T09:17:57.993Z</time></trkpt><trkpt lat="45.8748835" lon="8.692673"><ele>390.0</ele><time>2026-04-26T09:17:58.993Z</time></trkpt><trkpt lat="45.8747731" lon="8.6925343"><ele>389.5</ele><time>2026-04-26T09:17:59.993Z</time></trkpt><trkpt lat="45.8746643" lon="8.6924031"><ele>389.0</ele><time>2026-04-26T09:18:00.994Z</time></trkpt><trkpt lat="45.8745642" lon="8.6922763"><ele>389.0</ele><time>2026-04-26T09:18:01.992Z</time></trkpt><trkpt lat="45.8744579" lon="8.6921455"><ele>389.0</ele><time>2026-04-26T09:18:02.993Z</time></trkpt><trkpt lat="45.8743556" lon="8.6920134"><ele>389.0</ele><time>2026-04-26T09:18:03.992Z</time></trkpt><trkpt lat="45.8742472" lon="8.6918876"><ele>389.0</ele><time>2026-04-26T09:18:04.994Z</time></trkpt><trkpt lat="45.8741331" lon="8.6917727"><ele>389.0</ele><time>2026-04-26T09:18:05.992Z</time></trkpt><trkpt lat="45.8740113" lon="8.691663"><ele>389.0</ele><time>2026-04-26T09:18:06.993Z</time></trkpt><trkpt lat="45.8738859" lon="8.6915648"><ele>389.0</ele><time>2026-04-26T09:18:07.993Z</time></trkpt><trkpt lat="45.8737529" lon="8.6914918"><ele>389.0</ele><time>2026-04-26T09:18:08.993Z</time></trkpt><trkpt lat="45.8736196" lon="8.6914374"><ele>389.0</ele><time>2026-04-26T09:18:09.992Z</time></trkpt><trkpt lat="45.8734868" lon="8.6914013"><ele>389.0</ele><time>2026-04-26T09:18:10.994Z</time></trkpt><trkpt lat="45.8733615" lon="8.6913772"><ele>389.0</ele><time>2026-04-26T09:18:11.994Z</time></trkpt><trkpt lat="45.8732432" lon="8.691359"><ele>389.0</ele><time>2026-04-26T09:18:12.993Z</time></trkpt><trkpt lat="45.8731358" lon="8.6913408"><ele>388.79999999999995</ele><time>2026-04-26T09:18:13.993Z</time></trkpt><trkpt lat="45.8730385" lon="8.691317"><ele>388.59999999999997</ele><time>2026-04-26T09:18:14.993Z</time></trkpt><trkpt lat="45.8729523" lon="8.6913003"><ele>388.4</ele><time>2026-04-26T09:18:15.994Z</time></trkpt><trkpt lat="45.8728693" lon="8.6912813"><ele>388.2</ele><time>2026-04-26T09:18:16.993Z</time></trkpt><trkpt lat="45.8727755" lon="8.6912644"><ele>388.0</ele><time>2026-04-26T09:18:17.994Z</time></trkpt><trkpt lat="45.872674" lon="8.6912448"><ele>388.25</ele><time>2026-04-26T09:18:18.993Z</time></trkpt><trkpt lat="45.8725627" lon="8.6912235"><ele>388.5</ele><time>2026-04-26T09:18:19.992Z</time></trkpt><trkpt lat="45.872447" lon="8.6911979"><ele>388.75</ele><time>2026-04-26T09:18:20.994Z</time></trkpt><trkpt lat="45.8723312" lon="8.691174"><ele>389.0</ele><time>2026-04-26T09:18:21.993Z</time></trkpt><trkpt lat="45.8722204" lon="8.691152"><ele>389.0</ele><time>2026-04-26T09:18:22.994Z</time></trkpt><trkpt lat="45.8721099" lon="8.6911261"><ele>389.0</ele><time>2026-04-26T09:18:23.993Z</time></trkpt><trkpt lat="45.8719945" lon="8.6910974"><ele>389.0</ele><time>2026-04-26T09:18:24.993Z</time></trkpt><trkpt lat="45.8718814" lon="8.691064"><ele>389.0</ele><time>2026-04-26T09:18:25.992Z</time></trkpt><trkpt lat="45.8717649" lon="8.6910205"><ele>388.5</ele><time>2026-04-26T09:18:26.992Z</time></trkpt><trkpt lat="45.8716482" lon="8.690972"><ele>388.0</ele><time>2026-04-26T09:18:27.993Z</time></trkpt><trkpt lat="45.8715307" lon="8.6909232"><ele>387.5</ele><time>2026-04-26T09:18:28.993Z</time></trkpt><trkpt lat="45.8714076" lon="8.6908708"><ele>387.0</ele><time>2026-04-26T09:18:29.993Z</time></trkpt><trkpt lat="45.8712913" lon="8.6908176"><ele>387.0</ele><time>2026-04-26T09:18:30.992Z</time></trkpt><trkpt lat="45.8711739" lon="8.6907629"><ele>387.0</ele><time>2026-04-26T09:18:31.993Z</time></trkpt><trkpt lat="45.8710548" lon="8.6907081"><ele>387.0</ele><time>2026-04-26T09:18:32.994Z</time></trkpt><trkpt lat="45.8709371" lon="8.6906572"><ele>387.0</ele><time>2026-04-26T09:18:33.993Z</time></trkpt><trkpt lat="45.8708145" lon="8.6906061"><ele>386.25</ele><time>2026-04-26T09:18:34.993Z</time></trkpt><trkpt lat="45.8706948" lon="8.690551"><ele>385.5</ele><time>2026-04-26T09:18:35.993Z</time></trkpt><trkpt lat="45.8705751" lon="8.6904942"><ele>384.75</ele><time>2026-04-26T09:18:36.993Z</time></trkpt><trkpt lat="45.8704509" lon="8.690438"><ele>384.0</ele><time>2026-04-26T09:18:37.993Z</time></trkpt><trkpt lat="45.870326" lon="8.6903772"><ele>384.0</ele><time>2026-04-26T09:18:38.994Z</time></trkpt><trkpt lat="45.8702039" lon="8.6903013"><ele>384.0</ele><time>2026-04-26T09:18:39.994Z</time></trkpt><trkpt lat="45.8700734" lon="8.6902344"><ele>384.0</ele><time>2026-04-26T09:18:40.994Z</time></trkpt><trkpt lat="45.8699414" lon="8.6901628"><ele>384.0</ele><time>2026-04-26T09:18:41.992Z</time></trkpt><trkpt lat="45.8698176" lon="8.690093"><ele>383.5</ele><time>2026-04-26T09:18:42.994Z</time></trkpt><trkpt lat="45.8696919" lon="8.6900311"><ele>383.0</ele><time>2026-04-26T09:18:43.993Z</time></trkpt><trkpt lat="45.8695715" lon="8.6899974"><ele>382.5</ele><time>2026-04-26T09:18:44.993Z</time></trkpt><trkpt lat="45.8694456" lon="8.6899999"><ele>382.0</ele><time>2026-04-26T09:18:45.994Z</time></trkpt><trkpt lat="45.8693173" lon="8.6900218"><ele>381.25</ele><time>2026-04-26T09:18:46.994Z</time></trkpt><trkpt lat="45.8691872" lon="8.6900603"><ele>380.5</ele><time>2026-04-26T09:18:47.994Z</time></trkpt><trkpt lat="45.8690548" lon="8.6901205"><ele>379.75</ele><time>2026-04-26T09:18:48.993Z</time></trkpt><trkpt lat="45.8689218" lon="8.6901887"><ele>379.0</ele><time>2026-04-26T09:18:49.992Z</time></trkpt><trkpt lat="45.8687978" lon="8.6902691"><ele>379.0</ele><time>2026-04-26T09:18:50.994Z</time></trkpt><trkpt lat="45.8686826" lon="8.6903675"><ele>379.0</ele><time>2026-04-26T09:18:51.993Z</time></trkpt><trkpt lat="45.8685724" lon="8.6904655"><ele>379.0</ele><time>2026-04-26T09:18:52.994Z</time></trkpt><trkpt lat="45.868466" lon="8.690561"><ele>379.0</ele><time>2026-04-26T09:18:53.993Z</time></trkpt><trkpt lat="45.8683594" lon="8.6906488"><ele>380.2</ele><time>2026-04-26T09:18:54.992Z</time></trkpt><trkpt lat="45.8682554" lon="8.6907111"><ele>381.4</ele><time>2026-04-26T09:18:55.993Z</time></trkpt><trkpt lat="45.868158" lon="8.6907515"><ele>382.6</ele><time>2026-04-26T09:18:56.993Z</time></trkpt><trkpt lat="45.868053" lon="8.690778"><ele>383.8</ele><time>2026-04-26T09:18:57.992Z</time></trkpt><trkpt lat="45.8679433" lon="8.6907629"><ele>385.0</ele><time>2026-04-26T09:18:58.993Z</time></trkpt><trkpt lat="45.8678517" lon="8.6907063"><ele>385.0</ele><time>2026-04-26T09:18:59.994Z</time></trkpt><trkpt lat="45.867785" lon="8.6906145"><ele>385.0</ele><time>2026-04-26T09:19:00.994Z</time></trkpt><trkpt lat="45.8677246" lon="8.6904901"><ele>385.0</ele><time>2026-04-26T09:19:01.993Z</time></trkpt><trkpt lat="45.8676608" lon="8.6903555"><ele>385.0</ele><time>2026-04-26T09:19:02.992Z</time></trkpt><trkpt lat="45.8675783" lon="8.6902538"><ele>385.0</ele><time>2026-04-26T09:19:03.994Z</time></trkpt><trkpt lat="45.8674728" lon="8.690184"><ele>385.5</ele><time>2026-04-26T09:19:04.994Z</time></trkpt><trkpt lat="45.8673502" lon="8.6901581"><ele>386.0</ele><time>2026-04-26T09:19:05.993Z</time></trkpt><trkpt lat="45.8672269" lon="8.6901785"><ele>386.5</ele><time>2026-04-26T09:19:06.993Z</time></trkpt><trkpt lat="45.8671018" lon="8.6902303"><ele>387.0</ele><time>2026-04-26T09:19:07.993Z</time></trkpt><trkpt lat="45.8669776" lon="8.6902943"><ele>387.0</ele><time>2026-04-26T09:19:08.993Z</time></trkpt><trkpt lat="45.8668451" lon="8.6903742"><ele>387.0</ele><time>2026-04-26T09:19:09.994Z</time></trkpt><trkpt lat="45.8667163" lon="8.6904794"><ele>387.0</ele><time>2026-04-26T09:19:10.994Z</time></trkpt><trkpt lat="45.8665924" lon="8.6905941"><ele>387.0</ele><time>2026-04-26T09:19:11.993Z</time></trkpt><trkpt lat="45.8664751" lon="8.6907076"><ele>385.25</ele><time>2026-04-26T09:19:12.993Z</time></trkpt><trkpt lat="45.8663577" lon="8.6908177"><ele>383.5</ele><time>2026-04-26T09:19:13.993Z</time></trkpt><trkpt lat="45.8662394" lon="8.6909188"><ele>381.75</ele><time>2026-04-26T09:19:14.994Z</time></trkpt><trkpt lat="45.8661176" lon="8.6910115"><ele>380.0</ele><time>2026-04-26T09:19:15.993Z</time></trkpt><trkpt lat="45.8660045" lon="8.6911047"><ele>378.25</ele><time>2026-04-26T09:19:16.994Z</time></trkpt><trkpt lat="45.8658915" lon="8.6911978"><ele>376.5</ele><time>2026-04-26T09:19:17.993Z</time></trkpt><trkpt lat="45.8657712" lon="8.6912912"><ele>374.75</ele><time>2026-04-26T09:19:18.993Z</time></trkpt><trkpt lat="45.8656499" lon="8.6913902"><ele>373.0</ele><time>2026-04-26T09:19:19.993Z</time></trkpt><trkpt lat="45.8655263" lon="8.6914907"><ele>373.0</ele><time>2026-04-26T09:19:20.993Z</time></trkpt><trkpt lat="45.8654094" lon="8.6915969"><ele>373.0</ele><time>2026-04-26T09:19:21.992Z</time></trkpt><trkpt lat="45.865305" lon="8.6917135"><ele>373.0</ele><time>2026-04-26T09:19:22.994Z</time></trkpt><trkpt lat="45.8652052" lon="8.6918431"><ele>373.0</ele><time>2026-04-26T09:19:23.993Z</time></trkpt><trkpt lat="45.8651152" lon="8.691985"><ele>372.5</ele><time>2026-04-26T09:19:24.993Z</time></trkpt><trkpt lat="45.8650227" lon="8.6921357"><ele>372.0</ele><time>2026-04-26T09:19:25.994Z</time></trkpt><trkpt lat="45.8649334" lon="8.6922882"><ele>371.5</ele><time>2026-04-26T09:19:26.993Z</time></trkpt><trkpt lat="45.8648463" lon="8.69243"><ele>371.0</ele><time>2026-04-26T09:19:27.994Z</time></trkpt><trkpt lat="45.864752" lon="8.6925653"><ele>371.0</ele><time>2026-04-26T09:19:28.994Z</time></trkpt><trkpt lat="45.8646465" lon="8.6926874"><ele>371.0</ele><time>2026-04-26T09:19:29.992Z</time></trkpt><trkpt lat="45.8645307" lon="8.6928044"><ele>371.0</ele><time>2026-04-26T09:19:30.993Z</time></trkpt><trkpt lat="45.864411" lon="8.6929149"><ele>371.0</ele><time>2026-04-26T09:19:31.993Z</time></trkpt><trkpt lat="45.8642911" lon="8.6930202"><ele>369.75</ele><time>2026-04-26T09:19:32.994Z</time></trkpt><trkpt lat="45.8641694" lon="8.6931249"><ele>368.5</ele><time>2026-04-26T09:19:33.994Z</time></trkpt><trkpt lat="45.8640426" lon="8.6932267"><ele>367.25</ele><time>2026-04-26T09:19:34.994Z</time></trkpt><trkpt lat="45.8639313" lon="8.6933375"><ele>366.0</ele><time>2026-04-26T09:19:35.993Z</time></trkpt><trkpt lat="45.8638286" lon="8.6934656"><ele>364.75</ele><time>2026-04-26T09:19:36.994Z</time></trkpt><trkpt lat="45.863736" lon="8.6936117"><ele>363.5</ele><time>2026-04-26T09:19:37.994Z</time></trkpt><trkpt lat="45.8636632" lon="8.6937714"><ele>362.25</ele><time>2026-04-26T09:19:38.994Z</time></trkpt><trkpt lat="45.8636007" lon="8.693958"><ele>361.0</ele><time>2026-04-26T09:19:39.992Z</time></trkpt><trkpt lat="45.8635391" lon="8.694152"><ele>361.0</ele><time>2026-04-26T09:19:40.993Z</time></trkpt><trkpt lat="45.8634855" lon="8.6943428"><ele>361.0</ele><time>2026-04-26T09:19:41.993Z</time></trkpt><trkpt lat="45.8634326" lon="8.6945245"><ele>361.0</ele><time>2026-04-26T09:19:42.993Z</time></trkpt><trkpt lat="45.8633788" lon="8.6947006"><ele>361.0</ele><time>2026-04-26T09:19:43.993Z</time></trkpt><trkpt lat="45.8633312" lon="8.6948753"><ele>360.4</ele><time>2026-04-26T09:19:44.993Z</time></trkpt><trkpt lat="45.8632822" lon="8.6950351"><ele>359.8</ele><time>2026-04-26T09:19:45.992Z</time></trkpt><trkpt lat="45.8632353" lon="8.6951818"><ele>359.2</ele><time>2026-04-26T09:19:46.993Z</time></trkpt><trkpt lat="45.8631818" lon="8.6952981"><ele>358.59999999999997</ele><time>2026-04-26T09:19:47.994Z</time></trkpt><trkpt lat="45.8631189" lon="8.6953995"><ele>358.0</ele><time>2026-04-26T09:19:48.992Z</time></trkpt><trkpt lat="45.8630503" lon="8.6954773"><ele>358.0</ele><time>2026-04-26T09:19:49.994Z</time></trkpt><trkpt lat="45.862969" lon="8.6955303"><ele>358.0</ele><time>2026-04-26T09:19:50.993Z</time></trkpt><trkpt lat="45.8628834" lon="8.6955547"><ele>358.0</ele><time>2026-04-26T09:19:51.993Z</time></trkpt><trkpt lat="45.8627913" lon="8.6955484"><ele>358.0</ele><time>2026-04-26T09:19:52.993Z</time></trkpt><trkpt lat="45.8626966" lon="8.6955143"><ele>358.0</ele><time>2026-04-26T09:19:53.992Z</time></trkpt><trkpt lat="45.8626088" lon="8.6954633"><ele>357.79999999999995</ele><time>2026-04-26T09:19:54.993Z</time></trkpt><trkpt lat="45.8625259" lon="8.6953962"><ele>357.6</ele><time>2026-04-26T09:19:55.993Z</time></trkpt><trkpt lat="45.8624513" lon="8.6953199"><ele>357.4</ele><time>2026-04-26T09:19:56.993Z</time></trkpt><trkpt lat="45.8623743" lon="8.6952432"><ele>357.20000000000005</ele><time>2026-04-26T09:19:57.993Z</time></trkpt><trkpt lat="45.8622956" lon="8.6951693"><ele>357.0</ele><time>2026-04-26T09:19:58.992Z</time></trkpt><trkpt lat="45.862215" lon="8.6950869"><ele>356.8</ele><time>2026-04-26T09:19:59.993Z</time></trkpt><trkpt lat="45.8621385" lon="8.6949995"><ele>356.6</ele><time>2026-04-26T09:20:00.992Z</time></trkpt><trkpt lat="45.8620639" lon="8.694896"><ele>356.40000000000003</ele><time>2026-04-26T09:20:01.993Z</time></trkpt><trkpt lat="45.8620071" lon="8.6947821"><ele>356.20000000000005</ele><time>2026-04-26T09:20:02.993Z</time></trkpt><trkpt lat="45.8619625" lon="8.6946505"><ele>356.0</ele><time>2026-04-26T09:20:03.993Z</time></trkpt><trkpt lat="45.8619351" lon="8.6945094"><ele>355.0</ele><time>2026-04-26T09:20:04.993Z</time></trkpt><trkpt lat="45.8619293" lon="8.6943573"><ele>354.0</ele><time>2026-04-26T09:20:05.994Z</time></trkpt><trkpt lat="45.8619369" lon="8.6942"><ele>353.0</ele><time>2026-04-26T09:20:06.994Z</time></trkpt><trkpt lat="45.8619576" lon="8.694046"><ele>352.0</ele><time>2026-04-26T09:20:07.993Z</time></trkpt><trkpt lat="45.8619941" lon="8.6938991"><ele>351.0</ele><time>2026-04-26T09:20:08.993Z</time></trkpt><trkpt lat="45.8620515" lon="8.6937635"><ele>351.0</ele><time>2026-04-26T09:20:09.993Z</time></trkpt><trkpt lat="45.8621058" lon="8.6936169"><ele>351.0</ele><time>2026-04-26T09:20:10.993Z</time></trkpt><trkpt lat="45.8621609" lon="8.6934722"><ele>351.0</ele><time>2026-04-26T09:20:11.994Z</time></trkpt><trkpt lat="45.8622144" lon="8.6933249"><ele>351.0</ele><time>2026-04-26T09:20:12.993Z</time></trkpt><trkpt lat="45.8622736" lon="8.6931834"><ele>348.75</ele><time>2026-04-26T09:20:13.993Z</time></trkpt><trkpt lat="45.862329" lon="8.6930382"><ele>346.5</ele><time>2026-04-26T09:20:14.994Z</time></trkpt><trkpt lat="45.8623801" lon="8.6928908"><ele>344.25</ele><time>2026-04-26T09:20:15.994Z</time></trkpt><trkpt lat="45.862434" lon="8.6927467"><ele>342.0</ele><time>2026-04-26T09:20:16.992Z</time></trkpt><trkpt lat="45.8624857" lon="8.6926027"><ele>339.8333333333333</ele><time>2026-04-26T09:20:17.993Z</time></trkpt><trkpt lat="45.8625318" lon="8.6924733"><ele>337.6666666666667</ele><time>2026-04-26T09:20:18.992Z</time></trkpt><trkpt lat="45.8625779" lon="8.6923667"><ele>335.5</ele><time>2026-04-26T09:20:19.992Z</time></trkpt><trkpt lat="45.8626162" lon="8.6922675"><ele>333.33333333333337</ele><time>2026-04-26T09:20:20.993Z</time></trkpt><trkpt lat="45.8626476" lon="8.6921746"><ele>331.1666666666667</ele><time>2026-04-26T09:20:21.993Z</time></trkpt><trkpt lat="45.8626794" lon="8.6920856"><ele>329.0</ele><time>2026-04-26T09:20:22.994Z</time></trkpt><trkpt lat="45.8627175" lon="8.6920065"><ele>330.4</ele><time>2026-04-26T09:20:23.994Z</time></trkpt><trkpt lat="45.8627707" lon="8.6918601"><ele>331.79999999999995</ele><time>2026-04-26T09:20:25.993Z</time></trkpt><trkpt lat="45.8627887" lon="8.6917331"><ele>333.20000000000005</ele><time>2026-04-26T09:20:27.993Z</time></trkpt><trkpt lat="45.8627163" lon="8.6917004"><ele>334.6</ele><time>2026-04-26T09:20:29.994Z</time></trkpt><trkpt lat="45.8626228" lon="8.6918154"><ele>336.0</ele><time>2026-04-26T09:20:31.994Z</time></trkpt><trkpt lat="45.862565" lon="8.6919031"><ele>334.6</ele><time>2026-04-26T09:20:32.994Z</time></trkpt><trkpt lat="45.8624972" lon="8.6919826"><ele>333.20000000000005</ele><time>2026-04-26T09:20:33.994Z</time></trkpt><trkpt lat="45.8624185" lon="8.6920786"><ele>331.79999999999995</ele><time>2026-04-26T09:20:34.994Z</time></trkpt><trkpt lat="45.8623416" lon="8.6921701"><ele>330.4</ele><time>2026-04-26T09:20:35.994Z</time></trkpt><trkpt lat="45.8622508" lon="8.6922734"><ele>329.0</ele><time>2026-04-26T09:20:36.993Z</time></trkpt><trkpt lat="45.8621557" lon="8.6923881"><ele>329.0</ele><time>2026-04-26T09:20:37.994Z</time></trkpt><trkpt lat="45.8620602" lon="8.6925037"><ele>329.0</ele><time>2026-04-26T09:20:38.992Z</time></trkpt><trkpt lat="45.8619584" lon="8.6926336"><ele>329.0</ele><time>2026-04-26T09:20:39.993Z</time></trkpt><trkpt lat="45.8618562" lon="8.6927567"><ele>329.0</ele><time>2026-04-26T09:20:40.994Z</time></trkpt><trkpt lat="45.8617539" lon="8.692878"><ele>325.5</ele><time>2026-04-26T09:20:41.994Z</time></trkpt><trkpt lat="45.8616514" lon="8.6930009"><ele>322.0</ele><time>2026-04-26T09:20:42.993Z</time></trkpt><trkpt lat="45.8615495" lon="8.6931281"><ele>318.5</ele><time>2026-04-26T09:20:43.993Z</time></trkpt><trkpt lat="45.8614425" lon="8.6932485"><ele>315.0</ele><time>2026-04-26T09:20:44.994Z</time></trkpt><trkpt lat="45.861341" lon="8.6933766"><ele>315.0</ele><time>2026-04-26T09:20:45.994Z</time></trkpt><trkpt lat="45.8612407" lon="8.6935028"><ele>315.0</ele><time>2026-04-26T09:20:46.993Z</time></trkpt><trkpt lat="45.8611428" lon="8.693625"><ele>315.0</ele><time>2026-04-26T09:20:47.993Z</time></trkpt><trkpt lat="45.8610483" lon="8.6937436"><ele>315.0</ele><time>2026-04-26T09:20:48.993Z</time></trkpt><trkpt lat="45.8609611" lon="8.6938481"><ele>311.75</ele><time>2026-04-26T09:20:49.994Z</time></trkpt><trkpt lat="45.8608681" lon="8.6939329"><ele>308.5</ele><time>2026-04-26T09:20:50.993Z</time></trkpt><trkpt lat="45.860763" lon="8.6939967"><ele>305.25</ele><time>2026-04-26T09:20:51.993Z</time></trkpt><trkpt lat="45.8606486" lon="8.6940256"><ele>302.0</ele><time>2026-04-26T09:20:52.993Z</time></trkpt><trkpt lat="45.8605274" lon="8.6940272"><ele>302.0</ele><time>2026-04-26T09:20:53.992Z</time></trkpt><trkpt lat="45.8604089" lon="8.6940178"><ele>302.0</ele><time>2026-04-26T09:20:54.993Z</time></trkpt><trkpt lat="45.8602843" lon="8.6940157"><ele>302.0</ele><time>2026-04-26T09:20:55.992Z</time></trkpt><trkpt lat="45.8601494" lon="8.694037"><ele>302.0</ele><time>2026-04-26T09:20:56.992Z</time></trkpt><trkpt lat="45.8600128" lon="8.6940787"><ele>300.5</ele><time>2026-04-26T09:20:57.992Z</time></trkpt><trkpt lat="45.8598869" lon="8.6941506"><ele>299.0</ele><time>2026-04-26T09:20:58.991Z</time></trkpt><trkpt lat="45.8597553" lon="8.6942504"><ele>297.5</ele><time>2026-04-26T09:20:59.992Z</time></trkpt><trkpt lat="45.8596426" lon="8.6943852"><ele>296.0</ele><time>2026-04-26T09:21:00.993Z</time></trkpt><trkpt lat="45.8595401" lon="8.6945352"><ele>296.0</ele><time>2026-04-26T09:21:01.992Z</time></trkpt><trkpt lat="45.8594415" lon="8.6947017"><ele>296.0</ele><time>2026-04-26T09:21:02.992Z</time></trkpt><trkpt lat="45.8593555" lon="8.6948683"><ele>296.0</ele><time>2026-04-26T09:21:03.993Z</time></trkpt><trkpt lat="45.859274" lon="8.6950354"><ele>296.0</ele><time>2026-04-26T09:21:04.993Z</time></trkpt><trkpt lat="45.8591935" lon="8.6951958"><ele>294.25</ele><time>2026-04-26T09:21:05.992Z</time></trkpt><trkpt lat="45.859114" lon="8.6953551"><ele>292.5</ele><time>2026-04-26T09:21:06.992Z</time></trkpt><trkpt lat="45.8590317" lon="8.6955115"><ele>290.75</ele><time>2026-04-26T09:21:07.992Z</time></trkpt><trkpt lat="45.8589588" lon="8.6956682"><ele>289.0</ele><time>2026-04-26T09:21:08.993Z</time></trkpt><trkpt lat="45.8588923" lon="8.6958262"><ele>289.0</ele><time>2026-04-26T09:21:09.993Z</time></trkpt><trkpt lat="45.8588306" lon="8.6959823"><ele>289.0</ele><time>2026-04-26T09:21:10.993Z</time></trkpt><trkpt lat="45.8587748" lon="8.6961372"><ele>289.0</ele><time>2026-04-26T09:21:11.993Z</time></trkpt><trkpt lat="45.8587202" lon="8.6962931"><ele>289.0</ele><time>2026-04-26T09:21:12.993Z</time></trkpt><trkpt lat="45.858671" lon="8.6964473"><ele>289.75</ele><time>2026-04-26T09:21:13.992Z</time></trkpt><trkpt lat="45.8586233" lon="8.6966031"><ele>290.5</ele><time>2026-04-26T09:21:14.992Z</time></trkpt><trkpt lat="45.8585669" lon="8.6967573"><ele>291.25</ele><time>2026-04-26T09:21:15.992Z</time></trkpt><trkpt lat="45.8585077" lon="8.6969091"><ele>292.0</ele><time>2026-04-26T09:21:16.992Z</time></trkpt><trkpt lat="45.858453" lon="8.6970654"><ele>291.8</ele><time>2026-04-26T09:21:17.992Z</time></trkpt><trkpt lat="45.8584028" lon="8.6972145"><ele>291.6</ele><time>2026-04-26T09:21:18.993Z</time></trkpt><trkpt lat="45.8583555" lon="8.6973655"><ele>291.40000000000003</ele><time>2026-04-26T09:21:19.992Z</time></trkpt><trkpt lat="45.8583103" lon="8.6975111"><ele>291.2</ele><time>2026-04-26T09:21:20.993Z</time></trkpt><trkpt lat="45.8582716" lon="8.6976549"><ele>291.0</ele><time>2026-04-26T09:21:21.993Z</time></trkpt><trkpt lat="45.8582286" lon="8.697788"><ele>290.6</ele><time>2026-04-26T09:21:22.992Z</time></trkpt><trkpt lat="45.8581857" lon="8.6979097"><ele>290.20000000000005</ele><time>2026-04-26T09:21:23.991Z</time></trkpt><trkpt lat="45.8581394" lon="8.698023"><ele>289.79999999999995</ele><time>2026-04-26T09:21:24.992Z</time></trkpt><trkpt lat="45.8580815" lon="8.6981411"><ele>289.4</ele><time>2026-04-26T09:21:25.993Z</time></trkpt><trkpt lat="45.858021" lon="8.6982661"><ele>289.0</ele><time>2026-04-26T09:21:26.993Z</time></trkpt><trkpt lat="45.8579484" lon="8.6983824"><ele>289.0</ele><time>2026-04-26T09:21:27.993Z</time></trkpt><trkpt lat="45.8578646" lon="8.6984852"><ele>289.0</ele><time>2026-04-26T09:21:28.992Z</time></trkpt><trkpt lat="45.8577714" lon="8.6985729"><ele>289.0</ele><time>2026-04-26T09:21:29.992Z</time></trkpt><trkpt lat="45.857671" lon="8.6986538"><ele>289.0</ele><time>2026-04-26T09:21:30.992Z</time></trkpt><trkpt lat="45.8575707" lon="8.6987448"><ele>288.25</ele><time>2026-04-26T09:21:31.991Z</time></trkpt><trkpt lat="45.8574643" lon="8.6988275"><ele>287.5</ele><time>2026-04-26T09:21:32.992Z</time></trkpt><trkpt lat="45.8573568" lon="8.698922"><ele>286.75</ele><time>2026-04-26T09:21:33.993Z</time></trkpt><trkpt lat="45.8572463" lon="8.6990119"><ele>286.0</ele><time>2026-04-26T09:21:34.993Z</time></trkpt><trkpt lat="45.8571268" lon="8.6990992"><ele>286.0</ele><time>2026-04-26T09:21:35.992Z</time></trkpt><trkpt lat="45.8570113" lon="8.6991938"><ele>286.0</ele><time>2026-04-26T09:21:36.991Z</time></trkpt><trkpt lat="45.8568958" lon="8.6992909"><ele>286.0</ele><time>2026-04-26T09:21:37.992Z</time></trkpt><trkpt lat="45.8567846" lon="8.6993881"><ele>286.0</ele><time>2026-04-26T09:21:38.992Z</time></trkpt><trkpt lat="45.8566761" lon="8.6994891"><ele>285.75</ele><time>2026-04-26T09:21:39.992Z</time></trkpt><trkpt lat="45.856566" lon="8.6995943"><ele>285.5</ele><time>2026-04-26T09:21:40.992Z</time></trkpt><trkpt lat="45.856456" lon="8.6997013"><ele>285.25</ele><time>2026-04-26T09:21:41.992Z</time></trkpt><trkpt lat="45.8563421" lon="8.6998103"><ele>285.0</ele><time>2026-04-26T09:21:42.992Z</time></trkpt><trkpt lat="45.8562393" lon="8.6999149"><ele>285.0</ele><time>2026-04-26T09:21:43.992Z</time></trkpt><trkpt lat="45.8561426" lon="8.700024"><ele>285.0</ele><time>2026-04-26T09:21:44.992Z</time></trkpt><trkpt lat="45.8560486" lon="8.7001234"><ele>285.0</ele><time>2026-04-26T09:21:45.992Z</time></trkpt><trkpt lat="45.8559514" lon="8.7002249"><ele>285.0</ele><time>2026-04-26T09:21:46.992Z</time></trkpt><trkpt lat="45.8558535" lon="8.7003282"><ele>285.0</ele><time>2026-04-26T09:21:47.991Z</time></trkpt><trkpt lat="45.8557508" lon="8.7004359"><ele>285.0</ele><time>2026-04-26T09:21:48.992Z</time></trkpt><trkpt lat="45.8556436" lon="8.7005479"><ele>285.0</ele><time>2026-04-26T09:21:49.993Z</time></trkpt><trkpt lat="45.8555394" lon="8.7006599"><ele>285.0</ele><time>2026-04-26T09:21:50.993Z</time></trkpt><trkpt lat="45.8554357" lon="8.7007704"><ele>285.0</ele><time>2026-04-26T09:21:51.991Z</time></trkpt><trkpt lat="45.8553409" lon="8.7008768"><ele>285.0</ele><time>2026-04-26T09:21:52.993Z</time></trkpt><trkpt lat="45.8552524" lon="8.7009761"><ele>285.0</ele><time>2026-04-26T09:21:53.993Z</time></trkpt><trkpt lat="45.855159" lon="8.7010774"><ele>285.0</ele><time>2026-04-26T09:21:54.993Z</time></trkpt><trkpt lat="45.8550748" lon="8.7011672"><ele>284.8</ele><time>2026-04-26T09:21:55.992Z</time></trkpt><trkpt lat="45.8549829" lon="8.7012586"><ele>284.6</ele><time>2026-04-26T09:21:56.992Z</time></trkpt><trkpt lat="45.8548856" lon="8.7013305"><ele>284.4</ele><time>2026-04-26T09:21:57.991Z</time></trkpt><trkpt lat="45.8547844" lon="8.7013729"><ele>284.2</ele><time>2026-04-26T09:21:58.992Z</time></trkpt><trkpt lat="45.8546725" lon="8.701376"><ele>284.0</ele><time>2026-04-26T09:21:59.992Z</time></trkpt><trkpt lat="45.8545535" lon="8.7013595"><ele>284.0</ele><time>2026-04-26T09:22:00.991Z</time></trkpt><trkpt lat="45.854437" lon="8.7013316"><ele>284.0</ele><time>2026-04-26T09:22:01.992Z</time></trkpt><trkpt lat="45.8543239" lon="8.7013197"><ele>284.0</ele><time>2026-04-26T09:22:02.993Z</time></trkpt><trkpt lat="45.8542147" lon="8.7013518"><ele>284.0</ele><time>2026-04-26T09:22:03.993Z</time></trkpt><trkpt lat="45.8541286" lon="8.7014386"><ele>284.0</ele><time>2026-04-26T09:22:04.993Z</time></trkpt><trkpt lat="45.8540514" lon="8.7015585"><ele>283.6666666666667</ele><time>2026-04-26T09:22:05.993Z</time></trkpt><trkpt lat="45.8539943" lon="8.7016767"><ele>283.33333333333337</ele><time>2026-04-26T09:22:06.991Z</time></trkpt><trkpt lat="45.8539473" lon="8.7017565"><ele>283.0</ele><time>2026-04-26T09:22:07.993Z</time></trkpt><trkpt lat="45.8538979" lon="8.7018551"><ele>282.6666666666667</ele><time>2026-04-26T09:22:09.993Z</time></trkpt><trkpt lat="45.8538422" lon="8.7019204"><ele>282.3333333333333</ele><time>2026-04-26T09:22:12.992Z</time></trkpt><trkpt lat="45.8537775" lon="8.701905"><ele>282.0</ele><time>2026-04-26T09:22:14.993Z</time></trkpt><trkpt lat="45.8537183" lon="8.701826"><ele>282.0</ele><time>2026-04-26T09:22:16.993Z</time></trkpt><trkpt lat="45.8536519" lon="8.7017225"><ele>282.0</ele><time>2026-04-26T09:22:18.991Z</time></trkpt><trkpt lat="45.8535545" lon="8.7017378"><ele>282.0</ele><time>2026-04-26T09:22:20.992Z</time></trkpt><trkpt lat="45.8534969" lon="8.7018742"><ele>282.0</ele><time>2026-04-26T09:22:22.991Z</time></trkpt><trkpt lat="45.853469" lon="8.7019699"><ele>282.0</ele><time>2026-04-26T09:22:23.993Z</time></trkpt><trkpt lat="45.8534287" lon="8.7020681"><ele>281.4</ele><time>2026-04-26T09:22:24.993Z</time></trkpt><trkpt lat="45.8533748" lon="8.7021707"><ele>280.79999999999995</ele><time>2026-04-26T09:22:25.992Z</time></trkpt><trkpt lat="45.8533169" lon="8.7022781"><ele>280.2</ele><time>2026-04-26T09:22:26.993Z</time></trkpt><trkpt lat="45.85326" lon="8.7023839"><ele>279.59999999999997</ele><time>2026-04-26T09:22:27.993Z</time></trkpt><trkpt lat="45.8531958" lon="8.7024866"><ele>279.0</ele><time>2026-04-26T09:22:28.992Z</time></trkpt><trkpt lat="45.8531315" lon="8.7025875"><ele>279.0</ele><time>2026-04-26T09:22:29.993Z</time></trkpt><trkpt lat="45.8530668" lon="8.7026994"><ele>279.0</ele><time>2026-04-26T09:22:30.992Z</time></trkpt><trkpt lat="45.8530004" lon="8.7028141"><ele>279.0</ele><time>2026-04-26T09:22:31.993Z</time></trkpt><trkpt lat="45.852923" lon="8.7029324"><ele>279.0</ele><time>2026-04-26T09:22:32.993Z</time></trkpt><trkpt lat="45.8528467" lon="8.7030582"><ele>279.0</ele><time>2026-04-26T09:22:33.993Z</time></trkpt><trkpt lat="45.8527679" lon="8.7031806"><ele>279.0</ele><time>2026-04-26T09:22:34.992Z</time></trkpt><trkpt lat="45.8526927" lon="8.7033055"><ele>279.0</ele><time>2026-04-26T09:22:35.993Z</time></trkpt><trkpt lat="45.8526187" lon="8.7034342"><ele>279.0</ele><time>2026-04-26T09:22:36.992Z</time></trkpt><trkpt lat="45.8525429" lon="8.7035568"><ele>279.0</ele><time>2026-04-26T09:22:37.993Z</time></trkpt><trkpt lat="45.852466" lon="8.703683"><ele>278.75</ele><time>2026-04-26T09:22:38.991Z</time></trkpt><trkpt lat="45.8523862" lon="8.7038109"><ele>278.5</ele><time>2026-04-26T09:22:39.993Z</time></trkpt><trkpt lat="45.8523073" lon="8.7039388"><ele>278.25</ele><time>2026-04-26T09:22:40.993Z</time></trkpt><trkpt lat="45.8522339" lon="8.7040673"><ele>278.0</ele><time>2026-04-26T09:22:41.993Z</time></trkpt><trkpt lat="45.8521558" lon="8.7041986"><ele>278.0</ele><time>2026-04-26T09:22:42.993Z</time></trkpt><trkpt lat="45.8520754" lon="8.7043362"><ele>278.0</ele><time>2026-04-26T09:22:43.993Z</time></trkpt><trkpt lat="45.851993" lon="8.7044727"><ele>278.0</ele><time>2026-04-26T09:22:44.993Z</time></trkpt><trkpt lat="45.8519169" lon="8.7046046"><ele>278.0</ele><time>2026-04-26T09:22:45.993Z</time></trkpt><trkpt lat="45.8518439" lon="8.7047421"><ele>278.0</ele><time>2026-04-26T09:22:46.992Z</time></trkpt><trkpt lat="45.8517702" lon="8.7048744"><ele>278.0</ele><time>2026-04-26T09:22:47.992Z</time></trkpt><trkpt lat="45.8516895" lon="8.7050045"><ele>278.0</ele><time>2026-04-26T09:22:48.993Z</time></trkpt><trkpt lat="45.8516042" lon="8.7051375"><ele>278.0</ele><time>2026-04-26T09:22:49.991Z</time></trkpt><trkpt lat="45.8515204" lon="8.7052629"><ele>278.25</ele><time>2026-04-26T09:22:50.993Z</time></trkpt><trkpt lat="45.8514422" lon="8.7053957"><ele>278.5</ele><time>2026-04-26T09:22:51.992Z</time></trkpt><trkpt lat="45.8513671" lon="8.7055352"><ele>278.75</ele><time>2026-04-26T09:22:52.992Z</time></trkpt><trkpt lat="45.8512919" lon="8.7056621"><ele>279.0</ele><time>2026-04-26T09:22:53.992Z</time></trkpt><trkpt lat="45.8512144" lon="8.7057894"><ele>279.0</ele><time>2026-04-26T09:22:54.992Z</time></trkpt><trkpt lat="45.8511396" lon="8.7059184"><ele>279.0</ele><time>2026-04-26T09:22:55.993Z</time></trkpt><trkpt lat="45.8510628" lon="8.7060432"><ele>279.0</ele><time>2026-04-26T09:22:56.992Z</time></trkpt><trkpt lat="45.8509872" lon="8.7061773"><ele>279.0</ele><time>2026-04-26T09:22:57.992Z</time></trkpt><trkpt lat="45.8509055" lon="8.7063101"><ele>278.75</ele><time>2026-04-26T09:22:58.993Z</time></trkpt><trkpt lat="45.8508254" lon="8.7064503"><ele>278.5</ele><time>2026-04-26T09:22:59.993Z</time></trkpt><trkpt lat="45.8507475" lon="8.7065919"><ele>278.25</ele><time>2026-04-26T09:23:00.992Z</time></trkpt><trkpt lat="45.8506666" lon="8.7067257"><ele>278.0</ele><time>2026-04-26T09:23:01.991Z</time></trkpt><trkpt lat="45.8505846" lon="8.7068581"><ele>278.0</ele><time>2026-04-26T09:23:02.993Z</time></trkpt><trkpt lat="45.8505097" lon="8.7069887"><ele>278.0</ele><time>2026-04-26T09:23:03.991Z</time></trkpt><trkpt lat="45.8504287" lon="8.7071141"><ele>278.0</ele><time>2026-04-26T09:23:04.993Z</time></trkpt><trkpt lat="45.8503519" lon="8.7072478"><ele>278.0</ele><time>2026-04-26T09:23:05.993Z</time></trkpt><trkpt lat="45.8502772" lon="8.7073794"><ele>278.0</ele><time>2026-04-26T09:23:06.992Z</time></trkpt><trkpt lat="45.8501975" lon="8.7075121"><ele>278.0</ele><time>2026-04-26T09:23:07.993Z</time></trkpt><trkpt lat="45.8501158" lon="8.7076374"><ele>278.0</ele><time>2026-04-26T09:23:08.992Z</time></trkpt><trkpt lat="45.8500414" lon="8.7077497"><ele>278.0</ele><time>2026-04-26T09:23:09.992Z</time></trkpt><trkpt lat="45.8499798" lon="8.7078497"><ele>278.0</ele><time>2026-04-26T09:23:10.993Z</time></trkpt><trkpt lat="45.8499254" lon="8.7079465"><ele>277.83333333333337</ele><time>2026-04-26T09:23:11.991Z</time></trkpt><trkpt lat="45.8498753" lon="8.7080306"><ele>277.6666666666667</ele><time>2026-04-26T09:23:12.993Z</time></trkpt><trkpt lat="45.8498245" lon="8.7081139"><ele>277.5</ele><time>2026-04-26T09:23:13.992Z</time></trkpt><trkpt lat="45.8497678" lon="8.7081985"><ele>277.3333333333333</ele><time>2026-04-26T09:23:14.992Z</time></trkpt><trkpt lat="45.8497121" lon="8.7082849"><ele>277.16666666666663</ele><time>2026-04-26T09:23:15.993Z</time></trkpt><trkpt lat="45.8496522" lon="8.7083901"><ele>277.0</ele><time>2026-04-26T09:23:16.991Z</time></trkpt><trkpt lat="45.8495903" lon="8.7084976"><ele>277.0</ele><time>2026-04-26T09:23:17.991Z</time></trkpt><trkpt lat="45.849521" lon="8.7086094"><ele>277.0</ele><time>2026-04-26T09:23:18.992Z</time></trkpt><trkpt lat="45.8494491" lon="8.708727"><ele>277.0</ele><time>2026-04-26T09:23:19.993Z</time></trkpt><trkpt lat="45.8493858" lon="8.7088326"><ele>277.0</ele><time>2026-04-26T09:23:20.992Z</time></trkpt><trkpt lat="45.8493281" lon="8.7089224"><ele>277.0</ele><time>2026-04-26T09:23:21.992Z</time></trkpt><trkpt lat="45.8492637" lon="8.7090278"><ele>277.25</ele><time>2026-04-26T09:23:22.993Z</time></trkpt><trkpt lat="45.849199" lon="8.7091285"><ele>277.5</ele><time>2026-04-26T09:23:23.992Z</time></trkpt><trkpt lat="45.8491295" lon="8.7092578"><ele>277.75</ele><time>2026-04-26T09:23:24.993Z</time></trkpt><trkpt lat="45.8490547" lon="8.7093876"><ele>278.0</ele><time>2026-04-26T09:23:25.993Z</time></trkpt><trkpt lat="45.8489747" lon="8.7095235"><ele>278.0</ele><time>2026-04-26T09:23:26.992Z</time></trkpt><trkpt lat="45.8488938" lon="8.7096612"><ele>278.0</ele><time>2026-04-26T09:23:27.993Z</time></trkpt><trkpt lat="45.8488171" lon="8.7097935"><ele>278.0</ele><time>2026-04-26T09:23:28.993Z</time></trkpt><trkpt lat="45.8487331" lon="8.7099078"><ele>278.0</ele><time>2026-04-26T09:23:29.991Z</time></trkpt><trkpt lat="45.8486532" lon="8.7100131"><ele>278.0</ele><time>2026-04-26T09:23:30.992Z</time></trkpt><trkpt lat="45.8485738" lon="8.7100993"><ele>278.0</ele><time>2026-04-26T09:23:31.993Z</time></trkpt><trkpt lat="45.8484891" lon="8.710184"><ele>278.0</ele><time>2026-04-26T09:23:32.992Z</time></trkpt><trkpt lat="45.8484149" lon="8.7102632"><ele>278.0</ele><time>2026-04-26T09:23:33.993Z</time></trkpt><trkpt lat="45.8483457" lon="8.7103337"><ele>278.0</ele><time>2026-04-26T09:23:34.991Z</time></trkpt><trkpt lat="45.8482681" lon="8.7104003"><ele>277.8</ele><time>2026-04-26T09:23:35.992Z</time></trkpt><trkpt lat="45.8481804" lon="8.7104733"><ele>277.6</ele><time>2026-04-26T09:23:36.991Z</time></trkpt><trkpt lat="45.8480956" lon="8.7105482"><ele>277.4</ele><time>2026-04-26T09:23:37.992Z</time></trkpt><trkpt lat="45.8480038" lon="8.7106309"><ele>277.2</ele><time>2026-04-26T09:23:38.993Z</time></trkpt><trkpt lat="45.8479107" lon="8.7107258"><ele>277.0</ele><time>2026-04-26T09:23:39.993Z</time></trkpt><trkpt lat="45.847825" lon="8.7108059"><ele>277.0</ele><time>2026-04-26T09:23:40.993Z</time></trkpt><trkpt lat="45.8477448" lon="8.7108803"><ele>277.0</ele><time>2026-04-26T09:23:41.993Z</time></trkpt><trkpt lat="45.8476651" lon="8.7109475"><ele>277.0</ele><time>2026-04-26T09:23:42.991Z</time></trkpt><trkpt lat="45.8475945" lon="8.7110146"><ele>277.0</ele><time>2026-04-26T09:23:43.993Z</time></trkpt><trkpt lat="45.8475257" lon="8.7110838"><ele>277.0</ele><time>2026-04-26T09:23:44.991Z</time></trkpt><trkpt lat="45.847453" lon="8.7111442"><ele>277.0</ele><time>2026-04-26T09:23:45.993Z</time></trkpt><trkpt lat="45.8473854" lon="8.7112006"><ele>277.2</ele><time>2026-04-26T09:23:46.991Z</time></trkpt><trkpt lat="45.8473233" lon="8.7112532"><ele>277.4</ele><time>2026-04-26T09:23:47.993Z</time></trkpt><trkpt lat="45.8472311" lon="8.711342"><ele>277.6</ele><time>2026-04-26T09:23:49.992Z</time></trkpt><trkpt lat="45.8471294" lon="8.7114138"><ele>277.8</ele><time>2026-04-26T09:23:51.991Z</time></trkpt><trkpt lat="45.8470374" lon="8.7114954"><ele>278.0</ele><time>2026-04-26T09:23:53.992Z</time></trkpt><trkpt lat="45.8469451" lon="8.7115701"><ele>278.0</ele><time>2026-04-26T09:23:55.993Z</time></trkpt><trkpt lat="45.8468834" lon="8.7116204"><ele>278.0</ele><time>2026-04-26T09:23:57.992Z</time></trkpt><trkpt lat="45.8468087" lon="8.7116909"><ele>278.0</ele><time>2026-04-26T09:24:16.992Z</time></trkpt><trkpt lat="45.8467309" lon="8.7117679"><ele>278.0</ele><time>2026-04-26T09:24:18.993Z</time></trkpt><trkpt lat="45.846635" lon="8.7118419"><ele>278.0</ele><time>2026-04-26T09:24:20.992Z</time></trkpt><trkpt lat="45.8465434" lon="8.7119278"><ele>278.0</ele><time>2026-04-26T09:24:22.991Z</time></trkpt><trkpt lat="45.8464429" lon="8.7120099"><ele>278.0</ele><time>2026-04-26T09:24:24.993Z</time></trkpt><trkpt lat="45.8463404" lon="8.7120883"><ele>278.0</ele><time>2026-04-26T09:24:26.993Z</time></trkpt><trkpt lat="45.8462362" lon="8.7121453"><ele>278.0</ele><time>2026-04-26T09:24:28.993Z</time></trkpt><trkpt lat="45.8461531" lon="8.7121805"><ele>278.0</ele><time>2026-04-26T09:24:30.991Z</time></trkpt><trkpt lat="45.8460439" lon="8.7122027"><ele>278.0</ele><time>2026-04-26T09:24:32.993Z</time></trkpt><trkpt lat="45.8459786" lon="8.7122073"><ele>278.0</ele><time>2026-04-26T09:24:33.992Z</time></trkpt><trkpt lat="45.8459036" lon="8.7122223"><ele>278.0</ele><time>2026-04-26T09:24:34.992Z</time></trkpt><trkpt lat="45.8458261" lon="8.712248"><ele>278.0</ele><time>2026-04-26T09:24:35.992Z</time></trkpt><trkpt lat="45.8457533" lon="8.7122774"><ele>278.0</ele><time>2026-04-26T09:24:36.993Z</time></trkpt><trkpt lat="45.8456829" lon="8.7123096"><ele>278.0</ele><time>2026-04-26T09:24:37.993Z</time></trkpt><trkpt lat="45.8456138" lon="8.7123462"><ele>278.0</ele><time>2026-04-26T09:24:38.993Z</time></trkpt><trkpt lat="45.8455489" lon="8.7123854"><ele>277.6666666666667</ele><time>2026-04-26T09:24:39.992Z</time></trkpt><trkpt lat="45.8454773" lon="8.7124258"><ele>277.33333333333337</ele><time>2026-04-26T09:24:40.993Z</time></trkpt><trkpt lat="45.845407" lon="8.7124695"><ele>277.0</ele><time>2026-04-26T09:24:41.993Z</time></trkpt><trkpt lat="45.8453369" lon="8.7125153"><ele>276.6666666666667</ele><time>2026-04-26T09:24:42.992Z</time></trkpt><trkpt lat="45.8452686" lon="8.7125588"><ele>276.3333333333333</ele><time>2026-04-26T09:24:43.992Z</time></trkpt><trkpt lat="45.8451976" lon="8.7126106"><ele>276.0</ele><time>2026-04-26T09:24:44.993Z</time></trkpt><trkpt lat="45.8451376" lon="8.712649"><ele>275.6666666666667</ele><time>2026-04-26T09:24:45.993Z</time></trkpt><trkpt lat="45.8450726" lon="8.7126889"><ele>275.3333333333333</ele><time>2026-04-26T09:24:46.992Z</time></trkpt><trkpt lat="45.8450125" lon="8.712738"><ele>275.0</ele><time>2026-04-26T09:24:47.992Z</time></trkpt><trkpt lat="45.8449022" lon="8.7128149"><ele>274.66666666666663</ele><time>2026-04-26T09:24:49.992Z</time></trkpt><trkpt lat="45.8448371" lon="8.7128579"><ele>274.3333333333333</ele><time>2026-04-26T09:24:50.992Z</time></trkpt><trkpt lat="45.8447729" lon="8.7129091"><ele>274.0</ele><time>2026-04-26T09:24:51.993Z</time></trkpt><trkpt lat="45.8447056" lon="8.7129566"><ele>274.00000000000006</ele><time>2026-04-26T09:24:52.992Z</time></trkpt><trkpt lat="45.8446318" lon="8.713006"><ele>274.0</ele><time>2026-04-26T09:24:53.992Z</time></trkpt><trkpt lat="45.8445633" lon="8.7130561"><ele>274.0</ele><time>2026-04-26T09:24:54.991Z</time></trkpt><trkpt lat="45.8444988" lon="8.7131028"><ele>274.0</ele><time>2026-04-26T09:24:55.992Z</time></trkpt><trkpt lat="45.8444331" lon="8.7131514"><ele>274.0</ele><time>2026-04-26T09:24:56.993Z</time></trkpt><trkpt lat="45.8443673" lon="8.7131993"><ele>274.00000000000006</ele><time>2026-04-26T09:24:57.991Z</time></trkpt><trkpt lat="45.8443039" lon="8.71324"><ele>274.0</ele><time>2026-04-26T09:24:58.993Z</time></trkpt><trkpt lat="45.8442408" lon="8.7132865"><ele>273.0</ele><time>2026-04-26T09:24:59.993Z</time></trkpt><trkpt lat="45.8441669" lon="8.7133075"><ele>272.0</ele><time>2026-04-26T09:25:00.993Z</time></trkpt><trkpt lat="45.8440989" lon="8.7133091"><ele>271.0</ele><time>2026-04-26T09:25:01.992Z</time></trkpt><trkpt lat="45.8439926" lon="8.713245"><ele>270.0</ele><time>2026-04-26T09:25:03.992Z</time></trkpt><trkpt lat="45.8439532" lon="8.7131706"><ele>269.0</ele><time>2026-04-26T09:25:04.993Z</time></trkpt><trkpt lat="45.8439082" lon="8.7130685"><ele>268.0</ele><time>2026-04-26T09:25:05.993Z</time></trkpt><trkpt lat="45.8438554" lon="8.7129553"><ele>268.0</ele><time>2026-04-26T09:25:06.993Z</time></trkpt><trkpt lat="45.8438001" lon="8.7128408"><ele>268.0</ele><time>2026-04-26T09:25:07.992Z</time></trkpt><trkpt lat="45.8437431" lon="8.7127255"><ele>268.0</ele><time>2026-04-26T09:25:08.993Z</time></trkpt><trkpt lat="45.8436766" lon="8.7126175"><ele>268.0</ele><time>2026-04-26T09:25:09.993Z</time></trkpt><trkpt lat="45.843602" lon="8.7125569"><ele>268.0</ele><time>2026-04-26T09:25:10.991Z</time></trkpt><trkpt lat="45.8435235" lon="8.7125314"><ele>267.6</ele><time>2026-04-26T09:25:11.991Z</time></trkpt><trkpt lat="45.8434339" lon="8.712548"><ele>267.20000000000005</ele><time>2026-04-26T09:25:12.993Z</time></trkpt><trkpt lat="45.8433387" lon="8.7125969"><ele>266.8</ele><time>2026-04-26T09:25:13.993Z</time></trkpt><trkpt lat="45.8432426" lon="8.7126492"><ele>266.40000000000003</ele><time>2026-04-26T09:25:14.993Z</time></trkpt><trkpt lat="45.8431511" lon="8.7127043"><ele>266.0</ele><time>2026-04-26T09:25:15.992Z</time></trkpt><trkpt lat="45.8430575" lon="8.7127607"><ele>266.0</ele><time>2026-04-26T09:25:16.992Z</time></trkpt><trkpt lat="45.8429579" lon="8.7128206"><ele>266.0</ele><time>2026-04-26T09:25:17.991Z</time></trkpt><trkpt lat="45.8428596" lon="8.7128844"><ele>266.0</ele><time>2026-04-26T09:25:18.992Z</time></trkpt><trkpt lat="45.8427626" lon="8.7129496"><ele>266.0</ele><time>2026-04-26T09:25:19.991Z</time></trkpt><trkpt lat="45.8426624" lon="8.7130149"><ele>266.0</ele><time>2026-04-26T09:25:20.991Z</time></trkpt><trkpt lat="45.8425642" lon="8.7130759"><ele>266.1666666666667</ele><time>2026-04-26T09:25:21.991Z</time></trkpt><trkpt lat="45.8424709" lon="8.7131356"><ele>266.33333333333337</ele><time>2026-04-26T09:25:22.991Z</time></trkpt><trkpt lat="45.8423819" lon="8.7131845"><ele>266.5</ele><time>2026-04-26T09:25:23.992Z</time></trkpt><trkpt lat="45.8423023" lon="8.7132248"><ele>266.6666666666667</ele><time>2026-04-26T09:25:24.992Z</time></trkpt><trkpt lat="45.8422296" lon="8.713252"><ele>266.8333333333333</ele><time>2026-04-26T09:25:25.99Z</time></trkpt><trkpt lat="45.8421654" lon="8.7132455"><ele>267.0</ele><time>2026-04-26T09:25:26.992Z</time></trkpt><trkpt lat="45.8420975" lon="8.7132099"><ele>267.0</ele><time>2026-04-26T09:25:27.992Z</time></trkpt><trkpt lat="45.8419858" lon="8.7132417"><ele>267.0</ele><time>2026-04-26T09:25:29.992Z</time></trkpt><trkpt lat="45.841907" lon="8.7133913"><ele>267.0</ele><time>2026-04-26T09:25:31.992Z</time></trkpt><trkpt lat="45.8418616" lon="8.7134793"><ele>267.0</ele><time>2026-04-26T09:25:32.991Z</time></trkpt><trkpt lat="45.8417867" lon="8.7135512"><ele>267.0</ele><time>2026-04-26T09:25:33.991Z</time></trkpt><trkpt lat="45.8417058" lon="8.7136223"><ele>266.4</ele><time>2026-04-26T09:25:34.99Z</time></trkpt><trkpt lat="45.8416161" lon="8.7136846"><ele>265.79999999999995</ele><time>2026-04-26T09:25:35.991Z</time></trkpt><trkpt lat="45.8415222" lon="8.7137479"><ele>265.2</ele><time>2026-04-26T09:25:36.991Z</time></trkpt><trkpt lat="45.8414277" lon="8.7138086"><ele>264.59999999999997</ele><time>2026-04-26T09:25:37.991Z</time></trkpt><trkpt lat="45.8413301" lon="8.7138718"><ele>264.0</ele><time>2026-04-26T09:25:38.99Z</time></trkpt><trkpt lat="45.8412332" lon="8.7139269"><ele>264.0</ele><time>2026-04-26T09:25:39.991Z</time></trkpt><trkpt lat="45.8411401" lon="8.7139685"><ele>264.0</ele><time>2026-04-26T09:25:40.99Z</time></trkpt><trkpt lat="45.8410473" lon="8.714003"><ele>264.0</ele><time>2026-04-26T09:25:41.992Z</time></trkpt><trkpt lat="45.8409525" lon="8.7140456"><ele>264.0</ele><time>2026-04-26T09:25:42.991Z</time></trkpt><trkpt lat="45.8408664" lon="8.7140904"><ele>264.0</ele><time>2026-04-26T09:25:43.99Z</time></trkpt><trkpt lat="45.8407757" lon="8.714141"><ele>263.4</ele><time>2026-04-26T09:25:44.99Z</time></trkpt><trkpt lat="45.8406855" lon="8.7141938"><ele>262.79999999999995</ele><time>2026-04-26T09:25:45.99Z</time></trkpt><trkpt lat="45.8406046" lon="8.7142534"><ele>262.20000000000005</ele><time>2026-04-26T09:25:46.991Z</time></trkpt><trkpt lat="45.8405226" lon="8.7143264"><ele>261.6</ele><time>2026-04-26T09:25:47.99Z</time></trkpt><trkpt lat="45.8404361" lon="8.7144132"><ele>261.0</ele><time>2026-04-26T09:25:48.991Z</time></trkpt><trkpt lat="45.8403573" lon="8.7145071"><ele>261.0</ele><time>2026-04-26T09:25:49.992Z</time></trkpt><trkpt lat="45.8402749" lon="8.7146055"><ele>261.0</ele><time>2026-04-26T09:25:50.992Z</time></trkpt><trkpt lat="45.8401912" lon="8.7147099"><ele>261.0</ele><time>2026-04-26T09:25:51.991Z</time></trkpt><trkpt lat="45.8401127" lon="8.7148125"><ele>261.0</ele><time>2026-04-26T09:25:52.992Z</time></trkpt><trkpt lat="45.8400357" lon="8.714924"><ele>261.0</ele><time>2026-04-26T09:25:53.991Z</time></trkpt><trkpt lat="45.8399647" lon="8.715027"><ele>260.5</ele><time>2026-04-26T09:25:54.991Z</time></trkpt><trkpt lat="45.8398988" lon="8.7151119"><ele>260.0</ele><time>2026-04-26T09:25:55.991Z</time></trkpt><trkpt lat="45.8398341" lon="8.7151858"><ele>259.5</ele><time>2026-04-26T09:25:56.991Z</time></trkpt><trkpt lat="45.8397817" lon="8.7152495"><ele>259.0</ele><time>2026-04-26T09:25:57.991Z</time></trkpt><trkpt lat="45.8397027" lon="8.7153453"><ele>258.5</ele><time>2026-04-26T09:25:59.991Z</time></trkpt><trkpt lat="45.8396615" lon="8.715415"><ele>258.0</ele><time>2026-04-26T09:26:01.991Z</time></trkpt><trkpt lat="45.8395928" lon="8.7154374"><ele>258.0</ele><time>2026-04-26T09:26:03.991Z</time></trkpt><trkpt lat="45.8395434" lon="8.7153494"><ele>258.0</ele><time>2026-04-26T09:26:04.992Z</time></trkpt><trkpt lat="45.8394946" lon="8.7152886"><ele>258.0</ele><time>2026-04-26T09:26:05.99Z</time></trkpt><trkpt lat="45.8394371" lon="8.7152116"><ele>258.0</ele><time>2026-04-26T09:26:06.991Z</time></trkpt><trkpt lat="45.8393808" lon="8.7151394"><ele>258.0</ele><time>2026-04-26T09:26:07.992Z</time></trkpt><trkpt lat="45.839307" lon="8.7150609"><ele>258.0</ele><time>2026-04-26T09:26:08.992Z</time></trkpt><trkpt lat="45.8392491" lon="8.7149628"><ele>257.4</ele><time>2026-04-26T09:26:09.991Z</time></trkpt><trkpt lat="45.83922" lon="8.7148572"><ele>256.8</ele><time>2026-04-26T09:26:10.991Z</time></trkpt><trkpt lat="45.8392178" lon="8.7147611"><ele>256.2</ele><time>2026-04-26T09:26:11.992Z</time></trkpt><trkpt lat="45.8393071" lon="8.7146542"><ele>255.6</ele><time>2026-04-26T09:26:13.992Z</time></trkpt><trkpt lat="45.8394011" lon="8.7146627"><ele>255.0</ele><time>2026-04-26T09:26:15.99Z</time></trkpt><trkpt lat="45.8394831" lon="8.7148088"><ele>255.0</ele><time>2026-04-26T09:26:17.99Z</time></trkpt><trkpt lat="45.8395268" lon="8.7149403"><ele>255.0</ele><time>2026-04-26T09:26:18.99Z</time></trkpt><trkpt lat="45.8395713" lon="8.7150864"><ele>255.0</ele><time>2026-04-26T09:26:19.99Z</time></trkpt><trkpt lat="45.8396161" lon="8.7152462"><ele>255.0</ele><time>2026-04-26T09:26:20.99Z</time></trkpt><trkpt lat="45.8396819" lon="8.7154377"><ele>256.0</ele><time>2026-04-26T09:26:21.992Z</time></trkpt><trkpt lat="45.8397394" lon="8.7156285"><ele>257.0</ele><time>2026-04-26T09:26:22.991Z</time></trkpt><trkpt lat="45.8398043" lon="8.7158348"><ele>258.0</ele><time>2026-04-26T09:26:23.991Z</time></trkpt><trkpt lat="45.8398704" lon="8.7160504"><ele>257.6666666666667</ele><time>2026-04-26T09:26:24.99Z</time></trkpt><trkpt lat="45.8399452" lon="8.7162657"><ele>257.33333333333337</ele><time>2026-04-26T09:26:25.991Z</time></trkpt><trkpt lat="45.840019" lon="8.716489"><ele>257.0</ele><time>2026-04-26T09:26:26.992Z</time></trkpt><trkpt lat="45.8400986" lon="8.7167223"><ele>258.6666666666667</ele><time>2026-04-26T09:26:27.992Z</time></trkpt><trkpt lat="45.8401799" lon="8.7169606"><ele>260.3333333333333</ele><time>2026-04-26T09:26:28.992Z</time></trkpt><trkpt lat="45.8402622" lon="8.7172045"><ele>262.0</ele><time>2026-04-26T09:26:29.992Z</time></trkpt><trkpt lat="45.8403423" lon="8.717445"><ele>262.0</ele><time>2026-04-26T09:26:30.991Z</time></trkpt><trkpt lat="45.8404231" lon="8.7176835"><ele>262.0</ele><time>2026-04-26T09:26:31.991Z</time></trkpt><trkpt lat="45.8405022" lon="8.7179108"><ele>262.0</ele><time>2026-04-26T09:26:32.99Z</time></trkpt><trkpt lat="45.8405773" lon="8.7181245"><ele>261.3333333333333</ele><time>2026-04-26T09:26:33.992Z</time></trkpt><trkpt lat="45.8406605" lon="8.7183457"><ele>260.6666666666667</ele><time>2026-04-26T09:26:34.991Z</time></trkpt><trkpt lat="45.8407368" lon="8.7185732"><ele>260.0</ele><time>2026-04-26T09:26:35.99Z</time></trkpt><trkpt lat="45.840814" lon="8.718795"><ele>260.0</ele><time>2026-04-26T09:26:36.991Z</time></trkpt><trkpt lat="45.8408887" lon="8.719001"><ele>260.0</ele><time>2026-04-26T09:26:37.99Z</time></trkpt><trkpt lat="45.8409551" lon="8.71919"><ele>260.0</ele><time>2026-04-26T09:26:38.992Z</time></trkpt><trkpt lat="45.8410123" lon="8.7193545"><ele>260.0</ele><time>2026-04-26T09:26:39.991Z</time></trkpt><trkpt lat="45.8410656" lon="8.7195111"><ele>259.5</ele><time>2026-04-26T09:26:40.992Z</time></trkpt><trkpt lat="45.8411106" lon="8.719659"><ele>259.0</ele><time>2026-04-26T09:26:41.99Z</time></trkpt><trkpt lat="45.8411441" lon="8.7197832"><ele>258.5</ele><time>2026-04-26T09:26:42.992Z</time></trkpt><trkpt lat="45.8411644" lon="8.7198837"><ele>258.0</ele><time>2026-04-26T09:26:43.991Z</time></trkpt><trkpt lat="45.8411728" lon="8.7199814"><ele>257.5</ele><time>2026-04-26T09:26:44.992Z</time></trkpt><trkpt lat="45.8411788" lon="8.7200915"><ele>257.0</ele><time>2026-04-26T09:26:45.99Z</time></trkpt><trkpt lat="45.8412108" lon="8.7202093"><ele>256.8</ele><time>2026-04-26T09:26:46.991Z</time></trkpt><trkpt lat="45.8412435" lon="8.7203337"><ele>256.6</ele><time>2026-04-26T09:26:47.991Z</time></trkpt><trkpt lat="45.8412598" lon="8.7204854"><ele>256.40000000000003</ele><time>2026-04-26T09:26:48.991Z</time></trkpt><trkpt lat="45.8412714" lon="8.7206485"><ele>256.2</ele><time>2026-04-26T09:26:49.992Z</time></trkpt><trkpt lat="45.8412715" lon="8.7208226"><ele>256.0</ele><time>2026-04-26T09:26:50.991Z</time></trkpt><trkpt lat="45.8412539" lon="8.7210046"><ele>257.0</ele><time>2026-04-26T09:26:51.992Z</time></trkpt><trkpt lat="45.8412222" lon="8.721197"><ele>258.0</ele><time>2026-04-26T09:26:52.99Z</time></trkpt><trkpt lat="45.8411844" lon="8.7213905"><ele>259.0</ele><time>2026-04-26T09:26:53.992Z</time></trkpt><trkpt lat="45.8411455" lon="8.7215944"><ele>260.0</ele><time>2026-04-26T09:26:54.991Z</time></trkpt><trkpt lat="45.841104" lon="8.7217996"><ele>261.0</ele><time>2026-04-26T09:26:55.991Z</time></trkpt><trkpt lat="45.8410626" lon="8.7220127"><ele>262.0</ele><time>2026-04-26T09:26:56.991Z</time></trkpt><trkpt lat="45.8410189" lon="8.7222277"><ele>263.0</ele><time>2026-04-26T09:26:57.991Z</time></trkpt><trkpt lat="45.8409723" lon="8.7224421"><ele>258.33333333333337</ele><time>2026-04-26T09:26:58.991Z</time></trkpt><trkpt lat="45.8409244" lon="8.7226588"><ele>253.66666666666669</ele><time>2026-04-26T09:26:59.99Z</time></trkpt><trkpt lat="45.8408785" lon="8.7228705"><ele>249.0</ele><time>2026-04-26T09:27:00.991Z</time></trkpt><trkpt lat="45.8408365" lon="8.7230754"><ele>249.0</ele><time>2026-04-26T09:27:01.991Z</time></trkpt><trkpt lat="45.8407919" lon="8.7232668"><ele>249.0</ele><time>2026-04-26T09:27:02.992Z</time></trkpt><trkpt lat="45.8407509" lon="8.7234575"><ele>249.0</ele><time>2026-04-26T09:27:03.992Z</time></trkpt><trkpt lat="45.8407156" lon="8.7236565"><ele>249.0</ele><time>2026-04-26T09:27:04.992Z</time></trkpt><trkpt lat="45.8406752" lon="8.7238502"><ele>249.75</ele><time>2026-04-26T09:27:05.991Z</time></trkpt><trkpt lat="45.8406337" lon="8.7240375"><ele>250.5</ele><time>2026-04-26T09:27:06.99Z</time></trkpt><trkpt lat="45.8405895" lon="8.7242314"><ele>251.25</ele><time>2026-04-26T09:27:07.991Z</time></trkpt><trkpt lat="45.8405357" lon="8.7244168"><ele>252.0</ele><time>2026-04-26T09:27:08.991Z</time></trkpt><trkpt lat="45.8404812" lon="8.7246029"><ele>254.0</ele><time>2026-04-26T09:27:09.991Z</time></trkpt><trkpt lat="45.8404243" lon="8.7247961"><ele>256.0</ele><time>2026-04-26T09:27:10.992Z</time></trkpt><trkpt lat="45.8403686" lon="8.7249742"><ele>258.0</ele><time>2026-04-26T09:27:11.99Z</time></trkpt><trkpt lat="45.8403079" lon="8.7251456"><ele>260.0</ele><time>2026-04-26T09:27:12.991Z</time></trkpt><trkpt lat="45.8402413" lon="8.7253234"><ele>261.25</ele><time>2026-04-26T09:27:13.992Z</time></trkpt><trkpt lat="45.8401775" lon="8.7255016"><ele>262.5</ele><time>2026-04-26T09:27:14.992Z</time></trkpt><trkpt lat="45.8401165" lon="8.7256838"><ele>263.75</ele><time>2026-04-26T09:27:15.991Z</time></trkpt><trkpt lat="45.8400506" lon="8.7258689"><ele>265.0</ele><time>2026-04-26T09:27:16.991Z</time></trkpt><trkpt lat="45.8399803" lon="8.7260524"><ele>261.25</ele><time>2026-04-26T09:27:17.991Z</time></trkpt><trkpt lat="45.8399132" lon="8.726223"><ele>257.5</ele><time>2026-04-26T09:27:18.99Z</time></trkpt><trkpt lat="45.8398483" lon="8.7263947"><ele>253.75</ele><time>2026-04-26T09:27:19.991Z</time></trkpt><trkpt lat="45.8397758" lon="8.7265634"><ele>250.0</ele><time>2026-04-26T09:27:20.991Z</time></trkpt><trkpt lat="45.8397104" lon="8.72673"><ele>250.5</ele><time>2026-04-26T09:27:21.992Z</time></trkpt><trkpt lat="45.8396373" lon="8.7269035"><ele>251.0</ele><time>2026-04-26T09:27:22.992Z</time></trkpt><trkpt lat="45.8395672" lon="8.7270748"><ele>251.5</ele><time>2026-04-26T09:27:23.991Z</time></trkpt><trkpt lat="45.8394872" lon="8.7272469"><ele>252.0</ele><time>2026-04-26T09:27:24.992Z</time></trkpt><trkpt lat="45.8394116" lon="8.7274302"><ele>252.0</ele><time>2026-04-26T09:27:25.992Z</time></trkpt><trkpt lat="45.839343" lon="8.7275969"><ele>252.0</ele><time>2026-04-26T09:27:26.992Z</time></trkpt><trkpt lat="45.8392754" lon="8.7277555"><ele>252.0</ele><time>2026-04-26T09:27:27.991Z</time></trkpt><trkpt lat="45.8392178" lon="8.7279079"><ele>252.0</ele><time>2026-04-26T09:27:28.991Z</time></trkpt><trkpt lat="45.8391618" lon="8.7280369"><ele>252.0</ele><time>2026-04-26T09:27:29.99Z</time></trkpt><trkpt lat="45.8391159" lon="8.7281411"><ele>252.0</ele><time>2026-04-26T09:27:30.991Z</time></trkpt><trkpt lat="45.8390778" lon="8.7282258"><ele>252.0</ele><time>2026-04-26T09:27:32.992Z</time></trkpt><trkpt lat="45.8390401" lon="8.72832"><ele>252.0</ele><time>2026-04-26T09:27:37.991Z</time></trkpt><trkpt lat="45.8389853" lon="8.7284629"><ele>252.0</ele><time>2026-04-26T09:27:39.991Z</time></trkpt><trkpt lat="45.8389451" lon="8.7285357"><ele>252.0</ele><time>2026-04-26T09:27:40.991Z</time></trkpt><trkpt lat="45.8388998" lon="8.7286231"><ele>252.0</ele><time>2026-04-26T09:27:41.991Z</time></trkpt><trkpt lat="45.8388499" lon="8.7287261"><ele>252.0</ele><time>2026-04-26T09:27:42.99Z</time></trkpt><trkpt lat="45.8387889" lon="8.7288356"><ele>252.0</ele><time>2026-04-26T09:27:43.991Z</time></trkpt><trkpt lat="45.8387199" lon="8.728954"><ele>252.0</ele><time>2026-04-26T09:27:44.991Z</time></trkpt><trkpt lat="45.8386478" lon="8.7290833"><ele>252.0</ele><time>2026-04-26T09:27:45.991Z</time></trkpt><trkpt lat="45.8385694" lon="8.7292134"><ele>252.0</ele><time>2026-04-26T09:27:46.991Z</time></trkpt><trkpt lat="45.8384795" lon="8.7293483"><ele>252.0</ele><time>2026-04-26T09:27:47.992Z</time></trkpt><trkpt lat="45.8383867" lon="8.7294774"><ele>252.0</ele><time>2026-04-26T09:27:48.992Z</time></trkpt><trkpt lat="45.8382835" lon="8.7296079"><ele>252.0</ele><time>2026-04-26T09:27:49.992Z</time></trkpt><trkpt lat="45.8381827" lon="8.7297387"><ele>252.0</ele><time>2026-04-26T09:27:50.992Z</time></trkpt><trkpt lat="45.8380782" lon="8.729861"><ele>252.0</ele><time>2026-04-26T09:27:51.992Z</time></trkpt><trkpt lat="45.8379698" lon="8.7299818"><ele>252.0</ele><time>2026-04-26T09:27:52.992Z</time></trkpt><trkpt lat="45.8378524" lon="8.7300928"><ele>252.0</ele><time>2026-04-26T09:27:53.992Z</time></trkpt><trkpt lat="45.837734" lon="8.730201"><ele>253.0</ele><time>2026-04-26T09:27:54.991Z</time></trkpt><trkpt lat="45.8376142" lon="8.7303106"><ele>254.0</ele><time>2026-04-26T09:27:55.99Z</time></trkpt><trkpt lat="45.8374801" lon="8.7304043"><ele>255.0</ele><time>2026-04-26T09:27:56.992Z</time></trkpt><trkpt lat="45.8373366" lon="8.7304747"><ele>256.0</ele><time>2026-04-26T09:27:57.991Z</time></trkpt><trkpt lat="45.8371847" lon="8.7305426"><ele>256.0</ele><time>2026-04-26T09:27:58.992Z</time></trkpt><trkpt lat="45.8370292" lon="8.7306064"><ele>256.0</ele><time>2026-04-26T09:27:59.99Z</time></trkpt><trkpt lat="45.8368677" lon="8.7306699"><ele>256.0</ele><time>2026-04-26T09:28:00.991Z</time></trkpt><trkpt lat="45.8366952" lon="8.7307322"><ele>255.33333333333331</ele><time>2026-04-26T09:28:01.992Z</time></trkpt><trkpt lat="45.8365169" lon="8.7307897"><ele>254.66666666666669</ele><time>2026-04-26T09:28:02.991Z</time></trkpt><trkpt lat="45.8363358" lon="8.730845"><ele>254.0</ele><time>2026-04-26T09:28:03.991Z</time></trkpt><trkpt lat="45.8361581" lon="8.7309058"><ele>254.0</ele><time>2026-04-26T09:28:04.99Z</time></trkpt><trkpt lat="45.8359797" lon="8.7309686"><ele>254.0</ele><time>2026-04-26T09:28:05.99Z</time></trkpt><trkpt lat="45.8358107" lon="8.7310245"><ele>254.0</ele><time>2026-04-26T09:28:06.992Z</time></trkpt><trkpt lat="45.8356505" lon="8.7310823"><ele>253.0</ele><time>2026-04-26T09:28:07.991Z</time></trkpt><trkpt lat="45.8354941" lon="8.7311365"><ele>252.0</ele><time>2026-04-26T09:28:08.991Z</time></trkpt><trkpt lat="45.8353338" lon="8.7311921"><ele>251.0</ele><time>2026-04-26T09:28:09.991Z</time></trkpt><trkpt lat="45.8351762" lon="8.7312532"><ele>252.0</ele><time>2026-04-26T09:28:10.992Z</time></trkpt><trkpt lat="45.8350181" lon="8.7313109"><ele>253.0</ele><time>2026-04-26T09:28:11.991Z</time></trkpt><trkpt lat="45.8348586" lon="8.7313664"><ele>254.0</ele><time>2026-04-26T09:28:12.991Z</time></trkpt><trkpt lat="45.8346987" lon="8.731428"><ele>254.0</ele><time>2026-04-26T09:28:13.992Z</time></trkpt><trkpt lat="45.8345397" lon="8.7314916"><ele>254.0</ele><time>2026-04-26T09:28:14.99Z</time></trkpt><trkpt lat="45.8343745" lon="8.7315503"><ele>254.0</ele><time>2026-04-26T09:28:15.99Z</time></trkpt><trkpt lat="45.8342099" lon="8.7316048"><ele>253.33333333333334</ele><time>2026-04-26T09:28:16.992Z</time></trkpt><trkpt lat="45.8340445" lon="8.7316582"><ele>252.66666666666669</ele><time>2026-04-26T09:28:17.99Z</time></trkpt><trkpt lat="45.8338776" lon="8.7317113"><ele>252.0</ele><time>2026-04-26T09:28:18.991Z</time></trkpt><trkpt lat="45.8337055" lon="8.7317652"><ele>252.0</ele><time>2026-04-26T09:28:19.992Z</time></trkpt><trkpt lat="45.8335328" lon="8.7318278"><ele>252.0</ele><time>2026-04-26T09:28:20.991Z</time></trkpt><trkpt lat="45.8333563" lon="8.7318942"><ele>252.0</ele><time>2026-04-26T09:28:21.991Z</time></trkpt><trkpt lat="45.8331765" lon="8.7319546"><ele>253.0</ele><time>2026-04-26T09:28:22.99Z</time></trkpt><trkpt lat="45.8329947" lon="8.73202"><ele>254.0</ele><time>2026-04-26T09:28:23.991Z</time></trkpt><trkpt lat="45.8328093" lon="8.7320879"><ele>255.0</ele><time>2026-04-26T09:28:24.991Z</time></trkpt><trkpt lat="45.8326201" lon="8.7321582"><ele>255.0</ele><time>2026-04-26T09:28:25.99Z</time></trkpt><trkpt lat="45.8324312" lon="8.7322253"><ele>255.0</ele><time>2026-04-26T09:28:26.992Z</time></trkpt><trkpt lat="45.8322444" lon="8.7322933"><ele>255.0</ele><time>2026-04-26T09:28:27.991Z</time></trkpt><trkpt lat="45.8320534" lon="8.7323573"><ele>255.0</ele><time>2026-04-26T09:28:28.992Z</time></trkpt><trkpt lat="45.8318648" lon="8.7324226"><ele>255.0</ele><time>2026-04-26T09:28:29.992Z</time></trkpt><trkpt lat="45.8316777" lon="8.7324845"><ele>255.0</ele><time>2026-04-26T09:28:30.991Z</time></trkpt><trkpt lat="45.8314952" lon="8.7325457"><ele>255.66666666666669</ele><time>2026-04-26T09:28:31.991Z</time></trkpt><trkpt lat="45.8313105" lon="8.7326105"><ele>256.33333333333337</ele><time>2026-04-26T09:28:32.992Z</time></trkpt><trkpt lat="45.8311361" lon="8.7326833"><ele>257.0</ele><time>2026-04-26T09:28:33.991Z</time></trkpt><trkpt lat="45.8309598" lon="8.7327745"><ele>259.0</ele><time>2026-04-26T09:28:34.99Z</time></trkpt><trkpt lat="45.8307896" lon="8.7328903"><ele>261.0</ele><time>2026-04-26T09:28:35.992Z</time></trkpt><trkpt lat="45.8306259" lon="8.733019"><ele>263.0</ele><time>2026-04-26T09:28:36.992Z</time></trkpt><trkpt lat="45.8304656" lon="8.7331676"><ele>263.0</ele><time>2026-04-26T09:28:37.992Z</time></trkpt><trkpt lat="45.8303134" lon="8.7333334"><ele>263.0</ele><time>2026-04-26T09:28:38.992Z</time></trkpt><trkpt lat="45.8301684" lon="8.7335135"><ele>263.0</ele><time>2026-04-26T09:28:39.99Z</time></trkpt><trkpt lat="45.830028" lon="8.7337079"><ele>262.6666666666667</ele><time>2026-04-26T09:28:40.992Z</time></trkpt><trkpt lat="45.8298987" lon="8.7339224"><ele>262.3333333333333</ele><time>2026-04-26T09:28:41.991Z</time></trkpt><trkpt lat="45.8297799" lon="8.7341477"><ele>262.0</ele><time>2026-04-26T09:28:42.992Z</time></trkpt><trkpt lat="45.829674" lon="8.7343848"><ele>263.3333333333333</ele><time>2026-04-26T09:28:43.991Z</time></trkpt><trkpt lat="45.8295712" lon="8.734634"><ele>264.6666666666667</ele><time>2026-04-26T09:28:44.991Z</time></trkpt><trkpt lat="45.8294705" lon="8.7348801"><ele>266.0</ele><time>2026-04-26T09:28:45.99Z</time></trkpt><trkpt lat="45.8293747" lon="8.7351344"><ele>263.6666666666667</ele><time>2026-04-26T09:28:46.99Z</time></trkpt><trkpt lat="45.8292748" lon="8.7353878"><ele>261.3333333333333</ele><time>2026-04-26T09:28:47.992Z</time></trkpt><trkpt lat="45.8291728" lon="8.7356402"><ele>259.0</ele><time>2026-04-26T09:28:48.992Z</time></trkpt><trkpt lat="45.829074" lon="8.7358953"><ele>260.3333333333333</ele><time>2026-04-26T09:28:49.992Z</time></trkpt><trkpt lat="45.8289769" lon="8.7361458"><ele>261.6666666666667</ele><time>2026-04-26T09:28:50.992Z</time></trkpt><trkpt lat="45.82888" lon="8.7363934"><ele>263.0</ele><time>2026-04-26T09:28:51.991Z</time></trkpt><trkpt lat="45.8287824" lon="8.736631"><ele>263.0</ele><time>2026-04-26T09:28:52.991Z</time></trkpt><trkpt lat="45.8286878" lon="8.7368616"><ele>263.0</ele><time>2026-04-26T09:28:53.991Z</time></trkpt><trkpt lat="45.8286013" lon="8.7370926"><ele>263.0</ele><time>2026-04-26T09:28:54.992Z</time></trkpt><trkpt lat="45.8285126" lon="8.7373258"><ele>262.33333333333337</ele><time>2026-04-26T09:28:55.991Z</time></trkpt><trkpt lat="45.8284287" lon="8.737551"><ele>261.6666666666667</ele><time>2026-04-26T09:28:56.992Z</time></trkpt><trkpt lat="45.8283483" lon="8.7377814"><ele>261.0</ele><time>2026-04-26T09:28:57.991Z</time></trkpt><trkpt lat="45.8282609" lon="8.7380013"><ele>261.0</ele><time>2026-04-26T09:28:58.991Z</time></trkpt><trkpt lat="45.8281752" lon="8.7382174"><ele>261.0</ele><time>2026-04-26T09:28:59.992Z</time></trkpt><trkpt lat="45.8280981" lon="8.7384307"><ele>261.0</ele><time>2026-04-26T09:29:00.991Z</time></trkpt><trkpt lat="45.8280187" lon="8.7386282"><ele>263.0</ele><time>2026-04-26T09:29:01.992Z</time></trkpt><trkpt lat="45.8279427" lon="8.7388209"><ele>265.0</ele><time>2026-04-26T09:29:02.99Z</time></trkpt><trkpt lat="45.8278666" lon="8.7390053"><ele>267.0</ele><time>2026-04-26T09:29:03.991Z</time></trkpt><trkpt lat="45.8277957" lon="8.7391815"><ele>269.0</ele><time>2026-04-26T09:29:04.992Z</time></trkpt><trkpt lat="45.827724" lon="8.7393496"><ele>269.8</ele><time>2026-04-26T09:29:05.991Z</time></trkpt><trkpt lat="45.8276684" lon="8.7395107"><ele>270.59999999999997</ele><time>2026-04-26T09:29:06.99Z</time></trkpt><trkpt lat="45.8276189" lon="8.7396505"><ele>271.4</ele><time>2026-04-26T09:29:07.991Z</time></trkpt><trkpt lat="45.8275683" lon="8.7397785"><ele>272.2</ele><time>2026-04-26T09:29:08.992Z</time></trkpt><trkpt lat="45.8275179" lon="8.7398864"><ele>273.0</ele><time>2026-04-26T09:29:09.992Z</time></trkpt><trkpt lat="45.8274717" lon="8.7399692"><ele>271.3333333333333</ele><time>2026-04-26T09:29:10.99Z</time></trkpt><trkpt lat="45.8274159" lon="8.7400369"><ele>269.6666666666667</ele><time>2026-04-26T09:29:11.991Z</time></trkpt><trkpt lat="45.827343" lon="8.7400946"><ele>268.0</ele><time>2026-04-26T09:29:12.992Z</time></trkpt><trkpt lat="45.8272811" lon="8.7401813"><ele>266.33333333333337</ele><time>2026-04-26T09:29:13.992Z</time></trkpt><trkpt lat="45.8272469" lon="8.7402947"><ele>264.6666666666667</ele><time>2026-04-26T09:29:14.991Z</time></trkpt><trkpt lat="45.8272181" lon="8.7404196"><ele>263.0</ele><time>2026-04-26T09:29:15.991Z</time></trkpt><trkpt lat="45.8271882" lon="8.7405455"><ele>263.0</ele><time>2026-04-26T09:29:16.991Z</time></trkpt><trkpt lat="45.8271435" lon="8.7406747"><ele>263.0</ele><time>2026-04-26T09:29:17.992Z</time></trkpt><trkpt lat="45.8270828" lon="8.7407949"><ele>263.0</ele><time>2026-04-26T09:29:18.991Z</time></trkpt><trkpt lat="45.8270058" lon="8.7409227"><ele>263.0</ele><time>2026-04-26T09:29:19.991Z</time></trkpt><trkpt lat="45.8269221" lon="8.7410498"><ele>263.0</ele><time>2026-04-26T09:29:20.991Z</time></trkpt><trkpt lat="45.8268281" lon="8.7411854"><ele>260.25</ele><time>2026-04-26T09:29:21.991Z</time></trkpt><trkpt lat="45.8267263" lon="8.7413265"><ele>257.5</ele><time>2026-04-26T09:29:22.991Z</time></trkpt><trkpt lat="45.8266335" lon="8.741466"><ele>254.75</ele><time>2026-04-26T09:29:23.991Z</time></trkpt><trkpt lat="45.8265359" lon="8.741602"><ele>252.0</ele><time>2026-04-26T09:29:24.99Z</time></trkpt><trkpt lat="45.826437" lon="8.74174"><ele>252.0</ele><time>2026-04-26T09:29:25.991Z</time></trkpt><trkpt lat="45.826341" lon="8.7418683"><ele>252.0</ele><time>2026-04-26T09:29:26.991Z</time></trkpt><trkpt lat="45.8262471" lon="8.7419928"><ele>252.0</ele><time>2026-04-26T09:29:27.991Z</time></trkpt><trkpt lat="45.8261585" lon="8.7421157"><ele>252.0</ele><time>2026-04-26T09:29:28.991Z</time></trkpt><trkpt lat="45.8260692" lon="8.7422331"><ele>252.25</ele><time>2026-04-26T09:29:29.991Z</time></trkpt><trkpt lat="45.8259778" lon="8.7423522"><ele>252.5</ele><time>2026-04-26T09:29:30.991Z</time></trkpt><trkpt lat="45.8258885" lon="8.7424722"><ele>252.75</ele><time>2026-04-26T09:29:31.99Z</time></trkpt><trkpt lat="45.825795" lon="8.7425905"><ele>253.0</ele><time>2026-04-26T09:29:32.991Z</time></trkpt><trkpt lat="45.825701" lon="8.7427161"><ele>253.0</ele><time>2026-04-26T09:29:33.99Z</time></trkpt><trkpt lat="45.8256093" lon="8.7428418"><ele>253.0</ele><time>2026-04-26T09:29:34.991Z</time></trkpt><trkpt lat="45.8255205" lon="8.7429598"><ele>253.0</ele><time>2026-04-26T09:29:35.99Z</time></trkpt><trkpt lat="45.8254339" lon="8.7430817"><ele>253.0</ele><time>2026-04-26T09:29:36.99Z</time></trkpt><trkpt lat="45.8253527" lon="8.7431893"><ele>253.0</ele><time>2026-04-26T09:29:37.99Z</time></trkpt><trkpt lat="45.8252666" lon="8.7432976"><ele>253.0</ele><time>2026-04-26T09:29:38.989Z</time></trkpt><trkpt lat="45.8251782" lon="8.7434174"><ele>253.0</ele><time>2026-04-26T09:29:39.991Z</time></trkpt><trkpt lat="45.8250878" lon="8.7435339"><ele>253.0</ele><time>2026-04-26T09:29:40.991Z</time></trkpt><trkpt lat="45.8249925" lon="8.7436539"><ele>252.75</ele><time>2026-04-26T09:29:41.991Z</time></trkpt><trkpt lat="45.8248949" lon="8.7437776"><ele>252.5</ele><time>2026-04-26T09:29:42.99Z</time></trkpt><trkpt lat="45.8247977" lon="8.7438978"><ele>252.25</ele><time>2026-04-26T09:29:43.99Z</time></trkpt><trkpt lat="45.8247097" lon="8.7440183"><ele>252.0</ele><time>2026-04-26T09:29:44.99Z</time></trkpt><trkpt lat="45.8246196" lon="8.7441382"><ele>252.0</ele><time>2026-04-26T09:29:45.99Z</time></trkpt><trkpt lat="45.8245293" lon="8.7442598"><ele>252.0</ele><time>2026-04-26T09:29:46.989Z</time></trkpt><trkpt lat="45.8244424" lon="8.7443791"><ele>252.0</ele><time>2026-04-26T09:29:47.99Z</time></trkpt><trkpt lat="45.8243623" lon="8.7444941"><ele>252.0</ele><time>2026-04-26T09:29:48.99Z</time></trkpt><trkpt lat="45.8242895" lon="8.7446092"><ele>252.0</ele><time>2026-04-26T09:29:49.99Z</time></trkpt><trkpt lat="45.8242201" lon="8.7447079"><ele>252.0</ele><time>2026-04-26T09:29:50.991Z</time></trkpt><trkpt lat="45.8241615" lon="8.744797"><ele>252.0</ele><time>2026-04-26T09:29:51.99Z</time></trkpt><trkpt lat="45.8241078" lon="8.744877"><ele>252.0</ele><time>2026-04-26T09:29:52.991Z</time></trkpt><trkpt lat="45.8240438" lon="8.7449409"><ele>252.0</ele><time>2026-04-26T09:29:53.99Z</time></trkpt><trkpt lat="45.8239729" lon="8.7450108"><ele>252.0</ele><time>2026-04-26T09:29:54.99Z</time></trkpt><trkpt lat="45.823906" lon="8.745092"><ele>252.0</ele><time>2026-04-26T09:29:55.99Z</time></trkpt><trkpt lat="45.8238486" lon="8.7451904"><ele>252.0</ele><time>2026-04-26T09:29:56.989Z</time></trkpt><trkpt lat="45.8237867" lon="8.7452893"><ele>252.0</ele><time>2026-04-26T09:29:57.99Z</time></trkpt><trkpt lat="45.8237181" lon="8.7453808"><ele>252.0</ele><time>2026-04-26T09:29:58.991Z</time></trkpt><trkpt lat="45.8236472" lon="8.7454642"><ele>252.0</ele><time>2026-04-26T09:29:59.991Z</time></trkpt><trkpt lat="45.8235738" lon="8.7455411"><ele>252.0</ele><time>2026-04-26T09:30:00.989Z</time></trkpt><trkpt lat="45.8234986" lon="8.7456078"><ele>252.0</ele><time>2026-04-26T09:30:01.99Z</time></trkpt><trkpt lat="45.8234252" lon="8.7456677"><ele>252.0</ele><time>2026-04-26T09:30:02.99Z</time></trkpt><trkpt lat="45.8233458" lon="8.7457296"><ele>252.0</ele><time>2026-04-26T09:30:03.991Z</time></trkpt><trkpt lat="45.8232561" lon="8.7457937"><ele>252.0</ele><time>2026-04-26T09:30:04.99Z</time></trkpt><trkpt lat="45.8231622" lon="8.7458619"><ele>252.0</ele><time>2026-04-26T09:30:05.991Z</time></trkpt><trkpt lat="45.823065" lon="8.7459293"><ele>252.0</ele><time>2026-04-26T09:30:06.99Z</time></trkpt><trkpt lat="45.8229693" lon="8.7459952"><ele>252.0</ele><time>2026-04-26T09:30:07.989Z</time></trkpt><trkpt lat="45.8228737" lon="8.7460784"><ele>252.0</ele><time>2026-04-26T09:30:08.989Z</time></trkpt><trkpt lat="45.8227734" lon="8.7461748"><ele>252.0</ele><time>2026-04-26T09:30:09.991Z</time></trkpt><trkpt lat="45.8226839" lon="8.7462871"><ele>252.25</ele><time>2026-04-26T09:30:10.99Z</time></trkpt><trkpt lat="45.8226105" lon="8.7464074"><ele>252.5</ele><time>2026-04-26T09:30:11.991Z</time></trkpt><trkpt lat="45.82255" lon="8.7465464"><ele>252.75</ele><time>2026-04-26T09:30:12.99Z</time></trkpt><trkpt lat="45.8224851" lon="8.7466858"><ele>253.0</ele><time>2026-04-26T09:30:13.99Z</time></trkpt><trkpt lat="45.8224321" lon="8.7468286"><ele>254.25</ele><time>2026-04-26T09:30:14.991Z</time></trkpt><trkpt lat="45.8223743" lon="8.746975"><ele>255.5</ele><time>2026-04-26T09:30:15.991Z</time></trkpt><trkpt lat="45.8223239" lon="8.7471245"><ele>256.75</ele><time>2026-04-26T09:30:16.99Z</time></trkpt><trkpt lat="45.8222731" lon="8.7472868"><ele>258.0</ele><time>2026-04-26T09:30:17.99Z</time></trkpt><trkpt lat="45.8222279" lon="8.7474554"><ele>258.0</ele><time>2026-04-26T09:30:18.99Z</time></trkpt><trkpt lat="45.8221805" lon="8.7476314"><ele>258.0</ele><time>2026-04-26T09:30:19.991Z</time></trkpt><trkpt lat="45.8221384" lon="8.747805"><ele>258.0</ele><time>2026-04-26T09:30:20.991Z</time></trkpt><trkpt lat="45.8220945" lon="8.7479805"><ele>258.0</ele><time>2026-04-26T09:30:21.991Z</time></trkpt><trkpt lat="45.8220517" lon="8.7481577"><ele>257.75</ele><time>2026-04-26T09:30:22.99Z</time></trkpt><trkpt lat="45.822007" lon="8.7483417"><ele>257.5</ele><time>2026-04-26T09:30:23.991Z</time></trkpt><trkpt lat="45.8219645" lon="8.7485332"><ele>257.25</ele><time>2026-04-26T09:30:24.991Z</time></trkpt><trkpt lat="45.8219215" lon="8.7487257"><ele>257.0</ele><time>2026-04-26T09:30:25.99Z</time></trkpt><trkpt lat="45.8218808" lon="8.7489144"><ele>257.5</ele><time>2026-04-26T09:30:26.99Z</time></trkpt><trkpt lat="45.8218385" lon="8.7490941"><ele>258.0</ele><time>2026-04-26T09:30:27.99Z</time></trkpt><trkpt lat="45.8217991" lon="8.7492706"><ele>258.5</ele><time>2026-04-26T09:30:28.99Z</time></trkpt><trkpt lat="45.8217529" lon="8.7494544"><ele>259.0</ele><time>2026-04-26T09:30:29.99Z</time></trkpt><trkpt lat="45.8217072" lon="8.7496452"><ele>258.5</ele><time>2026-04-26T09:30:30.99Z</time></trkpt><trkpt lat="45.8216595" lon="8.7498404"><ele>258.0</ele><time>2026-04-26T09:30:31.991Z</time></trkpt><trkpt lat="45.821607" lon="8.7500385"><ele>257.5</ele><time>2026-04-26T09:30:32.99Z</time></trkpt><trkpt lat="45.8215453" lon="8.7502406"><ele>257.0</ele><time>2026-04-26T09:30:33.991Z</time></trkpt><trkpt lat="45.8214814" lon="8.7504471"><ele>257.0</ele><time>2026-04-26T09:30:34.99Z</time></trkpt><trkpt lat="45.8214155" lon="8.7506496"><ele>257.0</ele><time>2026-04-26T09:30:35.991Z</time></trkpt><trkpt lat="45.8213521" lon="8.7508425"><ele>257.0</ele><time>2026-04-26T09:30:36.99Z</time></trkpt><trkpt lat="45.8212857" lon="8.7510228"><ele>257.0</ele><time>2026-04-26T09:30:37.991Z</time></trkpt><trkpt lat="45.8212175" lon="8.7512006"><ele>258.25</ele><time>2026-04-26T09:30:38.991Z</time></trkpt><trkpt lat="45.8211482" lon="8.7513656"><ele>259.5</ele><time>2026-04-26T09:30:39.99Z</time></trkpt><trkpt lat="45.8210754" lon="8.7515287"><ele>260.75</ele><time>2026-04-26T09:30:40.99Z</time></trkpt><trkpt lat="45.8210023" lon="8.7516923"><ele>262.0</ele><time>2026-04-26T09:30:41.989Z</time></trkpt><trkpt lat="45.8209362" lon="8.7518568"><ele>260.5</ele><time>2026-04-26T09:30:42.991Z</time></trkpt><trkpt lat="45.8208722" lon="8.752012"><ele>259.0</ele><time>2026-04-26T09:30:43.99Z</time></trkpt><trkpt lat="45.8208053" lon="8.7521687"><ele>257.5</ele><time>2026-04-26T09:30:44.99Z</time></trkpt><trkpt lat="45.8207381" lon="8.752325"><ele>256.0</ele><time>2026-04-26T09:30:45.989Z</time></trkpt><trkpt lat="45.8206742" lon="8.7524735"><ele>256.0</ele><time>2026-04-26T09:30:46.99Z</time></trkpt><trkpt lat="45.8206175" lon="8.752612"><ele>256.0</ele><time>2026-04-26T09:30:47.99Z</time></trkpt><trkpt lat="45.820566" lon="8.7527406"><ele>256.0</ele><time>2026-04-26T09:30:48.989Z</time></trkpt><trkpt lat="45.8205156" lon="8.7528597"><ele>256.0</ele><time>2026-04-26T09:30:49.99Z</time></trkpt><trkpt lat="45.8204664" lon="8.7529836"><ele>256.0</ele><time>2026-04-26T09:30:50.991Z</time></trkpt><trkpt lat="45.8204137" lon="8.7531026"><ele>255.33333333333331</ele><time>2026-04-26T09:30:51.991Z</time></trkpt><trkpt lat="45.8203632" lon="8.7532185"><ele>254.66666666666666</ele><time>2026-04-26T09:30:52.99Z</time></trkpt><trkpt lat="45.8203073" lon="8.7533341"><ele>254.0</ele><time>2026-04-26T09:30:53.99Z</time></trkpt><trkpt lat="45.8202587" lon="8.753439"><ele>253.33333333333331</ele><time>2026-04-26T09:30:54.991Z</time></trkpt><trkpt lat="45.8202124" lon="8.7535449"><ele>252.66666666666666</ele><time>2026-04-26T09:30:55.99Z</time></trkpt><trkpt lat="45.8201768" lon="8.7536462"><ele>252.0</ele><time>2026-04-26T09:30:56.99Z</time></trkpt><trkpt lat="45.8201373" lon="8.7537343"><ele>252.0</ele><time>2026-04-26T09:30:57.99Z</time></trkpt><trkpt lat="45.8201012" lon="8.7538282"><ele>252.0</ele><time>2026-04-26T09:30:58.991Z</time></trkpt><trkpt lat="45.8200568" lon="8.7539318"><ele>252.0</ele><time>2026-04-26T09:30:59.991Z</time></trkpt><trkpt lat="45.82" lon="8.7540661"><ele>252.0</ele><time>2026-04-26T09:31:00.99Z</time></trkpt><trkpt lat="45.8199383" lon="8.7542068"><ele>252.0</ele><time>2026-04-26T09:31:01.989Z</time></trkpt><trkpt lat="45.8198771" lon="8.7543543"><ele>254.0</ele><time>2026-04-26T09:31:02.989Z</time></trkpt><trkpt lat="45.8198129" lon="8.7545032"><ele>256.0</ele><time>2026-04-26T09:31:03.989Z</time></trkpt><trkpt lat="45.8197378" lon="8.7546619"><ele>258.0</ele><time>2026-04-26T09:31:04.989Z</time></trkpt><trkpt lat="45.8196656" lon="8.7548254"><ele>260.0</ele><time>2026-04-26T09:31:05.99Z</time></trkpt><trkpt lat="45.8195906" lon="8.7549952"><ele>260.0</ele><time>2026-04-26T09:31:06.99Z</time></trkpt><trkpt lat="45.8195156" lon="8.7551638"><ele>260.0</ele><time>2026-04-26T09:31:07.99Z</time></trkpt><trkpt lat="45.8194429" lon="8.7553367"><ele>260.0</ele><time>2026-04-26T09:31:08.99Z</time></trkpt><trkpt lat="45.8193737" lon="8.7555133"><ele>260.0</ele><time>2026-04-26T09:31:09.99Z</time></trkpt><trkpt lat="45.8192964" lon="8.7557039"><ele>261.33333333333337</ele><time>2026-04-26T09:31:10.99Z</time></trkpt><trkpt lat="45.819216" lon="8.7558994"><ele>262.6666666666667</ele><time>2026-04-26T09:31:11.99Z</time></trkpt><trkpt lat="45.8191325" lon="8.7560911"><ele>264.0</ele><time>2026-04-26T09:31:12.991Z</time></trkpt><trkpt lat="45.8190505" lon="8.7562844"><ele>264.0</ele><time>2026-04-26T09:31:13.99Z</time></trkpt><trkpt lat="45.8189661" lon="8.7564787"><ele>264.0</ele><time>2026-04-26T09:31:14.989Z</time></trkpt><trkpt lat="45.8188831" lon="8.7566747"><ele>264.0</ele><time>2026-04-26T09:31:15.989Z</time></trkpt><trkpt lat="45.8187948" lon="8.7568779"><ele>267.0</ele><time>2026-04-26T09:31:16.99Z</time></trkpt><trkpt lat="45.8187077" lon="8.7570732"><ele>270.0</ele><time>2026-04-26T09:31:17.991Z</time></trkpt><trkpt lat="45.8186251" lon="8.7572691"><ele>273.0</ele><time>2026-04-26T09:31:18.991Z</time></trkpt><trkpt lat="45.8185413" lon="8.7574655"><ele>268.0</ele><time>2026-04-26T09:31:19.99Z</time></trkpt><trkpt lat="45.8184556" lon="8.7576612"><ele>263.0</ele><time>2026-04-26T09:31:20.99Z</time></trkpt><trkpt lat="45.8183702" lon="8.7578579"><ele>258.0</ele><time>2026-04-26T09:31:21.989Z</time></trkpt><trkpt lat="45.8182861" lon="8.7580547"><ele>258.0</ele><time>2026-04-26T09:31:22.99Z</time></trkpt><trkpt lat="45.8181999" lon="8.7582519"><ele>258.0</ele><time>2026-04-26T09:31:23.991Z</time></trkpt><trkpt lat="45.8181083" lon="8.7584517"><ele>258.0</ele><time>2026-04-26T09:31:24.99Z</time></trkpt><trkpt lat="45.8180137" lon="8.758633"><ele>261.6666666666667</ele><time>2026-04-26T09:31:25.991Z</time></trkpt><trkpt lat="45.8179194" lon="8.7588118"><ele>265.33333333333337</ele><time>2026-04-26T09:31:26.989Z</time></trkpt><trkpt lat="45.8178164" lon="8.7589781"><ele>269.0</ele><time>2026-04-26T09:31:27.99Z</time></trkpt><trkpt lat="45.817706" lon="8.7591372"><ele>264.33333333333337</ele><time>2026-04-26T09:31:28.991Z</time></trkpt><trkpt lat="45.8175918" lon="8.7592997"><ele>259.6666666666667</ele><time>2026-04-26T09:31:29.99Z</time></trkpt><trkpt lat="45.8174788" lon="8.7594586"><ele>255.0</ele><time>2026-04-26T09:31:30.991Z</time></trkpt><trkpt lat="45.8173556" lon="8.7596088"><ele>255.0</ele><time>2026-04-26T09:31:31.989Z</time></trkpt><trkpt lat="45.8172244" lon="8.7597512"><ele>255.0</ele><time>2026-04-26T09:31:32.989Z</time></trkpt><trkpt lat="45.817085" lon="8.7598818"><ele>255.0</ele><time>2026-04-26T09:31:33.991Z</time></trkpt><trkpt lat="45.8169392" lon="8.7600066"><ele>254.33333333333331</ele><time>2026-04-26T09:31:34.99Z</time></trkpt><trkpt lat="45.8167885" lon="8.7601357"><ele>253.66666666666666</ele><time>2026-04-26T09:31:35.99Z</time></trkpt><trkpt lat="45.8166413" lon="8.760263"><ele>253.0</ele><time>2026-04-26T09:31:36.989Z</time></trkpt><trkpt lat="45.8164928" lon="8.7603803"><ele>253.0</ele><time>2026-04-26T09:31:37.991Z</time></trkpt><trkpt lat="45.8163432" lon="8.7605021"><ele>253.0</ele><time>2026-04-26T09:31:38.989Z</time></trkpt><trkpt lat="45.8161974" lon="8.7606244"><ele>253.0</ele><time>2026-04-26T09:31:39.991Z</time></trkpt><trkpt lat="45.8160491" lon="8.7607526"><ele>252.0</ele><time>2026-04-26T09:31:40.989Z</time></trkpt><trkpt lat="45.8158997" lon="8.7608783"><ele>251.0</ele><time>2026-04-26T09:31:41.991Z</time></trkpt><trkpt lat="45.8157535" lon="8.7610007"><ele>250.0</ele><time>2026-04-26T09:31:42.99Z</time></trkpt><trkpt lat="45.815618" lon="8.7611271"><ele>250.0</ele><time>2026-04-26T09:31:43.99Z</time></trkpt><trkpt lat="45.8154837" lon="8.7612467"><ele>250.0</ele><time>2026-04-26T09:31:44.991Z</time></trkpt><trkpt lat="45.8153534" lon="8.7613562"><ele>250.0</ele><time>2026-04-26T09:31:45.991Z</time></trkpt><trkpt lat="45.8152283" lon="8.7614635"><ele>249.6</ele><time>2026-04-26T09:31:46.991Z</time></trkpt><trkpt lat="45.8151124" lon="8.7615667"><ele>249.2</ele><time>2026-04-26T09:31:47.991Z</time></trkpt><trkpt lat="45.815019" lon="8.7616622"><ele>248.8</ele><time>2026-04-26T09:31:48.99Z</time></trkpt><trkpt lat="45.8149461" lon="8.7617386"><ele>248.4</ele><time>2026-04-26T09:31:49.99Z</time></trkpt><trkpt lat="45.8148839" lon="8.761802"><ele>248.0</ele><time>2026-04-26T09:31:50.991Z</time></trkpt><trkpt lat="45.8148245" lon="8.7618471"><ele>248.33333333333334</ele><time>2026-04-26T09:31:51.989Z</time></trkpt><trkpt lat="45.8147646" lon="8.7618932"><ele>248.66666666666669</ele><time>2026-04-26T09:31:52.991Z</time></trkpt><trkpt lat="45.8146884" lon="8.7619263"><ele>249.0</ele><time>2026-04-26T09:31:53.991Z</time></trkpt><trkpt lat="45.8146046" lon="8.7619704"><ele>249.33333333333331</ele><time>2026-04-26T09:31:54.99Z</time></trkpt><trkpt lat="45.8145204" lon="8.7620488"><ele>249.66666666666666</ele><time>2026-04-26T09:31:55.991Z</time></trkpt><trkpt lat="45.8144428" lon="8.7621442"><ele>250.0</ele><time>2026-04-26T09:31:56.991Z</time></trkpt><trkpt lat="45.8143596" lon="8.7622168"><ele>250.0</ele><time>2026-04-26T09:31:57.991Z</time></trkpt><trkpt lat="45.8142708" lon="8.7622869"><ele>250.0</ele><time>2026-04-26T09:31:58.991Z</time></trkpt><trkpt lat="45.8141827" lon="8.7623662"><ele>250.0</ele><time>2026-04-26T09:31:59.99Z</time></trkpt><trkpt lat="45.814085" lon="8.7624471"><ele>250.0</ele><time>2026-04-26T09:32:00.99Z</time></trkpt><trkpt lat="45.8139885" lon="8.7625363"><ele>250.0</ele><time>2026-04-26T09:32:01.991Z</time></trkpt><trkpt lat="45.8138842" lon="8.7626244"><ele>250.0</ele><time>2026-04-26T09:32:02.991Z</time></trkpt><trkpt lat="45.8137789" lon="8.7627068"><ele>250.0</ele><time>2026-04-26T09:32:03.99Z</time></trkpt><trkpt lat="45.8136789" lon="8.7627912"><ele>250.0</ele><time>2026-04-26T09:32:04.99Z</time></trkpt><trkpt lat="45.8135744" lon="8.7628753"><ele>250.0</ele><time>2026-04-26T09:32:05.99Z</time></trkpt><trkpt lat="45.8134668" lon="8.7629684"><ele>250.0</ele><time>2026-04-26T09:32:06.99Z</time></trkpt><trkpt lat="45.8133535" lon="8.7630616"><ele>250.0</ele><time>2026-04-26T09:32:07.991Z</time></trkpt><trkpt lat="45.8132378" lon="8.7631598"><ele>250.0</ele><time>2026-04-26T09:32:08.991Z</time></trkpt><trkpt lat="45.8131152" lon="8.7632595"><ele>250.0</ele><time>2026-04-26T09:32:09.99Z</time></trkpt><trkpt lat="45.8129897" lon="8.7633641"><ele>250.0</ele><time>2026-04-26T09:32:10.991Z</time></trkpt><trkpt lat="45.8128558" lon="8.7634741"><ele>250.0</ele><time>2026-04-26T09:32:11.99Z</time></trkpt><trkpt lat="45.8127207" lon="8.7635893"><ele>250.0</ele><time>2026-04-26T09:32:12.99Z</time></trkpt><trkpt lat="45.8125862" lon="8.7637085"><ele>250.33333333333331</ele><time>2026-04-26T09:32:13.99Z</time></trkpt><trkpt lat="45.8124518" lon="8.7638268"><ele>250.66666666666669</ele><time>2026-04-26T09:32:14.991Z</time></trkpt><trkpt lat="45.8123191" lon="8.7639553"><ele>251.0</ele><time>2026-04-26T09:32:15.99Z</time></trkpt><trkpt lat="45.8121894" lon="8.7640931"><ele>251.0</ele><time>2026-04-26T09:32:16.99Z</time></trkpt><trkpt lat="45.8120681" lon="8.7642394"><ele>251.0</ele><time>2026-04-26T09:32:17.99Z</time></trkpt><trkpt lat="45.8119569" lon="8.7643923"><ele>251.0</ele><time>2026-04-26T09:32:18.99Z</time></trkpt><trkpt lat="45.8118511" lon="8.7645485"><ele>251.33333333333334</ele><time>2026-04-26T09:32:19.99Z</time></trkpt><trkpt lat="45.8117503" lon="8.764709"><ele>251.66666666666669</ele><time>2026-04-26T09:32:20.991Z</time></trkpt><trkpt lat="45.811659" lon="8.7648792"><ele>252.0</ele><time>2026-04-26T09:32:21.991Z</time></trkpt><trkpt lat="45.8115672" lon="8.7650563"><ele>251.66666666666669</ele><time>2026-04-26T09:32:22.99Z</time></trkpt><trkpt lat="45.8114864" lon="8.7652427"><ele>251.33333333333334</ele><time>2026-04-26T09:32:23.991Z</time></trkpt><trkpt lat="45.8114153" lon="8.7654409"><ele>251.0</ele><time>2026-04-26T09:32:24.99Z</time></trkpt><trkpt lat="45.8113524" lon="8.7656479"><ele>251.0</ele><time>2026-04-26T09:32:25.99Z</time></trkpt><trkpt lat="45.8112965" lon="8.7658527"><ele>251.0</ele><time>2026-04-26T09:32:26.99Z</time></trkpt><trkpt lat="45.8112485" lon="8.7660659"><ele>251.0</ele><time>2026-04-26T09:32:27.99Z</time></trkpt><trkpt lat="45.8112113" lon="8.7662766"><ele>251.33333333333334</ele><time>2026-04-26T09:32:28.99Z</time></trkpt><trkpt lat="45.8111855" lon="8.7664894"><ele>251.66666666666669</ele><time>2026-04-26T09:32:29.991Z</time></trkpt><trkpt lat="45.8111582" lon="8.7667027"><ele>252.0</ele><time>2026-04-26T09:32:30.99Z</time></trkpt><trkpt lat="45.8111308" lon="8.7669129"><ele>252.5</ele><time>2026-04-26T09:32:31.99Z</time></trkpt><trkpt lat="45.8111084" lon="8.7671138"><ele>253.0</ele><time>2026-04-26T09:32:32.99Z</time></trkpt><trkpt lat="45.8110859" lon="8.7673178"><ele>253.5</ele><time>2026-04-26T09:32:33.99Z</time></trkpt><trkpt lat="45.8110665" lon="8.7675199"><ele>254.0</ele><time>2026-04-26T09:32:34.991Z</time></trkpt><trkpt lat="45.8110385" lon="8.76773"><ele>254.0</ele><time>2026-04-26T09:32:35.99Z</time></trkpt><trkpt lat="45.8110138" lon="8.7679417"><ele>254.0</ele><time>2026-04-26T09:32:36.99Z</time></trkpt><trkpt lat="45.8109929" lon="8.7681561"><ele>254.0</ele><time>2026-04-26T09:32:37.99Z</time></trkpt><trkpt lat="45.8109663" lon="8.7683743"><ele>252.33333333333334</ele><time>2026-04-26T09:32:38.991Z</time></trkpt><trkpt lat="45.8109441" lon="8.7685911"><ele>250.66666666666669</ele><time>2026-04-26T09:32:39.991Z</time></trkpt><trkpt lat="45.8109201" lon="8.7688069"><ele>249.0</ele><time>2026-04-26T09:32:40.99Z</time></trkpt><trkpt lat="45.8108933" lon="8.7690241"><ele>249.0</ele><time>2026-04-26T09:32:41.99Z</time></trkpt><trkpt lat="45.8108688" lon="8.7692417"><ele>249.0</ele><time>2026-04-26T09:32:42.989Z</time></trkpt><trkpt lat="45.8108481" lon="8.7694625"><ele>249.0</ele><time>2026-04-26T09:32:43.991Z</time></trkpt><trkpt lat="45.8108263" lon="8.7696864"><ele>249.0</ele><time>2026-04-26T09:32:44.989Z</time></trkpt><trkpt lat="45.8108063" lon="8.7699107"><ele>249.0</ele><time>2026-04-26T09:32:45.99Z</time></trkpt><trkpt lat="45.8107863" lon="8.7701457"><ele>249.0</ele><time>2026-04-26T09:32:46.99Z</time></trkpt><trkpt lat="45.8107598" lon="8.7703763"><ele>249.33333333333331</ele><time>2026-04-26T09:32:47.991Z</time></trkpt><trkpt lat="45.8107333" lon="8.7706134"><ele>249.66666666666666</ele><time>2026-04-26T09:32:48.989Z</time></trkpt><trkpt lat="45.8107075" lon="8.7708534"><ele>250.0</ele><time>2026-04-26T09:32:49.99Z</time></trkpt><trkpt lat="45.8106805" lon="8.7710949"><ele>251.0</ele><time>2026-04-26T09:32:50.991Z</time></trkpt><trkpt lat="45.8106574" lon="8.7713365"><ele>252.0</ele><time>2026-04-26T09:32:51.99Z</time></trkpt><trkpt lat="45.8106313" lon="8.7715712"><ele>253.0</ele><time>2026-04-26T09:32:52.991Z</time></trkpt><trkpt lat="45.8105991" lon="8.7717958"><ele>254.5</ele><time>2026-04-26T09:32:53.99Z</time></trkpt><trkpt lat="45.8105651" lon="8.7720101"><ele>256.0</ele><time>2026-04-26T09:32:54.99Z</time></trkpt><trkpt lat="45.8105255" lon="8.7722155"><ele>257.5</ele><time>2026-04-26T09:32:55.991Z</time></trkpt><trkpt lat="45.8104842" lon="8.7724176"><ele>259.0</ele><time>2026-04-26T09:32:56.989Z</time></trkpt><trkpt lat="45.8104331" lon="8.7726157"><ele>259.66666666666663</ele><time>2026-04-26T09:32:57.991Z</time></trkpt><trkpt lat="45.8103774" lon="8.7728256"><ele>260.3333333333333</ele><time>2026-04-26T09:32:58.991Z</time></trkpt><trkpt lat="45.8103236" lon="8.7730356"><ele>261.0</ele><time>2026-04-26T09:32:59.991Z</time></trkpt><trkpt lat="45.8102599" lon="8.7732419"><ele>261.0</ele><time>2026-04-26T09:33:00.991Z</time></trkpt><trkpt lat="45.8102014" lon="8.7734395"><ele>261.0</ele><time>2026-04-26T09:33:01.989Z</time></trkpt><trkpt lat="45.8101423" lon="8.7736379"><ele>261.0</ele><time>2026-04-26T09:33:02.99Z</time></trkpt><trkpt lat="45.810093" lon="8.7738209"><ele>261.0</ele><time>2026-04-26T09:33:03.991Z</time></trkpt><trkpt lat="45.8100486" lon="8.7739806"><ele>259.25</ele><time>2026-04-26T09:33:04.991Z</time></trkpt><trkpt lat="45.8100109" lon="8.774124"><ele>257.5</ele><time>2026-04-26T09:33:05.989Z</time></trkpt><trkpt lat="45.8099773" lon="8.7742583"><ele>255.75</ele><time>2026-04-26T09:33:06.99Z</time></trkpt><trkpt lat="45.809937" lon="8.7744217"><ele>254.0</ele><time>2026-04-26T09:33:07.99Z</time></trkpt><trkpt lat="45.8098872" lon="8.7745996"><ele>254.0</ele><time>2026-04-26T09:33:08.991Z</time></trkpt><trkpt lat="45.8098286" lon="8.7747986"><ele>254.0</ele><time>2026-04-26T09:33:09.991Z</time></trkpt><trkpt lat="45.8097637" lon="8.7750165"><ele>254.0</ele><time>2026-04-26T09:33:10.989Z</time></trkpt><trkpt lat="45.8096954" lon="8.7752337"><ele>255.33333333333334</ele><time>2026-04-26T09:33:11.99Z</time></trkpt><trkpt lat="45.8096265" lon="8.7754569"><ele>256.6666666666667</ele><time>2026-04-26T09:33:12.99Z</time></trkpt><trkpt lat="45.809563" lon="8.7756611"><ele>258.0</ele><time>2026-04-26T09:33:13.99Z</time></trkpt><trkpt lat="45.8095012" lon="8.7758562"><ele>259.25</ele><time>2026-04-26T09:33:14.991Z</time></trkpt><trkpt lat="45.8094503" lon="8.7760462"><ele>260.5</ele><time>2026-04-26T09:33:15.991Z</time></trkpt><trkpt lat="45.809398" lon="8.7762331"><ele>261.75</ele><time>2026-04-26T09:33:16.989Z</time></trkpt><trkpt lat="45.8093468" lon="8.7764231"><ele>263.0</ele><time>2026-04-26T09:33:17.99Z</time></trkpt><trkpt lat="45.8092994" lon="8.776615"><ele>261.5</ele><time>2026-04-26T09:33:18.99Z</time></trkpt><trkpt lat="45.8092615" lon="8.7768056"><ele>260.0</ele><time>2026-04-26T09:33:19.99Z</time></trkpt><trkpt lat="45.8092299" lon="8.7769992"><ele>258.5</ele><time>2026-04-26T09:33:20.991Z</time></trkpt><trkpt lat="45.8092044" lon="8.7771898"><ele>257.0</ele><time>2026-04-26T09:33:21.991Z</time></trkpt><trkpt lat="45.8091836" lon="8.7773879"><ele>257.0</ele><time>2026-04-26T09:33:22.991Z</time></trkpt><trkpt lat="45.8091616" lon="8.7776126"><ele>257.0</ele><time>2026-04-26T09:33:23.99Z</time></trkpt><trkpt lat="45.8091345" lon="8.7778493"><ele>257.0</ele><time>2026-04-26T09:33:24.99Z</time></trkpt><trkpt lat="45.8091068" lon="8.7781097"><ele>258.0</ele><time>2026-04-26T09:33:25.99Z</time></trkpt><trkpt lat="45.8090768" lon="8.7783738"><ele>259.0</ele><time>2026-04-26T09:33:26.99Z</time></trkpt><trkpt lat="45.8090435" lon="8.7786389"><ele>260.0</ele><time>2026-04-26T09:33:27.991Z</time></trkpt><trkpt lat="45.8090062" lon="8.7788976"><ele>260.33333333333337</ele><time>2026-04-26T09:33:28.991Z</time></trkpt><trkpt lat="45.8089736" lon="8.7791445"><ele>260.6666666666667</ele><time>2026-04-26T09:33:29.991Z</time></trkpt><trkpt lat="45.8089436" lon="8.7793841"><ele>261.0</ele><time>2026-04-26T09:33:30.99Z</time></trkpt><trkpt lat="45.8089172" lon="8.7796153"><ele>260.3333333333333</ele><time>2026-04-26T09:33:31.991Z</time></trkpt><trkpt lat="45.8088913" lon="8.7798564"><ele>259.66666666666663</ele><time>2026-04-26T09:33:32.989Z</time></trkpt><trkpt lat="45.8088676" lon="8.7801125"><ele>259.0</ele><time>2026-04-26T09:33:33.99Z</time></trkpt><trkpt lat="45.8088372" lon="8.7803743"><ele>259.0</ele><time>2026-04-26T09:33:34.989Z</time></trkpt><trkpt lat="45.8088053" lon="8.7806289"><ele>259.0</ele><time>2026-04-26T09:33:35.99Z</time></trkpt><trkpt lat="45.8087751" lon="8.7808718"><ele>259.0</ele><time>2026-04-26T09:33:36.99Z</time></trkpt><trkpt lat="45.8087402" lon="8.7811035"><ele>258.66666666666663</ele><time>2026-04-26T09:33:37.991Z</time></trkpt><trkpt lat="45.8087018" lon="8.7813237"><ele>258.3333333333333</ele><time>2026-04-26T09:33:38.991Z</time></trkpt><trkpt lat="45.8086591" lon="8.7815319"><ele>258.0</ele><time>2026-04-26T09:33:39.991Z</time></trkpt><trkpt lat="45.8086157" lon="8.7817391"><ele>258.0</ele><time>2026-04-26T09:33:40.991Z</time></trkpt><trkpt lat="45.8085622" lon="8.7819301"><ele>258.0</ele><time>2026-04-26T09:33:41.991Z</time></trkpt><trkpt lat="45.8084982" lon="8.7821093"><ele>258.0</ele><time>2026-04-26T09:33:42.99Z</time></trkpt><trkpt lat="45.8084374" lon="8.7822752"><ele>258.0</ele><time>2026-04-26T09:33:43.991Z</time></trkpt><trkpt lat="45.8083697" lon="8.7824324"><ele>258.0</ele><time>2026-04-26T09:33:44.99Z</time></trkpt><trkpt lat="45.8083033" lon="8.7825892"><ele>258.0</ele><time>2026-04-26T09:33:45.989Z</time></trkpt><trkpt lat="45.808238" lon="8.7827467"><ele>258.0</ele><time>2026-04-26T09:33:46.989Z</time></trkpt><trkpt lat="45.8081734" lon="8.7828975"><ele>258.0</ele><time>2026-04-26T09:33:47.989Z</time></trkpt><trkpt lat="45.8081098" lon="8.7830528"><ele>258.0</ele><time>2026-04-26T09:33:48.99Z</time></trkpt><trkpt lat="45.8080473" lon="8.7831979"><ele>258.0</ele><time>2026-04-26T09:33:49.99Z</time></trkpt><trkpt lat="45.8079839" lon="8.7833436"><ele>258.0</ele><time>2026-04-26T09:33:50.99Z</time></trkpt><trkpt lat="45.8079261" lon="8.7834865"><ele>258.0</ele><time>2026-04-26T09:33:51.99Z</time></trkpt><trkpt lat="45.807867" lon="8.7836291"><ele>258.0</ele><time>2026-04-26T09:33:52.989Z</time></trkpt><trkpt lat="45.8078061" lon="8.7837688"><ele>258.0</ele><time>2026-04-26T09:33:53.988Z</time></trkpt><trkpt lat="45.8077478" lon="8.783901"><ele>258.0</ele><time>2026-04-26T09:33:54.989Z</time></trkpt><trkpt lat="45.8076951" lon="8.7840259"><ele>258.0</ele><time>2026-04-26T09:33:55.99Z</time></trkpt><trkpt lat="45.807649" lon="8.7841557"><ele>258.0</ele><time>2026-04-26T09:33:56.989Z</time></trkpt><trkpt lat="45.8075985" lon="8.7842754"><ele>258.0</ele><time>2026-04-26T09:33:57.988Z</time></trkpt><trkpt lat="45.8075546" lon="8.7843902"><ele>258.0</ele><time>2026-04-26T09:33:58.989Z</time></trkpt><trkpt lat="45.8075125" lon="8.7844919"><ele>258.0</ele><time>2026-04-26T09:33:59.99Z</time></trkpt><trkpt lat="45.8074664" lon="8.7845799"><ele>258.0</ele><time>2026-04-26T09:34:00.989Z</time></trkpt><trkpt lat="45.8074117" lon="8.78471"><ele>258.0</ele><time>2026-04-26T09:34:02.989Z</time></trkpt><trkpt lat="45.8073918" lon="8.7847989"><ele>258.0</ele><time>2026-04-26T09:34:03.989Z</time></trkpt><trkpt lat="45.8073517" lon="8.784891"><ele>258.0</ele><time>2026-04-26T09:34:04.99Z</time></trkpt><trkpt lat="45.8073118" lon="8.78498"><ele>258.0</ele><time>2026-04-26T09:34:05.989Z</time></trkpt><trkpt lat="45.807236" lon="8.785097"><ele>258.0</ele><time>2026-04-26T09:34:07.989Z</time></trkpt><trkpt lat="45.8071354" lon="8.785188"><ele>258.0</ele><time>2026-04-26T09:34:09.989Z</time></trkpt><trkpt lat="45.8070784" lon="8.7852491"><ele>258.0</ele><time>2026-04-26T09:34:10.989Z</time></trkpt><trkpt lat="45.807046" lon="8.7853295"><ele>258.0</ele><time>2026-04-26T09:34:11.99Z</time></trkpt><trkpt lat="45.8070321" lon="8.7854281"><ele>258.0</ele><time>2026-04-26T09:34:12.99Z</time></trkpt><trkpt lat="45.8070101" lon="8.7855484"><ele>258.0</ele><time>2026-04-26T09:34:13.989Z</time></trkpt><trkpt lat="45.8069654" lon="8.7856858"><ele>258.0</ele><time>2026-04-26T09:34:14.99Z</time></trkpt><trkpt lat="45.8069049" lon="8.7858384"><ele>258.0</ele><time>2026-04-26T09:34:15.988Z</time></trkpt><trkpt lat="45.8068475" lon="8.7859911"><ele>258.0</ele><time>2026-04-26T09:34:16.988Z</time></trkpt><trkpt lat="45.8067977" lon="8.7861379"><ele>258.4</ele><time>2026-04-26T09:34:17.989Z</time></trkpt><trkpt lat="45.806743" lon="8.7862725"><ele>258.8</ele><time>2026-04-26T09:34:18.99Z</time></trkpt><trkpt lat="45.8066948" lon="8.7864003"><ele>259.2</ele><time>2026-04-26T09:34:19.99Z</time></trkpt><trkpt lat="45.8066458" lon="8.7865099"><ele>259.6</ele><time>2026-04-26T09:34:20.989Z</time></trkpt><trkpt lat="45.8065867" lon="8.7865925"><ele>260.0</ele><time>2026-04-26T09:34:21.988Z</time></trkpt><trkpt lat="45.8065235" lon="8.7866499"><ele>260.0</ele><time>2026-04-26T09:34:22.988Z</time></trkpt><trkpt lat="45.8064691" lon="8.7867201"><ele>260.0</ele><time>2026-04-26T09:34:23.99Z</time></trkpt><trkpt lat="45.8064286" lon="8.7868231"><ele>260.0</ele><time>2026-04-26T09:34:24.989Z</time></trkpt><trkpt lat="45.8064124" lon="8.7869352"><ele>260.0</ele><time>2026-04-26T09:34:25.989Z</time></trkpt><trkpt lat="45.8064203" lon="8.7870525"><ele>260.0</ele><time>2026-04-26T09:34:26.988Z</time></trkpt><trkpt lat="45.8064206" lon="8.7871906"><ele>260.0</ele><time>2026-04-26T09:34:27.989Z</time></trkpt><trkpt lat="45.8064034" lon="8.7873333"><ele>260.5</ele><time>2026-04-26T09:34:28.988Z</time></trkpt><trkpt lat="45.8063786" lon="8.78749"><ele>261.0</ele><time>2026-04-26T09:34:29.989Z</time></trkpt><trkpt lat="45.8063493" lon="8.7876561"><ele>261.5</ele><time>2026-04-26T09:34:30.989Z</time></trkpt><trkpt lat="45.8063158" lon="8.7878278"><ele>262.0</ele><time>2026-04-26T09:34:31.989Z</time></trkpt><trkpt lat="45.8062809" lon="8.7880037"><ele>262.5</ele><time>2026-04-26T09:34:32.988Z</time></trkpt><trkpt lat="45.8062433" lon="8.7881873"><ele>263.0</ele><time>2026-04-26T09:34:33.989Z</time></trkpt><trkpt lat="45.8062104" lon="8.7883673"><ele>263.5</ele><time>2026-04-26T09:34:34.989Z</time></trkpt><trkpt lat="45.8061796" lon="8.7885404"><ele>264.0</ele><time>2026-04-26T09:34:35.989Z</time></trkpt><trkpt lat="45.8061492" lon="8.7887082"><ele>264.25</ele><time>2026-04-26T09:34:36.99Z</time></trkpt><trkpt lat="45.8061229" lon="8.7888824"><ele>264.5</ele><time>2026-04-26T09:34:37.989Z</time></trkpt><trkpt lat="45.8060979" lon="8.7890603"><ele>264.75</ele><time>2026-04-26T09:34:38.99Z</time></trkpt><trkpt lat="45.8060756" lon="8.7892344"><ele>265.0</ele><time>2026-04-26T09:34:39.99Z</time></trkpt><trkpt lat="45.8060551" lon="8.7894153"><ele>266.75</ele><time>2026-04-26T09:34:40.989Z</time></trkpt><trkpt lat="45.8060365" lon="8.7896038"><ele>268.5</ele><time>2026-04-26T09:34:41.989Z</time></trkpt><trkpt lat="45.8060199" lon="8.789796"><ele>270.25</ele><time>2026-04-26T09:34:42.989Z</time></trkpt><trkpt lat="45.8060038" lon="8.7899915"><ele>272.0</ele><time>2026-04-26T09:34:43.989Z</time></trkpt><trkpt lat="45.8059914" lon="8.7901981"><ele>268.5</ele><time>2026-04-26T09:34:44.988Z</time></trkpt><trkpt lat="45.8059806" lon="8.7904023"><ele>265.0</ele><time>2026-04-26T09:34:45.989Z</time></trkpt><trkpt lat="45.8059739" lon="8.790606"><ele>261.5</ele><time>2026-04-26T09:34:46.99Z</time></trkpt><trkpt lat="45.8059692" lon="8.7908015"><ele>258.0</ele><time>2026-04-26T09:34:47.99Z</time></trkpt><trkpt lat="45.8059662" lon="8.7909947"><ele>258.5</ele><time>2026-04-26T09:34:48.989Z</time></trkpt><trkpt lat="45.8059672" lon="8.7911894"><ele>259.0</ele><time>2026-04-26T09:34:49.99Z</time></trkpt><trkpt lat="45.8059733" lon="8.7913878"><ele>259.5</ele><time>2026-04-26T09:34:50.989Z</time></trkpt><trkpt lat="45.805979" lon="8.7915831"><ele>260.0</ele><time>2026-04-26T09:34:51.99Z</time></trkpt><trkpt lat="45.8059885" lon="8.7917865"><ele>265.75</ele><time>2026-04-26T09:34:52.989Z</time></trkpt><trkpt lat="45.8059975" lon="8.7919823"><ele>271.5</ele><time>2026-04-26T09:34:53.988Z</time></trkpt><trkpt lat="45.806007" lon="8.7921774"><ele>277.25</ele><time>2026-04-26T09:34:54.99Z</time></trkpt><trkpt lat="45.8060226" lon="8.7923715"><ele>283.0</ele><time>2026-04-26T09:34:55.989Z</time></trkpt><trkpt lat="45.8060379" lon="8.7925664"><ele>282.5</ele><time>2026-04-26T09:34:56.988Z</time></trkpt><trkpt lat="45.8060452" lon="8.7927663"><ele>282.0</ele><time>2026-04-26T09:34:57.99Z</time></trkpt><trkpt lat="45.8060565" lon="8.7929596"><ele>281.5</ele><time>2026-04-26T09:34:58.989Z</time></trkpt><trkpt lat="45.8060702" lon="8.7931422"><ele>281.0</ele><time>2026-04-26T09:34:59.99Z</time></trkpt><trkpt lat="45.8060777" lon="8.7933251"><ele>281.25</ele><time>2026-04-26T09:35:00.989Z</time></trkpt><trkpt lat="45.8060836" lon="8.7935068"><ele>281.5</ele><time>2026-04-26T09:35:01.989Z</time></trkpt><trkpt lat="45.8060799" lon="8.7936987"><ele>281.75</ele><time>2026-04-26T09:35:02.988Z</time></trkpt><trkpt lat="45.8060691" lon="8.7938917"><ele>282.0</ele><time>2026-04-26T09:35:03.99Z</time></trkpt><trkpt lat="45.8060485" lon="8.7940882"><ele>282.0</ele><time>2026-04-26T09:35:04.989Z</time></trkpt><trkpt lat="45.8060229" lon="8.7942856"><ele>282.0</ele><time>2026-04-26T09:35:05.988Z</time></trkpt><trkpt lat="45.8059915" lon="8.7944792"><ele>282.0</ele><time>2026-04-26T09:35:06.989Z</time></trkpt><trkpt lat="45.8059476" lon="8.7946656"><ele>282.0</ele><time>2026-04-26T09:35:07.99Z</time></trkpt><trkpt lat="45.8058994" lon="8.7948581"><ele>277.5</ele><time>2026-04-26T09:35:08.989Z</time></trkpt><trkpt lat="45.8058445" lon="8.7950482"><ele>273.0</ele><time>2026-04-26T09:35:09.989Z</time></trkpt><trkpt lat="45.805787" lon="8.7952391"><ele>268.5</ele><time>2026-04-26T09:35:10.99Z</time></trkpt><trkpt lat="45.8057291" lon="8.7954255"><ele>264.0</ele><time>2026-04-26T09:35:11.99Z</time></trkpt><trkpt lat="45.805676" lon="8.795603"><ele>264.0</ele><time>2026-04-26T09:35:12.99Z</time></trkpt><trkpt lat="45.805622" lon="8.7957703"><ele>264.0</ele><time>2026-04-26T09:35:13.989Z</time></trkpt><trkpt lat="45.8055689" lon="8.7959339"><ele>264.0</ele><time>2026-04-26T09:35:14.99Z</time></trkpt><trkpt lat="45.8055129" lon="8.7961045"><ele>264.0</ele><time>2026-04-26T09:35:15.989Z</time></trkpt><trkpt lat="45.8054587" lon="8.7962844"><ele>263.75</ele><time>2026-04-26T09:35:16.989Z</time></trkpt><trkpt lat="45.8054001" lon="8.7964637"><ele>263.5</ele><time>2026-04-26T09:35:17.99Z</time></trkpt><trkpt lat="45.8053406" lon="8.7966442"><ele>263.25</ele><time>2026-04-26T09:35:18.989Z</time></trkpt><trkpt lat="45.8052811" lon="8.7968255"><ele>263.0</ele><time>2026-04-26T09:35:19.99Z</time></trkpt><trkpt lat="45.8052211" lon="8.7970147"><ele>259.75</ele><time>2026-04-26T09:35:20.99Z</time></trkpt><trkpt lat="45.8051573" lon="8.7972023"><ele>256.5</ele><time>2026-04-26T09:35:21.988Z</time></trkpt><trkpt lat="45.8050959" lon="8.7973832"><ele>253.25</ele><time>2026-04-26T09:35:22.99Z</time></trkpt><trkpt lat="45.8050391" lon="8.7975645"><ele>250.0</ele><time>2026-04-26T09:35:23.989Z</time></trkpt><trkpt lat="45.8049833" lon="8.7977447"><ele>249.75</ele><time>2026-04-26T09:35:24.988Z</time></trkpt><trkpt lat="45.8049265" lon="8.7979152"><ele>249.5</ele><time>2026-04-26T09:35:25.99Z</time></trkpt><trkpt lat="45.8048717" lon="8.7980809"><ele>249.25</ele><time>2026-04-26T09:35:26.989Z</time></trkpt><trkpt lat="45.8048175" lon="8.7982554"><ele>249.0</ele><time>2026-04-26T09:35:27.989Z</time></trkpt><trkpt lat="45.8047591" lon="8.7984283"><ele>249.0</ele><time>2026-04-26T09:35:28.99Z</time></trkpt><trkpt lat="45.804703" lon="8.798602"><ele>249.0</ele><time>2026-04-26T09:35:29.989Z</time></trkpt><trkpt lat="45.8046445" lon="8.7987787"><ele>249.0</ele><time>2026-04-26T09:35:30.989Z</time></trkpt><trkpt lat="45.8045911" lon="8.7989515"><ele>249.0</ele><time>2026-04-26T09:35:31.99Z</time></trkpt><trkpt lat="45.8045357" lon="8.7991225"><ele>249.0</ele><time>2026-04-26T09:35:32.988Z</time></trkpt><trkpt lat="45.8044764" lon="8.7993"><ele>249.0</ele><time>2026-04-26T09:35:33.99Z</time></trkpt><trkpt lat="45.8044146" lon="8.7994806"><ele>249.0</ele><time>2026-04-26T09:35:34.989Z</time></trkpt><trkpt lat="45.8043572" lon="8.7996605"><ele>249.0</ele><time>2026-04-26T09:35:35.989Z</time></trkpt><trkpt lat="45.8043005" lon="8.7998351"><ele>249.25</ele><time>2026-04-26T09:35:36.989Z</time></trkpt><trkpt lat="45.8042483" lon="8.7999999"><ele>249.5</ele><time>2026-04-26T09:35:37.989Z</time></trkpt><trkpt lat="45.8041926" lon="8.8001608"><ele>249.75</ele><time>2026-04-26T09:35:38.989Z</time></trkpt><trkpt lat="45.804139" lon="8.8003179"><ele>250.0</ele><time>2026-04-26T09:35:39.988Z</time></trkpt><trkpt lat="45.8040834" lon="8.800463"><ele>250.0</ele><time>2026-04-26T09:35:40.989Z</time></trkpt><trkpt lat="45.8040255" lon="8.8006147"><ele>250.0</ele><time>2026-04-26T09:35:41.989Z</time></trkpt><trkpt lat="45.8039525" lon="8.800763"><ele>250.0</ele><time>2026-04-26T09:35:42.99Z</time></trkpt><trkpt lat="45.8038741" lon="8.80091"><ele>250.0</ele><time>2026-04-26T09:35:43.989Z</time></trkpt><trkpt lat="45.8037898" lon="8.8010481"><ele>249.75</ele><time>2026-04-26T09:35:44.989Z</time></trkpt><trkpt lat="45.8037033" lon="8.8011819"><ele>249.5</ele><time>2026-04-26T09:35:45.989Z</time></trkpt><trkpt lat="45.8036201" lon="8.8013102"><ele>249.25</ele><time>2026-04-26T09:35:46.99Z</time></trkpt><trkpt lat="45.8035394" lon="8.8014336"><ele>249.0</ele><time>2026-04-26T09:35:47.989Z</time></trkpt><trkpt lat="45.8033962" lon="8.8016494"><ele>248.66666666666666</ele><time>2026-04-26T09:35:49.989Z</time></trkpt><trkpt lat="45.8033385" lon="8.8017418"><ele>248.33333333333331</ele><time>2026-04-26T09:35:50.989Z</time></trkpt><trkpt lat="45.8032672" lon="8.8018397"><ele>248.0</ele><time>2026-04-26T09:35:52.988Z</time></trkpt><trkpt lat="45.8032147" lon="8.801891"><ele>247.66666666666666</ele><time>2026-04-26T09:35:54.99Z</time></trkpt><trkpt lat="45.8031153" lon="8.801948"><ele>247.33333333333331</ele><time>2026-04-26T09:35:56.99Z</time></trkpt><trkpt lat="45.8030421" lon="8.8019817"><ele>247.0</ele><time>2026-04-26T09:35:57.99Z</time></trkpt><trkpt lat="45.8029774" lon="8.8020212"><ele>246.99999999999997</ele><time>2026-04-26T09:35:58.989Z</time></trkpt><trkpt lat="45.8029233" lon="8.802085"><ele>247.0</ele><time>2026-04-26T09:35:59.989Z</time></trkpt><trkpt lat="45.802876" lon="8.8021566"><ele>247.0</ele><time>2026-04-26T09:36:00.989Z</time></trkpt><trkpt lat="45.8028168" lon="8.8022258"><ele>247.0</ele><time>2026-04-26T09:36:01.99Z</time></trkpt><trkpt lat="45.802744" lon="8.8022889"><ele>246.99999999999997</ele><time>2026-04-26T09:36:02.99Z</time></trkpt><trkpt lat="45.8026596" lon="8.8023468"><ele>247.0</ele><time>2026-04-26T09:36:03.989Z</time></trkpt><trkpt lat="45.8025604" lon="8.8023975"><ele>246.0</ele><time>2026-04-26T09:36:04.99Z</time></trkpt><trkpt lat="45.8024484" lon="8.8024354"><ele>245.0</ele><time>2026-04-26T09:36:05.99Z</time></trkpt><trkpt lat="45.8023238" lon="8.802464"><ele>244.0</ele><time>2026-04-26T09:36:06.99Z</time></trkpt><trkpt lat="45.8021984" lon="8.8024803"><ele>243.0</ele><time>2026-04-26T09:36:07.989Z</time></trkpt><trkpt lat="45.802072" lon="8.8024883"><ele>243.0</ele><time>2026-04-26T09:36:08.989Z</time></trkpt><trkpt lat="45.8019496" lon="8.8024851"><ele>243.0</ele><time>2026-04-26T09:36:09.99Z</time></trkpt><trkpt lat="45.801828" lon="8.8024789"><ele>243.0</ele><time>2026-04-26T09:36:10.989Z</time></trkpt><trkpt lat="45.8017057" lon="8.8024671"><ele>243.0</ele><time>2026-04-26T09:36:11.99Z</time></trkpt><trkpt lat="45.8015826" lon="8.8024503"><ele>242.75</ele><time>2026-04-26T09:36:12.988Z</time></trkpt><trkpt lat="45.8014567" lon="8.8024288"><ele>242.5</ele><time>2026-04-26T09:36:13.988Z</time></trkpt><trkpt lat="45.8013289" lon="8.8024024"><ele>242.25</ele><time>2026-04-26T09:36:14.989Z</time></trkpt><trkpt lat="45.8011972" lon="8.8023735"><ele>242.0</ele><time>2026-04-26T09:36:15.989Z</time></trkpt><trkpt lat="45.8010612" lon="8.8023442"><ele>242.0</ele><time>2026-04-26T09:36:16.99Z</time></trkpt><trkpt lat="45.8009204" lon="8.802308"><ele>242.0</ele><time>2026-04-26T09:36:17.989Z</time></trkpt><trkpt lat="45.8007768" lon="8.8022764"><ele>242.0</ele><time>2026-04-26T09:36:18.988Z</time></trkpt><trkpt lat="45.8006289" lon="8.8022428"><ele>242.0</ele><time>2026-04-26T09:36:19.989Z</time></trkpt><trkpt lat="45.8004787" lon="8.8022093"><ele>242.0</ele><time>2026-04-26T09:36:20.99Z</time></trkpt><trkpt lat="45.8003226" lon="8.8021672"><ele>242.0</ele><time>2026-04-26T09:36:21.989Z</time></trkpt><trkpt lat="45.8001751" lon="8.8021289"><ele>242.0</ele><time>2026-04-26T09:36:22.989Z</time></trkpt><trkpt lat="45.8000283" lon="8.8020909"><ele>242.25</ele><time>2026-04-26T09:36:23.988Z</time></trkpt><trkpt lat="45.7998922" lon="8.802061"><ele>242.5</ele><time>2026-04-26T09:36:24.99Z</time></trkpt><trkpt lat="45.7997475" lon="8.8020332"><ele>242.75</ele><time>2026-04-26T09:36:25.989Z</time></trkpt><trkpt lat="45.799591" lon="8.8019954"><ele>243.0</ele><time>2026-04-26T09:36:26.988Z</time></trkpt><trkpt lat="45.7994131" lon="8.8019492"><ele>243.0</ele><time>2026-04-26T09:36:27.99Z</time></trkpt><trkpt lat="45.7992315" lon="8.8019067"><ele>243.0</ele><time>2026-04-26T09:36:28.99Z</time></trkpt><trkpt lat="45.7990507" lon="8.801861"><ele>243.0</ele><time>2026-04-26T09:36:29.989Z</time></trkpt><trkpt lat="45.7988584" lon="8.8018159"><ele>242.33333333333331</ele><time>2026-04-26T09:36:30.99Z</time></trkpt><trkpt lat="45.7986665" lon="8.8017759"><ele>241.66666666666666</ele><time>2026-04-26T09:36:31.99Z</time></trkpt><trkpt lat="45.7984795" lon="8.8017329"><ele>241.0</ele><time>2026-04-26T09:36:32.99Z</time></trkpt><trkpt lat="45.7982852" lon="8.8016902"><ele>241.0</ele><time>2026-04-26T09:36:33.989Z</time></trkpt><trkpt lat="45.7980904" lon="8.8016491"><ele>241.0</ele><time>2026-04-26T09:36:34.99Z</time></trkpt><trkpt lat="45.7978911" lon="8.8016021"><ele>241.0</ele><time>2026-04-26T09:36:35.99Z</time></trkpt><trkpt lat="45.7976892" lon="8.801549"><ele>241.33333333333331</ele><time>2026-04-26T09:36:36.989Z</time></trkpt><trkpt lat="45.7974821" lon="8.8014996"><ele>241.66666666666669</ele><time>2026-04-26T09:36:37.989Z</time></trkpt><trkpt lat="45.7972772" lon="8.8014443"><ele>242.0</ele><time>2026-04-26T09:36:38.989Z</time></trkpt><trkpt lat="45.7970733" lon="8.80139"><ele>242.0</ele><time>2026-04-26T09:36:39.989Z</time></trkpt><trkpt lat="45.796876" lon="8.8013331"><ele>242.0</ele><time>2026-04-26T09:36:40.99Z</time></trkpt><trkpt lat="45.7966815" lon="8.8012814"><ele>242.0</ele><time>2026-04-26T09:36:41.989Z</time></trkpt><trkpt lat="45.7964904" lon="8.8012339"><ele>242.33333333333334</ele><time>2026-04-26T09:36:42.989Z</time></trkpt><trkpt lat="45.7963043" lon="8.8011911"><ele>242.66666666666669</ele><time>2026-04-26T09:36:43.99Z</time></trkpt><trkpt lat="45.7961345" lon="8.8011535"><ele>243.0</ele><time>2026-04-26T09:36:44.989Z</time></trkpt><trkpt lat="45.7959697" lon="8.8011156"><ele>243.0</ele><time>2026-04-26T09:36:45.989Z</time></trkpt><trkpt lat="45.7958108" lon="8.801086"><ele>243.0</ele><time>2026-04-26T09:36:46.99Z</time></trkpt><trkpt lat="45.7956588" lon="8.8010474"><ele>243.0</ele><time>2026-04-26T09:36:47.989Z</time></trkpt><trkpt lat="45.7955065" lon="8.8010122"><ele>243.0</ele><time>2026-04-26T09:36:48.989Z</time></trkpt><trkpt lat="45.7953661" lon="8.8009788"><ele>243.0</ele><time>2026-04-26T09:36:49.99Z</time></trkpt><trkpt lat="45.7952198" lon="8.8009461"><ele>243.0</ele><time>2026-04-26T09:36:50.989Z</time></trkpt><trkpt lat="45.7950842" lon="8.800913"><ele>243.0</ele><time>2026-04-26T09:36:51.99Z</time></trkpt><trkpt lat="45.7949512" lon="8.8008827"><ele>242.33333333333331</ele><time>2026-04-26T09:36:52.988Z</time></trkpt><trkpt lat="45.794809" lon="8.8008504"><ele>241.66666666666666</ele><time>2026-04-26T09:36:53.99Z</time></trkpt><trkpt lat="45.7946596" lon="8.8008208"><ele>241.0</ele><time>2026-04-26T09:36:54.988Z</time></trkpt><trkpt lat="45.7945015" lon="8.800781"><ele>240.33333333333331</ele><time>2026-04-26T09:36:55.989Z</time></trkpt><trkpt lat="45.7943372" lon="8.8007391"><ele>239.66666666666669</ele><time>2026-04-26T09:36:56.99Z</time></trkpt><trkpt lat="45.7941699" lon="8.8006949"><ele>239.0</ele><time>2026-04-26T09:36:57.99Z</time></trkpt><trkpt lat="45.7940116" lon="8.8006558"><ele>239.0</ele><time>2026-04-26T09:36:58.989Z</time></trkpt><trkpt lat="45.7938589" lon="8.8006092"><ele>239.0</ele><time>2026-04-26T09:36:59.988Z</time></trkpt><trkpt lat="45.7937249" lon="8.800571"><ele>239.0</ele><time>2026-04-26T09:37:00.99Z</time></trkpt><trkpt lat="45.7935956" lon="8.8005232"><ele>239.0</ele><time>2026-04-26T09:37:01.99Z</time></trkpt><trkpt lat="45.7934767" lon="8.8004835"><ele>239.66666666666669</ele><time>2026-04-26T09:37:02.989Z</time></trkpt><trkpt lat="45.7933716" lon="8.8004504"><ele>240.33333333333334</ele><time>2026-04-26T09:37:03.99Z</time></trkpt><trkpt lat="45.7932742" lon="8.8004145"><ele>241.0</ele><time>2026-04-26T09:37:04.99Z</time></trkpt><trkpt lat="45.7931988" lon="8.8003778"><ele>241.66666666666669</ele><time>2026-04-26T09:37:05.99Z</time></trkpt><trkpt lat="45.7931258" lon="8.8003387"><ele>242.33333333333334</ele><time>2026-04-26T09:37:06.989Z</time></trkpt><trkpt lat="45.7930624" lon="8.800299"><ele>243.0</ele><time>2026-04-26T09:37:07.989Z</time></trkpt><trkpt lat="45.7930018" lon="8.8002383"><ele>243.0</ele><time>2026-04-26T09:37:09.989Z</time></trkpt><trkpt lat="45.7929322" lon="8.8001647"><ele>243.0</ele><time>2026-04-26T09:37:15.989Z</time></trkpt><trkpt lat="45.7928451" lon="8.8000261"><ele>243.0</ele><time>2026-04-26T09:37:17.99Z</time></trkpt><trkpt lat="45.7927704" lon="8.7999855"><ele>243.0</ele><time>2026-04-26T09:37:18.989Z</time></trkpt><trkpt lat="45.7926934" lon="8.7999809"><ele>243.0</ele><time>2026-04-26T09:37:19.989Z</time></trkpt><trkpt lat="45.7926105" lon="8.8000263"><ele>243.0</ele><time>2026-04-26T09:37:20.988Z</time></trkpt><trkpt lat="45.7925519" lon="8.8001205"><ele>243.0</ele><time>2026-04-26T09:37:21.99Z</time></trkpt><trkpt lat="45.7925059" lon="8.8002433"><ele>243.0</ele><time>2026-04-26T09:37:22.989Z</time></trkpt><trkpt lat="45.7924619" lon="8.8003817"><ele>243.0</ele><time>2026-04-26T09:37:23.99Z</time></trkpt><trkpt lat="45.7923941" lon="8.8004984"><ele>243.0</ele><time>2026-04-26T09:37:24.99Z</time></trkpt><trkpt lat="45.7923075" lon="8.8006002"><ele>243.0</ele><time>2026-04-26T09:37:25.989Z</time></trkpt><trkpt lat="45.7922043" lon="8.8006879"><ele>243.0</ele><time>2026-04-26T09:37:26.989Z</time></trkpt><trkpt lat="45.7920866" lon="8.8007803"><ele>243.0</ele><time>2026-04-26T09:37:27.99Z</time></trkpt><trkpt lat="45.7919725" lon="8.8008555"><ele>243.0</ele><time>2026-04-26T09:37:28.989Z</time></trkpt><trkpt lat="45.7918453" lon="8.8009193"><ele>244.0</ele><time>2026-04-26T09:37:29.99Z</time></trkpt><trkpt lat="45.7917098" lon="8.8009742"><ele>245.0</ele><time>2026-04-26T09:37:30.989Z</time></trkpt><trkpt lat="45.7915696" lon="8.8010245"><ele>246.0</ele><time>2026-04-26T09:37:31.988Z</time></trkpt><trkpt lat="45.7914221" lon="8.8010703"><ele>247.0</ele><time>2026-04-26T09:37:32.988Z</time></trkpt><trkpt lat="45.7912746" lon="8.8011262"><ele>247.75</ele><time>2026-04-26T09:37:33.989Z</time></trkpt><trkpt lat="45.791133" lon="8.8011903"><ele>248.5</ele><time>2026-04-26T09:37:34.99Z</time></trkpt><trkpt lat="45.7910058" lon="8.8012637"><ele>249.25</ele><time>2026-04-26T09:37:35.989Z</time></trkpt><trkpt lat="45.7908811" lon="8.8013557"><ele>250.0</ele><time>2026-04-26T09:37:36.988Z</time></trkpt><trkpt lat="45.7907652" lon="8.8014638"><ele>251.5</ele><time>2026-04-26T09:37:37.99Z</time></trkpt><trkpt lat="45.7906646" lon="8.8015702"><ele>253.0</ele><time>2026-04-26T09:37:38.99Z</time></trkpt><trkpt lat="45.7905811" lon="8.8016917"><ele>254.5</ele><time>2026-04-26T09:37:39.99Z</time></trkpt><trkpt lat="45.7905019" lon="8.8018126"><ele>256.0</ele><time>2026-04-26T09:37:40.989Z</time></trkpt><trkpt lat="45.7904332" lon="8.8019401"><ele>256.6</ele><time>2026-04-26T09:37:41.989Z</time></trkpt><trkpt lat="45.7903745" lon="8.8020646"><ele>257.20000000000005</ele><time>2026-04-26T09:37:42.99Z</time></trkpt><trkpt lat="45.7903255" lon="8.8021992"><ele>257.79999999999995</ele><time>2026-04-26T09:37:43.989Z</time></trkpt><trkpt lat="45.7902864" lon="8.8023342"><ele>258.4</ele><time>2026-04-26T09:37:44.99Z</time></trkpt><trkpt lat="45.7902501" lon="8.8024715"><ele>259.0</ele><time>2026-04-26T09:37:45.99Z</time></trkpt><trkpt lat="45.7902243" lon="8.8026165"><ele>259.4</ele><time>2026-04-26T09:37:46.99Z</time></trkpt><trkpt lat="45.7902034" lon="8.8027646"><ele>259.79999999999995</ele><time>2026-04-26T09:37:47.989Z</time></trkpt><trkpt lat="45.7901873" lon="8.8029152"><ele>260.20000000000005</ele><time>2026-04-26T09:37:48.988Z</time></trkpt><trkpt lat="45.7901879" lon="8.8030755"><ele>260.6</ele><time>2026-04-26T09:37:49.989Z</time></trkpt><trkpt lat="45.7901945" lon="8.803239"><ele>261.0</ele><time>2026-04-26T09:37:50.989Z</time></trkpt><trkpt lat="45.7902083" lon="8.8034011"><ele>261.0</ele><time>2026-04-26T09:37:51.989Z</time></trkpt><trkpt lat="45.7902354" lon="8.8035702"><ele>261.0</ele><time>2026-04-26T09:37:52.99Z</time></trkpt><trkpt lat="45.7902748" lon="8.8037357"><ele>261.0</ele><time>2026-04-26T09:37:53.99Z</time></trkpt><trkpt lat="45.7903201" lon="8.8039129"><ele>261.0</ele><time>2026-04-26T09:37:54.989Z</time></trkpt><trkpt lat="45.7903666" lon="8.8040859"><ele>261.0</ele><time>2026-04-26T09:37:55.989Z</time></trkpt><trkpt lat="45.7904106" lon="8.8042467"><ele>261.0</ele><time>2026-04-26T09:37:56.989Z</time></trkpt><trkpt lat="45.790448" lon="8.8044029"><ele>261.0</ele><time>2026-04-26T09:37:57.99Z</time></trkpt><trkpt lat="45.7904894" lon="8.8045583"><ele>261.0</ele><time>2026-04-26T09:37:58.99Z</time></trkpt><trkpt lat="45.7905318" lon="8.8047144"><ele>262.75</ele><time>2026-04-26T09:37:59.989Z</time></trkpt><trkpt lat="45.7905717" lon="8.8048741"><ele>264.5</ele><time>2026-04-26T09:38:00.989Z</time></trkpt><trkpt lat="45.7906172" lon="8.8050348"><ele>266.25</ele><time>2026-04-26T09:38:01.989Z</time></trkpt><trkpt lat="45.7906624" lon="8.8052"><ele>268.0</ele><time>2026-04-26T09:38:02.989Z</time></trkpt><trkpt lat="45.7907054" lon="8.8053592"><ele>269.75</ele><time>2026-04-26T09:38:03.989Z</time></trkpt><trkpt lat="45.7907455" lon="8.8055156"><ele>271.5</ele><time>2026-04-26T09:38:04.989Z</time></trkpt><trkpt lat="45.7907885" lon="8.8056738"><ele>273.25</ele><time>2026-04-26T09:38:05.989Z</time></trkpt><trkpt lat="45.790831" lon="8.8058338"><ele>275.0</ele><time>2026-04-26T09:38:06.989Z</time></trkpt><trkpt lat="45.7908712" lon="8.8059908"><ele>272.75</ele><time>2026-04-26T09:38:07.99Z</time></trkpt><trkpt lat="45.790915" lon="8.8061523"><ele>270.5</ele><time>2026-04-26T09:38:08.99Z</time></trkpt><trkpt lat="45.790957" lon="8.8063137"><ele>268.25</ele><time>2026-04-26T09:38:09.988Z</time></trkpt><trkpt lat="45.791001" lon="8.8064739"><ele>266.0</ele><time>2026-04-26T09:38:10.988Z</time></trkpt><trkpt lat="45.7910458" lon="8.8066427"><ele>266.0</ele><time>2026-04-26T09:38:11.988Z</time></trkpt><trkpt lat="45.791089" lon="8.8068043"><ele>266.0</ele><time>2026-04-26T09:38:12.987Z</time></trkpt><trkpt lat="45.7911298" lon="8.8069681"><ele>266.0</ele><time>2026-04-26T09:38:13.987Z</time></trkpt><trkpt lat="45.7911723" lon="8.8071281"><ele>266.0</ele><time>2026-04-26T09:38:14.988Z</time></trkpt><trkpt lat="45.7912138" lon="8.8072926"><ele>267.0</ele><time>2026-04-26T09:38:15.987Z</time></trkpt><trkpt lat="45.7912594" lon="8.8074571"><ele>268.0</ele><time>2026-04-26T09:38:16.988Z</time></trkpt><trkpt lat="45.7913028" lon="8.8076247"><ele>269.0</ele><time>2026-04-26T09:38:17.989Z</time></trkpt><trkpt lat="45.7913502" lon="8.8077946"><ele>270.0</ele><time>2026-04-26T09:38:18.988Z</time></trkpt><trkpt lat="45.7913947" lon="8.8079677"><ele>271.75</ele><time>2026-04-26T09:38:19.988Z</time></trkpt><trkpt lat="45.7914345" lon="8.8081515"><ele>273.5</ele><time>2026-04-26T09:38:20.988Z</time></trkpt><trkpt lat="45.7914741" lon="8.8083477"><ele>275.25</ele><time>2026-04-26T09:38:21.988Z</time></trkpt><trkpt lat="45.791493" lon="8.8085498"><ele>277.0</ele><time>2026-04-26T09:38:22.988Z</time></trkpt><trkpt lat="45.7914987" lon="8.808761"><ele>278.25</ele><time>2026-04-26T09:38:23.989Z</time></trkpt><trkpt lat="45.7914904" lon="8.808972"><ele>279.5</ele><time>2026-04-26T09:38:24.989Z</time></trkpt><trkpt lat="45.7914661" lon="8.8091825"><ele>280.75</ele><time>2026-04-26T09:38:25.988Z</time></trkpt><trkpt lat="45.7914241" lon="8.8093874"><ele>282.0</ele><time>2026-04-26T09:38:26.988Z</time></trkpt><trkpt lat="45.7913694" lon="8.8095738"><ele>282.0</ele><time>2026-04-26T09:38:27.989Z</time></trkpt><trkpt lat="45.7913025" lon="8.8097429"><ele>282.0</ele><time>2026-04-26T09:38:28.987Z</time></trkpt><trkpt lat="45.7912296" lon="8.809905"><ele>282.0</ele><time>2026-04-26T09:38:29.989Z</time></trkpt><trkpt lat="45.7911458" lon="8.8100526"><ele>282.0</ele><time>2026-04-26T09:38:30.988Z</time></trkpt><trkpt lat="45.7910504" lon="8.8101868"><ele>282.75</ele><time>2026-04-26T09:38:31.989Z</time></trkpt><trkpt lat="45.7909444" lon="8.81031"><ele>283.5</ele><time>2026-04-26T09:38:32.989Z</time></trkpt><trkpt lat="45.7908326" lon="8.8104177"><ele>284.25</ele><time>2026-04-26T09:38:33.987Z</time></trkpt><trkpt lat="45.7907134" lon="8.810508"><ele>285.0</ele><time>2026-04-26T09:38:34.989Z</time></trkpt><trkpt lat="45.7905843" lon="8.8105765"><ele>285.0</ele><time>2026-04-26T09:38:35.989Z</time></trkpt><trkpt lat="45.7904541" lon="8.8106326"><ele>285.0</ele><time>2026-04-26T09:38:36.988Z</time></trkpt><trkpt lat="45.7903204" lon="8.8106639"><ele>285.0</ele><time>2026-04-26T09:38:37.988Z</time></trkpt><trkpt lat="45.7901853" lon="8.8106789"><ele>285.0</ele><time>2026-04-26T09:38:38.987Z</time></trkpt><trkpt lat="45.790057" lon="8.8106745"><ele>287.25</ele><time>2026-04-26T09:38:39.987Z</time></trkpt><trkpt lat="45.7899189" lon="8.8106481"><ele>289.5</ele><time>2026-04-26T09:38:40.988Z</time></trkpt><trkpt lat="45.7897931" lon="8.8106091"><ele>291.75</ele><time>2026-04-26T09:38:41.988Z</time></trkpt><trkpt lat="45.7896808" lon="8.810549"><ele>294.0</ele><time>2026-04-26T09:38:42.989Z</time></trkpt><trkpt lat="45.7895506" lon="8.8104802"><ele>294.0</ele><time>2026-04-26T09:38:43.987Z</time></trkpt><trkpt lat="45.7894251" lon="8.8104105"><ele>294.0</ele><time>2026-04-26T09:38:44.989Z</time></trkpt><trkpt lat="45.7892936" lon="8.8103418"><ele>294.0</ele><time>2026-04-26T09:38:45.988Z</time></trkpt><trkpt lat="45.7891591" lon="8.8102686"><ele>294.0</ele><time>2026-04-26T09:38:46.989Z</time></trkpt><trkpt lat="45.7890228" lon="8.8102061"><ele>295.0</ele><time>2026-04-26T09:38:47.988Z</time></trkpt><trkpt lat="45.7888786" lon="8.8101309"><ele>296.0</ele><time>2026-04-26T09:38:48.989Z</time></trkpt><trkpt lat="45.7887339" lon="8.8100508"><ele>297.0</ele><time>2026-04-26T09:38:49.988Z</time></trkpt><trkpt lat="45.7885866" lon="8.8099709"><ele>296.3333333333333</ele><time>2026-04-26T09:38:50.987Z</time></trkpt><trkpt lat="45.7884439" lon="8.8098904"><ele>295.66666666666663</ele><time>2026-04-26T09:38:51.988Z</time></trkpt><trkpt lat="45.7882957" lon="8.8098162"><ele>295.0</ele><time>2026-04-26T09:38:52.988Z</time></trkpt><trkpt lat="45.7881393" lon="8.8097291"><ele>295.0</ele><time>2026-04-26T09:38:53.989Z</time></trkpt><trkpt lat="45.7879862" lon="8.8096482"><ele>295.0</ele><time>2026-04-26T09:38:54.988Z</time></trkpt><trkpt lat="45.7878303" lon="8.8095757"><ele>295.0</ele><time>2026-04-26T09:38:55.988Z</time></trkpt><trkpt lat="45.7876739" lon="8.8095048"><ele>295.66666666666663</ele><time>2026-04-26T09:38:56.988Z</time></trkpt><trkpt lat="45.7875099" lon="8.8094433"><ele>296.3333333333333</ele><time>2026-04-26T09:38:57.988Z</time></trkpt><trkpt lat="45.7873484" lon="8.8094043"><ele>297.0</ele><time>2026-04-26T09:38:58.988Z</time></trkpt><trkpt lat="45.7871847" lon="8.809371"><ele>297.0</ele><time>2026-04-26T09:38:59.988Z</time></trkpt><trkpt lat="45.7870216" lon="8.8093504"><ele>297.0</ele><time>2026-04-26T09:39:00.989Z</time></trkpt><trkpt lat="45.7868632" lon="8.8093446"><ele>297.0</ele><time>2026-04-26T09:39:01.989Z</time></trkpt><trkpt lat="45.7867009" lon="8.8093525"><ele>298.3333333333333</ele><time>2026-04-26T09:39:02.988Z</time></trkpt><trkpt lat="45.7865382" lon="8.8093798"><ele>299.66666666666663</ele><time>2026-04-26T09:39:03.989Z</time></trkpt><trkpt lat="45.7863799" lon="8.8094143"><ele>301.0</ele><time>2026-04-26T09:39:04.989Z</time></trkpt><trkpt lat="45.7862243" lon="8.8094666"><ele>301.0</ele><time>2026-04-26T09:39:05.988Z</time></trkpt><trkpt lat="45.7860728" lon="8.8095259"><ele>301.0</ele><time>2026-04-26T09:39:06.989Z</time></trkpt><trkpt lat="45.7859221" lon="8.8096019"><ele>301.0</ele><time>2026-04-26T09:39:07.988Z</time></trkpt><trkpt lat="45.7857677" lon="8.8096774"><ele>303.0</ele><time>2026-04-26T09:39:08.988Z</time></trkpt><trkpt lat="45.7856139" lon="8.8097627"><ele>305.0</ele><time>2026-04-26T09:39:09.988Z</time></trkpt><trkpt lat="45.7854661" lon="8.8098411"><ele>307.0</ele><time>2026-04-26T09:39:10.989Z</time></trkpt><trkpt lat="45.785319" lon="8.8099163"><ele>309.0</ele><time>2026-04-26T09:39:11.988Z</time></trkpt><trkpt lat="45.7851759" lon="8.8099931"><ele>311.0</ele><time>2026-04-26T09:39:12.988Z</time></trkpt><trkpt lat="45.7850315" lon="8.8100624"><ele>313.0</ele><time>2026-04-26T09:39:13.989Z</time></trkpt><trkpt lat="45.7848876" lon="8.8101331"><ele>313.0</ele><time>2026-04-26T09:39:14.988Z</time></trkpt><trkpt lat="45.7847486" lon="8.8101974"><ele>313.0</ele><time>2026-04-26T09:39:15.988Z</time></trkpt><trkpt lat="45.7846044" lon="8.8102535"><ele>313.0</ele><time>2026-04-26T09:39:16.987Z</time></trkpt><trkpt lat="45.7844579" lon="8.8102934"><ele>313.0</ele><time>2026-04-26T09:39:17.989Z</time></trkpt><trkpt lat="45.7843099" lon="8.8103231"><ele>313.0</ele><time>2026-04-26T09:39:18.989Z</time></trkpt><trkpt lat="45.7841556" lon="8.8103423"><ele>313.0</ele><time>2026-04-26T09:39:19.989Z</time></trkpt><trkpt lat="45.784006" lon="8.8103519"><ele>313.0</ele><time>2026-04-26T09:39:20.989Z</time></trkpt><trkpt lat="45.7838549" lon="8.810345"><ele>313.0</ele><time>2026-04-26T09:39:21.988Z</time></trkpt><trkpt lat="45.7837067" lon="8.8103275"><ele>313.0</ele><time>2026-04-26T09:39:22.988Z</time></trkpt><trkpt lat="45.7835633" lon="8.8103025"><ele>313.0</ele><time>2026-04-26T09:39:23.987Z</time></trkpt><trkpt lat="45.7834332" lon="8.8102667"><ele>313.0</ele><time>2026-04-26T09:39:24.987Z</time></trkpt><trkpt lat="45.7832996" lon="8.8102206"><ele>313.5</ele><time>2026-04-26T09:39:25.987Z</time></trkpt><trkpt lat="45.7831677" lon="8.810159"><ele>314.0</ele><time>2026-04-26T09:39:26.987Z</time></trkpt><trkpt lat="45.7830402" lon="8.8100969"><ele>314.5</ele><time>2026-04-26T09:39:27.989Z</time></trkpt><trkpt lat="45.7829199" lon="8.8100374"><ele>315.0</ele><time>2026-04-26T09:39:28.989Z</time></trkpt><trkpt lat="45.7828029" lon="8.8099788"><ele>316.5</ele><time>2026-04-26T09:39:29.988Z</time></trkpt><trkpt lat="45.7826875" lon="8.8099245"><ele>318.0</ele><time>2026-04-26T09:39:30.988Z</time></trkpt><trkpt lat="45.7825761" lon="8.8098672"><ele>319.5</ele><time>2026-04-26T09:39:31.988Z</time></trkpt><trkpt lat="45.7824574" lon="8.809803"><ele>321.0</ele><time>2026-04-26T09:39:32.987Z</time></trkpt><trkpt lat="45.7823352" lon="8.8097415"><ele>321.0</ele><time>2026-04-26T09:39:33.988Z</time></trkpt><trkpt lat="45.7822035" lon="8.8096728"><ele>321.0</ele><time>2026-04-26T09:39:34.988Z</time></trkpt><trkpt lat="45.7820742" lon="8.8096063"><ele>321.0</ele><time>2026-04-26T09:39:35.988Z</time></trkpt><trkpt lat="45.7819459" lon="8.8095393"><ele>321.0</ele><time>2026-04-26T09:39:36.988Z</time></trkpt><trkpt lat="45.7818175" lon="8.8094783"><ele>321.0</ele><time>2026-04-26T09:39:37.988Z</time></trkpt><trkpt lat="45.781683" lon="8.809409"><ele>321.0</ele><time>2026-04-26T09:39:38.988Z</time></trkpt><trkpt lat="45.781549" lon="8.8093348"><ele>321.0</ele><time>2026-04-26T09:39:39.988Z</time></trkpt><trkpt lat="45.781419" lon="8.8092591"><ele>321.0</ele><time>2026-04-26T09:39:40.988Z</time></trkpt><trkpt lat="45.781284" lon="8.8091932"><ele>321.0</ele><time>2026-04-26T09:39:41.989Z</time></trkpt><trkpt lat="45.7811447" lon="8.8091344"><ele>321.0</ele><time>2026-04-26T09:39:42.988Z</time></trkpt><trkpt lat="45.7810051" lon="8.8090766"><ele>321.0</ele><time>2026-04-26T09:39:43.987Z</time></trkpt><trkpt lat="45.7808568" lon="8.8090299"><ele>321.0</ele><time>2026-04-26T09:39:44.988Z</time></trkpt><trkpt lat="45.780705" lon="8.8089813"><ele>320.75</ele><time>2026-04-26T09:39:45.989Z</time></trkpt><trkpt lat="45.780554" lon="8.8089457"><ele>320.5</ele><time>2026-04-26T09:39:46.989Z</time></trkpt><trkpt lat="45.7804024" lon="8.8089168"><ele>320.25</ele><time>2026-04-26T09:39:47.989Z</time></trkpt><trkpt lat="45.7802609" lon="8.8088937"><ele>320.0</ele><time>2026-04-26T09:39:48.988Z</time></trkpt><trkpt lat="45.7801152" lon="8.8088737"><ele>320.0</ele><time>2026-04-26T09:39:49.988Z</time></trkpt><trkpt lat="45.7799659" lon="8.8088634"><ele>320.0</ele><time>2026-04-26T09:39:50.989Z</time></trkpt><trkpt lat="45.779816" lon="8.8088585"><ele>320.0</ele><time>2026-04-26T09:39:51.989Z</time></trkpt><trkpt lat="45.7796642" lon="8.8088631"><ele>320.0</ele><time>2026-04-26T09:39:52.989Z</time></trkpt><trkpt lat="45.7795198" lon="8.8088804"><ele>320.0</ele><time>2026-04-26T09:39:53.987Z</time></trkpt><trkpt lat="45.7793736" lon="8.8089044"><ele>320.0</ele><time>2026-04-26T09:39:54.988Z</time></trkpt><trkpt lat="45.779226" lon="8.8089255"><ele>320.0</ele><time>2026-04-26T09:39:55.988Z</time></trkpt><trkpt lat="45.7790799" lon="8.8089559"><ele>320.25</ele><time>2026-04-26T09:39:56.988Z</time></trkpt><trkpt lat="45.7789391" lon="8.808994"><ele>320.5</ele><time>2026-04-26T09:39:57.989Z</time></trkpt><trkpt lat="45.7787979" lon="8.8090339"><ele>320.75</ele><time>2026-04-26T09:39:58.988Z</time></trkpt><trkpt lat="45.7786609" lon="8.8090805"><ele>321.0</ele><time>2026-04-26T09:39:59.988Z</time></trkpt><trkpt lat="45.7785203" lon="8.8091274"><ele>322.0</ele><time>2026-04-26T09:40:00.988Z</time></trkpt><trkpt lat="45.7783888" lon="8.8091795"><ele>323.0</ele><time>2026-04-26T09:40:01.988Z</time></trkpt><trkpt lat="45.778255" lon="8.8092218"><ele>324.0</ele><time>2026-04-26T09:40:02.988Z</time></trkpt><trkpt lat="45.7781231" lon="8.809263"><ele>325.0</ele><time>2026-04-26T09:40:03.988Z</time></trkpt><trkpt lat="45.777985" lon="8.8093032"><ele>326.0</ele><time>2026-04-26T09:40:04.987Z</time></trkpt><trkpt lat="45.7778472" lon="8.8093478"><ele>327.0</ele><time>2026-04-26T09:40:05.988Z</time></trkpt><trkpt lat="45.7777045" lon="8.8093894"><ele>328.0</ele><time>2026-04-26T09:40:06.989Z</time></trkpt><trkpt lat="45.7775626" lon="8.8094398"><ele>329.0</ele><time>2026-04-26T09:40:07.988Z</time></trkpt><trkpt lat="45.7774213" lon="8.8094836"><ele>329.75</ele><time>2026-04-26T09:40:08.988Z</time></trkpt><trkpt lat="45.7772799" lon="8.8095336"><ele>330.5</ele><time>2026-04-26T09:40:09.988Z</time></trkpt><trkpt lat="45.7771358" lon="8.8095803"><ele>331.25</ele><time>2026-04-26T09:40:10.989Z</time></trkpt><trkpt lat="45.7769952" lon="8.8096226"><ele>332.0</ele><time>2026-04-26T09:40:11.989Z</time></trkpt><trkpt lat="45.7768583" lon="8.8096662"><ele>333.75</ele><time>2026-04-26T09:40:12.989Z</time></trkpt><trkpt lat="45.7767183" lon="8.8097077"><ele>335.5</ele><time>2026-04-26T09:40:13.988Z</time></trkpt><trkpt lat="45.7765754" lon="8.8097565"><ele>337.25</ele><time>2026-04-26T09:40:14.989Z</time></trkpt><trkpt lat="45.776428" lon="8.8098049"><ele>339.0</ele><time>2026-04-26T09:40:15.988Z</time></trkpt><trkpt lat="45.776284" lon="8.8098485"><ele>339.0</ele><time>2026-04-26T09:40:16.988Z</time></trkpt><trkpt lat="45.7761448" lon="8.8098925"><ele>339.0</ele><time>2026-04-26T09:40:17.987Z</time></trkpt><trkpt lat="45.7760081" lon="8.8099358"><ele>339.0</ele><time>2026-04-26T09:40:18.987Z</time></trkpt><trkpt lat="45.7758728" lon="8.8099812"><ele>339.0</ele><time>2026-04-26T09:40:19.988Z</time></trkpt><trkpt lat="45.7757364" lon="8.8100283"><ele>341.75</ele><time>2026-04-26T09:40:20.988Z</time></trkpt><trkpt lat="45.7755987" lon="8.8100732"><ele>344.5</ele><time>2026-04-26T09:40:21.987Z</time></trkpt><trkpt lat="45.7754594" lon="8.8101161"><ele>347.25</ele><time>2026-04-26T09:40:22.989Z</time></trkpt><trkpt lat="45.7753139" lon="8.8101599"><ele>350.0</ele><time>2026-04-26T09:40:23.988Z</time></trkpt><trkpt lat="45.775167" lon="8.8102055"><ele>351.33333333333337</ele><time>2026-04-26T09:40:24.988Z</time></trkpt><trkpt lat="45.7750111" lon="8.8102582"><ele>352.6666666666667</ele><time>2026-04-26T09:40:25.989Z</time></trkpt><trkpt lat="45.7748582" lon="8.8103062"><ele>354.0</ele><time>2026-04-26T09:40:26.989Z</time></trkpt><trkpt lat="45.7747058" lon="8.8103605"><ele>354.0</ele><time>2026-04-26T09:40:27.989Z</time></trkpt><trkpt lat="45.7745546" lon="8.8104248"><ele>354.0</ele><time>2026-04-26T09:40:28.988Z</time></trkpt><trkpt lat="45.7744063" lon="8.8104947"><ele>354.0</ele><time>2026-04-26T09:40:29.988Z</time></trkpt><trkpt lat="45.7742575" lon="8.8105784"><ele>354.0</ele><time>2026-04-26T09:40:30.987Z</time></trkpt><trkpt lat="45.774114" lon="8.8106782"><ele>354.0</ele><time>2026-04-26T09:40:31.988Z</time></trkpt><trkpt lat="45.7739719" lon="8.8107934"><ele>354.0</ele><time>2026-04-26T09:40:32.988Z</time></trkpt><trkpt lat="45.7738366" lon="8.8109307"><ele>354.0</ele><time>2026-04-26T09:40:33.988Z</time></trkpt><trkpt lat="45.773702" lon="8.8110876"><ele>354.0</ele><time>2026-04-26T09:40:34.988Z</time></trkpt><trkpt lat="45.773568" lon="8.8112545"><ele>354.0</ele><time>2026-04-26T09:40:35.987Z</time></trkpt><trkpt lat="45.7734354" lon="8.8114362"><ele>352.3333333333333</ele><time>2026-04-26T09:40:36.988Z</time></trkpt><trkpt lat="45.7733136" lon="8.8116373"><ele>350.66666666666663</ele><time>2026-04-26T09:40:37.989Z</time></trkpt><trkpt lat="45.7732068" lon="8.8118595"><ele>349.0</ele><time>2026-04-26T09:40:38.988Z</time></trkpt><trkpt lat="45.7731041" lon="8.8120973"><ele>348.3333333333333</ele><time>2026-04-26T09:40:39.988Z</time></trkpt><trkpt lat="45.7730181" lon="8.8123494"><ele>347.6666666666667</ele><time>2026-04-26T09:40:40.989Z</time></trkpt><trkpt lat="45.7729373" lon="8.8126009"><ele>347.0</ele><time>2026-04-26T09:40:41.989Z</time></trkpt><trkpt lat="45.7728585" lon="8.8128582"><ele>347.33333333333337</ele><time>2026-04-26T09:40:42.988Z</time></trkpt><trkpt lat="45.7727881" lon="8.8131231"><ele>347.6666666666667</ele><time>2026-04-26T09:40:43.988Z</time></trkpt><trkpt lat="45.7727167" lon="8.8133886"><ele>348.0</ele><time>2026-04-26T09:40:44.988Z</time></trkpt><trkpt lat="45.7726452" lon="8.8136548"><ele>348.0</ele><time>2026-04-26T09:40:45.989Z</time></trkpt><trkpt lat="45.7725692" lon="8.8139165"><ele>348.0</ele><time>2026-04-26T09:40:46.988Z</time></trkpt><trkpt lat="45.7725008" lon="8.8141687"><ele>348.0</ele><time>2026-04-26T09:40:47.989Z</time></trkpt><trkpt lat="45.772434" lon="8.8144095"><ele>348.3333333333333</ele><time>2026-04-26T09:40:48.988Z</time></trkpt><trkpt lat="45.7723699" lon="8.8146454"><ele>348.66666666666663</ele><time>2026-04-26T09:40:49.988Z</time></trkpt><trkpt lat="45.7723086" lon="8.8148796"><ele>349.0</ele><time>2026-04-26T09:40:50.988Z</time></trkpt><trkpt lat="45.7722492" lon="8.8151056"><ele>349.0</ele><time>2026-04-26T09:40:51.989Z</time></trkpt><trkpt lat="45.7721888" lon="8.8153366"><ele>349.0</ele><time>2026-04-26T09:40:52.989Z</time></trkpt><trkpt lat="45.7721219" lon="8.815561"><ele>349.0</ele><time>2026-04-26T09:40:53.989Z</time></trkpt><trkpt lat="45.7720547" lon="8.815777"><ele>348.66666666666663</ele><time>2026-04-26T09:40:54.989Z</time></trkpt><trkpt lat="45.7719874" lon="8.8160005"><ele>348.3333333333333</ele><time>2026-04-26T09:40:55.989Z</time></trkpt><trkpt lat="45.7719208" lon="8.816211"><ele>348.0</ele><time>2026-04-26T09:40:56.987Z</time></trkpt><trkpt lat="45.7718547" lon="8.8164074"><ele>348.3333333333333</ele><time>2026-04-26T09:40:57.988Z</time></trkpt><trkpt lat="45.7717897" lon="8.8166131"><ele>348.66666666666663</ele><time>2026-04-26T09:40:58.987Z</time></trkpt><trkpt lat="45.7717188" lon="8.8168269"><ele>349.0</ele><time>2026-04-26T09:40:59.988Z</time></trkpt><trkpt lat="45.7716526" lon="8.8170439"><ele>349.0</ele><time>2026-04-26T09:41:00.988Z</time></trkpt><trkpt lat="45.7715819" lon="8.817254"><ele>349.0</ele><time>2026-04-26T09:41:01.987Z</time></trkpt><trkpt lat="45.7715158" lon="8.8174652"><ele>349.0</ele><time>2026-04-26T09:41:02.988Z</time></trkpt><trkpt lat="45.7714519" lon="8.8176884"><ele>348.66666666666663</ele><time>2026-04-26T09:41:03.988Z</time></trkpt><trkpt lat="45.7713908" lon="8.8179217"><ele>348.3333333333333</ele><time>2026-04-26T09:41:04.989Z</time></trkpt><trkpt lat="45.7713273" lon="8.8181785"><ele>348.0</ele><time>2026-04-26T09:41:05.989Z</time></trkpt><trkpt lat="45.7712547" lon="8.8184494"><ele>349.0</ele><time>2026-04-26T09:41:06.989Z</time></trkpt><trkpt lat="45.7711778" lon="8.8187325"><ele>350.0</ele><time>2026-04-26T09:41:07.989Z</time></trkpt><trkpt lat="45.7710961" lon="8.8190256"><ele>351.0</ele><time>2026-04-26T09:41:08.988Z</time></trkpt><trkpt lat="45.7710048" lon="8.8193303"><ele>353.0</ele><time>2026-04-26T09:41:09.989Z</time></trkpt><trkpt lat="45.7709132" lon="8.8196428"><ele>355.0</ele><time>2026-04-26T09:41:10.989Z</time></trkpt><trkpt lat="45.7708293" lon="8.8199463"><ele>355.0</ele><time>2026-04-26T09:41:11.989Z</time></trkpt><trkpt lat="45.7707378" lon="8.8202322"><ele>355.0</ele><time>2026-04-26T09:41:12.988Z</time></trkpt><trkpt lat="45.7706405" lon="8.8204947"><ele>355.0</ele><time>2026-04-26T09:41:13.989Z</time></trkpt><trkpt lat="45.7705407" lon="8.8207419"><ele>355.0</ele><time>2026-04-26T09:41:14.989Z</time></trkpt><trkpt lat="45.7704282" lon="8.8209707"><ele>355.0</ele><time>2026-04-26T09:41:15.989Z</time></trkpt><trkpt lat="45.7703006" lon="8.8211911"><ele>355.0</ele><time>2026-04-26T09:41:16.988Z</time></trkpt><trkpt lat="45.7701729" lon="8.8213939"><ele>356.0</ele><time>2026-04-26T09:41:17.989Z</time></trkpt><trkpt lat="45.7700638" lon="8.821598"><ele>357.0</ele><time>2026-04-26T09:41:18.989Z</time></trkpt><trkpt lat="45.7699703" lon="8.8217914"><ele>358.0</ele><time>2026-04-26T09:41:19.989Z</time></trkpt><trkpt lat="45.7698976" lon="8.821987"><ele>358.0</ele><time>2026-04-26T09:41:20.989Z</time></trkpt><trkpt lat="45.7698448" lon="8.822189"><ele>358.0</ele><time>2026-04-26T09:41:21.988Z</time></trkpt><trkpt lat="45.7698196" lon="8.8224012"><ele>358.0</ele><time>2026-04-26T09:41:22.989Z</time></trkpt><trkpt lat="45.7698305" lon="8.8226121"><ele>358.0</ele><time>2026-04-26T09:41:23.988Z</time></trkpt><trkpt lat="45.7698715" lon="8.822811"><ele>359.0</ele><time>2026-04-26T09:41:24.988Z</time></trkpt><trkpt lat="45.7699371" lon="8.8229904"><ele>360.0</ele><time>2026-04-26T09:41:25.989Z</time></trkpt><trkpt lat="45.7700251" lon="8.8231418"><ele>361.0</ele><time>2026-04-26T09:41:26.989Z</time></trkpt><trkpt lat="45.7701256" lon="8.8232841"><ele>362.0</ele><time>2026-04-26T09:41:27.989Z</time></trkpt><trkpt lat="45.7702386" lon="8.8234176"><ele>363.25</ele><time>2026-04-26T09:41:28.988Z</time></trkpt><trkpt lat="45.7703513" lon="8.823554"><ele>364.5</ele><time>2026-04-26T09:41:29.989Z</time></trkpt><trkpt lat="45.7704685" lon="8.8236916"><ele>365.75</ele><time>2026-04-26T09:41:30.988Z</time></trkpt><trkpt lat="45.7705865" lon="8.8238089"><ele>367.0</ele><time>2026-04-26T09:41:31.988Z</time></trkpt><trkpt lat="45.7707023" lon="8.8239257"><ele>367.0</ele><time>2026-04-26T09:41:32.988Z</time></trkpt><trkpt lat="45.7708122" lon="8.8240518"><ele>367.0</ele><time>2026-04-26T09:41:33.988Z</time></trkpt><trkpt lat="45.7709407" lon="8.8241819"><ele>367.0</ele><time>2026-04-26T09:41:34.988Z</time></trkpt><trkpt lat="45.7710572" lon="8.8243042"><ele>367.0</ele><time>2026-04-26T09:41:35.988Z</time></trkpt><trkpt lat="45.7711656" lon="8.8244214"><ele>367.0</ele><time>2026-04-26T09:41:36.988Z</time></trkpt><trkpt lat="45.771281" lon="8.8245379"><ele>367.0</ele><time>2026-04-26T09:41:37.989Z</time></trkpt><trkpt lat="45.7714006" lon="8.8246553"><ele>367.0</ele><time>2026-04-26T09:41:38.989Z</time></trkpt><trkpt lat="45.7715134" lon="8.8247785"><ele>367.0</ele><time>2026-04-26T09:41:39.988Z</time></trkpt><trkpt lat="45.7716309" lon="8.8248949"><ele>367.0</ele><time>2026-04-26T09:41:40.989Z</time></trkpt><trkpt lat="45.7717427" lon="8.8250127"><ele>367.0</ele><time>2026-04-26T09:41:41.989Z</time></trkpt><trkpt lat="45.7718571" lon="8.8251358"><ele>367.0</ele><time>2026-04-26T09:41:42.987Z</time></trkpt><trkpt lat="45.7719804" lon="8.8252547"><ele>367.0</ele><time>2026-04-26T09:41:43.988Z</time></trkpt><trkpt lat="45.7720922" lon="8.8253701"><ele>367.5</ele><time>2026-04-26T09:41:44.987Z</time></trkpt><trkpt lat="45.7721988" lon="8.8254799"><ele>368.0</ele><time>2026-04-26T09:41:45.989Z</time></trkpt><trkpt lat="45.7723088" lon="8.8255934"><ele>368.5</ele><time>2026-04-26T09:41:46.988Z</time></trkpt><trkpt lat="45.7724138" lon="8.8257069"><ele>369.0</ele><time>2026-04-26T09:41:47.988Z</time></trkpt><trkpt lat="45.7725145" lon="8.8258139"><ele>369.0</ele><time>2026-04-26T09:41:48.987Z</time></trkpt><trkpt lat="45.7726116" lon="8.8259219"><ele>369.0</ele><time>2026-04-26T09:41:49.988Z</time></trkpt><trkpt lat="45.7727041" lon="8.826022"><ele>369.0</ele><time>2026-04-26T09:41:50.989Z</time></trkpt><trkpt lat="45.7727955" lon="8.8261151"><ele>369.0</ele><time>2026-04-26T09:41:51.988Z</time></trkpt><trkpt lat="45.7728814" lon="8.8262012"><ele>369.6</ele><time>2026-04-26T09:41:52.989Z</time></trkpt><trkpt lat="45.7729572" lon="8.8262938"><ele>370.2</ele><time>2026-04-26T09:41:53.987Z</time></trkpt><trkpt lat="45.7730283" lon="8.826376"><ele>370.8</ele><time>2026-04-26T09:41:54.988Z</time></trkpt><trkpt lat="45.7730897" lon="8.8264597"><ele>371.40000000000003</ele><time>2026-04-26T09:41:55.989Z</time></trkpt><trkpt lat="45.7731317" lon="8.8265397"><ele>372.0</ele><time>2026-04-26T09:41:56.989Z</time></trkpt><trkpt lat="45.7731909" lon="8.8267055"><ele>373.20000000000005</ele><time>2026-04-26T09:41:58.987Z</time></trkpt><trkpt lat="45.7732046" lon="8.8268208"><ele>374.4</ele><time>2026-04-26T09:41:59.987Z</time></trkpt><trkpt lat="45.7732344" lon="8.8269393"><ele>375.6</ele><time>2026-04-26T09:42:00.988Z</time></trkpt><trkpt lat="45.7732943" lon="8.8270274"><ele>376.79999999999995</ele><time>2026-04-26T09:42:01.987Z</time></trkpt><trkpt lat="45.7733887" lon="8.8270762"><ele>378.0</ele><time>2026-04-26T09:42:02.988Z</time></trkpt><trkpt lat="45.7735007" lon="8.8270947"><ele>376.75</ele><time>2026-04-26T09:42:03.987Z</time></trkpt><trkpt lat="45.7736196" lon="8.8271125"><ele>375.5</ele><time>2026-04-26T09:42:04.987Z</time></trkpt><trkpt lat="45.7737396" lon="8.827185"><ele>374.25</ele><time>2026-04-26T09:42:05.988Z</time></trkpt><trkpt lat="45.7738669" lon="8.8272773"><ele>373.0</ele><time>2026-04-26T09:42:06.987Z</time></trkpt><trkpt lat="45.7740002" lon="8.8273882"><ele>373.0</ele><time>2026-04-26T09:42:07.987Z</time></trkpt><trkpt lat="45.7741328" lon="8.8275058"><ele>373.0</ele><time>2026-04-26T09:42:08.988Z</time></trkpt><trkpt lat="45.774269" lon="8.827644"><ele>373.0</ele><time>2026-04-26T09:42:09.987Z</time></trkpt><trkpt lat="45.7744093" lon="8.8277842"><ele>373.0</ele><time>2026-04-26T09:42:10.988Z</time></trkpt><trkpt lat="45.7745485" lon="8.8279325"><ele>373.0</ele><time>2026-04-26T09:42:11.988Z</time></trkpt><trkpt lat="45.7746918" lon="8.8280791"><ele>373.0</ele><time>2026-04-26T09:42:12.987Z</time></trkpt><trkpt lat="45.7748402" lon="8.828236"><ele>373.0</ele><time>2026-04-26T09:42:13.987Z</time></trkpt><trkpt lat="45.7749879" lon="8.8283862"><ele>373.0</ele><time>2026-04-26T09:42:14.988Z</time></trkpt><trkpt lat="45.7751369" lon="8.8285384"><ele>373.0</ele><time>2026-04-26T09:42:15.988Z</time></trkpt><trkpt lat="45.7752876" lon="8.8286925"><ele>372.0</ele><time>2026-04-26T09:42:16.988Z</time></trkpt><trkpt lat="45.7754398" lon="8.8288455"><ele>371.0</ele><time>2026-04-26T09:42:17.988Z</time></trkpt><trkpt lat="45.775591" lon="8.8290042"><ele>370.0</ele><time>2026-04-26T09:42:18.989Z</time></trkpt><trkpt lat="45.775745" lon="8.8291649"><ele>370.0</ele><time>2026-04-26T09:42:19.989Z</time></trkpt><trkpt lat="45.775898" lon="8.829319"><ele>370.0</ele><time>2026-04-26T09:42:20.987Z</time></trkpt><trkpt lat="45.7760507" lon="8.8294776"><ele>370.0</ele><time>2026-04-26T09:42:21.988Z</time></trkpt><trkpt lat="45.7761979" lon="8.8296266"><ele>370.0</ele><time>2026-04-26T09:42:22.987Z</time></trkpt><trkpt lat="45.7763407" lon="8.8297733"><ele>370.0</ele><time>2026-04-26T09:42:23.989Z</time></trkpt><trkpt lat="45.776478" lon="8.829913"><ele>370.0</ele><time>2026-04-26T09:42:24.988Z</time></trkpt><trkpt lat="45.7766211" lon="8.8300559"><ele>370.66666666666663</ele><time>2026-04-26T09:42:25.988Z</time></trkpt><trkpt lat="45.7767606" lon="8.830202"><ele>371.3333333333333</ele><time>2026-04-26T09:42:26.988Z</time></trkpt><trkpt lat="45.7768985" lon="8.8303426"><ele>372.0</ele><time>2026-04-26T09:42:27.988Z</time></trkpt><trkpt lat="45.7770358" lon="8.8304822"><ele>372.0</ele><time>2026-04-26T09:42:28.986Z</time></trkpt><trkpt lat="45.7771625" lon="8.8306265"><ele>372.0</ele><time>2026-04-26T09:42:29.987Z</time></trkpt><trkpt lat="45.7772886" lon="8.8307734"><ele>372.0</ele><time>2026-04-26T09:42:30.988Z</time></trkpt><trkpt lat="45.7774077" lon="8.8309185"><ele>372.0</ele><time>2026-04-26T09:42:31.988Z</time></trkpt><trkpt lat="45.777527" lon="8.831071"><ele>372.0</ele><time>2026-04-26T09:42:32.988Z</time></trkpt><trkpt lat="45.7776428" lon="8.8312312"><ele>372.0</ele><time>2026-04-26T09:42:33.988Z</time></trkpt><trkpt lat="45.7777637" lon="8.8313984"><ele>371.6666666666667</ele><time>2026-04-26T09:42:34.987Z</time></trkpt><trkpt lat="45.777877" lon="8.8315764"><ele>371.33333333333337</ele><time>2026-04-26T09:42:35.986Z</time></trkpt><trkpt lat="45.7779736" lon="8.8317498"><ele>371.0</ele><time>2026-04-26T09:42:36.987Z</time></trkpt><trkpt lat="45.7780683" lon="8.8319206"><ele>371.0</ele><time>2026-04-26T09:42:37.988Z</time></trkpt><trkpt lat="45.7781518" lon="8.832101"><ele>371.0</ele><time>2026-04-26T09:42:38.987Z</time></trkpt><trkpt lat="45.7782279" lon="8.8322807"><ele>371.0</ele><time>2026-04-26T09:42:39.987Z</time></trkpt><trkpt lat="45.7783054" lon="8.8324615"><ele>371.0</ele><time>2026-04-26T09:42:40.987Z</time></trkpt><trkpt lat="45.778378" lon="8.8326599"><ele>371.6666666666667</ele><time>2026-04-26T09:42:41.988Z</time></trkpt><trkpt lat="45.7784427" lon="8.8328577"><ele>372.3333333333333</ele><time>2026-04-26T09:42:42.987Z</time></trkpt><trkpt lat="45.7785018" lon="8.8330542"><ele>373.0</ele><time>2026-04-26T09:42:43.988Z</time></trkpt><trkpt lat="45.7785528" lon="8.8332572"><ele>375.0</ele><time>2026-04-26T09:42:44.987Z</time></trkpt><trkpt lat="45.7786046" lon="8.8334618"><ele>377.0</ele><time>2026-04-26T09:42:45.987Z</time></trkpt><trkpt lat="45.7786481" lon="8.8336746"><ele>379.0</ele><time>2026-04-26T09:42:46.987Z</time></trkpt><trkpt lat="45.7786841" lon="8.8338941"><ele>379.3333333333333</ele><time>2026-04-26T09:42:47.987Z</time></trkpt><trkpt lat="45.7787153" lon="8.8341158"><ele>379.6666666666667</ele><time>2026-04-26T09:42:48.988Z</time></trkpt><trkpt lat="45.778738" lon="8.8343471"><ele>380.0</ele><time>2026-04-26T09:42:49.988Z</time></trkpt><trkpt lat="45.7787526" lon="8.8345858"><ele>380.33333333333337</ele><time>2026-04-26T09:42:50.986Z</time></trkpt><trkpt lat="45.7787625" lon="8.8348255"><ele>380.6666666666667</ele><time>2026-04-26T09:42:51.987Z</time></trkpt><trkpt lat="45.7787636" lon="8.8350642"><ele>381.0</ele><time>2026-04-26T09:42:52.987Z</time></trkpt><trkpt lat="45.7787624" lon="8.8353039"><ele>381.3333333333333</ele><time>2026-04-26T09:42:53.988Z</time></trkpt><trkpt lat="45.7787507" lon="8.8355424"><ele>381.66666666666663</ele><time>2026-04-26T09:42:54.988Z</time></trkpt><trkpt lat="45.7787379" lon="8.8357799"><ele>382.0</ele><time>2026-04-26T09:42:55.988Z</time></trkpt><trkpt lat="45.7787084" lon="8.8359968"><ele>382.0</ele><time>2026-04-26T09:42:56.988Z</time></trkpt><trkpt lat="45.7786799" lon="8.8362198"><ele>382.0</ele><time>2026-04-26T09:42:57.988Z</time></trkpt><trkpt lat="45.7786462" lon="8.8364454"><ele>382.0</ele><time>2026-04-26T09:42:58.987Z</time></trkpt><trkpt lat="45.7786106" lon="8.8366701"><ele>382.3333333333333</ele><time>2026-04-26T09:42:59.986Z</time></trkpt><trkpt lat="45.7785641" lon="8.8369005"><ele>382.6666666666667</ele><time>2026-04-26T09:43:00.987Z</time></trkpt><trkpt lat="45.7785194" lon="8.837131"><ele>383.0</ele><time>2026-04-26T09:43:01.988Z</time></trkpt><trkpt lat="45.7784758" lon="8.8373665"><ele>380.33333333333337</ele><time>2026-04-26T09:43:02.988Z</time></trkpt><trkpt lat="45.778429" lon="8.8376054"><ele>377.6666666666667</ele><time>2026-04-26T09:43:03.988Z</time></trkpt><trkpt lat="45.7783831" lon="8.8378257"><ele>375.0</ele><time>2026-04-26T09:43:04.988Z</time></trkpt><trkpt lat="45.7783341" lon="8.8380318"><ele>374.75</ele><time>2026-04-26T09:43:05.988Z</time></trkpt><trkpt lat="45.7782865" lon="8.8382342"><ele>374.5</ele><time>2026-04-26T09:43:06.986Z</time></trkpt><trkpt lat="45.7782477" lon="8.8384391"><ele>374.25</ele><time>2026-04-26T09:43:07.987Z</time></trkpt><trkpt lat="45.7782036" lon="8.8386385"><ele>374.0</ele><time>2026-04-26T09:43:08.987Z</time></trkpt><trkpt lat="45.7781565" lon="8.8388396"><ele>373.25</ele><time>2026-04-26T09:43:09.988Z</time></trkpt><trkpt lat="45.778114" lon="8.8390487"><ele>372.5</ele><time>2026-04-26T09:43:10.987Z</time></trkpt><trkpt lat="45.7780711" lon="8.8392484"><ele>371.75</ele><time>2026-04-26T09:43:11.987Z</time></trkpt><trkpt lat="45.7780316" lon="8.8394417"><ele>371.0</ele><time>2026-04-26T09:43:12.987Z</time></trkpt><trkpt lat="45.7779874" lon="8.839641"><ele>370.5</ele><time>2026-04-26T09:43:13.988Z</time></trkpt><trkpt lat="45.7779478" lon="8.8398419"><ele>370.0</ele><time>2026-04-26T09:43:14.987Z</time></trkpt><trkpt lat="45.7779036" lon="8.8400422"><ele>369.5</ele><time>2026-04-26T09:43:15.986Z</time></trkpt><trkpt lat="45.7778597" lon="8.8402483"><ele>369.0</ele><time>2026-04-26T09:43:16.987Z</time></trkpt><trkpt lat="45.777824" lon="8.8404529"><ele>368.75</ele><time>2026-04-26T09:43:17.988Z</time></trkpt><trkpt lat="45.7777776" lon="8.8406568"><ele>368.5</ele><time>2026-04-26T09:43:18.987Z</time></trkpt><trkpt lat="45.7777328" lon="8.840858"><ele>368.25</ele><time>2026-04-26T09:43:19.988Z</time></trkpt><trkpt lat="45.7776903" lon="8.8410523"><ele>368.0</ele><time>2026-04-26T09:43:20.986Z</time></trkpt><trkpt lat="45.777647" lon="8.8412454"><ele>367.75</ele><time>2026-04-26T09:43:21.986Z</time></trkpt><trkpt lat="45.777602" lon="8.8414402"><ele>367.5</ele><time>2026-04-26T09:43:22.987Z</time></trkpt><trkpt lat="45.7775572" lon="8.8416365"><ele>367.25</ele><time>2026-04-26T09:43:23.988Z</time></trkpt><trkpt lat="45.7775144" lon="8.8418247"><ele>367.0</ele><time>2026-04-26T09:43:24.988Z</time></trkpt><trkpt lat="45.7774705" lon="8.842006"><ele>367.0</ele><time>2026-04-26T09:43:25.987Z</time></trkpt><trkpt lat="45.7774226" lon="8.8421911"><ele>367.0</ele><time>2026-04-26T09:43:26.988Z</time></trkpt><trkpt lat="45.777365" lon="8.8423705"><ele>367.0</ele><time>2026-04-26T09:43:27.987Z</time></trkpt><trkpt lat="45.7773014" lon="8.8425605"><ele>367.0</ele><time>2026-04-26T09:43:28.987Z</time></trkpt><trkpt lat="45.7772286" lon="8.8427438"><ele>366.0</ele><time>2026-04-26T09:43:29.988Z</time></trkpt><trkpt lat="45.777148" lon="8.8429321"><ele>365.0</ele><time>2026-04-26T09:43:30.988Z</time></trkpt><trkpt lat="45.7770654" lon="8.8431093"><ele>364.0</ele><time>2026-04-26T09:43:31.987Z</time></trkpt><trkpt lat="45.7769735" lon="8.8432797"><ele>364.0</ele><time>2026-04-26T09:43:32.987Z</time></trkpt><trkpt lat="45.7768769" lon="8.843428"><ele>364.0</ele><time>2026-04-26T09:43:33.987Z</time></trkpt><trkpt lat="45.7767773" lon="8.8435746"><ele>364.0</ele><time>2026-04-26T09:43:34.986Z</time></trkpt><trkpt lat="45.7766734" lon="8.8437103"><ele>364.0</ele><time>2026-04-26T09:43:35.988Z</time></trkpt><trkpt lat="45.7765673" lon="8.8438376"><ele>363.0</ele><time>2026-04-26T09:43:36.987Z</time></trkpt><trkpt lat="45.7764588" lon="8.8439591"><ele>362.0</ele><time>2026-04-26T09:43:37.988Z</time></trkpt><trkpt lat="45.7763475" lon="8.8440803"><ele>361.0</ele><time>2026-04-26T09:43:38.988Z</time></trkpt><trkpt lat="45.7762316" lon="8.8441937"><ele>360.0</ele><time>2026-04-26T09:43:39.987Z</time></trkpt><trkpt lat="45.776116" lon="8.8443058"><ele>359.5</ele><time>2026-04-26T09:43:40.987Z</time></trkpt><trkpt lat="45.7760018" lon="8.8444212"><ele>359.0</ele><time>2026-04-26T09:43:41.988Z</time></trkpt><trkpt lat="45.7758815" lon="8.844547"><ele>358.5</ele><time>2026-04-26T09:43:42.987Z</time></trkpt><trkpt lat="45.775754" lon="8.8446699"><ele>358.0</ele><time>2026-04-26T09:43:43.987Z</time></trkpt><trkpt lat="45.7756355" lon="8.8447956"><ele>358.0</ele><time>2026-04-26T09:43:44.988Z</time></trkpt><trkpt lat="45.775518" lon="8.8449184"><ele>358.0</ele><time>2026-04-26T09:43:45.988Z</time></trkpt><trkpt lat="45.7753989" lon="8.845035"><ele>358.0</ele><time>2026-04-26T09:43:46.987Z</time></trkpt><trkpt lat="45.7752808" lon="8.8451597"><ele>358.0</ele><time>2026-04-26T09:43:47.987Z</time></trkpt><trkpt lat="45.7751603" lon="8.8452795"><ele>357.75</ele><time>2026-04-26T09:43:48.986Z</time></trkpt><trkpt lat="45.7750435" lon="8.8454015"><ele>357.5</ele><time>2026-04-26T09:43:49.987Z</time></trkpt><trkpt lat="45.7749255" lon="8.8455223"><ele>357.25</ele><time>2026-04-26T09:43:50.987Z</time></trkpt><trkpt lat="45.7748085" lon="8.8456397"><ele>357.0</ele><time>2026-04-26T09:43:51.988Z</time></trkpt><trkpt lat="45.7746953" lon="8.8457581"><ele>357.0</ele><time>2026-04-26T09:43:52.987Z</time></trkpt><trkpt lat="45.7745802" lon="8.8458781"><ele>357.0</ele><time>2026-04-26T09:43:53.987Z</time></trkpt><trkpt lat="45.7744623" lon="8.8459996"><ele>357.0</ele><time>2026-04-26T09:43:54.986Z</time></trkpt><trkpt lat="45.7743379" lon="8.8461233"><ele>357.0</ele><time>2026-04-26T09:43:55.987Z</time></trkpt><trkpt lat="45.7742148" lon="8.8462507"><ele>356.75</ele><time>2026-04-26T09:43:56.988Z</time></trkpt><trkpt lat="45.7740899" lon="8.8463806"><ele>356.5</ele><time>2026-04-26T09:43:57.986Z</time></trkpt><trkpt lat="45.773973" lon="8.8464983"><ele>356.25</ele><time>2026-04-26T09:43:58.988Z</time></trkpt><trkpt lat="45.7738547" lon="8.8466174"><ele>356.0</ele><time>2026-04-26T09:43:59.988Z</time></trkpt><trkpt lat="45.7737374" lon="8.8467357"><ele>356.0</ele><time>2026-04-26T09:44:00.987Z</time></trkpt><trkpt lat="45.7736203" lon="8.8468581"><ele>356.0</ele><time>2026-04-26T09:44:01.988Z</time></trkpt><trkpt lat="45.7735062" lon="8.8469979"><ele>356.0</ele><time>2026-04-26T09:44:02.988Z</time></trkpt><trkpt lat="45.7733971" lon="8.8471472"><ele>356.0</ele><time>2026-04-26T09:44:03.987Z</time></trkpt><trkpt lat="45.773295" lon="8.847309"><ele>351.6666666666667</ele><time>2026-04-26T09:44:04.988Z</time></trkpt><trkpt lat="45.7731973" lon="8.8474824"><ele>347.3333333333333</ele><time>2026-04-26T09:44:05.988Z</time></trkpt><trkpt lat="45.7731094" lon="8.8476723"><ele>343.0</ele><time>2026-04-26T09:44:06.988Z</time></trkpt><trkpt lat="45.7730349" lon="8.8478615"><ele>342.3333333333333</ele><time>2026-04-26T09:44:07.986Z</time></trkpt><trkpt lat="45.7729685" lon="8.8480611"><ele>341.6666666666667</ele><time>2026-04-26T09:44:08.987Z</time></trkpt><trkpt lat="45.7729081" lon="8.8482571"><ele>341.0</ele><time>2026-04-26T09:44:09.987Z</time></trkpt><trkpt lat="45.7728531" lon="8.8484656"><ele>341.0</ele><time>2026-04-26T09:44:10.987Z</time></trkpt><trkpt lat="45.7728141" lon="8.8486816"><ele>341.0</ele><time>2026-04-26T09:44:11.987Z</time></trkpt><trkpt lat="45.7727835" lon="8.8489038"><ele>341.0</ele><time>2026-04-26T09:44:12.987Z</time></trkpt><trkpt lat="45.7727664" lon="8.8491298"><ele>340.33333333333337</ele><time>2026-04-26T09:44:13.986Z</time></trkpt><trkpt lat="45.7727611" lon="8.8493519"><ele>339.6666666666667</ele><time>2026-04-26T09:44:14.987Z</time></trkpt><trkpt lat="45.7727653" lon="8.8495773"><ele>339.0</ele><time>2026-04-26T09:44:15.987Z</time></trkpt><trkpt lat="45.7727753" lon="8.8497998"><ele>339.0</ele><time>2026-04-26T09:44:16.988Z</time></trkpt><trkpt lat="45.7727846" lon="8.8500188"><ele>339.0</ele><time>2026-04-26T09:44:17.988Z</time></trkpt><trkpt lat="45.7727939" lon="8.8502346"><ele>339.0</ele><time>2026-04-26T09:44:18.986Z</time></trkpt><trkpt lat="45.7728062" lon="8.8504547"><ele>337.3333333333333</ele><time>2026-04-26T09:44:19.986Z</time></trkpt><trkpt lat="45.7728205" lon="8.8506745"><ele>335.66666666666663</ele><time>2026-04-26T09:44:20.987Z</time></trkpt><trkpt lat="45.7728372" lon="8.8508949"><ele>334.0</ele><time>2026-04-26T09:44:21.988Z</time></trkpt><trkpt lat="45.7728547" lon="8.8511191"><ele>329.66666666666663</ele><time>2026-04-26T09:44:22.986Z</time></trkpt><trkpt lat="45.7728692" lon="8.8513371"><ele>325.3333333333333</ele><time>2026-04-26T09:44:23.986Z</time></trkpt><trkpt lat="45.7728877" lon="8.851556"><ele>321.0</ele><time>2026-04-26T09:44:24.988Z</time></trkpt><trkpt lat="45.7729084" lon="8.8517778"><ele>318.3333333333333</ele><time>2026-04-26T09:44:25.988Z</time></trkpt><trkpt lat="45.7729243" lon="8.8519988"><ele>315.66666666666663</ele><time>2026-04-26T09:44:26.987Z</time></trkpt><trkpt lat="45.7729375" lon="8.8522212"><ele>313.0</ele><time>2026-04-26T09:44:27.987Z</time></trkpt><trkpt lat="45.7729456" lon="8.8524422"><ele>312.5</ele><time>2026-04-26T09:44:28.988Z</time></trkpt><trkpt lat="45.7729522" lon="8.8526611"><ele>312.0</ele><time>2026-04-26T09:44:29.987Z</time></trkpt><trkpt lat="45.7729515" lon="8.8528746"><ele>311.5</ele><time>2026-04-26T09:44:30.987Z</time></trkpt><trkpt lat="45.7729472" lon="8.8530825"><ele>311.0</ele><time>2026-04-26T09:44:31.986Z</time></trkpt><trkpt lat="45.7729351" lon="8.853303"><ele>312.5</ele><time>2026-04-26T09:44:32.988Z</time></trkpt><trkpt lat="45.7729162" lon="8.8535101"><ele>314.0</ele><time>2026-04-26T09:44:33.987Z</time></trkpt><trkpt lat="45.7728951" lon="8.8537056"><ele>315.5</ele><time>2026-04-26T09:44:34.987Z</time></trkpt><trkpt lat="45.7728743" lon="8.8538975"><ele>317.0</ele><time>2026-04-26T09:44:35.988Z</time></trkpt><trkpt lat="45.7728507" lon="8.8540916"><ele>317.0</ele><time>2026-04-26T09:44:36.988Z</time></trkpt><trkpt lat="45.7728257" lon="8.8542801"><ele>317.0</ele><time>2026-04-26T09:44:37.988Z</time></trkpt><trkpt lat="45.7728023" lon="8.8544802"><ele>317.0</ele><time>2026-04-26T09:44:38.987Z</time></trkpt><trkpt lat="45.7727733" lon="8.8546878"><ele>317.0</ele><time>2026-04-26T09:44:39.987Z</time></trkpt><trkpt lat="45.772748" lon="8.8549153"><ele>318.33333333333337</ele><time>2026-04-26T09:44:40.988Z</time></trkpt><trkpt lat="45.7727253" lon="8.8551411"><ele>319.6666666666667</ele><time>2026-04-26T09:44:41.986Z</time></trkpt><trkpt lat="45.7726985" lon="8.8553661"><ele>321.0</ele><time>2026-04-26T09:44:42.988Z</time></trkpt><trkpt lat="45.7726728" lon="8.8555889"><ele>315.0</ele><time>2026-04-26T09:44:43.987Z</time></trkpt><trkpt lat="45.7726456" lon="8.8558047"><ele>309.0</ele><time>2026-04-26T09:44:44.988Z</time></trkpt><trkpt lat="45.7726253" lon="8.8560253"><ele>303.0</ele><time>2026-04-26T09:44:45.986Z</time></trkpt><trkpt lat="45.7725971" lon="8.8562428"><ele>303.0</ele><time>2026-04-26T09:44:46.986Z</time></trkpt><trkpt lat="45.7725733" lon="8.8564454"><ele>303.0</ele><time>2026-04-26T09:44:47.987Z</time></trkpt><trkpt lat="45.7725535" lon="8.8566475"><ele>303.0</ele><time>2026-04-26T09:44:48.988Z</time></trkpt><trkpt lat="45.7725383" lon="8.8568487"><ele>303.0</ele><time>2026-04-26T09:44:49.988Z</time></trkpt><trkpt lat="45.7725172" lon="8.8570477"><ele>302.75</ele><time>2026-04-26T09:44:50.988Z</time></trkpt><trkpt lat="45.7725032" lon="8.857248"><ele>302.5</ele><time>2026-04-26T09:44:51.988Z</time></trkpt><trkpt lat="45.7724911" lon="8.8574456"><ele>302.25</ele><time>2026-04-26T09:44:52.986Z</time></trkpt><trkpt lat="45.7724793" lon="8.8576395"><ele>302.0</ele><time>2026-04-26T09:44:53.987Z</time></trkpt><trkpt lat="45.7724672" lon="8.8578319"><ele>299.75</ele><time>2026-04-26T09:44:54.988Z</time></trkpt><trkpt lat="45.7724566" lon="8.8580292"><ele>297.5</ele><time>2026-04-26T09:44:55.988Z</time></trkpt><trkpt lat="45.7724494" lon="8.858229"><ele>295.25</ele><time>2026-04-26T09:44:56.987Z</time></trkpt><trkpt lat="45.7724398" lon="8.858432"><ele>293.0</ele><time>2026-04-26T09:44:57.987Z</time></trkpt><trkpt lat="45.7724283" lon="8.8586341"><ele>292.75</ele><time>2026-04-26T09:44:58.988Z</time></trkpt><trkpt lat="45.7724201" lon="8.8588262"><ele>292.5</ele><time>2026-04-26T09:44:59.987Z</time></trkpt><trkpt lat="45.7724148" lon="8.8590144"><ele>292.25</ele><time>2026-04-26T09:45:00.987Z</time></trkpt><trkpt lat="45.7724145" lon="8.8592007"><ele>292.0</ele><time>2026-04-26T09:45:01.987Z</time></trkpt><trkpt lat="45.7724044" lon="8.8593787"><ele>291.75</ele><time>2026-04-26T09:45:02.988Z</time></trkpt><trkpt lat="45.7723988" lon="8.8595609"><ele>291.5</ele><time>2026-04-26T09:45:03.987Z</time></trkpt><trkpt lat="45.7723955" lon="8.8597519"><ele>291.25</ele><time>2026-04-26T09:45:04.986Z</time></trkpt><trkpt lat="45.7723975" lon="8.8599408"><ele>291.0</ele><time>2026-04-26T09:45:05.987Z</time></trkpt><trkpt lat="45.772408" lon="8.8601103"><ele>290.0</ele><time>2026-04-26T09:45:06.988Z</time></trkpt><trkpt lat="45.7724224" lon="8.8602588"><ele>289.0</ele><time>2026-04-26T09:45:07.986Z</time></trkpt><trkpt lat="45.7724367" lon="8.8603908"><ele>288.0</ele><time>2026-04-26T09:45:08.987Z</time></trkpt><trkpt lat="45.772443" lon="8.8605072"><ele>287.0</ele><time>2026-04-26T09:45:09.986Z</time></trkpt><trkpt lat="45.7724487" lon="8.8606085"><ele>286.0</ele><time>2026-04-26T09:45:10.987Z</time></trkpt><trkpt lat="45.7724362" lon="8.8607149"><ele>285.0</ele><time>2026-04-26T09:45:11.987Z</time></trkpt><trkpt lat="45.7724129" lon="8.8608265"><ele>285.0</ele><time>2026-04-26T09:45:12.987Z</time></trkpt><trkpt lat="45.7723804" lon="8.8609459"><ele>285.0</ele><time>2026-04-26T09:45:13.988Z</time></trkpt><trkpt lat="45.7723705" lon="8.861064"><ele>285.0</ele><time>2026-04-26T09:45:14.987Z</time></trkpt><trkpt lat="45.7724019" lon="8.8611738"><ele>285.0</ele><time>2026-04-26T09:45:15.987Z</time></trkpt><trkpt lat="45.7724605" lon="8.8612514"><ele>285.0</ele><time>2026-04-26T09:45:16.987Z</time></trkpt><trkpt lat="45.7725468" lon="8.8613043"><ele>285.0</ele><time>2026-04-26T09:45:17.987Z</time></trkpt><trkpt lat="45.7726419" lon="8.861365"><ele>285.25</ele><time>2026-04-26T09:45:18.987Z</time></trkpt><trkpt lat="45.7727352" lon="8.8614561"><ele>285.5</ele><time>2026-04-26T09:45:19.987Z</time></trkpt><trkpt lat="45.7728168" lon="8.8615704"><ele>285.75</ele><time>2026-04-26T09:45:20.987Z</time></trkpt><trkpt lat="45.7728963" lon="8.8616934"><ele>286.0</ele><time>2026-04-26T09:45:21.987Z</time></trkpt><trkpt lat="45.7729651" lon="8.8618096"><ele>285.5</ele><time>2026-04-26T09:45:22.988Z</time></trkpt><trkpt lat="45.7730276" lon="8.8619427"><ele>285.0</ele><time>2026-04-26T09:45:23.988Z</time></trkpt><trkpt lat="45.7730919" lon="8.8620849"><ele>284.5</ele><time>2026-04-26T09:45:24.988Z</time></trkpt><trkpt lat="45.7731607" lon="8.8622371"><ele>284.0</ele><time>2026-04-26T09:45:25.987Z</time></trkpt><trkpt lat="45.7732263" lon="8.8623883"><ele>284.0</ele><time>2026-04-26T09:45:26.988Z</time></trkpt><trkpt lat="45.7732893" lon="8.8625404"><ele>284.0</ele><time>2026-04-26T09:45:27.988Z</time></trkpt><trkpt lat="45.7733585" lon="8.8626941"><ele>284.0</ele><time>2026-04-26T09:45:28.987Z</time></trkpt><trkpt lat="45.773433" lon="8.8628549"><ele>284.0</ele><time>2026-04-26T09:45:29.987Z</time></trkpt><trkpt lat="45.7734948" lon="8.8630144"><ele>283.5</ele><time>2026-04-26T09:45:30.988Z</time></trkpt><trkpt lat="45.77356" lon="8.8631608"><ele>283.0</ele><time>2026-04-26T09:45:31.986Z</time></trkpt><trkpt lat="45.7736232" lon="8.8633129"><ele>282.5</ele><time>2026-04-26T09:45:32.987Z</time></trkpt><trkpt lat="45.7736925" lon="8.8634643"><ele>282.0</ele><time>2026-04-26T09:45:33.988Z</time></trkpt><trkpt lat="45.7737571" lon="8.8636256"><ele>281.25</ele><time>2026-04-26T09:45:34.988Z</time></trkpt><trkpt lat="45.7738208" lon="8.8637782"><ele>280.5</ele><time>2026-04-26T09:45:35.987Z</time></trkpt><trkpt lat="45.7738867" lon="8.8639241"><ele>279.75</ele><time>2026-04-26T09:45:36.988Z</time></trkpt><trkpt lat="45.7739424" lon="8.8640678"><ele>279.0</ele><time>2026-04-26T09:45:37.988Z</time></trkpt><trkpt lat="45.7740007" lon="8.8642059"><ele>278.59999999999997</ele><time>2026-04-26T09:45:38.987Z</time></trkpt><trkpt lat="45.7740557" lon="8.8643342"><ele>278.2</ele><time>2026-04-26T09:45:39.987Z</time></trkpt><trkpt lat="45.7740883" lon="8.8644676"><ele>277.79999999999995</ele><time>2026-04-26T09:45:40.987Z</time></trkpt><trkpt lat="45.7740921" lon="8.8645934"><ele>277.4</ele><time>2026-04-26T09:45:41.988Z</time></trkpt><trkpt lat="45.7740747" lon="8.8647102"><ele>277.0</ele><time>2026-04-26T09:45:42.987Z</time></trkpt><trkpt lat="45.7740419" lon="8.864817"><ele>277.0</ele><time>2026-04-26T09:45:43.986Z</time></trkpt><trkpt lat="45.7739944" lon="8.8649101"><ele>277.0</ele><time>2026-04-26T09:45:44.987Z</time></trkpt><trkpt lat="45.7739585" lon="8.8650194"><ele>277.0</ele><time>2026-04-26T09:45:45.988Z</time></trkpt><trkpt lat="45.773954" lon="8.865141"><ele>277.0</ele><time>2026-04-26T09:45:46.988Z</time></trkpt><trkpt lat="45.7739698" lon="8.8652575"><ele>277.0</ele><time>2026-04-26T09:45:47.987Z</time></trkpt><trkpt lat="45.7740056" lon="8.8653842"><ele>277.0</ele><time>2026-04-26T09:45:48.987Z</time></trkpt><trkpt lat="45.7740439" lon="8.8655032"><ele>276.6</ele><time>2026-04-26T09:45:49.987Z</time></trkpt><trkpt lat="45.7740975" lon="8.8656113"><ele>276.2</ele><time>2026-04-26T09:45:50.988Z</time></trkpt><trkpt lat="45.7741742" lon="8.8656924"><ele>275.8</ele><time>2026-04-26T09:45:51.988Z</time></trkpt><trkpt lat="45.7742653" lon="8.8657469"><ele>275.4</ele><time>2026-04-26T09:45:52.988Z</time></trkpt><trkpt lat="45.774364" lon="8.8658057"><ele>275.0</ele><time>2026-04-26T09:45:53.987Z</time></trkpt><trkpt lat="45.7744603" lon="8.8658783"><ele>275.2857142857143</ele><time>2026-04-26T09:45:54.987Z</time></trkpt><trkpt lat="45.7745235" lon="8.8659318"><ele>275.57142857142856</ele><time>2026-04-26T09:45:55.988Z</time></trkpt><trkpt lat="45.7745841" lon="8.8659811"><ele>275.85714285714283</ele><time>2026-04-26T09:45:57.987Z</time></trkpt><trkpt lat="45.7746383" lon="8.8660289"><ele>276.1428571428571</ele><time>2026-04-26T09:46:01.987Z</time></trkpt><trkpt lat="45.7747159" lon="8.8660915"><ele>276.4285714285714</ele><time>2026-04-26T09:46:03.986Z</time></trkpt><trkpt lat="45.7747689" lon="8.8661444"><ele>276.7142857142857</ele><time>2026-04-26T09:46:04.986Z</time></trkpt><trkpt lat="45.7748214" lon="8.8662019"><ele>277.0</ele><time>2026-04-26T09:46:05.987Z</time></trkpt><trkpt lat="45.7748896" lon="8.8662636"><ele>277.0</ele><time>2026-04-26T09:46:06.986Z</time></trkpt><trkpt lat="45.7749706" lon="8.8663362"><ele>277.0</ele><time>2026-04-26T09:46:07.987Z</time></trkpt><trkpt lat="45.7750488" lon="8.8664105"><ele>277.0</ele><time>2026-04-26T09:46:08.987Z</time></trkpt><trkpt lat="45.7751378" lon="8.8665045"><ele>277.0</ele><time>2026-04-26T09:46:09.988Z</time></trkpt><trkpt lat="45.7752202" lon="8.8666086"><ele>277.0</ele><time>2026-04-26T09:46:10.987Z</time></trkpt><trkpt lat="45.7753059" lon="8.8667293"><ele>277.5</ele><time>2026-04-26T09:46:11.987Z</time></trkpt><trkpt lat="45.775385" lon="8.8668589"><ele>278.0</ele><time>2026-04-26T09:46:12.987Z</time></trkpt><trkpt lat="45.7754589" lon="8.8670002"><ele>278.5</ele><time>2026-04-26T09:46:13.988Z</time></trkpt><trkpt lat="45.7755321" lon="8.8671458"><ele>279.0</ele><time>2026-04-26T09:46:14.987Z</time></trkpt><trkpt lat="45.7756015" lon="8.8672962"><ele>279.0</ele><time>2026-04-26T09:46:15.987Z</time></trkpt><trkpt lat="45.7756646" lon="8.8674411"><ele>279.0</ele><time>2026-04-26T09:46:16.986Z</time></trkpt><trkpt lat="45.7757172" lon="8.8675843"><ele>279.0</ele><time>2026-04-26T09:46:17.988Z</time></trkpt><trkpt lat="45.7757637" lon="8.8677381"><ele>279.0</ele><time>2026-04-26T09:46:18.988Z</time></trkpt><trkpt lat="45.7758048" lon="8.8678939"><ele>279.0</ele><time>2026-04-26T09:46:19.987Z</time></trkpt><trkpt lat="45.7758334" lon="8.8680443"><ele>279.0</ele><time>2026-04-26T09:46:20.987Z</time></trkpt><trkpt lat="45.7758576" lon="8.8681834"><ele>279.0</ele><time>2026-04-26T09:46:21.987Z</time></trkpt><trkpt lat="45.7758779" lon="8.8683086"><ele>279.0</ele><time>2026-04-26T09:46:22.987Z</time></trkpt><trkpt lat="45.7758924" lon="8.8684287"><ele>279.0</ele><time>2026-04-26T09:46:23.987Z</time></trkpt><trkpt lat="45.7759011" lon="8.8685291"><ele>279.1666666666667</ele><time>2026-04-26T09:46:24.986Z</time></trkpt><trkpt lat="45.7759022" lon="8.8686833"><ele>279.3333333333333</ele><time>2026-04-26T09:46:26.987Z</time></trkpt><trkpt lat="45.7759099" lon="8.8688126"><ele>279.5</ele><time>2026-04-26T09:46:28.987Z</time></trkpt><trkpt lat="45.7759225" lon="8.8689089"><ele>279.66666666666663</ele><time>2026-04-26T09:46:30.987Z</time></trkpt><trkpt lat="45.7759521" lon="8.8689936"><ele>279.8333333333333</ele><time>2026-04-26T09:46:37.988Z</time></trkpt><trkpt lat="45.7759984" lon="8.8690726"><ele>280.0</ele><time>2026-04-26T09:46:39.988Z</time></trkpt><trkpt lat="45.7760688" lon="8.8691384"><ele>280.0</ele><time>2026-04-26T09:46:42.986Z</time></trkpt><trkpt lat="45.7761175" lon="8.8692349"><ele>280.0</ele><time>2026-04-26T09:46:48.986Z</time></trkpt><trkpt lat="45.7761383" lon="8.8693203"><ele>280.0</ele><time>2026-04-26T09:46:50.986Z</time></trkpt><trkpt lat="45.7761315" lon="8.8694253"><ele>280.0</ele><time>2026-04-26T09:46:54.985Z</time></trkpt><trkpt lat="45.776112" lon="8.8695188"><ele>280.0</ele><time>2026-04-26T09:47:01.985Z</time></trkpt><trkpt lat="45.7760859" lon="8.869601"><ele>280.0</ele><time>2026-04-26T09:47:02.986Z</time></trkpt><trkpt lat="45.7760566" lon="8.8696947"><ele>280.0</ele><time>2026-04-26T09:47:03.986Z</time></trkpt><trkpt lat="45.7760286" lon="8.8698154"><ele>280.16666666666663</ele><time>2026-04-26T09:47:04.987Z</time></trkpt><trkpt lat="45.7760136" lon="8.8699477"><ele>280.3333333333333</ele><time>2026-04-26T09:47:05.986Z</time></trkpt><trkpt lat="45.7760094" lon="8.8700761"><ele>280.5</ele><time>2026-04-26T09:47:06.987Z</time></trkpt><trkpt lat="45.7759923" lon="8.8701884"><ele>280.6666666666667</ele><time>2026-04-26T09:47:07.986Z</time></trkpt><trkpt lat="45.7759444" lon="8.8702925"><ele>280.83333333333337</ele><time>2026-04-26T09:47:08.986Z</time></trkpt><trkpt lat="45.7758839" lon="8.8703958"><ele>281.0</ele><time>2026-04-26T09:47:09.986Z</time></trkpt><trkpt lat="45.7758147" lon="8.8705011"><ele>281.5</ele><time>2026-04-26T09:47:10.986Z</time></trkpt><trkpt lat="45.775734" lon="8.8706057"><ele>282.0</ele><time>2026-04-26T09:47:11.987Z</time></trkpt><trkpt lat="45.7756415" lon="8.8707079"><ele>282.5</ele><time>2026-04-26T09:47:12.987Z</time></trkpt><trkpt lat="45.775538" lon="8.8708072"><ele>283.0</ele><time>2026-04-26T09:47:13.985Z</time></trkpt><trkpt lat="45.7754273" lon="8.8709109"><ele>283.75</ele><time>2026-04-26T09:47:14.986Z</time></trkpt><trkpt lat="45.7753129" lon="8.8710176"><ele>284.5</ele><time>2026-04-26T09:47:15.986Z</time></trkpt><trkpt lat="45.7751898" lon="8.8711298"><ele>285.25</ele><time>2026-04-26T09:47:16.986Z</time></trkpt><trkpt lat="45.7750636" lon="8.8712475"><ele>286.0</ele><time>2026-04-26T09:47:17.986Z</time></trkpt><trkpt lat="45.774934" lon="8.8713684"><ele>286.0</ele><time>2026-04-26T09:47:18.985Z</time></trkpt><trkpt lat="45.7748017" lon="8.8714929"><ele>286.0</ele><time>2026-04-26T09:47:19.986Z</time></trkpt><trkpt lat="45.7746719" lon="8.8716121"><ele>286.0</ele><time>2026-04-26T09:47:20.987Z</time></trkpt><trkpt lat="45.7745539" lon="8.8717281"><ele>286.0</ele><time>2026-04-26T09:47:21.987Z</time></trkpt><trkpt lat="45.7744404" lon="8.8718431"><ele>286.0</ele><time>2026-04-26T09:47:22.987Z</time></trkpt><trkpt lat="45.7743526" lon="8.871978"><ele>286.0</ele><time>2026-04-26T09:47:23.987Z</time></trkpt><trkpt lat="45.7742895" lon="8.8721327"><ele>286.0</ele><time>2026-04-26T09:47:24.987Z</time></trkpt><trkpt lat="45.774254" lon="8.8723164"><ele>286.0</ele><time>2026-04-26T09:47:25.987Z</time></trkpt><trkpt lat="45.7742417" lon="8.8725156"><ele>286.0</ele><time>2026-04-26T09:47:26.987Z</time></trkpt><trkpt lat="45.7742323" lon="8.8727201"><ele>286.0</ele><time>2026-04-26T09:47:27.987Z</time></trkpt><trkpt lat="45.774204" lon="8.8729115"><ele>286.0</ele><time>2026-04-26T09:47:28.986Z</time></trkpt><trkpt lat="45.7741709" lon="8.8730952"><ele>288.0</ele><time>2026-04-26T09:47:29.987Z</time></trkpt><trkpt lat="45.7741065" lon="8.8732355"><ele>290.0</ele><time>2026-04-26T09:47:30.986Z</time></trkpt><trkpt lat="45.7740156" lon="8.8733536"><ele>292.0</ele><time>2026-04-26T09:47:31.986Z</time></trkpt><trkpt lat="45.7738964" lon="8.8734377"><ele>294.0</ele><time>2026-04-26T09:47:32.987Z</time></trkpt><trkpt lat="45.7737626" lon="8.8734985"><ele>299.6666666666667</ele><time>2026-04-26T09:47:33.987Z</time></trkpt><trkpt lat="45.7736109" lon="8.873553"><ele>305.33333333333337</ele><time>2026-04-26T09:47:34.986Z</time></trkpt><trkpt lat="45.7734508" lon="8.8736097"><ele>311.0</ele><time>2026-04-26T09:47:35.986Z</time></trkpt><trkpt lat="45.7732894" lon="8.8736663"><ele>311.33333333333337</ele><time>2026-04-26T09:47:36.986Z</time></trkpt><trkpt lat="45.7731207" lon="8.8737195"><ele>311.6666666666667</ele><time>2026-04-26T09:47:37.987Z</time></trkpt><trkpt lat="45.7729535" lon="8.8737756"><ele>312.0</ele><time>2026-04-26T09:47:38.986Z</time></trkpt><trkpt lat="45.7727859" lon="8.8738273"><ele>312.6666666666667</ele><time>2026-04-26T09:47:39.985Z</time></trkpt><trkpt lat="45.7726113" lon="8.8738829"><ele>313.33333333333337</ele><time>2026-04-26T09:47:40.986Z</time></trkpt><trkpt lat="45.7724343" lon="8.8739439"><ele>314.0</ele><time>2026-04-26T09:47:41.986Z</time></trkpt><trkpt lat="45.7722588" lon="8.8740036"><ele>314.0</ele><time>2026-04-26T09:47:42.987Z</time></trkpt><trkpt lat="45.7720875" lon="8.8740603"><ele>314.0</ele><time>2026-04-26T09:47:43.987Z</time></trkpt><trkpt lat="45.7719149" lon="8.8741167"><ele>314.0</ele><time>2026-04-26T09:47:44.986Z</time></trkpt><trkpt lat="45.7717395" lon="8.8741716"><ele>313.33333333333337</ele><time>2026-04-26T09:47:45.987Z</time></trkpt><trkpt lat="45.7715673" lon="8.8742276"><ele>312.6666666666667</ele><time>2026-04-26T09:47:46.985Z</time></trkpt><trkpt lat="45.7713955" lon="8.8742789"><ele>312.0</ele><time>2026-04-26T09:47:47.986Z</time></trkpt><trkpt lat="45.7712245" lon="8.8743314"><ele>322.6666666666667</ele><time>2026-04-26T09:47:48.985Z</time></trkpt><trkpt lat="45.7710535" lon="8.8743399"><ele>333.33333333333337</ele><time>2026-04-26T09:47:49.985Z</time></trkpt><trkpt lat="45.7708722" lon="8.8743476"><ele>344.0</ele><time>2026-04-26T09:47:50.987Z</time></trkpt><trkpt lat="45.7706942" lon="8.8743214"><ele>344.6666666666667</ele><time>2026-04-26T09:47:51.987Z</time></trkpt><trkpt lat="45.7705196" lon="8.8743151"><ele>345.3333333333333</ele><time>2026-04-26T09:47:52.986Z</time></trkpt><trkpt lat="45.7703565" lon="8.8743036"><ele>346.0</ele><time>2026-04-26T09:47:53.987Z</time></trkpt><trkpt lat="45.7701924" lon="8.874287"><ele>347.66666666666663</ele><time>2026-04-26T09:47:54.987Z</time></trkpt><trkpt lat="45.7700403" lon="8.8742763"><ele>349.3333333333333</ele><time>2026-04-26T09:47:55.987Z</time></trkpt><trkpt lat="45.7698842" lon="8.8742673"><ele>351.0</ele><time>2026-04-26T09:47:56.987Z</time></trkpt><trkpt lat="45.7697286" lon="8.8742619"><ele>350.0</ele><time>2026-04-26T09:47:57.987Z</time></trkpt><trkpt lat="45.769576" lon="8.8742547"><ele>349.0</ele><time>2026-04-26T09:47:58.987Z</time></trkpt><trkpt lat="45.7694352" lon="8.8742576"><ele>348.0</ele><time>2026-04-26T09:47:59.985Z</time></trkpt><trkpt lat="45.7692951" lon="8.8742747"><ele>347.0</ele><time>2026-04-26T09:48:00.986Z</time></trkpt><trkpt lat="45.769173" lon="8.8742783"><ele>347.0</ele><time>2026-04-26T09:48:01.987Z</time></trkpt><trkpt lat="45.7690581" lon="8.8742765"><ele>347.0</ele><time>2026-04-26T09:48:02.986Z</time></trkpt><trkpt lat="45.7689594" lon="8.8742698"><ele>347.0</ele><time>2026-04-26T09:48:03.987Z</time></trkpt><trkpt lat="45.7688581" lon="8.8742593"><ele>347.0</ele><time>2026-04-26T09:48:04.987Z</time></trkpt><trkpt lat="45.7687663" lon="8.8742522"><ele>347.0</ele><time>2026-04-26T09:48:05.985Z</time></trkpt><trkpt lat="45.768687" lon="8.8742298"><ele>346.42857142857144</ele><time>2026-04-26T09:48:06.986Z</time></trkpt><trkpt lat="45.7686271" lon="8.8741976"><ele>345.85714285714283</ele><time>2026-04-26T09:48:08.985Z</time></trkpt><trkpt lat="45.768533" lon="8.8741204"><ele>345.2857142857143</ele><time>2026-04-26T09:48:12.986Z</time></trkpt><trkpt lat="45.7684659" lon="8.8740844"><ele>344.7142857142857</ele><time>2026-04-26T09:48:13.987Z</time></trkpt><trkpt lat="45.7684003" lon="8.8740934"><ele>344.1428571428571</ele><time>2026-04-26T09:48:14.987Z</time></trkpt><trkpt lat="45.7683449" lon="8.8741423"><ele>343.57142857142856</ele><time>2026-04-26T09:48:15.986Z</time></trkpt><trkpt lat="45.7683162" lon="8.8742279"><ele>343.0</ele><time>2026-04-26T09:48:16.986Z</time></trkpt><trkpt lat="45.7683221" lon="8.8743209"><ele>343.0</ele><time>2026-04-26T09:48:17.986Z</time></trkpt><trkpt lat="45.7683491" lon="8.8744383"><ele>343.0</ele><time>2026-04-26T09:48:18.986Z</time></trkpt><trkpt lat="45.7683815" lon="8.8745628"><ele>343.0</ele><time>2026-04-26T09:48:19.985Z</time></trkpt><trkpt lat="45.7684115" lon="8.8746805"><ele>343.0</ele><time>2026-04-26T09:48:20.986Z</time></trkpt><trkpt lat="45.7684692" lon="8.874771"><ele>343.0</ele><time>2026-04-26T09:48:21.987Z</time></trkpt><trkpt lat="45.7685392" lon="8.8748138"><ele>343.0</ele><time>2026-04-26T09:48:22.986Z</time></trkpt><trkpt lat="45.7686157" lon="8.8748271"><ele>343.79999999999995</ele><time>2026-04-26T09:48:23.985Z</time></trkpt><trkpt lat="45.7686974" lon="8.8748"><ele>344.6</ele><time>2026-04-26T09:48:24.986Z</time></trkpt><trkpt lat="45.768751" lon="8.8747006"><ele>345.4</ele><time>2026-04-26T09:48:25.986Z</time></trkpt><trkpt lat="45.7688127" lon="8.8745986"><ele>346.20000000000005</ele><time>2026-04-26T09:48:26.986Z</time></trkpt><trkpt lat="45.7688894" lon="8.874526"><ele>347.0</ele><time>2026-04-26T09:48:27.986Z</time></trkpt><trkpt lat="45.7689891" lon="8.8744842"><ele>347.0</ele><time>2026-04-26T09:48:28.987Z</time></trkpt><trkpt lat="45.7691076" lon="8.8744675"><ele>347.0</ele><time>2026-04-26T09:48:29.987Z</time></trkpt><trkpt lat="45.7692392" lon="8.8744642"><ele>347.0</ele><time>2026-04-26T09:48:30.987Z</time></trkpt><trkpt lat="45.7693845" lon="8.8744588"><ele>347.0</ele><time>2026-04-26T09:48:31.987Z</time></trkpt><trkpt lat="45.7695351" lon="8.8744633"><ele>348.33333333333337</ele><time>2026-04-26T09:48:32.987Z</time></trkpt><trkpt lat="45.7696947" lon="8.8744782"><ele>349.6666666666667</ele><time>2026-04-26T09:48:33.986Z</time></trkpt><trkpt lat="45.7698584" lon="8.8745034"><ele>351.0</ele><time>2026-04-26T09:48:34.987Z</time></trkpt><trkpt lat="45.7700245" lon="8.874519"><ele>351.0</ele><time>2026-04-26T09:48:35.986Z</time></trkpt><trkpt lat="45.7701872" lon="8.8745409"><ele>351.0</ele><time>2026-04-26T09:48:36.987Z</time></trkpt><trkpt lat="45.7703474" lon="8.8745776"><ele>351.0</ele><time>2026-04-26T09:48:37.987Z</time></trkpt><trkpt lat="45.7705047" lon="8.8746283"><ele>349.3333333333333</ele><time>2026-04-26T09:48:38.985Z</time></trkpt><trkpt lat="45.7706647" lon="8.8746944"><ele>347.66666666666663</ele><time>2026-04-26T09:48:39.986Z</time></trkpt><trkpt lat="45.7708216" lon="8.8747697"><ele>346.0</ele><time>2026-04-26T09:48:40.986Z</time></trkpt><trkpt lat="45.7709761" lon="8.8748393"><ele>345.5</ele><time>2026-04-26T09:48:41.985Z</time></trkpt><trkpt lat="45.7711187" lon="8.8749029"><ele>345.0</ele><time>2026-04-26T09:48:42.986Z</time></trkpt><trkpt lat="45.7712502" lon="8.8749617"><ele>344.5</ele><time>2026-04-26T09:48:43.986Z</time></trkpt><trkpt lat="45.7713841" lon="8.8750124"><ele>344.0</ele><time>2026-04-26T09:48:44.986Z</time></trkpt><trkpt lat="45.771512" lon="8.8750548"><ele>344.0</ele><time>2026-04-26T09:48:45.987Z</time></trkpt><trkpt lat="45.7716402" lon="8.8750913"><ele>344.0</ele><time>2026-04-26T09:48:46.986Z</time></trkpt><trkpt lat="45.7717648" lon="8.8751186"><ele>344.0</ele><time>2026-04-26T09:48:47.986Z</time></trkpt><trkpt lat="45.7718718" lon="8.875135"><ele>344.0</ele><time>2026-04-26T09:48:48.986Z</time></trkpt><trkpt lat="45.7719763" lon="8.8751596"><ele>346.5</ele><time>2026-04-26T09:48:49.987Z</time></trkpt><trkpt lat="45.7720652" lon="8.8751864"><ele>349.0</ele><time>2026-04-26T09:48:50.986Z</time></trkpt><trkpt lat="45.7721444" lon="8.8752232"><ele>351.5</ele><time>2026-04-26T09:48:51.985Z</time></trkpt><trkpt lat="45.7722169" lon="8.87528"><ele>354.0</ele><time>2026-04-26T09:48:52.986Z</time></trkpt><trkpt lat="45.7722777" lon="8.8753613"><ele>356.5</ele><time>2026-04-26T09:48:53.986Z</time></trkpt><trkpt lat="45.7723267" lon="8.8754653"><ele>359.0</ele><time>2026-04-26T09:48:54.986Z</time></trkpt><trkpt lat="45.7723723" lon="8.8755868"><ele>359.0</ele><time>2026-04-26T09:48:55.986Z</time></trkpt><trkpt lat="45.7724149" lon="8.8757084"><ele>359.0</ele><time>2026-04-26T09:48:56.986Z</time></trkpt><trkpt lat="45.7724562" lon="8.8758355"><ele>359.0</ele><time>2026-04-26T09:48:57.986Z</time></trkpt><trkpt lat="45.7724952" lon="8.87597"><ele>359.0</ele><time>2026-04-26T09:48:58.987Z</time></trkpt><trkpt lat="45.7725349" lon="8.8761047"><ele>359.0</ele><time>2026-04-26T09:48:59.986Z</time></trkpt><trkpt lat="45.7725731" lon="8.8762441"><ele>359.0</ele><time>2026-04-26T09:49:00.985Z</time></trkpt><trkpt lat="45.7726091" lon="8.8763754"><ele>359.0</ele><time>2026-04-26T09:49:01.987Z</time></trkpt><trkpt lat="45.7726405" lon="8.8765066"><ele>359.0</ele><time>2026-04-26T09:49:02.986Z</time></trkpt><trkpt lat="45.7726702" lon="8.8766397"><ele>359.0</ele><time>2026-04-26T09:49:03.986Z</time></trkpt><trkpt lat="45.772701" lon="8.8767683"><ele>359.0</ele><time>2026-04-26T09:49:04.986Z</time></trkpt><trkpt lat="45.7727327" lon="8.8768961"><ele>359.0</ele><time>2026-04-26T09:49:05.985Z</time></trkpt><trkpt lat="45.77277" lon="8.8770251"><ele>359.0</ele><time>2026-04-26T09:49:06.986Z</time></trkpt><trkpt lat="45.7727981" lon="8.877152"><ele>359.0</ele><time>2026-04-26T09:49:07.986Z</time></trkpt><trkpt lat="45.7728238" lon="8.8772659"><ele>359.0</ele><time>2026-04-26T09:49:08.986Z</time></trkpt><trkpt lat="45.772844" lon="8.8773684"><ele>359.0</ele><time>2026-04-26T09:49:09.986Z</time></trkpt><trkpt lat="45.7728735" lon="8.8775705"><ele>359.79999999999995</ele><time>2026-04-26T09:49:11.986Z</time></trkpt><trkpt lat="45.7728942" lon="8.8777034"><ele>360.59999999999997</ele><time>2026-04-26T09:49:12.987Z</time></trkpt><trkpt lat="45.7729163" lon="8.8778274"><ele>361.4</ele><time>2026-04-26T09:49:13.987Z</time></trkpt><trkpt lat="45.7729345" lon="8.8779579"><ele>362.2</ele><time>2026-04-26T09:49:14.986Z</time></trkpt><trkpt lat="45.7729497" lon="8.8781001"><ele>363.0</ele><time>2026-04-26T09:49:15.985Z</time></trkpt><trkpt lat="45.7729599" lon="8.8782469"><ele>363.0</ele><time>2026-04-26T09:49:16.986Z</time></trkpt><trkpt lat="45.7729756" lon="8.8784009"><ele>363.0</ele><time>2026-04-26T09:49:17.986Z</time></trkpt><trkpt lat="45.7729913" lon="8.8785652"><ele>363.0</ele><time>2026-04-26T09:49:18.987Z</time></trkpt><trkpt lat="45.773007" lon="8.8787309"><ele>363.0</ele><time>2026-04-26T09:49:19.987Z</time></trkpt><trkpt lat="45.7730247" lon="8.8789051"><ele>362.0</ele><time>2026-04-26T09:49:20.986Z</time></trkpt><trkpt lat="45.7730392" lon="8.8790801"><ele>361.0</ele><time>2026-04-26T09:49:21.985Z</time></trkpt><trkpt lat="45.7730585" lon="8.8792603"><ele>360.0</ele><time>2026-04-26T09:49:22.985Z</time></trkpt><trkpt lat="45.7730794" lon="8.879437"><ele>359.0</ele><time>2026-04-26T09:49:23.986Z</time></trkpt><trkpt lat="45.7730947" lon="8.8796125"><ele>359.0</ele><time>2026-04-26T09:49:24.986Z</time></trkpt><trkpt lat="45.77311" lon="8.8797807"><ele>359.0</ele><time>2026-04-26T09:49:25.986Z</time></trkpt><trkpt lat="45.773127" lon="8.8799471"><ele>359.0</ele><time>2026-04-26T09:49:26.987Z</time></trkpt><trkpt lat="45.7731427" lon="8.8801164"><ele>359.0</ele><time>2026-04-26T09:49:27.987Z</time></trkpt><trkpt lat="45.7731591" lon="8.8802887"><ele>359.25</ele><time>2026-04-26T09:49:28.986Z</time></trkpt><trkpt lat="45.773172" lon="8.8804575"><ele>359.5</ele><time>2026-04-26T09:49:29.986Z</time></trkpt><trkpt lat="45.7731848" lon="8.8806381"><ele>359.75</ele><time>2026-04-26T09:49:30.986Z</time></trkpt><trkpt lat="45.7732097" lon="8.8807999"><ele>360.0</ele><time>2026-04-26T09:49:31.987Z</time></trkpt><trkpt lat="45.7732316" lon="8.8809748"><ele>360.25</ele><time>2026-04-26T09:49:32.986Z</time></trkpt><trkpt lat="45.7732478" lon="8.8811434"><ele>360.5</ele><time>2026-04-26T09:49:33.987Z</time></trkpt><trkpt lat="45.7732689" lon="8.8813072"><ele>360.75</ele><time>2026-04-26T09:49:34.987Z</time></trkpt><trkpt lat="45.7732934" lon="8.8814652"><ele>361.0</ele><time>2026-04-26T09:49:35.986Z</time></trkpt><trkpt lat="45.7733188" lon="8.8816272"><ele>360.5</ele><time>2026-04-26T09:49:36.985Z</time></trkpt><trkpt lat="45.7733505" lon="8.8817974"><ele>360.0</ele><time>2026-04-26T09:49:37.987Z</time></trkpt><trkpt lat="45.7733761" lon="8.8819695"><ele>359.5</ele><time>2026-04-26T09:49:38.986Z</time></trkpt><trkpt lat="45.7734033" lon="8.8821443"><ele>359.0</ele><time>2026-04-26T09:49:39.986Z</time></trkpt><trkpt lat="45.7734271" lon="8.8823126"><ele>359.0</ele><time>2026-04-26T09:49:40.987Z</time></trkpt><trkpt lat="45.773444" lon="8.8824832"><ele>359.0</ele><time>2026-04-26T09:49:41.986Z</time></trkpt><trkpt lat="45.7734685" lon="8.8826514"><ele>359.0</ele><time>2026-04-26T09:49:42.986Z</time></trkpt><trkpt lat="45.7734923" lon="8.8828284"><ele>359.0</ele><time>2026-04-26T09:49:43.986Z</time></trkpt><trkpt lat="45.7735192" lon="8.8830029"><ele>359.0</ele><time>2026-04-26T09:49:44.986Z</time></trkpt><trkpt lat="45.7735438" lon="8.8831724"><ele>359.0</ele><time>2026-04-26T09:49:45.987Z</time></trkpt><trkpt lat="45.7735715" lon="8.8833425"><ele>359.0</ele><time>2026-04-26T09:49:46.987Z</time></trkpt><trkpt lat="45.7735964" lon="8.883509"><ele>359.0</ele><time>2026-04-26T09:49:47.987Z</time></trkpt><trkpt lat="45.7736216" lon="8.8836681"><ele>359.1666666666667</ele><time>2026-04-26T09:49:48.986Z</time></trkpt><trkpt lat="45.7736388" lon="8.8838222"><ele>359.33333333333337</ele><time>2026-04-26T09:49:49.986Z</time></trkpt><trkpt lat="45.7736535" lon="8.8839575"><ele>359.5</ele><time>2026-04-26T09:49:50.987Z</time></trkpt><trkpt lat="45.7736628" lon="8.8840878"><ele>359.6666666666667</ele><time>2026-04-26T09:49:51.985Z</time></trkpt><trkpt lat="45.7736664" lon="8.884205"><ele>359.8333333333333</ele><time>2026-04-26T09:49:52.986Z</time></trkpt><trkpt lat="45.7736605" lon="8.8843064"><ele>360.0</ele><time>2026-04-26T09:49:53.987Z</time></trkpt><trkpt lat="45.7736419" lon="8.8844097"><ele>360.0</ele><time>2026-04-26T09:49:54.987Z</time></trkpt><trkpt lat="45.7735982" lon="8.884495"><ele>360.0</ele><time>2026-04-26T09:49:55.985Z</time></trkpt><trkpt lat="45.7735399" lon="8.8845705"><ele>360.0</ele><time>2026-04-26T09:49:56.986Z</time></trkpt><trkpt lat="45.773472" lon="8.8846138"><ele>360.0</ele><time>2026-04-26T09:49:57.987Z</time></trkpt><trkpt lat="45.7734019" lon="8.8846281"><ele>360.0</ele><time>2026-04-26T09:49:58.987Z</time></trkpt><trkpt lat="45.7733189" lon="8.8846153"><ele>360.0</ele><time>2026-04-26T09:50:00.985Z</time></trkpt><trkpt lat="45.7732299" lon="8.8846035"><ele>359.2</ele><time>2026-04-26T09:50:02.987Z</time></trkpt><trkpt lat="45.7731225" lon="8.884677"><ele>358.4</ele><time>2026-04-26T09:50:04.986Z</time></trkpt><trkpt lat="45.7731113" lon="8.8848125"><ele>357.6</ele><time>2026-04-26T09:50:06.987Z</time></trkpt><trkpt lat="45.7732207" lon="8.884872"><ele>356.8</ele><time>2026-04-26T09:50:08.986Z</time></trkpt><trkpt lat="45.7732868" lon="8.8848374"><ele>356.0</ele><time>2026-04-26T09:50:09.987Z</time></trkpt><trkpt lat="45.7733658" lon="8.8847955"><ele>356.0</ele><time>2026-04-26T09:50:10.987Z</time></trkpt><trkpt lat="45.7734589" lon="8.884796"><ele>356.0</ele><time>2026-04-26T09:50:11.987Z</time></trkpt><trkpt lat="45.773551" lon="8.8848134"><ele>356.0</ele><time>2026-04-26T09:50:12.986Z</time></trkpt><trkpt lat="45.7736325" lon="8.8848346"><ele>356.0</ele><time>2026-04-26T09:50:13.985Z</time></trkpt><trkpt lat="45.7736997" lon="8.8848583"><ele>356.0</ele><time>2026-04-26T09:50:14.987Z</time></trkpt><trkpt lat="45.773812" lon="8.8849148"><ele>356.57142857142856</ele><time>2026-04-26T09:50:16.986Z</time></trkpt><trkpt lat="45.7738704" lon="8.8849591"><ele>357.1428571428571</ele><time>2026-04-26T09:50:17.986Z</time></trkpt><trkpt lat="45.773925" lon="8.8850136"><ele>357.71428571428567</ele><time>2026-04-26T09:50:18.987Z</time></trkpt><trkpt lat="45.7739847" lon="8.8850805"><ele>358.2857142857143</ele><time>2026-04-26T09:50:19.987Z</time></trkpt><trkpt lat="45.7740439" lon="8.8851462"><ele>358.8571428571429</ele><time>2026-04-26T09:50:20.986Z</time></trkpt><trkpt lat="45.7741062" lon="8.8852097"><ele>359.4285714285714</ele><time>2026-04-26T09:50:21.985Z</time></trkpt><trkpt lat="45.7741725" lon="8.8852797"><ele>360.0</ele><time>2026-04-26T09:50:22.986Z</time></trkpt><trkpt lat="45.7742359" lon="8.8853508"><ele>360.0</ele><time>2026-04-26T09:50:23.985Z</time></trkpt><trkpt lat="45.7743039" lon="8.8854014"><ele>360.0</ele><time>2026-04-26T09:50:24.986Z</time></trkpt><trkpt lat="45.774383" lon="8.8854461"><ele>360.0</ele><time>2026-04-26T09:50:25.987Z</time></trkpt><trkpt lat="45.7744494" lon="8.8854807"><ele>360.0</ele><time>2026-04-26T09:50:26.987Z</time></trkpt><trkpt lat="45.7745505" lon="8.8855338"><ele>360.0</ele><time>2026-04-26T09:50:28.986Z</time></trkpt><trkpt lat="45.7746719" lon="8.8855707"><ele>360.0</ele><time>2026-04-26T09:50:30.985Z</time></trkpt><trkpt lat="45.7747394" lon="8.8855955"><ele>360.0</ele><time>2026-04-26T09:50:31.987Z</time></trkpt><trkpt lat="45.7748143" lon="8.8856256"><ele>360.0</ele><time>2026-04-26T09:50:32.985Z</time></trkpt><trkpt lat="45.7748866" lon="8.885655"><ele>360.0</ele><time>2026-04-26T09:50:33.985Z</time></trkpt><trkpt lat="45.7749568" lon="8.8856893"><ele>360.0</ele><time>2026-04-26T09:50:34.986Z</time></trkpt><trkpt lat="45.7750323" lon="8.8857066"><ele>360.0</ele><time>2026-04-26T09:50:35.985Z</time></trkpt><trkpt lat="45.7751068" lon="8.8857347"><ele>360.0</ele><time>2026-04-26T09:50:36.986Z</time></trkpt><trkpt lat="45.7751775" lon="8.8857592"><ele>360.0</ele><time>2026-04-26T09:50:37.984Z</time></trkpt><trkpt lat="45.775247" lon="8.8857783"><ele>360.0</ele><time>2026-04-26T09:50:38.985Z</time></trkpt><trkpt lat="45.7753187" lon="8.885801"><ele>360.0</ele><time>2026-04-26T09:50:39.985Z</time></trkpt><trkpt lat="45.7753881" lon="8.8858305"><ele>360.0</ele><time>2026-04-26T09:50:40.986Z</time></trkpt><trkpt lat="45.7754595" lon="8.8858571"><ele>360.0</ele><time>2026-04-26T09:50:41.985Z</time></trkpt><trkpt lat="45.7755324" lon="8.8858894"><ele>360.0</ele><time>2026-04-26T09:50:42.986Z</time></trkpt><trkpt lat="45.7756048" lon="8.8859182"><ele>360.0</ele><time>2026-04-26T09:50:43.986Z</time></trkpt><trkpt lat="45.7756748" lon="8.8859354"><ele>360.0</ele><time>2026-04-26T09:50:44.985Z</time></trkpt><trkpt lat="45.7757939" lon="8.8859794"><ele>360.0</ele><time>2026-04-26T09:50:46.985Z</time></trkpt><trkpt lat="45.7759108" lon="8.8860251"><ele>360.0</ele><time>2026-04-26T09:50:48.985Z</time></trkpt><trkpt lat="45.7760089" lon="8.8860719"><ele>360.0</ele><time>2026-04-26T09:50:50.985Z</time></trkpt><trkpt lat="45.7761016" lon="8.8861154"><ele>360.1666666666667</ele><time>2026-04-26T09:50:52.985Z</time></trkpt><trkpt lat="45.7761969" lon="8.8861411"><ele>360.3333333333333</ele><time>2026-04-26T09:50:54.986Z</time></trkpt><trkpt lat="45.7762958" lon="8.8861632"><ele>360.5</ele><time>2026-04-26T09:50:56.986Z</time></trkpt><trkpt lat="45.7763892" lon="8.8861741"><ele>360.66666666666663</ele><time>2026-04-26T09:50:58.986Z</time></trkpt><trkpt lat="45.7764575" lon="8.8861697"><ele>360.8333333333333</ele><time>2026-04-26T09:51:00.985Z</time></trkpt><trkpt lat="45.7765249" lon="8.8861633"><ele>361.0</ele><time>2026-04-26T09:51:03.986Z</time></trkpt><trkpt lat="45.7766144" lon="8.8861675"><ele>361.0</ele><time>2026-04-26T09:51:41.986Z</time></trkpt><trkpt lat="45.7767153" lon="8.8861533"><ele>361.0</ele><time>2026-04-26T09:51:43.986Z</time></trkpt><trkpt lat="45.7768198" lon="8.8861407"><ele>361.0</ele><time>2026-04-26T09:51:45.986Z</time></trkpt><trkpt lat="45.7769256" lon="8.8861643"><ele>361.0</ele><time>2026-04-26T09:51:47.985Z</time></trkpt><trkpt lat="45.7770125" lon="8.8861925"><ele>361.0</ele><time>2026-04-26T09:51:49.986Z</time></trkpt><trkpt lat="45.7771116" lon="8.8861913"><ele>361.0</ele><time>2026-04-26T09:51:51.986Z</time></trkpt><trkpt lat="45.7771832" lon="8.8861803"><ele>361.0</ele><time>2026-04-26T09:51:52.986Z</time></trkpt><trkpt lat="45.7772589" lon="8.8861692"><ele>361.0</ele><time>2026-04-26T09:51:53.985Z</time></trkpt><trkpt lat="45.7773493" lon="8.8861656"><ele>361.0</ele><time>2026-04-26T09:51:54.984Z</time></trkpt><trkpt lat="45.77744" lon="8.8861451"><ele>361.0</ele><time>2026-04-26T09:51:55.986Z</time></trkpt><trkpt lat="45.7775436" lon="8.886139"><ele>361.0</ele><time>2026-04-26T09:51:56.984Z</time></trkpt><trkpt lat="45.7776498" lon="8.8861291"><ele>361.0</ele><time>2026-04-26T09:51:57.985Z</time></trkpt><trkpt lat="45.7777592" lon="8.8861193"><ele>361.0</ele><time>2026-04-26T09:51:58.985Z</time></trkpt><trkpt lat="45.7778696" lon="8.8861046"><ele>361.0</ele><time>2026-04-26T09:51:59.985Z</time></trkpt><trkpt lat="45.7779822" lon="8.8860872"><ele>361.0</ele><time>2026-04-26T09:52:00.985Z</time></trkpt><trkpt lat="45.7780962" lon="8.8860652"><ele>361.0</ele><time>2026-04-26T09:52:01.985Z</time></trkpt><trkpt lat="45.7782154" lon="8.8860444"><ele>361.0</ele><time>2026-04-26T09:52:02.985Z</time></trkpt><trkpt lat="45.7783396" lon="8.8860259"><ele>361.0</ele><time>2026-04-26T09:52:03.985Z</time></trkpt><trkpt lat="45.7784715" lon="8.8860091"><ele>361.0</ele><time>2026-04-26T09:52:04.985Z</time></trkpt><trkpt lat="45.7786093" lon="8.8859923"><ele>361.0</ele><time>2026-04-26T09:52:05.984Z</time></trkpt><trkpt lat="45.7787515" lon="8.8859759"><ele>361.25</ele><time>2026-04-26T09:52:06.986Z</time></trkpt><trkpt lat="45.7788953" lon="8.8859643"><ele>361.5</ele><time>2026-04-26T09:52:07.985Z</time></trkpt><trkpt lat="45.7790385" lon="8.8859671"><ele>361.75</ele><time>2026-04-26T09:52:08.985Z</time></trkpt><trkpt lat="45.779185" lon="8.8859844"><ele>362.0</ele><time>2026-04-26T09:52:09.985Z</time></trkpt><trkpt lat="45.779334" lon="8.8860222"><ele>358.33333333333337</ele><time>2026-04-26T09:52:10.986Z</time></trkpt><trkpt lat="45.7794841" lon="8.8860861"><ele>354.6666666666667</ele><time>2026-04-26T09:52:11.986Z</time></trkpt><trkpt lat="45.7796309" lon="8.8861608"><ele>351.0</ele><time>2026-04-26T09:52:12.985Z</time></trkpt><trkpt lat="45.7797747" lon="8.8862405"><ele>351.0</ele><time>2026-04-26T09:52:13.985Z</time></trkpt><trkpt lat="45.7799174" lon="8.8863219"><ele>351.0</ele><time>2026-04-26T09:52:14.984Z</time></trkpt><trkpt lat="45.7800569" lon="8.8864033"><ele>351.0</ele><time>2026-04-26T09:52:15.985Z</time></trkpt><trkpt lat="45.7801948" lon="8.8864855"><ele>347.6666666666667</ele><time>2026-04-26T09:52:16.986Z</time></trkpt><trkpt lat="45.7803339" lon="8.8865676"><ele>344.33333333333337</ele><time>2026-04-26T09:52:17.985Z</time></trkpt><trkpt lat="45.7804775" lon="8.8866391"><ele>341.0</ele><time>2026-04-26T09:52:18.985Z</time></trkpt><trkpt lat="45.7806202" lon="8.8867256"><ele>340.0</ele><time>2026-04-26T09:52:19.986Z</time></trkpt><trkpt lat="45.7807599" lon="8.8868098"><ele>339.0</ele><time>2026-04-26T09:52:20.986Z</time></trkpt><trkpt lat="45.7809001" lon="8.8868944"><ele>338.0</ele><time>2026-04-26T09:52:21.986Z</time></trkpt><trkpt lat="45.7810419" lon="8.8869781"><ele>338.0</ele><time>2026-04-26T09:52:22.986Z</time></trkpt><trkpt lat="45.7811875" lon="8.887064"><ele>338.0</ele><time>2026-04-26T09:52:23.986Z</time></trkpt><trkpt lat="45.7813342" lon="8.8871497"><ele>338.0</ele><time>2026-04-26T09:52:24.985Z</time></trkpt><trkpt lat="45.7814864" lon="8.8872344"><ele>338.0</ele><time>2026-04-26T09:52:25.986Z</time></trkpt><trkpt lat="45.7816408" lon="8.8873221"><ele>338.0</ele><time>2026-04-26T09:52:26.985Z</time></trkpt><trkpt lat="45.7817964" lon="8.8874073"><ele>338.0</ele><time>2026-04-26T09:52:27.986Z</time></trkpt><trkpt lat="45.7819524" lon="8.887489"><ele>340.0</ele><time>2026-04-26T09:52:28.984Z</time></trkpt><trkpt lat="45.7821126" lon="8.8875648"><ele>342.0</ele><time>2026-04-26T09:52:29.985Z</time></trkpt><trkpt lat="45.782276" lon="8.887624"><ele>344.0</ele><time>2026-04-26T09:52:30.985Z</time></trkpt><trkpt lat="45.7824394" lon="8.8876733"><ele>344.0</ele><time>2026-04-26T09:52:31.985Z</time></trkpt><trkpt lat="45.7826062" lon="8.8877023"><ele>344.0</ele><time>2026-04-26T09:52:32.985Z</time></trkpt><trkpt lat="45.78277" lon="8.8877214"><ele>344.0</ele><time>2026-04-26T09:52:33.986Z</time></trkpt><trkpt lat="45.7829365" lon="8.8877401"><ele>339.6666666666667</ele><time>2026-04-26T09:52:34.986Z</time></trkpt><trkpt lat="45.7831009" lon="8.8877314"><ele>335.3333333333333</ele><time>2026-04-26T09:52:35.985Z</time></trkpt><trkpt lat="45.7832606" lon="8.8877127"><ele>331.0</ele><time>2026-04-26T09:52:36.986Z</time></trkpt><trkpt lat="45.7834133" lon="8.8876974"><ele>332.66666666666663</ele><time>2026-04-26T09:52:37.985Z</time></trkpt><trkpt lat="45.7835603" lon="8.8876744"><ele>334.3333333333333</ele><time>2026-04-26T09:52:38.985Z</time></trkpt><trkpt lat="45.7837134" lon="8.8876588"><ele>336.0</ele><time>2026-04-26T09:52:39.985Z</time></trkpt><trkpt lat="45.7838616" lon="8.8876384"><ele>336.0</ele><time>2026-04-26T09:52:40.985Z</time></trkpt><trkpt lat="45.7840112" lon="8.887604"><ele>336.0</ele><time>2026-04-26T09:52:41.984Z</time></trkpt><trkpt lat="45.7841561" lon="8.8875568"><ele>336.0</ele><time>2026-04-26T09:52:42.986Z</time></trkpt><trkpt lat="45.7842994" lon="8.8874937"><ele>340.0</ele><time>2026-04-26T09:52:43.985Z</time></trkpt><trkpt lat="45.7844417" lon="8.8874097"><ele>344.0</ele><time>2026-04-26T09:52:44.986Z</time></trkpt><trkpt lat="45.7845806" lon="8.8873137"><ele>348.0</ele><time>2026-04-26T09:52:45.985Z</time></trkpt><trkpt lat="45.7847145" lon="8.8872091"><ele>348.0</ele><time>2026-04-26T09:52:46.986Z</time></trkpt><trkpt lat="45.78485" lon="8.887101"><ele>348.0</ele><time>2026-04-26T09:52:47.985Z</time></trkpt><trkpt lat="45.7849754" lon="8.8870031"><ele>348.0</ele><time>2026-04-26T09:52:48.984Z</time></trkpt><trkpt lat="45.7851012" lon="8.8869012"><ele>348.0</ele><time>2026-04-26T09:52:49.984Z</time></trkpt><trkpt lat="45.7852175" lon="8.8868316"><ele>348.25</ele><time>2026-04-26T09:52:50.986Z</time></trkpt><trkpt lat="45.7853419" lon="8.8867651"><ele>348.5</ele><time>2026-04-26T09:52:51.985Z</time></trkpt><trkpt lat="45.7854587" lon="8.8867176"><ele>348.75</ele><time>2026-04-26T09:52:52.985Z</time></trkpt><trkpt lat="45.7855749" lon="8.8866788"><ele>349.0</ele><time>2026-04-26T09:52:53.985Z</time></trkpt><trkpt lat="45.7856889" lon="8.8866441"><ele>349.75</ele><time>2026-04-26T09:52:54.985Z</time></trkpt><trkpt lat="45.7858006" lon="8.8866079"><ele>350.5</ele><time>2026-04-26T09:52:55.985Z</time></trkpt><trkpt lat="45.7859139" lon="8.8865639"><ele>351.25</ele><time>2026-04-26T09:52:56.984Z</time></trkpt><trkpt lat="45.7860268" lon="8.8864944"><ele>352.0</ele><time>2026-04-26T09:52:57.984Z</time></trkpt><trkpt lat="45.7861452" lon="8.8864105"><ele>352.5</ele><time>2026-04-26T09:52:58.985Z</time></trkpt><trkpt lat="45.7862545" lon="8.8863062"><ele>353.0</ele><time>2026-04-26T09:52:59.985Z</time></trkpt><trkpt lat="45.7863693" lon="8.8861962"><ele>353.5</ele><time>2026-04-26T09:53:00.986Z</time></trkpt><trkpt lat="45.7864873" lon="8.8860842"><ele>354.0</ele><time>2026-04-26T09:53:01.985Z</time></trkpt><trkpt lat="45.7866002" lon="8.8859719"><ele>353.75</ele><time>2026-04-26T09:53:02.985Z</time></trkpt><trkpt lat="45.7867074" lon="8.8858621"><ele>353.5</ele><time>2026-04-26T09:53:03.986Z</time></trkpt><trkpt lat="45.7868146" lon="8.8857558"><ele>353.25</ele><time>2026-04-26T09:53:04.986Z</time></trkpt><trkpt lat="45.7869117" lon="8.8856586"><ele>353.0</ele><time>2026-04-26T09:53:05.986Z</time></trkpt><trkpt lat="45.7870033" lon="8.8855629"><ele>353.0</ele><time>2026-04-26T09:53:06.985Z</time></trkpt><trkpt lat="45.7870949" lon="8.8854669"><ele>353.0</ele><time>2026-04-26T09:53:07.986Z</time></trkpt><trkpt lat="45.7871833" lon="8.8853717"><ele>353.0</ele><time>2026-04-26T09:53:08.985Z</time></trkpt><trkpt lat="45.7872675" lon="8.8852772"><ele>353.0</ele><time>2026-04-26T09:53:09.985Z</time></trkpt><trkpt lat="45.7873578" lon="8.8851868"><ele>353.0</ele><time>2026-04-26T09:53:10.985Z</time></trkpt><trkpt lat="45.787446" lon="8.8850983"><ele>353.0</ele><time>2026-04-26T09:53:11.986Z</time></trkpt><trkpt lat="45.7875318" lon="8.8850235"><ele>353.0</ele><time>2026-04-26T09:53:12.984Z</time></trkpt><trkpt lat="45.7875966" lon="8.8849506"><ele>353.0</ele><time>2026-04-26T09:53:13.984Z</time></trkpt><trkpt lat="45.7876574" lon="8.8848911"><ele>353.0</ele><time>2026-04-26T09:53:14.986Z</time></trkpt><trkpt lat="45.787751" lon="8.8848244"><ele>353.0</ele><time>2026-04-26T09:53:16.984Z</time></trkpt><trkpt lat="45.787817" lon="8.8847877"><ele>353.0</ele><time>2026-04-26T09:53:19.986Z</time></trkpt><trkpt lat="45.7879002" lon="8.8847842"><ele>353.0</ele><time>2026-04-26T09:53:22.985Z</time></trkpt><trkpt lat="45.7880215" lon="8.8848203"><ele>353.0</ele><time>2026-04-26T09:53:24.985Z</time></trkpt><trkpt lat="45.7880867" lon="8.8848672"><ele>353.0</ele><time>2026-04-26T09:53:25.985Z</time></trkpt><trkpt lat="45.7881445" lon="8.8849449"><ele>353.0</ele><time>2026-04-26T09:53:26.986Z</time></trkpt><trkpt lat="45.7881977" lon="8.8850479"><ele>353.0</ele><time>2026-04-26T09:53:27.986Z</time></trkpt><trkpt lat="45.7882423" lon="8.885171"><ele>353.25</ele><time>2026-04-26T09:53:28.986Z</time></trkpt><trkpt lat="45.788283" lon="8.8853113"><ele>353.5</ele><time>2026-04-26T09:53:29.984Z</time></trkpt><trkpt lat="45.7883187" lon="8.8854706"><ele>353.75</ele><time>2026-04-26T09:53:30.985Z</time></trkpt><trkpt lat="45.7883583" lon="8.8856334"><ele>354.0</ele><time>2026-04-26T09:53:31.985Z</time></trkpt><trkpt lat="45.7883986" lon="8.8857995"><ele>354.0</ele><time>2026-04-26T09:53:32.985Z</time></trkpt><trkpt lat="45.7884369" lon="8.8859738"><ele>354.0</ele><time>2026-04-26T09:53:33.984Z</time></trkpt><trkpt lat="45.7884818" lon="8.8861525"><ele>354.0</ele><time>2026-04-26T09:53:34.985Z</time></trkpt><trkpt lat="45.7885189" lon="8.8863169"><ele>354.0</ele><time>2026-04-26T09:53:35.985Z</time></trkpt><trkpt lat="45.7885581" lon="8.8864809"><ele>354.0</ele><time>2026-04-26T09:53:36.985Z</time></trkpt><trkpt lat="45.7885945" lon="8.8866439"><ele>354.0</ele><time>2026-04-26T09:53:37.984Z</time></trkpt><trkpt lat="45.7886341" lon="8.886806"><ele>354.0</ele><time>2026-04-26T09:53:38.985Z</time></trkpt><trkpt lat="45.7886759" lon="8.8869746"><ele>354.0</ele><time>2026-04-26T09:53:39.985Z</time></trkpt><trkpt lat="45.7887175" lon="8.8871519"><ele>354.0</ele><time>2026-04-26T09:53:40.984Z</time></trkpt><trkpt lat="45.7887623" lon="8.8873323"><ele>354.0</ele><time>2026-04-26T09:53:41.985Z</time></trkpt><trkpt lat="45.7888055" lon="8.8875046"><ele>354.0</ele><time>2026-04-26T09:53:42.986Z</time></trkpt><trkpt lat="45.788847" lon="8.8876772"><ele>354.0</ele><time>2026-04-26T09:53:43.985Z</time></trkpt><trkpt lat="45.7888894" lon="8.8878441"><ele>354.0</ele><time>2026-04-26T09:53:44.985Z</time></trkpt><trkpt lat="45.7889404" lon="8.8879972"><ele>354.0</ele><time>2026-04-26T09:53:45.984Z</time></trkpt><trkpt lat="45.7889904" lon="8.8881573"><ele>354.0</ele><time>2026-04-26T09:53:46.983Z</time></trkpt><trkpt lat="45.7890373" lon="8.8883171"><ele>354.0</ele><time>2026-04-26T09:53:47.985Z</time></trkpt><trkpt lat="45.7890796" lon="8.8884718"><ele>354.0</ele><time>2026-04-26T09:53:48.981Z</time></trkpt><trkpt lat="45.7891294" lon="8.8886287"><ele>354.0</ele><time>2026-04-26T09:53:49.983Z</time></trkpt><trkpt lat="45.7891712" lon="8.8887733"><ele>354.0</ele><time>2026-04-26T09:53:50.985Z</time></trkpt><trkpt lat="45.7892165" lon="8.8889182"><ele>354.0</ele><time>2026-04-26T09:53:51.985Z</time></trkpt><trkpt lat="45.7892575" lon="8.8890546"><ele>354.0</ele><time>2026-04-26T09:53:52.984Z</time></trkpt><trkpt lat="45.7893066" lon="8.889186"><ele>354.1666666666667</ele><time>2026-04-26T09:53:53.984Z</time></trkpt><trkpt lat="45.789352" lon="8.8893154"><ele>354.3333333333333</ele><time>2026-04-26T09:53:54.983Z</time></trkpt><trkpt lat="45.7893888" lon="8.8894309"><ele>354.5</ele><time>2026-04-26T09:53:55.985Z</time></trkpt><trkpt lat="45.7894268" lon="8.8895339"><ele>354.66666666666663</ele><time>2026-04-26T09:53:56.984Z</time></trkpt><trkpt lat="45.7894582" lon="8.8896155"><ele>354.8333333333333</ele><time>2026-04-26T09:53:57.984Z</time></trkpt><trkpt lat="45.7894896" lon="8.889703"><ele>355.0</ele><time>2026-04-26T09:53:59.985Z</time></trkpt><trkpt lat="45.7895228" lon="8.8897826"><ele>355.0</ele><time>2026-04-26T09:54:05.985Z</time></trkpt><trkpt lat="45.7896108" lon="8.889815"><ele>355.0</ele><time>2026-04-26T09:54:07.984Z</time></trkpt><trkpt lat="45.7897126" lon="8.8898225"><ele>355.0</ele><time>2026-04-26T09:54:09.985Z</time></trkpt><trkpt lat="45.7897782" lon="8.8899538"><ele>355.0</ele><time>2026-04-26T09:54:11.985Z</time></trkpt><trkpt lat="45.7898229" lon="8.8900324"><ele>355.0</ele><time>2026-04-26T09:54:12.984Z</time></trkpt><trkpt lat="45.7898702" lon="8.890118"><ele>355.16666666666663</ele><time>2026-04-26T09:54:13.984Z</time></trkpt><trkpt lat="45.7899177" lon="8.890214"><ele>355.3333333333333</ele><time>2026-04-26T09:54:14.984Z</time></trkpt><trkpt lat="45.7899622" lon="8.8903078"><ele>355.5</ele><time>2026-04-26T09:54:15.983Z</time></trkpt><trkpt lat="45.7900053" lon="8.8903884"><ele>355.6666666666667</ele><time>2026-04-26T09:54:16.984Z</time></trkpt><trkpt lat="45.790102" lon="8.8904673"><ele>355.83333333333337</ele><time>2026-04-26T09:54:18.984Z</time></trkpt><trkpt lat="45.7901714" lon="8.8904419"><ele>356.0</ele><time>2026-04-26T09:54:20.983Z</time></trkpt><trkpt lat="45.790255" lon="8.8903555"><ele>356.0</ele><time>2026-04-26T09:54:23.984Z</time></trkpt><trkpt lat="45.7903347" lon="8.8902385"><ele>356.0</ele><time>2026-04-26T09:54:25.984Z</time></trkpt><trkpt lat="45.7903883" lon="8.8901839"><ele>356.0</ele><time>2026-04-26T09:54:26.985Z</time></trkpt><trkpt lat="45.7904477" lon="8.8901364"><ele>356.0</ele><time>2026-04-26T09:54:27.983Z</time></trkpt><trkpt lat="45.7905073" lon="8.8900756"><ele>356.0</ele><time>2026-04-26T09:54:28.983Z</time></trkpt><trkpt lat="45.7905655" lon="8.8900204"><ele>356.0</ele><time>2026-04-26T09:54:29.983Z</time></trkpt><trkpt lat="45.7906263" lon="8.8899635"><ele>356.1666666666667</ele><time>2026-04-26T09:54:30.983Z</time></trkpt><trkpt lat="45.7906936" lon="8.8898801"><ele>356.33333333333337</ele><time>2026-04-26T09:54:32.985Z</time></trkpt><trkpt lat="45.790726" lon="8.889795"><ele>356.5</ele><time>2026-04-26T09:54:34.983Z</time></trkpt><trkpt lat="45.790712" lon="8.8896813"><ele>356.6666666666667</ele><time>2026-04-26T09:54:37.985Z</time></trkpt><trkpt lat="45.7906563" lon="8.8896034"><ele>356.8333333333333</ele><time>2026-04-26T09:54:41.985Z</time></trkpt><trkpt lat="45.7906" lon="8.8896668"><ele>357.0</ele><time>2026-04-26T09:54:43.984Z</time></trkpt><trkpt lat="45.7906172" lon="8.8897578"><ele>357.0</ele><time>2026-04-26T09:54:46.983Z</time></trkpt></trkseg></trk></gpx>